<?xml version='1.0' encoding='UTF-8'?><gpx version="1.1" creator="JPX - https://github.com/jenetics/jpx" xmlns="http://www.topografix.com/GPX/1/1"><trk><trkseg><trkpt lat="43.457357484454775" lon="3.2354160688658897"><ele>128.0</ele><time>2026-04-06T08:38:03.986Z</time></trkpt><trkpt lat="43.45728371939284" lon="3.235396591796682"><ele>128.0</ele><time>2026-04-06T08:38:04.986Z</time></trkpt><trkpt lat="43.457186066478656" lon="3.235400837320529"><ele>128.0</ele><time>2026-04-06T08:38:06.986Z</time></trkpt><trkpt lat="43.45706727772622" lon="3.235407211903562"><ele>128.0</ele><time>2026-04-06T08:38:08.986Z</time></trkpt><trkpt lat="43.457003260784084" lon="3.2354770064607536"><ele>128.0</ele><time>2026-04-06T08:38:10.993Z</time></trkpt><trkpt lat="43.45693494096095" lon="3.235573339085246"><ele>126.60000000000001</ele><time>2026-04-06T08:38:12.994Z</time></trkpt><trkpt lat="43.45689379446758" lon="3.235732599645669"><ele>125.20000000000002</ele><time>2026-04-06T08:38:14.995Z</time></trkpt><trkpt lat="43.45686570674913" lon="3.2359214919162977"><ele>123.8</ele><time>2026-04-06T08:38:16.996Z</time></trkpt><trkpt lat="43.45684913754345" lon="3.2360377274987746"><ele>122.4</ele><time>2026-04-06T08:38:17.996Z</time></trkpt><trkpt lat="43.45683708519442" lon="3.236143180461377"><ele>121.0</ele><time>2026-04-06T08:38:18.996Z</time></trkpt><trkpt lat="43.456823864795886" lon="3.236233218317851"><ele>121.0</ele><time>2026-04-06T08:38:19.997Z</time></trkpt><trkpt lat="43.456825723581304" lon="3.23638628235917"><ele>121.0</ele><time>2026-04-06T08:38:21.997Z</time></trkpt><trkpt lat="43.45685518430036" lon="3.236518049990091"><ele>121.0</ele><time>2026-04-06T08:38:23.998Z</time></trkpt><trkpt lat="43.45691283489371" lon="3.23661788831397"><ele>121.0</ele><time>2026-04-06T08:38:25.998Z</time></trkpt><trkpt lat="43.45696600215601" lon="3.2367085297758913"><ele>121.0</ele><time>2026-04-06T08:38:27.998Z</time></trkpt><trkpt lat="43.457008019021735" lon="3.236776094094784"><ele>121.6</ele><time>2026-04-06T08:38:29.998Z</time></trkpt><trkpt lat="43.45706871091466" lon="3.2368392579657685"><ele>122.19999999999999</ele><time>2026-04-06T08:38:32.999Z</time></trkpt><trkpt lat="43.45714675385165" lon="3.236882846471788"><ele>122.80000000000001</ele><time>2026-04-06T08:38:34.999Z</time></trkpt><trkpt lat="43.457238776509534" lon="3.2369414151482223"><ele>123.4</ele><time>2026-04-06T08:38:37.999Z</time></trkpt><trkpt lat="43.45732284291654" lon="3.2370265299135923"><ele>124.0</ele><time>2026-04-06T08:38:39.999Z</time></trkpt><trkpt lat="43.45740690818512" lon="3.237098642160785"><ele>124.0</ele><time>2026-04-06T08:38:42Z</time></trkpt><trkpt lat="43.457502124119756" lon="3.237172282057363"><ele>124.0</ele><time>2026-04-06T08:38:44Z</time></trkpt><trkpt lat="43.457591000445404" lon="3.2372560359718867"><ele>124.0</ele><time>2026-04-06T08:38:46Z</time></trkpt><trkpt lat="43.457698012936184" lon="3.2373280741528374"><ele>124.0</ele><time>2026-04-06T08:38:48Z</time></trkpt><trkpt lat="43.457809768745946" lon="3.2373679903916446"><ele>122.5</ele><time>2026-04-06T08:38:50Z</time></trkpt><trkpt lat="43.45792101600915" lon="3.237397972542736"><ele>121.0</ele><time>2026-04-06T08:38:52Z</time></trkpt><trkpt lat="43.45803031156515" lon="3.237442799122892"><ele>119.5</ele><time>2026-04-06T08:38:54Z</time></trkpt><trkpt lat="43.45814876361805" lon="3.2374555196824724"><ele>118.0</ele><time>2026-04-06T08:38:56Z</time></trkpt><trkpt lat="43.458258831205846" lon="3.237452311104161"><ele>118.0</ele><time>2026-04-06T08:38:58Z</time></trkpt><trkpt lat="43.45834934009156" lon="3.2374375994114657"><ele>118.00000000000001</ele><time>2026-04-06T08:39:00Z</time></trkpt><trkpt lat="43.458431835911156" lon="3.237412489908881"><ele>118.00000000000001</ele><time>2026-04-06T08:39:02Z</time></trkpt><trkpt lat="43.45852669630023" lon="3.237352185311699"><ele>118.0</ele><time>2026-04-06T08:39:04Z</time></trkpt><trkpt lat="43.458615680008066" lon="3.2372796300654616"><ele>118.0</ele><time>2026-04-06T08:39:06Z</time></trkpt><trkpt lat="43.458704707824886" lon="3.2372057852380145"><ele>118.5</ele><time>2026-04-06T08:39:08Z</time></trkpt><trkpt lat="43.4587897243752" lon="3.237106466201757"><ele>119.0</ele><time>2026-04-06T08:39:10Z</time></trkpt><trkpt lat="43.458874867793085" lon="3.2369937026922466"><ele>119.5</ele><time>2026-04-06T08:39:12Z</time></trkpt><trkpt lat="43.45895447409494" lon="3.236867947724702"><ele>120.0</ele><time>2026-04-06T08:39:14Z</time></trkpt><trkpt lat="43.45902638302016" lon="3.236745618718481"><ele>120.0</ele><time>2026-04-06T08:39:16Z</time></trkpt><trkpt lat="43.45907695227581" lon="3.2366065208555455"><ele>120.0</ele><time>2026-04-06T08:39:18Z</time></trkpt><trkpt lat="43.4591057727796" lon="3.2364638299308965"><ele>120.0</ele><time>2026-04-06T08:39:20Z</time></trkpt><trkpt lat="43.459114339291254" lon="3.2363143927741134"><ele>120.0</ele><time>2026-04-06T08:39:22Z</time></trkpt><trkpt lat="43.459118753957" lon="3.236166200084829"><ele>120.0</ele><time>2026-04-06T08:39:24Z</time></trkpt><trkpt lat="43.45912072396319" lon="3.236018006045716"><ele>121.4</ele><time>2026-04-06T08:39:26Z</time></trkpt><trkpt lat="43.45911695889202" lon="3.235864747337086"><ele>122.8</ele><time>2026-04-06T08:39:28Z</time></trkpt><trkpt lat="43.45909772950557" lon="3.235718447190128"><ele>124.19999999999999</ele><time>2026-04-06T08:39:30Z</time></trkpt><trkpt lat="43.45907715776314" lon="3.2355739052464"><ele>125.6</ele><time>2026-04-06T08:39:32Z</time></trkpt><trkpt lat="43.45905970538386" lon="3.235441213679299"><ele>127.0</ele><time>2026-04-06T08:39:34Z</time></trkpt><trkpt lat="43.459039813252346" lon="3.2353222322409825"><ele>127.16666666666667</ele><time>2026-04-06T08:39:36Z</time></trkpt><trkpt lat="43.45904708221027" lon="3.2352225613069443"><ele>127.33333333333334</ele><time>2026-04-06T08:39:38Z</time></trkpt><trkpt lat="43.45912979680426" lon="3.2352062940175212"><ele>127.5</ele><time>2026-04-06T08:39:40Z</time></trkpt><trkpt lat="43.459209925697905" lon="3.235166026241458"><ele>127.66666666666666</ele><time>2026-04-06T08:39:42Z</time></trkpt><trkpt lat="43.45929544258772" lon="3.23511811235585"><ele>127.83333333333333</ele><time>2026-04-06T08:39:44Z</time></trkpt><trkpt lat="43.459382136771524" lon="3.2350658360887756"><ele>128.0</ele><time>2026-04-06T08:39:46Z</time></trkpt><trkpt lat="43.45947226489732" lon="3.235011606510354"><ele>128.0</ele><time>2026-04-06T08:39:48Z</time></trkpt><trkpt lat="43.45956621926748" lon="3.2349568021145068"><ele>128.0</ele><time>2026-04-06T08:39:50Z</time></trkpt><trkpt lat="43.45966644314423" lon="3.234898340671404"><ele>128.0</ele><time>2026-04-06T08:39:52Z</time></trkpt><trkpt lat="43.45976693646527" lon="3.2348397220336045"><ele>128.0</ele><time>2026-04-06T08:39:54Z</time></trkpt><trkpt lat="43.459869399905344" lon="3.2347807203157175"><ele>128.0</ele><time>2026-04-06T08:39:56Z</time></trkpt><trkpt lat="43.459973241735874" lon="3.23470707962626"><ele>127.4</ele><time>2026-04-06T08:39:58Z</time></trkpt><trkpt lat="43.46006643639192" lon="3.2346100075478454"><ele>126.80000000000001</ele><time>2026-04-06T08:40:00Z</time></trkpt><trkpt lat="43.46015803288874" lon="3.2345193208238996"><ele>126.2</ele><time>2026-04-06T08:40:02Z</time></trkpt><trkpt lat="43.46024744006079" lon="3.2344043500818045"><ele>125.6</ele><time>2026-04-06T08:40:04Z</time></trkpt><trkpt lat="43.46030060710065" lon="3.234356334191259"><ele>125.0</ele><time>2026-04-06T08:40:05Z</time></trkpt><trkpt lat="43.46035877691434" lon="3.234313904992616"><ele>124.99999999999999</ele><time>2026-04-06T08:40:06Z</time></trkpt><trkpt lat="43.46042047493805" lon="3.2342798942247817"><ele>125.0</ele><time>2026-04-06T08:40:07Z</time></trkpt><trkpt lat="43.46048519602455" lon="3.2342639205371952"><ele>125.0</ele><time>2026-04-06T08:40:08Z</time></trkpt><trkpt lat="43.460552232588725" lon="3.2342790195139206"><ele>125.0</ele><time>2026-04-06T08:40:09Z</time></trkpt><trkpt lat="43.460614689182094" lon="3.2343082403749017"><ele>124.99999999999999</ele><time>2026-04-06T08:40:10Z</time></trkpt><trkpt lat="43.46067257107379" lon="3.2343543105473835"><ele>125.0</ele><time>2026-04-06T08:40:11Z</time></trkpt><trkpt lat="43.46077552944528" lon="3.234452141581007"><ele>124.0</ele><time>2026-04-06T08:40:13Z</time></trkpt><trkpt lat="43.46088171712776" lon="3.2345422158533585"><ele>123.0</ele><time>2026-04-06T08:40:15.001Z</time></trkpt><trkpt lat="43.46098657362823" lon="3.2346299111681684"><ele>122.0</ele><time>2026-04-06T08:40:17.001Z</time></trkpt><trkpt lat="43.46110036387589" lon="3.2346585098824763"><ele>121.0</ele><time>2026-04-06T08:40:19.001Z</time></trkpt><trkpt lat="43.461217264280016" lon="3.2346189939883465"><ele>121.0</ele><time>2026-04-06T08:40:21.001Z</time></trkpt><trkpt lat="43.46127880666275" lon="3.234590725530506"><ele>120.99999999999999</ele><time>2026-04-06T08:40:22.001Z</time></trkpt><trkpt lat="43.461342477683026" lon="3.234560799307964"><ele>121.0</ele><time>2026-04-06T08:40:23.001Z</time></trkpt><trkpt lat="43.46140585731458" lon="3.2345250964125776"><ele>121.0</ele><time>2026-04-06T08:40:24.001Z</time></trkpt><trkpt lat="43.46147127438465" lon="3.2344874203102494"><ele>120.99999999999999</ele><time>2026-04-06T08:40:25.001Z</time></trkpt><trkpt lat="43.46153887374401" lon="3.2344481270489207"><ele>121.0</ele><time>2026-04-06T08:40:26.001Z</time></trkpt><trkpt lat="43.46160602557221" lon="3.2344103212735003"><ele>121.0</ele><time>2026-04-06T08:40:27.001Z</time></trkpt><trkpt lat="43.46167592873538" lon="3.2343713205329214"><ele>120.83333333333334</ele><time>2026-04-06T08:40:28.001Z</time></trkpt><trkpt lat="43.461746152141075" lon="3.2343314433311328"><ele>120.66666666666667</ele><time>2026-04-06T08:40:29.001Z</time></trkpt><trkpt lat="43.46181508558798" lon="3.234292444323067"><ele>120.5</ele><time>2026-04-06T08:40:30.001Z</time></trkpt><trkpt lat="43.46188829228184" lon="3.234252350863272"><ele>120.33333333333334</ele><time>2026-04-06T08:40:31.001Z</time></trkpt><trkpt lat="43.46196037476056" lon="3.2342134602654298"><ele>120.16666666666667</ele><time>2026-04-06T08:40:32.001Z</time></trkpt><trkpt lat="43.46203290752558" lon="3.2341719511057443"><ele>120.0</ele><time>2026-04-06T08:40:33.001Z</time></trkpt><trkpt lat="43.46210626091416" lon="3.234130706576261"><ele>119.66666666666667</ele><time>2026-04-06T08:40:34.001Z</time></trkpt><trkpt lat="43.46218075598444" lon="3.2340919459499133"><ele>119.33333333333334</ele><time>2026-04-06T08:40:35.001Z</time></trkpt><trkpt lat="43.46225644950932" lon="3.234052675561065"><ele>119.0</ele><time>2026-04-06T08:40:36.001Z</time></trkpt><trkpt lat="43.46233150125111" lon="3.2340133801835624"><ele>118.66666666666667</ele><time>2026-04-06T08:40:37.001Z</time></trkpt><trkpt lat="43.462406782619595" lon="3.233977528446591"><ele>118.33333333333334</ele><time>2026-04-06T08:40:38.001Z</time></trkpt><trkpt lat="43.4624834921348" lon="3.2339476629076"><ele>118.0</ele><time>2026-04-06T08:40:39.001Z</time></trkpt><trkpt lat="43.46255949336184" lon="3.233914788581918"><ele>117.83333333333334</ele><time>2026-04-06T08:40:40Z</time></trkpt><trkpt lat="43.46263036928137" lon="3.2338689785335593"><ele>117.66666666666667</ele><time>2026-04-06T08:40:41Z</time></trkpt><trkpt lat="43.46271089827702" lon="3.233845286508532"><ele>117.5</ele><time>2026-04-06T08:40:42Z</time></trkpt><trkpt lat="43.46278699803721" lon="3.2338213279860004"><ele>117.33333333333334</ele><time>2026-04-06T08:40:43Z</time></trkpt><trkpt lat="43.46286131988056" lon="3.233795768405295"><ele>117.16666666666667</ele><time>2026-04-06T08:40:44Z</time></trkpt><trkpt lat="43.46293660723096" lon="3.233768307039842"><ele>117.0</ele><time>2026-04-06T08:40:45Z</time></trkpt><trkpt lat="43.46300962279123" lon="3.2337343901911626"><ele>116.66666666666667</ele><time>2026-04-06T08:40:46Z</time></trkpt><trkpt lat="43.46308204576603" lon="3.233696886354519"><ele>116.33333333333334</ele><time>2026-04-06T08:40:47Z</time></trkpt><trkpt lat="43.463153190539145" lon="3.2336599424998362"><ele>116.0</ele><time>2026-04-06T08:40:48Z</time></trkpt><trkpt lat="43.46322730570748" lon="3.2336269110977813"><ele>115.66666666666667</ele><time>2026-04-06T08:40:49Z</time></trkpt><trkpt lat="43.463300166963734" lon="3.233586838283595"><ele>115.33333333333334</ele><time>2026-04-06T08:40:50Z</time></trkpt><trkpt lat="43.463372597732636" lon="3.233547722103565"><ele>115.0</ele><time>2026-04-06T08:40:51Z</time></trkpt><trkpt lat="43.463443350156176" lon="3.2335073554867706"><ele>115.00000000000001</ele><time>2026-04-06T08:40:52Z</time></trkpt><trkpt lat="43.4635152658546" lon="3.233465844477387"><ele>115.0</ele><time>2026-04-06T08:40:53Z</time></trkpt><trkpt lat="43.46358700509348" lon="3.2334294083332837"><ele>115.0</ele><time>2026-04-06T08:40:54Z</time></trkpt><trkpt lat="43.46366196680852" lon="3.233390245812084"><ele>115.0</ele><time>2026-04-06T08:40:55Z</time></trkpt><trkpt lat="43.463736998645196" lon="3.233357701003883"><ele>115.00000000000001</ele><time>2026-04-06T08:40:56Z</time></trkpt><trkpt lat="43.46381220699398" lon="3.2333189949549173"><ele>115.0</ele><time>2026-04-06T08:40:57Z</time></trkpt><trkpt lat="43.463885185865465" lon="3.23327916276101"><ele>115.00000000000001</ele><time>2026-04-06T08:40:58Z</time></trkpt><trkpt lat="43.46395652843542" lon="3.233237100362763"><ele>115.0</ele><time>2026-04-06T08:40:59Z</time></trkpt><trkpt lat="43.46402710405916" lon="3.2331938562132905"><ele>115.0</ele><time>2026-04-06T08:41:00Z</time></trkpt><trkpt lat="43.46410036714332" lon="3.2331507912677124"><ele>115.0</ele><time>2026-04-06T08:41:01Z</time></trkpt><trkpt lat="43.46417081602698" lon="3.233120834890109"><ele>115.00000000000001</ele><time>2026-04-06T08:41:02Z</time></trkpt><trkpt lat="43.46424347258398" lon="3.2330893489308337"><ele>115.0</ele><time>2026-04-06T08:41:03Z</time></trkpt><trkpt lat="43.464314672429516" lon="3.233053013611993"><ele>114.99999999999999</ele><time>2026-04-06T08:41:04Z</time></trkpt><trkpt lat="43.46438450913629" lon="3.233013087679677"><ele>115.0</ele><time>2026-04-06T08:41:05Z</time></trkpt><trkpt lat="43.46445321981966" lon="3.2329760178970934"><ele>114.99999999999999</ele><time>2026-04-06T08:41:06Z</time></trkpt><trkpt lat="43.46452270647172" lon="3.2329383427021687"><ele>114.99999999999999</ele><time>2026-04-06T08:41:07Z</time></trkpt><trkpt lat="43.46458938497466" lon="3.2329018348495113"><ele>115.0</ele><time>2026-04-06T08:41:08Z</time></trkpt><trkpt lat="43.46465496869266" lon="3.232862576970299"><ele>114.99999999999999</ele><time>2026-04-06T08:41:09Z</time></trkpt><trkpt lat="43.46472029375781" lon="3.232824219510095"><ele>114.99999999999999</ele><time>2026-04-06T08:41:10Z</time></trkpt><trkpt lat="43.46478499322201" lon="3.232791810573514"><ele>114.99999999999999</ele><time>2026-04-06T08:41:11Z</time></trkpt><trkpt lat="43.46484867550166" lon="3.2327556712917693"><ele>115.0</ele><time>2026-04-06T08:41:12Z</time></trkpt><trkpt lat="43.46491158821805" lon="3.232721331471728"><ele>114.99999999999999</ele><time>2026-04-06T08:41:13Z</time></trkpt><trkpt lat="43.46497289529299" lon="3.232687453057598"><ele>114.99999999999999</ele><time>2026-04-06T08:41:14Z</time></trkpt><trkpt lat="43.46503482361002" lon="3.2326496224272026"><ele>115.0</ele><time>2026-04-06T08:41:15Z</time></trkpt><trkpt lat="43.46509638323911" lon="3.2326126752233866"><ele>114.99999999999999</ele><time>2026-04-06T08:41:16Z</time></trkpt><trkpt lat="43.465157867374785" lon="3.2325731256376184"><ele>114.99999999999999</ele><time>2026-04-06T08:41:17Z</time></trkpt><trkpt lat="43.46521644490644" lon="3.2325252461853387"><ele>114.99999999999999</ele><time>2026-04-06T08:41:18Z</time></trkpt><trkpt lat="43.46527303917112" lon="3.2324738350947846"><ele>115.0</ele><time>2026-04-06T08:41:19Z</time></trkpt><trkpt lat="43.46532569587948" lon="3.232416945999646"><ele>114.99999999999999</ele><time>2026-04-06T08:41:20Z</time></trkpt><trkpt lat="43.465377949142805" lon="3.2323587791811295"><ele>114.99999999999999</ele><time>2026-04-06T08:41:21Z</time></trkpt><trkpt lat="43.46542556814307" lon="3.232297846485088"><ele>115.0</ele><time>2026-04-06T08:41:22Z</time></trkpt><trkpt lat="43.465469830137586" lon="3.2322334231650185"><ele>114.99999999999999</ele><time>2026-04-06T08:41:23Z</time></trkpt><trkpt lat="43.46551393123412" lon="3.232166368817178"><ele>114.99999999999999</ele><time>2026-04-06T08:41:24Z</time></trkpt><trkpt lat="43.46555864900122" lon="3.2320989945422984"><ele>114.7142857142857</ele><time>2026-04-06T08:41:25Z</time></trkpt><trkpt lat="43.46560324238233" lon="3.2320323283412646"><ele>114.42857142857142</ele><time>2026-04-06T08:41:26Z</time></trkpt><trkpt lat="43.46564736020612" lon="3.2319643435931646"><ele>114.14285714285714</ele><time>2026-04-06T08:41:27Z</time></trkpt><trkpt lat="43.46568834044586" lon="3.2318931826637236"><ele>113.85714285714285</ele><time>2026-04-06T08:41:28Z</time></trkpt><trkpt lat="43.46573029862716" lon="3.231822840398099"><ele>113.57142857142856</ele><time>2026-04-06T08:41:29Z</time></trkpt><trkpt lat="43.46577233504495" lon="3.231752145418"><ele>113.28571428571429</ele><time>2026-04-06T08:41:30Z</time></trkpt><trkpt lat="43.465816279538906" lon="3.2316824471448795"><ele>113.0</ele><time>2026-04-06T08:41:31Z</time></trkpt><trkpt lat="43.4658607856548" lon="3.2316132195081115"><ele>113.0</ele><time>2026-04-06T08:41:32Z</time></trkpt><trkpt lat="43.46590614840693" lon="3.231542544023534"><ele>113.0</ele><time>2026-04-06T08:41:33Z</time></trkpt><trkpt lat="43.465948162109996" lon="3.2314715419014277"><ele>113.0</ele><time>2026-04-06T08:41:34Z</time></trkpt><trkpt lat="43.46599328880333" lon="3.2313996994598204"><ele>113.0</ele><time>2026-04-06T08:41:35Z</time></trkpt><trkpt lat="43.46603958578877" lon="3.231327962940949"><ele>113.0</ele><time>2026-04-06T08:41:36Z</time></trkpt><trkpt lat="43.46608438638966" lon="3.2312577607731163"><ele>113.0</ele><time>2026-04-06T08:41:37Z</time></trkpt><trkpt lat="43.46612885148982" lon="3.2311863154745577"><ele>113.0</ele><time>2026-04-06T08:41:38Z</time></trkpt><trkpt lat="43.46617192068048" lon="3.231115570849666"><ele>113.0</ele><time>2026-04-06T08:41:39Z</time></trkpt><trkpt lat="43.46621596083165" lon="3.231045039081163"><ele>113.0</ele><time>2026-04-06T08:41:40Z</time></trkpt><trkpt lat="43.46625712200055" lon="3.2309734825665175"><ele>113.0</ele><time>2026-04-06T08:41:41Z</time></trkpt><trkpt lat="43.46630178902724" lon="3.230904847447187"><ele>113.0</ele><time>2026-04-06T08:41:42Z</time></trkpt><trkpt lat="43.466345992721315" lon="3.2308396065350773"><ele>113.0</ele><time>2026-04-06T08:41:43Z</time></trkpt><trkpt lat="43.46638824931711" lon="3.230770610744427"><ele>113.0</ele><time>2026-04-06T08:41:44Z</time></trkpt><trkpt lat="43.46643083846416" lon="3.230704024668002"><ele>113.0</ele><time>2026-04-06T08:41:45Z</time></trkpt><trkpt lat="43.466471715110664" lon="3.230637788887791"><ele>114.0</ele><time>2026-04-06T08:41:46Z</time></trkpt><trkpt lat="43.46654998907498" lon="3.230504295423665"><ele>115.00000000000001</ele><time>2026-04-06T08:41:48Z</time></trkpt><trkpt lat="43.46662968700108" lon="3.230396769320969"><ele>116.00000000000001</ele><time>2026-04-06T08:41:50Z</time></trkpt><trkpt lat="43.4666818351137" lon="3.2303045332243574"><ele>117.0</ele><time>2026-04-06T08:41:52Z</time></trkpt><trkpt lat="43.46674905713309" lon="3.2304110409063753"><ele>118.0</ele><time>2026-04-06T08:41:54Z</time></trkpt><trkpt lat="43.46682421966808" lon="3.2305082001522614"><ele>117.33333333333334</ele><time>2026-04-06T08:41:56Z</time></trkpt><trkpt lat="43.46688076185443" lon="3.2306513650820725"><ele>116.66666666666667</ele><time>2026-04-06T08:41:58Z</time></trkpt><trkpt lat="43.46689620172697" lon="3.230738305560695"><ele>116.0</ele><time>2026-04-06T08:41:59Z</time></trkpt><trkpt lat="43.46690407760153" lon="3.23083468921992"><ele>115.33333333333334</ele><time>2026-04-06T08:42:00Z</time></trkpt><trkpt lat="43.46691184272558" lon="3.230927697932532"><ele>114.66666666666667</ele><time>2026-04-06T08:42:01Z</time></trkpt><trkpt lat="43.466933466774655" lon="3.2310155999341625"><ele>114.0</ele><time>2026-04-06T08:42:02Z</time></trkpt><trkpt lat="43.46694806459389" lon="3.231102471281487"><ele>114.0</ele><time>2026-04-06T08:42:03Z</time></trkpt><trkpt lat="43.466960787979005" lon="3.231189612454194"><ele>114.0</ele><time>2026-04-06T08:42:04Z</time></trkpt><trkpt lat="43.46698679110705" lon="3.231352605624077"><ele>114.0</ele><time>2026-04-06T08:42:06Z</time></trkpt><trkpt lat="43.46700590331804" lon="3.2315115306056375"><ele>114.0</ele><time>2026-04-06T08:42:08Z</time></trkpt><trkpt lat="43.467011404970805" lon="3.2316762205151934"><ele>114.0</ele><time>2026-04-06T08:42:10Z</time></trkpt><trkpt lat="43.46703716206714" lon="3.2318357422432102"><ele>114.0</ele><time>2026-04-06T08:42:12Z</time></trkpt><trkpt lat="43.46706534564339" lon="3.231992584769691"><ele>114.0</ele><time>2026-04-06T08:42:14Z</time></trkpt><trkpt lat="43.467077460074144" lon="3.232155161652013"><ele>114.0</ele><time>2026-04-06T08:42:16Z</time></trkpt><trkpt lat="43.467096698568106" lon="3.232308842764317"><ele>114.0</ele><time>2026-04-06T08:42:18Z</time></trkpt><trkpt lat="43.467116120255945" lon="3.2324595988652427"><ele>115.2</ele><time>2026-04-06T08:42:20Z</time></trkpt><trkpt lat="43.46713047445857" lon="3.2326051540815297"><ele>116.4</ele><time>2026-04-06T08:42:22Z</time></trkpt><trkpt lat="43.467128042680834" lon="3.2327493233811406"><ele>117.6</ele><time>2026-04-06T08:42:24Z</time></trkpt><trkpt lat="43.467131988266665" lon="3.2328662451606447"><ele>118.8</ele><time>2026-04-06T08:42:26Z</time></trkpt><trkpt lat="43.46724939564084" lon="3.232925087992296"><ele>120.0</ele><time>2026-04-06T08:42:29Z</time></trkpt><trkpt lat="43.46734072014251" lon="3.2328953192733905"><ele>120.0</ele><time>2026-04-06T08:42:31Z</time></trkpt><trkpt lat="43.46742682039156" lon="3.232871271278781"><ele>120.0</ele><time>2026-04-06T08:42:33Z</time></trkpt><trkpt lat="43.46751268614224" lon="3.232845239883118"><ele>120.0</ele><time>2026-04-06T08:42:35Z</time></trkpt><trkpt lat="43.46760142081711" lon="3.2328272993086014"><ele>120.0</ele><time>2026-04-06T08:42:37Z</time></trkpt><trkpt lat="43.46768811146902" lon="3.232808427839956"><ele>120.0</ele><time>2026-04-06T08:42:39Z</time></trkpt><trkpt lat="43.46776995387128" lon="3.2327867817120417"><ele>120.0</ele><time>2026-04-06T08:42:41Z</time></trkpt><trkpt lat="43.46785322639858" lon="3.232771929238248"><ele>120.0</ele><time>2026-04-06T08:42:43Z</time></trkpt><trkpt lat="43.46793647805892" lon="3.2327593762183104"><ele>120.0</ele><time>2026-04-06T08:42:45Z</time></trkpt><trkpt lat="43.468028336634" lon="3.2327358305102267"><ele>120.0</ele><time>2026-04-06T08:42:47Z</time></trkpt><trkpt lat="43.46812196428253" lon="3.2327171137297737"><ele>120.0</ele><time>2026-04-06T08:42:49Z</time></trkpt><trkpt lat="43.46821387265469" lon="3.232701146964577"><ele>120.0</ele><time>2026-04-06T08:42:51Z</time></trkpt><trkpt lat="43.46830396371419" lon="3.2326805782159718"><ele>120.8</ele><time>2026-04-06T08:42:53Z</time></trkpt><trkpt lat="43.46839971208606" lon="3.2326610978586934"><ele>121.6</ele><time>2026-04-06T08:42:55Z</time></trkpt><trkpt lat="43.46849639652665" lon="3.2326379736806192"><ele>122.4</ele><time>2026-04-06T08:42:57Z</time></trkpt><trkpt lat="43.46859523663806" lon="3.2326128007292367"><ele>123.2</ele><time>2026-04-06T08:42:59Z</time></trkpt><trkpt lat="43.468695994331036" lon="3.232587772648944"><ele>124.0</ele><time>2026-04-06T08:43:01Z</time></trkpt><trkpt lat="43.46880005968669" lon="3.2325612689687597"><ele>124.2</ele><time>2026-04-06T08:43:03Z</time></trkpt><trkpt lat="43.468902785050574" lon="3.2325250409533712"><ele>124.4</ele><time>2026-04-06T08:43:05Z</time></trkpt><trkpt lat="43.46900277472808" lon="3.2324892473617033"><ele>124.6</ele><time>2026-04-06T08:43:07Z</time></trkpt><trkpt lat="43.46910700604041" lon="3.2324500589226077"><ele>124.8</ele><time>2026-04-06T08:43:09Z</time></trkpt><trkpt lat="43.46921546168926" lon="3.2324150139223615"><ele>125.0</ele><time>2026-04-06T08:43:11Z</time></trkpt><trkpt lat="43.469322544622486" lon="3.232376707787654"><ele>125.0</ele><time>2026-04-06T08:43:13Z</time></trkpt><trkpt lat="43.46943235673621" lon="3.232341750702313"><ele>125.0</ele><time>2026-04-06T08:43:15Z</time></trkpt><trkpt lat="43.46953986067936" lon="3.2323089000699516"><ele>125.0</ele><time>2026-04-06T08:43:17Z</time></trkpt><trkpt lat="43.46964892478812" lon="3.232267223248147"><ele>125.0</ele><time>2026-04-06T08:43:19Z</time></trkpt><trkpt lat="43.46975912685425" lon="3.232220842857293"><ele>125.75</ele><time>2026-04-06T08:43:21Z</time></trkpt><trkpt lat="43.46986886381623" lon="3.232179926024743"><ele>126.5</ele><time>2026-04-06T08:43:23Z</time></trkpt><trkpt lat="43.469977636281" lon="3.2321403877429744"><ele>127.25</ele><time>2026-04-06T08:43:25Z</time></trkpt><trkpt lat="43.47008641027596" lon="3.232098057963274"><ele>128.0</ele><time>2026-04-06T08:43:27Z</time></trkpt><trkpt lat="43.4701999434153" lon="3.232080745740775"><ele>128.0</ele><time>2026-04-06T08:43:29Z</time></trkpt><trkpt lat="43.47030834402967" lon="3.2320257087281146"><ele>128.0</ele><time>2026-04-06T08:43:31Z</time></trkpt><trkpt lat="43.470420373118564" lon="3.2319885098240997"><ele>128.0</ele><time>2026-04-06T08:43:33Z</time></trkpt><trkpt lat="43.470530772432255" lon="3.2319448182985795"><ele>128.0</ele><time>2026-04-06T08:43:35Z</time></trkpt><trkpt lat="43.470645706150385" lon="3.231920374138198"><ele>128.5</ele><time>2026-04-06T08:43:37Z</time></trkpt><trkpt lat="43.47075732318675" lon="3.2318796678880677"><ele>129.0</ele><time>2026-04-06T08:43:39Z</time></trkpt><trkpt lat="43.470860947804226" lon="3.231819958733135"><ele>129.5</ele><time>2026-04-06T08:43:41Z</time></trkpt><trkpt lat="43.47096979586227" lon="3.2317860026877514"><ele>130.0</ele><time>2026-04-06T08:43:43Z</time></trkpt><trkpt lat="43.47108097642348" lon="3.231751686329363"><ele>130.0</ele><time>2026-04-06T08:43:45Z</time></trkpt><trkpt lat="43.47119580680687" lon="3.2317316447151385"><ele>130.0</ele><time>2026-04-06T08:43:47Z</time></trkpt><trkpt lat="43.47131050486415" lon="3.231725768283373"><ele>130.0</ele><time>2026-04-06T08:43:49Z</time></trkpt><trkpt lat="43.47142503277155" lon="3.231723734944317"><ele>130.0</ele><time>2026-04-06T08:43:51Z</time></trkpt><trkpt lat="43.47153917287808" lon="3.231722722588175"><ele>130.0</ele><time>2026-04-06T08:43:53Z</time></trkpt><trkpt lat="43.47165029228158" lon="3.231724936138769"><ele>130.0</ele><time>2026-04-06T08:43:55Z</time></trkpt><trkpt lat="43.471768659036584" lon="3.231733528886946"><ele>130.0</ele><time>2026-04-06T08:43:57Z</time></trkpt><trkpt lat="43.47183258926228" lon="3.2317367633975365"><ele>130.0</ele><time>2026-04-06T08:43:58Z</time></trkpt><trkpt lat="43.471898606067036" lon="3.2317376641364923"><ele>130.0</ele><time>2026-04-06T08:43:59Z</time></trkpt><trkpt lat="43.471966650263546" lon="3.2317339083117127"><ele>130.0</ele><time>2026-04-06T08:44:00Z</time></trkpt><trkpt lat="43.47203581200972" lon="3.231755505987298"><ele>129.57142857142858</ele><time>2026-04-06T08:44:01Z</time></trkpt><trkpt lat="43.47210730459658" lon="3.231757838215307"><ele>129.14285714285714</ele><time>2026-04-06T08:44:02Z</time></trkpt><trkpt lat="43.47217879894673" lon="3.231740911712555"><ele>128.71428571428572</ele><time>2026-04-06T08:44:03Z</time></trkpt><trkpt lat="43.472250087598376" lon="3.2317509365405783"><ele>128.28571428571428</ele><time>2026-04-06T08:44:04Z</time></trkpt><trkpt lat="43.472322666165645" lon="3.231763935946689"><ele>127.85714285714286</ele><time>2026-04-06T08:44:05Z</time></trkpt><trkpt lat="43.47239369287835" lon="3.2317816206017866"><ele>127.42857142857143</ele><time>2026-04-06T08:44:06Z</time></trkpt><trkpt lat="43.472465483573686" lon="3.231799242789917"><ele>127.0</ele><time>2026-04-06T08:44:07Z</time></trkpt><trkpt lat="43.47253431894631" lon="3.23181916992914"><ele>127.00000000000001</ele><time>2026-04-06T08:44:08Z</time></trkpt><trkpt lat="43.472600285485996" lon="3.2318434433295273"><ele>127.0</ele><time>2026-04-06T08:44:09Z</time></trkpt><trkpt lat="43.47266137907019" lon="3.23186769549151"><ele>127.0</ele><time>2026-04-06T08:44:10Z</time></trkpt><trkpt lat="43.47277696890989" lon="3.2319025411674955"><ele>127.0</ele><time>2026-04-06T08:44:12Z</time></trkpt><trkpt lat="43.47289747987224" lon="3.231945127969256"><ele>127.00000000000001</ele><time>2026-04-06T08:44:14Z</time></trkpt><trkpt lat="43.47295449707489" lon="3.2319961827724795"><ele>127.0</ele><time>2026-04-06T08:44:15Z</time></trkpt><trkpt lat="43.47299871667919" lon="3.232059166601287"><ele>127.5</ele><time>2026-04-06T08:44:16Z</time></trkpt><trkpt lat="43.47309856347484" lon="3.2321542973658115"><ele>128.0</ele><time>2026-04-06T08:44:18Z</time></trkpt><trkpt lat="43.47320449595326" lon="3.232233368582078"><ele>128.5</ele><time>2026-04-06T08:44:20Z</time></trkpt><trkpt lat="43.47331210381929" lon="3.2323148017794967"><ele>129.0</ele><time>2026-04-06T08:44:22Z</time></trkpt><trkpt lat="43.473413672466414" lon="3.2324095972020532"><ele>129.75</ele><time>2026-04-06T08:44:24Z</time></trkpt><trkpt lat="43.47350508332729" lon="3.2325143328962804"><ele>130.5</ele><time>2026-04-06T08:44:26Z</time></trkpt><trkpt lat="43.473580564547866" lon="3.2326269173536484"><ele>131.25</ele><time>2026-04-06T08:44:28Z</time></trkpt><trkpt lat="43.47363699688834" lon="3.2327144125567613"><ele>132.0</ele><time>2026-04-06T08:44:30Z</time></trkpt><trkpt lat="43.47375868643674" lon="3.232608177324616"><ele>131.5</ele><time>2026-04-06T08:44:31Z</time></trkpt><trkpt lat="43.47386375648964" lon="3.232555499510424"><ele>131.0</ele><time>2026-04-06T08:44:33Z</time></trkpt><trkpt lat="43.473976952191784" lon="3.2325359168639696"><ele>130.5</ele><time>2026-04-06T08:44:35Z</time></trkpt><trkpt lat="43.4740930482232" lon="3.23254016776736"><ele>130.0</ele><time>2026-04-06T08:44:37Z</time></trkpt><trkpt lat="43.47421223732738" lon="3.2325602030992564"><ele>130.0</ele><time>2026-04-06T08:44:39Z</time></trkpt><trkpt lat="43.47433242575996" lon="3.2325831708946575"><ele>130.0</ele><time>2026-04-06T08:44:41Z</time></trkpt><trkpt lat="43.47445653590742" lon="3.23260319634071"><ele>130.0</ele><time>2026-04-06T08:44:43Z</time></trkpt><trkpt lat="43.474519036454836" lon="3.2326158101326614"><ele>130.0</ele><time>2026-04-06T08:44:44Z</time></trkpt><trkpt lat="43.47458395619625" lon="3.232623917939683"><ele>130.0</ele><time>2026-04-06T08:44:45Z</time></trkpt><trkpt lat="43.47464811882791" lon="3.2326317710621435"><ele>130.0</ele><time>2026-04-06T08:44:46Z</time></trkpt><trkpt lat="43.474713018497056" lon="3.2326428375099843"><ele>130.14285714285717</ele><time>2026-04-06T08:44:47Z</time></trkpt><trkpt lat="43.474778071078234" lon="3.2326537542821328"><ele>130.28571428571428</ele><time>2026-04-06T08:44:48Z</time></trkpt><trkpt lat="43.47484337288787" lon="3.2326667278704613"><ele>130.42857142857144</ele><time>2026-04-06T08:44:49Z</time></trkpt><trkpt lat="43.4749086604438" lon="3.2326817920378272"><ele>130.57142857142858</ele><time>2026-04-06T08:44:50Z</time></trkpt><trkpt lat="43.47497332968818" lon="3.23270387923371"><ele>130.71428571428572</ele><time>2026-04-06T08:44:51Z</time></trkpt><trkpt lat="43.475037583793224" lon="3.23272559112493"><ele>130.85714285714286</ele><time>2026-04-06T08:44:52Z</time></trkpt><trkpt lat="43.475100607773726" lon="3.2327549020195354"><ele>131.0</ele><time>2026-04-06T08:44:53Z</time></trkpt><trkpt lat="43.47516093965678" lon="3.2327877132223115"><ele>131.0</ele><time>2026-04-06T08:44:54Z</time></trkpt><trkpt lat="43.475219634761324" lon="3.232824053234466"><ele>131.0</ele><time>2026-04-06T08:44:55Z</time></trkpt><trkpt lat="43.47527698424937" lon="3.232865559337559"><ele>131.0</ele><time>2026-04-06T08:44:56Z</time></trkpt><trkpt lat="43.47533363468502" lon="3.2329098199656303"><ele>131.0</ele><time>2026-04-06T08:44:57Z</time></trkpt><trkpt lat="43.47538925849661" lon="3.2329525243478585"><ele>131.0</ele><time>2026-04-06T08:44:58Z</time></trkpt><trkpt lat="43.475445178320854" lon="3.2329951767110847"><ele>131.0</ele><time>2026-04-06T08:44:59Z</time></trkpt><trkpt lat="43.47550008729235" lon="3.233039417511158"><ele>131.0</ele><time>2026-04-06T08:45:00Z</time></trkpt><trkpt lat="43.47555437785137" lon="3.233085145700327"><ele>131.0</ele><time>2026-04-06T08:45:01Z</time></trkpt><trkpt lat="43.47561027519276" lon="3.2331273988134432"><ele>130.28571428571428</ele><time>2026-04-06T08:45:02Z</time></trkpt><trkpt lat="43.47566694152428" lon="3.2331677296555066"><ele>129.57142857142858</ele><time>2026-04-06T08:45:03Z</time></trkpt><trkpt lat="43.47572261385999" lon="3.233209238689564"><ele>128.85714285714286</ele><time>2026-04-06T08:45:04Z</time></trkpt><trkpt lat="43.47583024095153" lon="3.233298265629283"><ele>128.14285714285714</ele><time>2026-04-06T08:45:06Z</time></trkpt><trkpt lat="43.47588418044426" lon="3.2333451843358887"><ele>127.42857142857143</ele><time>2026-04-06T08:45:07Z</time></trkpt><trkpt lat="43.4759382820264" lon="3.2333909804368166"><ele>126.71428571428572</ele><time>2026-04-06T08:45:08Z</time></trkpt><trkpt lat="43.47599412129567" lon="3.233434971857632"><ele>126.0</ele><time>2026-04-06T08:45:09Z</time></trkpt><trkpt lat="43.47604979454265" lon="3.233478744415505"><ele>126.0</ele><time>2026-04-06T08:45:10Z</time></trkpt><trkpt lat="43.47610497664504" lon="3.2335225984196634"><ele>126.0</ele><time>2026-04-06T08:45:11Z</time></trkpt><trkpt lat="43.4761611511232" lon="3.2335675179127534"><ele>126.0</ele><time>2026-04-06T08:45:12Z</time></trkpt><trkpt lat="43.476216315974305" lon="3.2336136732968064"><ele>126.0</ele><time>2026-04-06T08:45:13Z</time></trkpt><trkpt lat="43.476270741520956" lon="3.233659877427069"><ele>126.0</ele><time>2026-04-06T08:45:14Z</time></trkpt><trkpt lat="43.47632563568738" lon="3.233705282114199"><ele>126.0</ele><time>2026-04-06T08:45:15Z</time></trkpt><trkpt lat="43.47638058519055" lon="3.2337506112206396"><ele>126.0</ele><time>2026-04-06T08:45:16Z</time></trkpt><trkpt lat="43.47643524350067" lon="3.2337939292413003"><ele>126.0</ele><time>2026-04-06T08:45:17Z</time></trkpt><trkpt lat="43.47649107764267" lon="3.233835532151195"><ele>126.83333333333333</ele><time>2026-04-06T08:45:18Z</time></trkpt><trkpt lat="43.47654615893248" lon="3.2338781262173195"><ele>127.66666666666666</ele><time>2026-04-06T08:45:19Z</time></trkpt><trkpt lat="43.47660233765521" lon="3.233919276788771"><ele>128.5</ele><time>2026-04-06T08:45:20Z</time></trkpt><trkpt lat="43.47665767176462" lon="3.2339617030075902"><ele>129.33333333333331</ele><time>2026-04-06T08:45:21Z</time></trkpt><trkpt lat="43.47676360358941" lon="3.234055960423964"><ele>130.16666666666666</ele><time>2026-04-06T08:45:23Z</time></trkpt><trkpt lat="43.476873818027315" lon="3.2341361517069807"><ele>131.0</ele><time>2026-04-06T08:45:25Z</time></trkpt><trkpt lat="43.4769857235961" lon="3.234205478025802"><ele>131.0</ele><time>2026-04-06T08:45:27Z</time></trkpt><trkpt lat="43.47709739780018" lon="3.2342405357463573"><ele>131.0</ele><time>2026-04-06T08:45:29Z</time></trkpt><trkpt lat="43.477211348390824" lon="3.234254319797004"><ele>131.0</ele><time>2026-04-06T08:45:31Z</time></trkpt><trkpt lat="43.477328590669686" lon="3.234242521026584"><ele>131.0</ele><time>2026-04-06T08:45:33Z</time></trkpt><trkpt lat="43.47744647710015" lon="3.2342116080681946"><ele>132.0</ele><time>2026-04-06T08:45:35Z</time></trkpt><trkpt lat="43.477567752654736" lon="3.2341753034044025"><ele>133.0</ele><time>2026-04-06T08:45:37Z</time></trkpt><trkpt lat="43.477629844761374" lon="3.2341543463688045"><ele>134.0</ele><time>2026-04-06T08:45:38Z</time></trkpt><trkpt lat="43.47769295642689" lon="3.234132627690382"><ele>135.0</ele><time>2026-04-06T08:45:39Z</time></trkpt><trkpt lat="43.477756812997825" lon="3.234110244555377"><ele>136.0</ele><time>2026-04-06T08:45:40Z</time></trkpt><trkpt lat="43.477822334895286" lon="3.234093435331575"><ele>137.0</ele><time>2026-04-06T08:45:41Z</time></trkpt><trkpt lat="43.47788874628675" lon="3.234077942385904"><ele>136.2857142857143</ele><time>2026-04-06T08:45:42Z</time></trkpt><trkpt lat="43.47795625061331" lon="3.234065422513885"><ele>135.57142857142858</ele><time>2026-04-06T08:45:43Z</time></trkpt><trkpt lat="43.478024778279" lon="3.234055313910252"><ele>134.85714285714286</ele><time>2026-04-06T08:45:44Z</time></trkpt><trkpt lat="43.47809513245537" lon="3.2340525179218176"><ele>134.14285714285717</ele><time>2026-04-06T08:45:45Z</time></trkpt><trkpt lat="43.478166282456556" lon="3.2340531067976324"><ele>133.42857142857144</ele><time>2026-04-06T08:45:46Z</time></trkpt><trkpt lat="43.47823868877348" lon="3.2340556117612884"><ele>132.71428571428572</ele><time>2026-04-06T08:45:47Z</time></trkpt><trkpt lat="43.4783103592221" lon="3.234059974025681"><ele>132.0</ele><time>2026-04-06T08:45:48Z</time></trkpt><trkpt lat="43.47838248505901" lon="3.2340679310413374"><ele>132.0</ele><time>2026-04-06T08:45:49Z</time></trkpt><trkpt lat="43.47845343971032" lon="3.234086818404735"><ele>132.0</ele><time>2026-04-06T08:45:50Z</time></trkpt><trkpt lat="43.478522976224106" lon="3.234106735115072"><ele>132.0</ele><time>2026-04-06T08:45:51Z</time></trkpt><trkpt lat="43.47859130994187" lon="3.234131148371761"><ele>132.0</ele><time>2026-04-06T08:45:52Z</time></trkpt><trkpt lat="43.47865877902398" lon="3.2341586898262635"><ele>132.0</ele><time>2026-04-06T08:45:53Z</time></trkpt><trkpt lat="43.47872376943187" lon="3.2341912054966366"><ele>132.0</ele><time>2026-04-06T08:45:54Z</time></trkpt><trkpt lat="43.47878760831756" lon="3.2342253242589423"><ele>132.0</ele><time>2026-04-06T08:45:55Z</time></trkpt><trkpt lat="43.47884906504358" lon="3.234265372417823"><ele>131.71428571428572</ele><time>2026-04-06T08:45:56Z</time></trkpt><trkpt lat="43.478907727769055" lon="3.2343079824666288"><ele>131.42857142857144</ele><time>2026-04-06T08:45:57Z</time></trkpt><trkpt lat="43.47896715134671" lon="3.234353155085014"><ele>131.14285714285717</ele><time>2026-04-06T08:45:58Z</time></trkpt><trkpt lat="43.47902395198566" lon="3.234403993404298"><ele>130.85714285714286</ele><time>2026-04-06T08:45:59Z</time></trkpt><trkpt lat="43.479077937576164" lon="3.2344564268536184"><ele>130.57142857142858</ele><time>2026-04-06T08:46:00Z</time></trkpt><trkpt lat="43.47913026918219" lon="3.2345110276171725"><ele>130.2857142857143</ele><time>2026-04-06T08:46:01Z</time></trkpt><trkpt lat="43.47918116489027" lon="3.2345669596856825"><ele>130.0</ele><time>2026-04-06T08:46:02Z</time></trkpt><trkpt lat="43.479226935910404" lon="3.234628976939805"><ele>130.0</ele><time>2026-04-06T08:46:03Z</time></trkpt><trkpt lat="43.479269140192386" lon="3.234694181261242"><ele>130.0</ele><time>2026-04-06T08:46:04Z</time></trkpt><trkpt lat="43.47935882339667" lon="3.2348144618582073"><ele>130.0</ele><time>2026-04-06T08:46:06Z</time></trkpt><trkpt lat="43.47944902505194" lon="3.2349313649897855"><ele>130.0</ele><time>2026-04-06T08:46:08Z</time></trkpt><trkpt lat="43.47953503890818" lon="3.2350503330506513"><ele>130.0</ele><time>2026-04-06T08:46:10Z</time></trkpt><trkpt lat="43.47962054067825" lon="3.235168473577193"><ele>129.75</ele><time>2026-04-06T08:46:12Z</time></trkpt><trkpt lat="43.479707896807895" lon="3.2352848691648175"><ele>129.5</ele><time>2026-04-06T08:46:14Z</time></trkpt><trkpt lat="43.47979531267668" lon="3.235402899630308"><ele>129.25</ele><time>2026-04-06T08:46:16Z</time></trkpt><trkpt lat="43.47988213376274" lon="3.235522728916522"><ele>129.0</ele><time>2026-04-06T08:46:18Z</time></trkpt><trkpt lat="43.47997087411845" lon="3.2356387170084475"><ele>129.7142857142857</ele><time>2026-04-06T08:46:20Z</time></trkpt><trkpt lat="43.48006207887347" lon="3.2357557631246294"><ele>130.42857142857142</ele><time>2026-04-06T08:46:22Z</time></trkpt><trkpt lat="43.48010981423297" lon="3.235812718455449"><ele>131.14285714285714</ele><time>2026-04-06T08:46:23Z</time></trkpt><trkpt lat="43.480156319038336" lon="3.235873057811546"><ele>131.85714285714283</ele><time>2026-04-06T08:46:24Z</time></trkpt><trkpt lat="43.480199458166105" lon="3.2359385763156285"><ele>132.57142857142856</ele><time>2026-04-06T08:46:25Z</time></trkpt><trkpt lat="43.480242387688946" lon="3.236003217991472"><ele>133.28571428571428</ele><time>2026-04-06T08:46:26Z</time></trkpt><trkpt lat="43.48028733205031" lon="3.2360661342874177"><ele>134.0</ele><time>2026-04-06T08:46:27Z</time></trkpt><trkpt lat="43.48033278095649" lon="3.2361274101922133"><ele>134.0</ele><time>2026-04-06T08:46:28Z</time></trkpt><trkpt lat="43.480424237033574" lon="3.2362440314634155"><ele>134.0</ele><time>2026-04-06T08:46:30Z</time></trkpt><trkpt lat="43.48051182160801" lon="3.236363662011944"><ele>134.0</ele><time>2026-04-06T08:46:32Z</time></trkpt><trkpt lat="43.48060104454056" lon="3.236482713478362"><ele>134.0</ele><time>2026-04-06T08:46:34Z</time></trkpt><trkpt lat="43.48069336145023" lon="3.236598156586676"><ele>134.2</ele><time>2026-04-06T08:46:36Z</time></trkpt><trkpt lat="43.4807417492101" lon="3.236654019779224"><ele>134.4</ele><time>2026-04-06T08:46:37Z</time></trkpt><trkpt lat="43.480845098870525" lon="3.2367487123809555"><ele>134.6</ele><time>2026-04-06T08:46:39Z</time></trkpt><trkpt lat="43.48095943363768" lon="3.236818581069597"><ele>134.8</ele><time>2026-04-06T08:46:41Z</time></trkpt><trkpt lat="43.48102070287669" lon="3.2368458785226606"><ele>135.0</ele><time>2026-04-06T08:46:42Z</time></trkpt><trkpt lat="43.48114270775599" lon="3.236889906442502"><ele>135.0</ele><time>2026-04-06T08:46:44Z</time></trkpt><trkpt lat="43.48120500210293" lon="3.2369073337155863"><ele>135.0</ele><time>2026-04-06T08:46:45Z</time></trkpt><trkpt lat="43.48133105420858" lon="3.236926578829138"><ele>135.0</ele><time>2026-04-06T08:46:47Z</time></trkpt><trkpt lat="43.48139546503936" lon="3.2369340440046415"><ele>135.0</ele><time>2026-04-06T08:46:48Z</time></trkpt><trkpt lat="43.4814614364619" lon="3.2369371605105908"><ele>135.0</ele><time>2026-04-06T08:46:49Z</time></trkpt><trkpt lat="43.481529253597486" lon="3.236943488302983"><ele>135.0</ele><time>2026-04-06T08:46:50Z</time></trkpt><trkpt lat="43.481598075971064" lon="3.236949926813863"><ele>134.42857142857142</ele><time>2026-04-06T08:46:51Z</time></trkpt><trkpt lat="43.48166598528468" lon="3.236956677464686"><ele>133.85714285714283</ele><time>2026-04-06T08:46:52Z</time></trkpt><trkpt lat="43.481735820975615" lon="3.2369645624241628"><ele>133.28571428571428</ele><time>2026-04-06T08:46:53Z</time></trkpt><trkpt lat="43.48180563575464" lon="3.2369720011851766"><ele>132.71428571428572</ele><time>2026-04-06T08:46:54Z</time></trkpt><trkpt lat="43.481875627451366" lon="3.2369804314593957"><ele>132.14285714285717</ele><time>2026-04-06T08:46:55Z</time></trkpt><trkpt lat="43.481945527279585" lon="3.2369884179797466"><ele>131.57142857142858</ele><time>2026-04-06T08:46:56Z</time></trkpt><trkpt lat="43.48201605768623" lon="3.236993729575747"><ele>131.0</ele><time>2026-04-06T08:46:57Z</time></trkpt><trkpt lat="43.482085949255136" lon="3.2369997427779995"><ele>130.85714285714286</ele><time>2026-04-06T08:46:58Z</time></trkpt><trkpt lat="43.482155909610974" lon="3.2370063104150666"><ele>130.71428571428572</ele><time>2026-04-06T08:46:59Z</time></trkpt><trkpt lat="43.48222638408769" lon="3.2370113757527266"><ele>130.57142857142858</ele><time>2026-04-06T08:47:00Z</time></trkpt><trkpt lat="43.48229562286231" lon="3.2370149732939986"><ele>130.42857142857144</ele><time>2026-04-06T08:47:01Z</time></trkpt><trkpt lat="43.482364703624185" lon="3.237015449790366"><ele>130.28571428571428</ele><time>2026-04-06T08:47:02Z</time></trkpt><trkpt lat="43.482434333898176" lon="3.237012910589366"><ele>130.14285714285717</ele><time>2026-04-06T08:47:03Z</time></trkpt><trkpt lat="43.482503695084546" lon="3.2370070157694757"><ele>130.0</ele><time>2026-04-06T08:47:04Z</time></trkpt><trkpt lat="43.482572481423425" lon="3.2369998049489874"><ele>130.00000000000003</ele><time>2026-04-06T08:47:05Z</time></trkpt><trkpt lat="43.48263937947709" lon="3.23698901582234"><ele>130.0</ele><time>2026-04-06T08:47:06Z</time></trkpt><trkpt lat="43.48270480016621" lon="3.2369714319196303"><ele>130.0</ele><time>2026-04-06T08:47:07Z</time></trkpt><trkpt lat="43.48277051027999" lon="3.2369497631615514"><ele>130.0</ele><time>2026-04-06T08:47:08Z</time></trkpt><trkpt lat="43.482835226645115" lon="3.2369245568404676"><ele>130.0</ele><time>2026-04-06T08:47:09Z</time></trkpt><trkpt lat="43.48289846521625" lon="3.2368983990650864"><ele>130.00000000000003</ele><time>2026-04-06T08:47:10Z</time></trkpt><trkpt lat="43.48296046381097" lon="3.236872047925153"><ele>130.0</ele><time>2026-04-06T08:47:11Z</time></trkpt><trkpt lat="43.48302125167736" lon="3.236845698654755"><ele>130.0</ele><time>2026-04-06T08:47:12Z</time></trkpt><trkpt lat="43.48308206452179" lon="3.236820310485253"><ele>130.0</ele><time>2026-04-06T08:47:13Z</time></trkpt><trkpt lat="43.48314317297622" lon="3.2367985358356495"><ele>130.0</ele><time>2026-04-06T08:47:14Z</time></trkpt><trkpt lat="43.4832616192027" lon="3.236750822081834"><ele>130.0</ele><time>2026-04-06T08:47:16Z</time></trkpt><trkpt lat="43.483379998743075" lon="3.236699888493962"><ele>130.0</ele><time>2026-04-06T08:47:18Z</time></trkpt><trkpt lat="43.4834985848599" lon="3.2366513804154664"><ele>130.0</ele><time>2026-04-06T08:47:20Z</time></trkpt><trkpt lat="43.48361737553576" lon="3.2365998967418594"><ele>130.0</ele><time>2026-04-06T08:47:22Z</time></trkpt><trkpt lat="43.48367737123042" lon="3.2365719028515523"><ele>130.0</ele><time>2026-04-06T08:47:23Z</time></trkpt><trkpt lat="43.48373688689709" lon="3.236543409798936"><ele>130.0</ele><time>2026-04-06T08:47:24Z</time></trkpt><trkpt lat="43.48379757789779" lon="3.2365183761876435"><ele>130.0</ele><time>2026-04-06T08:47:25Z</time></trkpt><trkpt lat="43.48391794939413" lon="3.2364766736760826"><ele>130.0</ele><time>2026-04-06T08:47:27Z</time></trkpt><trkpt lat="43.48403812372755" lon="3.2364287785368933"><ele>130.8</ele><time>2026-04-06T08:47:29Z</time></trkpt><trkpt lat="43.48409872698599" lon="3.236400394300554"><ele>131.6</ele><time>2026-04-06T08:47:30Z</time></trkpt><trkpt lat="43.48421733908328" lon="3.236342481133905"><ele>132.4</ele><time>2026-04-06T08:47:32Z</time></trkpt><trkpt lat="43.48433945445135" lon="3.2363002439672854"><ele>133.2</ele><time>2026-04-06T08:47:34Z</time></trkpt><trkpt lat="43.484458830208325" lon="3.236256382635096"><ele>134.0</ele><time>2026-04-06T08:47:36Z</time></trkpt><trkpt lat="43.48457636473179" lon="3.2362047930744304"><ele>135.25</ele><time>2026-04-06T08:47:38Z</time></trkpt><trkpt lat="43.48469529104085" lon="3.2361578909447872"><ele>136.5</ele><time>2026-04-06T08:47:40Z</time></trkpt><trkpt lat="43.48481257187915" lon="3.2361074262198004"><ele>137.75</ele><time>2026-04-06T08:47:42Z</time></trkpt><trkpt lat="43.48493044227296" lon="3.236060202436707"><ele>139.0</ele><time>2026-04-06T08:47:44Z</time></trkpt><trkpt lat="43.485046211436426" lon="3.2360160029221126"><ele>139.0</ele><time>2026-04-06T08:47:46Z</time></trkpt><trkpt lat="43.485162168879945" lon="3.2359634485954096"><ele>139.0</ele><time>2026-04-06T08:47:48Z</time></trkpt><trkpt lat="43.485278681015075" lon="3.235916490555574"><ele>139.0</ele><time>2026-04-06T08:47:50Z</time></trkpt><trkpt lat="43.48539318392126" lon="3.2358686305426314"><ele>139.0</ele><time>2026-04-06T08:47:52Z</time></trkpt><trkpt lat="43.485507380280374" lon="3.2358213681019277"><ele>139.75</ele><time>2026-04-06T08:47:54Z</time></trkpt><trkpt lat="43.48562222706793" lon="3.2357755779797244"><ele>140.5</ele><time>2026-04-06T08:47:56Z</time></trkpt><trkpt lat="43.48573649264455" lon="3.2357303641919293"><ele>141.25</ele><time>2026-04-06T08:47:58Z</time></trkpt><trkpt lat="43.485849484654736" lon="3.2356843301124925"><ele>142.0</ele><time>2026-04-06T08:48:00Z</time></trkpt><trkpt lat="43.48596364343684" lon="3.235650847838487"><ele>142.75</ele><time>2026-04-06T08:48:02Z</time></trkpt><trkpt lat="43.48607929390491" lon="3.2356287633288874"><ele>143.5</ele><time>2026-04-06T08:48:04Z</time></trkpt><trkpt lat="43.486194205394185" lon="3.2356212235437916"><ele>144.25</ele><time>2026-04-06T08:48:06Z</time></trkpt><trkpt lat="43.48630647716485" lon="3.2356184831406285"><ele>145.0</ele><time>2026-04-06T08:48:08Z</time></trkpt><trkpt lat="43.48641985448969" lon="3.235619880766946"><ele>145.5</ele><time>2026-04-06T08:48:10Z</time></trkpt><trkpt lat="43.48653106754634" lon="3.235626646173255"><ele>146.0</ele><time>2026-04-06T08:48:12Z</time></trkpt><trkpt lat="43.48664494820965" lon="3.235633815864876"><ele>146.5</ele><time>2026-04-06T08:48:14Z</time></trkpt><trkpt lat="43.48675814216706" lon="3.2356477960273073"><ele>147.0</ele><time>2026-04-06T08:48:16Z</time></trkpt><trkpt lat="43.486870691431456" lon="3.235657865356052"><ele>147.0</ele><time>2026-04-06T08:48:18Z</time></trkpt><trkpt lat="43.48697425928947" lon="3.235663747797966"><ele>147.0</ele><time>2026-04-06T08:48:20Z</time></trkpt><trkpt lat="43.487075161868404" lon="3.2356770260330316"><ele>147.0</ele><time>2026-04-06T08:48:22Z</time></trkpt><trkpt lat="43.487180781296345" lon="3.235691228750881"><ele>147.0</ele><time>2026-04-06T08:48:24Z</time></trkpt><trkpt lat="43.487289038776375" lon="3.2356950133411977"><ele>147.0</ele><time>2026-04-06T08:48:26Z</time></trkpt><trkpt lat="43.48740043418372" lon="3.235708841131835"><ele>148.0</ele><time>2026-04-06T08:48:28Z</time></trkpt><trkpt lat="43.487514886180755" lon="3.235715079231312"><ele>149.0</ele><time>2026-04-06T08:48:30Z</time></trkpt><trkpt lat="43.4876285935483" lon="3.2357245109978776"><ele>150.0</ele><time>2026-04-06T08:48:32Z</time></trkpt><trkpt lat="43.48774536127765" lon="3.235735646856764"><ele>151.0</ele><time>2026-04-06T08:48:34Z</time></trkpt><trkpt lat="43.487859706654824" lon="3.235743027179182"><ele>152.0</ele><time>2026-04-06T08:48:36Z</time></trkpt><trkpt lat="43.487975675371885" lon="3.2357499399184215"><ele>153.0</ele><time>2026-04-06T08:48:38Z</time></trkpt><trkpt lat="43.488089035572905" lon="3.235758712037084"><ele>154.0</ele><time>2026-04-06T08:48:40Z</time></trkpt><trkpt lat="43.48820357653358" lon="3.235773560989844"><ele>155.0</ele><time>2026-04-06T08:48:42Z</time></trkpt><trkpt lat="43.488316860604456" lon="3.2357821364121846"><ele>155.0</ele><time>2026-04-06T08:48:44Z</time></trkpt><trkpt lat="43.48842903144779" lon="3.2357901675273775"><ele>155.0</ele><time>2026-04-06T08:48:46Z</time></trkpt><trkpt lat="43.48854204226745" lon="3.235801875015736"><ele>155.0</ele><time>2026-04-06T08:48:48Z</time></trkpt><trkpt lat="43.4886553283807" lon="3.235809696315519"><ele>155.0</ele><time>2026-04-06T08:48:50Z</time></trkpt><trkpt lat="43.48876708142938" lon="3.2358224700930505"><ele>155.75</ele><time>2026-04-06T08:48:52Z</time></trkpt><trkpt lat="43.48888103317899" lon="3.2358351782019077"><ele>156.5</ele><time>2026-04-06T08:48:54Z</time></trkpt><trkpt lat="43.48899144785546" lon="3.2358510282938853"><ele>157.25</ele><time>2026-04-06T08:48:56Z</time></trkpt><trkpt lat="43.48910339264438" lon="3.2358751662741168"><ele>158.0</ele><time>2026-04-06T08:48:58Z</time></trkpt><trkpt lat="43.48921553589534" lon="3.235898456803543"><ele>158.0</ele><time>2026-04-06T08:49:00Z</time></trkpt><trkpt lat="43.48932476565415" lon="3.2359225287545104"><ele>158.0</ele><time>2026-04-06T08:49:02Z</time></trkpt><trkpt lat="43.489432021264406" lon="3.2359543443990293"><ele>158.0</ele><time>2026-04-06T08:49:04Z</time></trkpt><trkpt lat="43.48954275222192" lon="3.2359888389902793"><ele>158.0</ele><time>2026-04-06T08:49:06Z</time></trkpt><trkpt lat="43.48964880313704" lon="3.2360231416298424"><ele>158.0</ele><time>2026-04-06T08:49:08Z</time></trkpt><trkpt lat="43.48975769539962" lon="3.236049639440464"><ele>158.4</ele><time>2026-04-06T08:49:10Z</time></trkpt><trkpt lat="43.48985987748244" lon="3.2360874845375354"><ele>158.8</ele><time>2026-04-06T08:49:12Z</time></trkpt><trkpt lat="43.48996068830958" lon="3.2361126382035748"><ele>159.2</ele><time>2026-04-06T08:49:14Z</time></trkpt><trkpt lat="43.49005981100722" lon="3.2361430624746967"><ele>159.6</ele><time>2026-04-06T08:49:16Z</time></trkpt><trkpt lat="43.49016139730423" lon="3.2361769310937416"><ele>160.0</ele><time>2026-04-06T08:49:18Z</time></trkpt><trkpt lat="43.49026335948647" lon="3.2362096576325015"><ele>160.0</ele><time>2026-04-06T08:49:20Z</time></trkpt><trkpt lat="43.49036690535947" lon="3.236232615777918"><ele>160.0</ele><time>2026-04-06T08:49:22Z</time></trkpt><trkpt lat="43.490466821316474" lon="3.2362642903180987"><ele>160.0</ele><time>2026-04-06T08:49:24Z</time></trkpt><trkpt lat="43.49056695270131" lon="3.2362908780502146"><ele>160.0</ele><time>2026-04-06T08:49:26Z</time></trkpt><trkpt lat="43.490672529328855" lon="3.236314809542945"><ele>160.0</ele><time>2026-04-06T08:49:28Z</time></trkpt><trkpt lat="43.49077541942135" lon="3.236353782003627"><ele>160.2</ele><time>2026-04-06T08:49:30Z</time></trkpt><trkpt lat="43.490882346919335" lon="3.2363877853601566"><ele>160.4</ele><time>2026-04-06T08:49:32Z</time></trkpt><trkpt lat="43.49099113351364" lon="3.23641328940129"><ele>160.60000000000002</ele><time>2026-04-06T08:49:34Z</time></trkpt><trkpt lat="43.4910994706139" lon="3.236445386858868"><ele>160.8</ele><time>2026-04-06T08:49:36Z</time></trkpt><trkpt lat="43.49120530257288" lon="3.2364813263691117"><ele>161.0</ele><time>2026-04-06T08:49:38Z</time></trkpt><trkpt lat="43.49131465317615" lon="3.23651181650201"><ele>161.8</ele><time>2026-04-06T08:49:40Z</time></trkpt><trkpt lat="43.491426370961214" lon="3.2365429053064703"><ele>162.60000000000002</ele><time>2026-04-06T08:49:42Z</time></trkpt><trkpt lat="43.49153374851949" lon="3.2365717094802924"><ele>163.4</ele><time>2026-04-06T08:49:44Z</time></trkpt><trkpt lat="43.49163777415615" lon="3.236607104857414"><ele>164.2</ele><time>2026-04-06T08:49:46Z</time></trkpt><trkpt lat="43.49174200588723" lon="3.236643227811473"><ele>165.0</ele><time>2026-04-06T08:49:48Z</time></trkpt><trkpt lat="43.491847759448405" lon="3.2366688251476594"><ele>165.0</ele><time>2026-04-06T08:49:50Z</time></trkpt><trkpt lat="43.49195521841512" lon="3.2366988175961837"><ele>165.0</ele><time>2026-04-06T08:49:52Z</time></trkpt><trkpt lat="43.49206170534942" lon="3.236732391338149"><ele>165.0</ele><time>2026-04-06T08:49:54Z</time></trkpt><trkpt lat="43.492170109067914" lon="3.236760296473971"><ele>165.0</ele><time>2026-04-06T08:49:56Z</time></trkpt><trkpt lat="43.49227593873044" lon="3.2367932183927084"><ele>165.0</ele><time>2026-04-06T08:49:58Z</time></trkpt><trkpt lat="43.49238163758329" lon="3.2368310146555426"><ele>166.2</ele><time>2026-04-06T08:50:00Z</time></trkpt><trkpt lat="43.492487169607344" lon="3.236855697297476"><ele>167.4</ele><time>2026-04-06T08:50:02Z</time></trkpt><trkpt lat="43.492594001558636" lon="3.2368816758069543"><ele>168.60000000000002</ele><time>2026-04-06T08:50:04Z</time></trkpt><trkpt lat="43.492698706708424" lon="3.2369199839027605"><ele>169.8</ele><time>2026-04-06T08:50:06Z</time></trkpt><trkpt lat="43.49280616144862" lon="3.236952368289764"><ele>171.0</ele><time>2026-04-06T08:50:08Z</time></trkpt><trkpt lat="43.492910852719305" lon="3.2369808719225204"><ele>172.0</ele><time>2026-04-06T08:50:10Z</time></trkpt><trkpt lat="43.493014844174304" lon="3.2370130373279036"><ele>173.0</ele><time>2026-04-06T08:50:12Z</time></trkpt><trkpt lat="43.49312205504202" lon="3.237043635476144"><ele>174.0</ele><time>2026-04-06T08:50:14Z</time></trkpt><trkpt lat="43.493229551642614" lon="3.2370729675145147"><ele>175.0</ele><time>2026-04-06T08:50:16Z</time></trkpt><trkpt lat="43.49333402405701" lon="3.2371009108361357"><ele>176.0</ele><time>2026-04-06T08:50:18Z</time></trkpt><trkpt lat="43.493438635722335" lon="3.2371310968196476"><ele>176.0</ele><time>2026-04-06T08:50:20Z</time></trkpt><trkpt lat="43.49354116472401" lon="3.2371632876740257"><ele>176.0</ele><time>2026-04-06T08:50:22Z</time></trkpt><trkpt lat="43.49364664086967" lon="3.237191781943788"><ele>176.0</ele><time>2026-04-06T08:50:24Z</time></trkpt><trkpt lat="43.49374942281056" lon="3.237221847804135"><ele>176.0</ele><time>2026-04-06T08:50:26Z</time></trkpt><trkpt lat="43.493848319111684" lon="3.237255151681429"><ele>176.0</ele><time>2026-04-06T08:50:28Z</time></trkpt><trkpt lat="43.493941323105574" lon="3.2372795011498194"><ele>177.0</ele><time>2026-04-06T08:50:30Z</time></trkpt><trkpt lat="43.49403012302392" lon="3.2373069603573326"><ele>178.0</ele><time>2026-04-06T08:50:32Z</time></trkpt><trkpt lat="43.494117518251905" lon="3.2373330275948824"><ele>179.0</ele><time>2026-04-06T08:50:34Z</time></trkpt><trkpt lat="43.49420654060049" lon="3.2373535874893435"><ele>180.0</ele><time>2026-04-06T08:50:36Z</time></trkpt><trkpt lat="43.49429721852614" lon="3.237375747743978"><ele>181.0</ele><time>2026-04-06T08:50:38Z</time></trkpt><trkpt lat="43.49439245604609" lon="3.237398479478848"><ele>181.0</ele><time>2026-04-06T08:50:40Z</time></trkpt><trkpt lat="43.494487427630375" lon="3.2374097128040145"><ele>181.0</ele><time>2026-04-06T08:50:42Z</time></trkpt><trkpt lat="43.49458430848189" lon="3.2374244362603912"><ele>181.0</ele><time>2026-04-06T08:50:44Z</time></trkpt><trkpt lat="43.494684668196406" lon="3.237445938287526"><ele>181.0</ele><time>2026-04-06T08:50:46Z</time></trkpt><trkpt lat="43.49479085533894" lon="3.237461947947036"><ele>181.0</ele><time>2026-04-06T08:50:48Z</time></trkpt><trkpt lat="43.49490040235479" lon="3.2374834975302273"><ele>180.5</ele><time>2026-04-06T08:50:50Z</time></trkpt><trkpt lat="43.49501567470856" lon="3.2375012558001046"><ele>180.0</ele><time>2026-04-06T08:50:52Z</time></trkpt><trkpt lat="43.495135958697894" lon="3.2375246756904152"><ele>179.5</ele><time>2026-04-06T08:50:54Z</time></trkpt><trkpt lat="43.49519834894238" lon="3.237537836186783"><ele>179.0</ele><time>2026-04-06T08:50:55Z</time></trkpt><trkpt lat="43.49526212759881" lon="3.237547146767738"><ele>178.5</ele><time>2026-04-06T08:50:56Z</time></trkpt><trkpt lat="43.49532517092766" lon="3.237556643016213"><ele>178.0</ele><time>2026-04-06T08:50:57Z</time></trkpt><trkpt lat="43.49538967443265" lon="3.2375670468952076"><ele>178.28571428571428</ele><time>2026-04-06T08:50:58Z</time></trkpt><trkpt lat="43.49545494580244" lon="3.237581664041111"><ele>178.57142857142856</ele><time>2026-04-06T08:50:59Z</time></trkpt><trkpt lat="43.495521491451676" lon="3.2375948855970065"><ele>178.85714285714283</ele><time>2026-04-06T08:51:00Z</time></trkpt><trkpt lat="43.495589212226" lon="3.2376060718108985"><ele>179.14285714285714</ele><time>2026-04-06T08:51:01Z</time></trkpt><trkpt lat="43.49565605751919" lon="3.237615204277836"><ele>179.42857142857144</ele><time>2026-04-06T08:51:02Z</time></trkpt><trkpt lat="43.49572365544871" lon="3.2376237744753826"><ele>179.7142857142857</ele><time>2026-04-06T08:51:03Z</time></trkpt><trkpt lat="43.495791812970815" lon="3.2376348437152243"><ele>180.0</ele><time>2026-04-06T08:51:04Z</time></trkpt><trkpt lat="43.4958595800898" lon="3.2376467157827133"><ele>180.0</ele><time>2026-04-06T08:51:05Z</time></trkpt><trkpt lat="43.49592731416952" lon="3.2376590220625254"><ele>180.0</ele><time>2026-04-06T08:51:06Z</time></trkpt><trkpt lat="43.49599744298536" lon="3.237671213136266"><ele>180.0</ele><time>2026-04-06T08:51:07Z</time></trkpt><trkpt lat="43.49606793618483" lon="3.2376825170409385"><ele>180.0</ele><time>2026-04-06T08:51:08Z</time></trkpt><trkpt lat="43.49613969702014" lon="3.237691665043239"><ele>180.0</ele><time>2026-04-06T08:51:09Z</time></trkpt><trkpt lat="43.49621161418293" lon="3.237703792656338"><ele>180.0</ele><time>2026-04-06T08:51:10Z</time></trkpt><trkpt lat="43.496285027431334" lon="3.2377194598030745"><ele>180.0</ele><time>2026-04-06T08:51:11Z</time></trkpt><trkpt lat="43.49635720609458" lon="3.237732511957555"><ele>179.83333333333334</ele><time>2026-04-06T08:51:12Z</time></trkpt><trkpt lat="43.49642976804712" lon="3.2377442325152717"><ele>179.66666666666666</ele><time>2026-04-06T08:51:13Z</time></trkpt><trkpt lat="43.496503449025326" lon="3.2377539391701045"><ele>179.5</ele><time>2026-04-06T08:51:14Z</time></trkpt><trkpt lat="43.49657714300312" lon="3.2377663006325106"><ele>179.33333333333331</ele><time>2026-04-06T08:51:15Z</time></trkpt><trkpt lat="43.49665099856078" lon="3.2377802717728237"><ele>179.16666666666666</ele><time>2026-04-06T08:51:16Z</time></trkpt><trkpt lat="43.49672443546286" lon="3.237794825871603"><ele>179.0</ele><time>2026-04-06T08:51:17Z</time></trkpt><trkpt lat="43.49687069015856" lon="3.2378265589237007"><ele>179.0</ele><time>2026-04-06T08:51:19Z</time></trkpt><trkpt lat="43.496944968868235" lon="3.2378370706795514"><ele>179.0</ele><time>2026-04-06T08:51:20Z</time></trkpt><trkpt lat="43.49702025945414" lon="3.237846126235784"><ele>179.0</ele><time>2026-04-06T08:51:21Z</time></trkpt><trkpt lat="43.49709528665938" lon="3.237859574698543"><ele>179.0</ele><time>2026-04-06T08:51:22Z</time></trkpt><trkpt lat="43.49717199220282" lon="3.2378743955334"><ele>179.0</ele><time>2026-04-06T08:51:23Z</time></trkpt><trkpt lat="43.497250166103655" lon="3.2378875824778555"><ele>179.0</ele><time>2026-04-06T08:51:24Z</time></trkpt><trkpt lat="43.49732696766162" lon="3.2378968556284575"><ele>178.33333333333331</ele><time>2026-04-06T08:51:25Z</time></trkpt><trkpt lat="43.497404027573786" lon="3.237908278624774"><ele>177.66666666666666</ele><time>2026-04-06T08:51:26Z</time></trkpt><trkpt lat="43.49748069318278" lon="3.2379258033386455"><ele>177.0</ele><time>2026-04-06T08:51:27Z</time></trkpt><trkpt lat="43.49755688951634" lon="3.2379472059369454"><ele>176.33333333333334</ele><time>2026-04-06T08:51:28Z</time></trkpt><trkpt lat="43.49763531143506" lon="3.2379639415854653"><ele>175.66666666666669</ele><time>2026-04-06T08:51:29Z</time></trkpt><trkpt lat="43.49771600577266" lon="3.237979299582793"><ele>175.0</ele><time>2026-04-06T08:51:30Z</time></trkpt><trkpt lat="43.49779685232997" lon="3.238001718047196"><ele>175.0</ele><time>2026-04-06T08:51:31Z</time></trkpt><trkpt lat="43.49787760761182" lon="3.2380323191813343"><ele>175.0</ele><time>2026-04-06T08:51:32Z</time></trkpt><trkpt lat="43.497958900719794" lon="3.2380778404432116"><ele>175.0</ele><time>2026-04-06T08:51:33Z</time></trkpt><trkpt lat="43.49805078443364" lon="3.2381256905685674"><ele>175.0</ele><time>2026-04-06T08:51:34Z</time></trkpt><trkpt lat="43.49813102439849" lon="3.238177106894179"><ele>175.0</ele><time>2026-04-06T08:51:35Z</time></trkpt><trkpt lat="43.49821223112192" lon="3.2382317636607287"><ele>175.0</ele><time>2026-04-06T08:51:36Z</time></trkpt><trkpt lat="43.49829621449902" lon="3.2382922574343542"><ele>174.6</ele><time>2026-04-06T08:51:37Z</time></trkpt><trkpt lat="43.49838143884634" lon="3.2383604670528783"><ele>174.2</ele><time>2026-04-06T08:51:38Z</time></trkpt><trkpt lat="43.49846883157521" lon="3.2384324690309514"><ele>173.8</ele><time>2026-04-06T08:51:39Z</time></trkpt><trkpt lat="43.498558774022406" lon="3.2385009208823634"><ele>173.4</ele><time>2026-04-06T08:51:40Z</time></trkpt><trkpt lat="43.49865139818258" lon="3.238572270035198"><ele>173.0</ele><time>2026-04-06T08:51:41Z</time></trkpt><trkpt lat="43.49874515565364" lon="3.2386428825852476"><ele>172.0</ele><time>2026-04-06T08:51:42Z</time></trkpt><trkpt lat="43.498839052806545" lon="3.2387170164269574"><ele>171.0</ele><time>2026-04-06T08:51:43Z</time></trkpt><trkpt lat="43.4989295340022" lon="3.2387939000562294"><ele>170.0</ele><time>2026-04-06T08:51:44Z</time></trkpt><trkpt lat="43.49901633143963" lon="3.238881062232729"><ele>169.0</ele><time>2026-04-06T08:51:45Z</time></trkpt><trkpt lat="43.49909626712068" lon="3.2389780911461528"><ele>168.0</ele><time>2026-04-06T08:51:46Z</time></trkpt><trkpt lat="43.49916867635918" lon="3.2390831854777313"><ele>168.0</ele><time>2026-04-06T08:51:47Z</time></trkpt><trkpt lat="43.49923614142546" lon="3.2391905895958986"><ele>168.0</ele><time>2026-04-06T08:51:48Z</time></trkpt><trkpt lat="43.499297636544156" lon="3.2392991069005896"><ele>168.0</ele><time>2026-04-06T08:51:49Z</time></trkpt><trkpt lat="43.499354690920285" lon="3.239409315928121"><ele>168.0</ele><time>2026-04-06T08:51:50Z</time></trkpt><trkpt lat="43.499409365791486" lon="3.239519897763021"><ele>168.0</ele><time>2026-04-06T08:51:51Z</time></trkpt><trkpt lat="43.499464555766274" lon="3.2396254647098175"><ele>168.0</ele><time>2026-04-06T08:51:52Z</time></trkpt><trkpt lat="43.49951481216861" lon="3.239730700065922"><ele>168.0</ele><time>2026-04-06T08:51:53Z</time></trkpt><trkpt lat="43.49956481513307" lon="3.239831810344177"><ele>168.0</ele><time>2026-04-06T08:51:54Z</time></trkpt><trkpt lat="43.49961608600742" lon="3.2399266222727614"><ele>168.0</ele><time>2026-04-06T08:51:55Z</time></trkpt><trkpt lat="43.49967317310869" lon="3.2400123245530903"><ele>168.0</ele><time>2026-04-06T08:51:56Z</time></trkpt><trkpt lat="43.49973226524789" lon="3.240090833296451"><ele>168.0</ele><time>2026-04-06T08:51:57Z</time></trkpt><trkpt lat="43.499796904249116" lon="3.2401596189094555"><ele>168.0</ele><time>2026-04-06T08:51:58Z</time></trkpt><trkpt lat="43.499866380458414" lon="3.2402174354288023"><ele>168.0</ele><time>2026-04-06T08:51:59Z</time></trkpt><trkpt lat="43.49993796000063" lon="3.240262529380525"><ele>168.0</ele><time>2026-04-06T08:52:00Z</time></trkpt><trkpt lat="43.50001385359133" lon="3.2402948570432404"><ele>168.0</ele><time>2026-04-06T08:52:01Z</time></trkpt><trkpt lat="43.50009028942144" lon="3.24031340528914"><ele>168.0</ele><time>2026-04-06T08:52:02Z</time></trkpt><trkpt lat="43.500168955815454" lon="3.24032133611268"><ele>168.0</ele><time>2026-04-06T08:52:03Z</time></trkpt><trkpt lat="43.50024739130005" lon="3.2403182269629878"><ele>168.0</ele><time>2026-04-06T08:52:04Z</time></trkpt><trkpt lat="43.50032493494464" lon="3.2403067799315437"><ele>168.0</ele><time>2026-04-06T08:52:05Z</time></trkpt><trkpt lat="43.500403346251495" lon="3.240291446122283"><ele>168.0</ele><time>2026-04-06T08:52:06Z</time></trkpt><trkpt lat="43.500482017504616" lon="3.2402752806072685"><ele>168.0</ele><time>2026-04-06T08:52:07Z</time></trkpt><trkpt lat="43.50056169696293" lon="3.2402552741180566"><ele>168.0</ele><time>2026-04-06T08:52:08Z</time></trkpt><trkpt lat="43.50064266470965" lon="3.240239007919681"><ele>168.0</ele><time>2026-04-06T08:52:09Z</time></trkpt><trkpt lat="43.50072458392871" lon="3.240231327201891"><ele>167.5</ele><time>2026-04-06T08:52:10Z</time></trkpt><trkpt lat="43.50080647276678" lon="3.240219147321755"><ele>167.0</ele><time>2026-04-06T08:52:11Z</time></trkpt><trkpt lat="43.500889936212324" lon="3.2402129842365444"><ele>166.5</ele><time>2026-04-06T08:52:12Z</time></trkpt><trkpt lat="43.50097308522593" lon="3.2402138235156555"><ele>166.0</ele><time>2026-04-06T08:52:13Z</time></trkpt><trkpt lat="43.501058031852764" lon="3.240219302573312"><ele>165.5</ele><time>2026-04-06T08:52:14Z</time></trkpt><trkpt lat="43.50114373729557" lon="3.240227990932975"><ele>165.0</ele><time>2026-04-06T08:52:15Z</time></trkpt><trkpt lat="43.501229198954306" lon="3.240251202476158"><ele>164.66666666666666</ele><time>2026-04-06T08:52:16Z</time></trkpt><trkpt lat="43.50131041392317" lon="3.2402913703670877"><ele>164.33333333333334</ele><time>2026-04-06T08:52:17Z</time></trkpt><trkpt lat="43.50138550403237" lon="3.2403464035301353"><ele>164.0</ele><time>2026-04-06T08:52:18Z</time></trkpt><trkpt lat="43.50145579716959" lon="3.2404098282470715"><ele>163.66666666666669</ele><time>2026-04-06T08:52:19Z</time></trkpt><trkpt lat="43.50151972439357" lon="3.2404831796751927"><ele>163.33333333333334</ele><time>2026-04-06T08:52:20Z</time></trkpt><trkpt lat="43.50158451238005" lon="3.2405571720515574"><ele>163.0</ele><time>2026-04-06T08:52:21Z</time></trkpt><trkpt lat="43.50165042665031" lon="3.240626217857143"><ele>162.66666666666669</ele><time>2026-04-06T08:52:22Z</time></trkpt><trkpt lat="43.501714015016965" lon="3.240694953500886"><ele>162.33333333333334</ele><time>2026-04-06T08:52:23Z</time></trkpt><trkpt lat="43.50177877584639" lon="3.2407630079993806"><ele>162.0</ele><time>2026-04-06T08:52:24Z</time></trkpt><trkpt lat="43.50184812340938" lon="3.240823844953824"><ele>161.66666666666666</ele><time>2026-04-06T08:52:25Z</time></trkpt><trkpt lat="43.50192493932037" lon="3.240866297615124"><ele>161.33333333333331</ele><time>2026-04-06T08:52:26Z</time></trkpt><trkpt lat="43.502004843777435" lon="3.2409027939332185"><ele>161.0</ele><time>2026-04-06T08:52:27Z</time></trkpt><trkpt lat="43.502088786438335" lon="3.240930644174856"><ele>161.0</ele><time>2026-04-06T08:52:28Z</time></trkpt><trkpt lat="43.50217398855242" lon="3.2409576311771024"><ele>161.0</ele><time>2026-04-06T08:52:29Z</time></trkpt><trkpt lat="43.502259093898815" lon="3.240984910275172"><ele>161.0</ele><time>2026-04-06T08:52:30Z</time></trkpt><trkpt lat="43.502344101601196" lon="3.2410179449503143"><ele>161.0</ele><time>2026-04-06T08:52:31Z</time></trkpt><trkpt lat="43.50243028179143" lon="3.2410507965382296"><ele>161.0</ele><time>2026-04-06T08:52:32Z</time></trkpt><trkpt lat="43.502515252521185" lon="3.241083677779232"><ele>161.0</ele><time>2026-04-06T08:52:33Z</time></trkpt><trkpt lat="43.50260193111743" lon="3.2411089990445423"><ele>161.0</ele><time>2026-04-06T08:52:34Z</time></trkpt><trkpt lat="43.5026878791933" lon="3.241132158607656"><ele>161.0</ele><time>2026-04-06T08:52:35Z</time></trkpt><trkpt lat="43.50277375118102" lon="3.2411583183906125"><ele>161.0</ele><time>2026-04-06T08:52:36Z</time></trkpt><trkpt lat="43.50285476659848" lon="3.2411941871058256"><ele>161.0</ele><time>2026-04-06T08:52:37Z</time></trkpt><trkpt lat="43.502932118511985" lon="3.2412403833564905"><ele>161.0</ele><time>2026-04-06T08:52:38Z</time></trkpt><trkpt lat="43.50300609620358" lon="3.241303640918427"><ele>161.0</ele><time>2026-04-06T08:52:39Z</time></trkpt><trkpt lat="43.50307831162766" lon="3.241371343366916"><ele>160.60000000000002</ele><time>2026-04-06T08:52:40Z</time></trkpt><trkpt lat="43.50314882309675" lon="3.241444999261015"><ele>160.20000000000002</ele><time>2026-04-06T08:52:41Z</time></trkpt><trkpt lat="43.50321175864286" lon="3.241532144633288"><ele>159.8</ele><time>2026-04-06T08:52:42Z</time></trkpt><trkpt lat="43.503268357170995" lon="3.2416294205471745"><ele>159.4</ele><time>2026-04-06T08:52:43Z</time></trkpt><trkpt lat="43.50333012695522" lon="3.241723746864766"><ele>159.0</ele><time>2026-04-06T08:52:44Z</time></trkpt><trkpt lat="43.50339337422476" lon="3.241817451900031"><ele>158.33333333333334</ele><time>2026-04-06T08:52:45Z</time></trkpt><trkpt lat="43.50345450876755" lon="3.241910435973376"><ele>157.66666666666666</ele><time>2026-04-06T08:52:46Z</time></trkpt><trkpt lat="43.503508663062995" lon="3.2419954932190502"><ele>157.0</ele><time>2026-04-06T08:52:47Z</time></trkpt><trkpt lat="43.50355583241557" lon="3.2420727670432434"><ele>156.33333333333331</ele><time>2026-04-06T08:52:48Z</time></trkpt><trkpt lat="43.50360482729468" lon="3.2421471469052467"><ele>155.66666666666666</ele><time>2026-04-06T08:52:49Z</time></trkpt><trkpt lat="43.503658505704685" lon="3.2422236670021785"><ele>155.0</ele><time>2026-04-06T08:52:50Z</time></trkpt><trkpt lat="43.50371525627283" lon="3.2422958444354326"><ele>155.0</ele><time>2026-04-06T08:52:51Z</time></trkpt><trkpt lat="43.50377415581895" lon="3.2423638432210184"><ele>155.0</ele><time>2026-04-06T08:52:52Z</time></trkpt><trkpt lat="43.50383145450844" lon="3.2424326621812902"><ele>155.0</ele><time>2026-04-06T08:52:53Z</time></trkpt><trkpt lat="43.50387891329952" lon="3.2425076377934325"><ele>155.0</ele><time>2026-04-06T08:52:54Z</time></trkpt><trkpt lat="43.503922151953425" lon="3.242589228041792"><ele>155.0</ele><time>2026-04-06T08:52:55Z</time></trkpt><trkpt lat="43.50397216266643" lon="3.242656391924427"><ele>155.0</ele><time>2026-04-06T08:52:56Z</time></trkpt><trkpt lat="43.504031931548944" lon="3.2427102936265184"><ele>155.0</ele><time>2026-04-06T08:52:57Z</time></trkpt><trkpt lat="43.504093386763216" lon="3.242752610656172"><ele>155.0</ele><time>2026-04-06T08:52:58Z</time></trkpt><trkpt lat="43.50415024799979" lon="3.2427933014738906"><ele>155.0</ele><time>2026-04-06T08:52:59Z</time></trkpt><trkpt lat="43.504252422966026" lon="3.2428817153420666"><ele>155.0</ele><time>2026-04-06T08:53:01Z</time></trkpt><trkpt lat="43.504347934257254" lon="3.2429861521168237"><ele>155.0</ele><time>2026-04-06T08:53:03Z</time></trkpt><trkpt lat="43.50444501338983" lon="3.243084215235911"><ele>155.0</ele><time>2026-04-06T08:53:05Z</time></trkpt><trkpt lat="43.50453669087771" lon="3.243182984189552"><ele>154.6</ele><time>2026-04-06T08:53:07Z</time></trkpt><trkpt lat="43.50462736855952" lon="3.2432776546732467"><ele>154.2</ele><time>2026-04-06T08:53:09Z</time></trkpt><trkpt lat="43.50471782482196" lon="3.243369367051774"><ele>153.8</ele><time>2026-04-06T08:53:11Z</time></trkpt><trkpt lat="43.50480634933043" lon="3.2434645565551086"><ele>153.4</ele><time>2026-04-06T08:53:13Z</time></trkpt><trkpt lat="43.504892286737615" lon="3.243556932868631"><ele>153.0</ele><time>2026-04-06T08:53:15Z</time></trkpt><trkpt lat="43.50497580595531" lon="3.2436502454794685"><ele>153.0</ele><time>2026-04-06T08:53:17Z</time></trkpt><trkpt lat="43.50506647273543" lon="3.243743185920177"><ele>153.0</ele><time>2026-04-06T08:53:19Z</time></trkpt><trkpt lat="43.50515832660469" lon="3.2438374961521825"><ele>153.0</ele><time>2026-04-06T08:53:21Z</time></trkpt><trkpt lat="43.505256522198096" lon="3.243931243933558"><ele>153.0</ele><time>2026-04-06T08:53:23Z</time></trkpt><trkpt lat="43.50534935585405" lon="3.244030378680913"><ele>154.25</ele><time>2026-04-06T08:53:25Z</time></trkpt><trkpt lat="43.50544531364733" lon="3.2441314259259273"><ele>155.5</ele><time>2026-04-06T08:53:27Z</time></trkpt><trkpt lat="43.505542096621085" lon="3.244224565814963"><ele>156.75</ele><time>2026-04-06T08:53:29Z</time></trkpt><trkpt lat="43.50563370756527" lon="3.2443149321748916"><ele>158.0</ele><time>2026-04-06T08:53:31Z</time></trkpt><trkpt lat="43.50571834875549" lon="3.2444108377648493"><ele>158.0</ele><time>2026-04-06T08:53:33Z</time></trkpt><trkpt lat="43.50580845659702" lon="3.244500291492958"><ele>158.0</ele><time>2026-04-06T08:53:35Z</time></trkpt><trkpt lat="43.505898099834575" lon="3.244586683303073"><ele>158.0</ele><time>2026-04-06T08:53:37Z</time></trkpt><trkpt lat="43.50598616698384" lon="3.244674706873083"><ele>158.0</ele><time>2026-04-06T08:53:39Z</time></trkpt><trkpt lat="43.506073347269" lon="3.2447563489699633"><ele>158.0</ele><time>2026-04-06T08:53:41Z</time></trkpt><trkpt lat="43.50615768355729" lon="3.2448366854010833"><ele>158.4</ele><time>2026-04-06T08:53:43Z</time></trkpt><trkpt lat="43.506242136335985" lon="3.2449259855522548"><ele>158.8</ele><time>2026-04-06T08:53:45Z</time></trkpt><trkpt lat="43.50632438727398" lon="3.2450012093971212"><ele>159.2</ele><time>2026-04-06T08:53:47Z</time></trkpt><trkpt lat="43.506402286142134" lon="3.245077544864868"><ele>159.6</ele><time>2026-04-06T08:53:49Z</time></trkpt><trkpt lat="43.50647578525986" lon="3.2451631843457367"><ele>160.0</ele><time>2026-04-06T08:53:51Z</time></trkpt><trkpt lat="43.50655190088631" lon="3.245247264736799"><ele>160.4</ele><time>2026-04-06T08:53:53Z</time></trkpt><trkpt lat="43.50662142803557" lon="3.2453424310587313"><ele>160.8</ele><time>2026-04-06T08:53:55Z</time></trkpt><trkpt lat="43.50668795299807" lon="3.2454457022670655"><ele>161.2</ele><time>2026-04-06T08:53:57Z</time></trkpt><trkpt lat="43.50675092882201" lon="3.2455559355902444"><ele>161.6</ele><time>2026-04-06T08:53:59Z</time></trkpt><trkpt lat="43.5068159335066" lon="3.2456773699043713"><ele>162.0</ele><time>2026-04-06T08:54:01Z</time></trkpt><trkpt lat="43.50688652683648" lon="3.245813315188806"><ele>162.0</ele><time>2026-04-06T08:54:03Z</time></trkpt><trkpt lat="43.506963907550684" lon="3.245946078132684"><ele>162.0</ele><time>2026-04-06T08:54:05Z</time></trkpt><trkpt lat="43.50700183588358" lon="3.2460166859110617"><ele>162.0</ele><time>2026-04-06T08:54:06Z</time></trkpt><trkpt lat="43.5070401438215" lon="3.2460873458583293"><ele>162.0</ele><time>2026-04-06T08:54:07Z</time></trkpt><trkpt lat="43.50708055137509" lon="3.2461576159487393"><ele>162.0</ele><time>2026-04-06T08:54:08Z</time></trkpt><trkpt lat="43.50712027208126" lon="3.246228073973355"><ele>162.0</ele><time>2026-04-06T08:54:09Z</time></trkpt><trkpt lat="43.507160611565176" lon="3.246297502048167"><ele>162.0</ele><time>2026-04-06T08:54:10Z</time></trkpt><trkpt lat="43.50720092952121" lon="3.2463661101125734"><ele>162.25</ele><time>2026-04-06T08:54:11Z</time></trkpt><trkpt lat="43.50727646601216" lon="3.2465027408067337"><ele>162.5</ele><time>2026-04-06T08:54:13Z</time></trkpt><trkpt lat="43.50735278310869" lon="3.2466367922423673"><ele>162.75</ele><time>2026-04-06T08:54:15Z</time></trkpt><trkpt lat="43.50743124034085" lon="3.246769790495408"><ele>163.0</ele><time>2026-04-06T08:54:17Z</time></trkpt><trkpt lat="43.50751049827294" lon="3.246904465159858"><ele>163.0</ele><time>2026-04-06T08:54:19Z</time></trkpt><trkpt lat="43.50754833947961" lon="3.2469751274838443"><ele>163.0</ele><time>2026-04-06T08:54:20Z</time></trkpt><trkpt lat="43.507621092955446" lon="3.247114408812463"><ele>163.0</ele><time>2026-04-06T08:54:22Z</time></trkpt><trkpt lat="43.50770171896898" lon="3.2472436764702453"><ele>163.0</ele><time>2026-04-06T08:54:24Z</time></trkpt><trkpt lat="43.50777970607409" lon="3.247374435869111"><ele>163.0</ele><time>2026-04-06T08:54:26Z</time></trkpt><trkpt lat="43.50785968107405" lon="3.2475048651135014"><ele>162.75</ele><time>2026-04-06T08:54:28Z</time></trkpt><trkpt lat="43.50793320534357" lon="3.2476420541568"><ele>162.5</ele><time>2026-04-06T08:54:30Z</time></trkpt><trkpt lat="43.50801132369289" lon="3.2477751376864576"><ele>162.25</ele><time>2026-04-06T08:54:32Z</time></trkpt><trkpt lat="43.5080882975433" lon="3.247907631813257"><ele>162.0</ele><time>2026-04-06T08:54:34Z</time></trkpt><trkpt lat="43.50816401519398" lon="3.2480331555548245"><ele>162.0</ele><time>2026-04-06T08:54:36Z</time></trkpt><trkpt lat="43.50823391218461" lon="3.2481562278533413"><ele>162.0</ele><time>2026-04-06T08:54:38Z</time></trkpt><trkpt lat="43.508303147786236" lon="3.248277877065013"><ele>162.0</ele><time>2026-04-06T08:54:40Z</time></trkpt><trkpt lat="43.50837418467116" lon="3.248396573963376"><ele>162.0</ele><time>2026-04-06T08:54:42Z</time></trkpt><trkpt lat="43.5084402138022" lon="3.2485185315492977"><ele>162.0</ele><time>2026-04-06T08:54:44Z</time></trkpt><trkpt lat="43.50850534364543" lon="3.2486448591206987"><ele>162.0</ele><time>2026-04-06T08:54:46Z</time></trkpt><trkpt lat="43.508572482451555" lon="3.2487708454637927"><ele>162.0</ele><time>2026-04-06T08:54:48Z</time></trkpt><trkpt lat="43.50864596881361" lon="3.2488916101139678"><ele>162.0</ele><time>2026-04-06T08:54:50Z</time></trkpt><trkpt lat="43.508717497033416" lon="3.249012962804517"><ele>162.0</ele><time>2026-04-06T08:54:52Z</time></trkpt><trkpt lat="43.50878513331183" lon="3.2491409268702864"><ele>162.5</ele><time>2026-04-06T08:54:54Z</time></trkpt><trkpt lat="43.508847246878325" lon="3.2492719522832445"><ele>163.0</ele><time>2026-04-06T08:54:56Z</time></trkpt><trkpt lat="43.50891577748238" lon="3.2493950860242653"><ele>163.5</ele><time>2026-04-06T08:54:58Z</time></trkpt><trkpt lat="43.50898326166858" lon="3.249518287061448"><ele>164.0</ele><time>2026-04-06T08:55:00Z</time></trkpt><trkpt lat="43.509050571176545" lon="3.2496439452348986"><ele>164.0</ele><time>2026-04-06T08:55:02Z</time></trkpt><trkpt lat="43.509112499003514" lon="3.2497766082556403"><ele>164.0</ele><time>2026-04-06T08:55:04Z</time></trkpt><trkpt lat="43.509177066278475" lon="3.2499114986892814"><ele>164.0</ele><time>2026-04-06T08:55:06Z</time></trkpt><trkpt lat="43.509232040773796" lon="3.2500549169557784"><ele>164.0</ele><time>2026-04-06T08:55:08Z</time></trkpt><trkpt lat="43.509288403087915" lon="3.25019926950646"><ele>163.75</ele><time>2026-04-06T08:55:10Z</time></trkpt><trkpt lat="43.50934761811981" lon="3.250338165996155"><ele>163.5</ele><time>2026-04-06T08:55:12Z</time></trkpt><trkpt lat="43.50940202251577" lon="3.2504789401446263"><ele>163.25</ele><time>2026-04-06T08:55:14Z</time></trkpt><trkpt lat="43.509456913370705" lon="3.250621129915492"><ele>163.0</ele><time>2026-04-06T08:55:16Z</time></trkpt><trkpt lat="43.50951377317483" lon="3.250765685693745"><ele>162.75</ele><time>2026-04-06T08:55:18Z</time></trkpt><trkpt lat="43.50956979192863" lon="3.2509092580631758"><ele>162.5</ele><time>2026-04-06T08:55:20Z</time></trkpt><trkpt lat="43.509625790458585" lon="3.2510499138222753"><ele>162.25</ele><time>2026-04-06T08:55:22Z</time></trkpt><trkpt lat="43.50967817094446" lon="3.251195155144222"><ele>162.0</ele><time>2026-04-06T08:55:24Z</time></trkpt><trkpt lat="43.509731681265706" lon="3.2513375139102645"><ele>161.75</ele><time>2026-04-06T08:55:26Z</time></trkpt><trkpt lat="43.509787090064194" lon="3.2514830397028534"><ele>161.5</ele><time>2026-04-06T08:55:28Z</time></trkpt><trkpt lat="43.50984411927981" lon="3.2516298147598137"><ele>161.25</ele><time>2026-04-06T08:55:30Z</time></trkpt><trkpt lat="43.50990160740148" lon="3.2517794459487552"><ele>161.0</ele><time>2026-04-06T08:55:32Z</time></trkpt><trkpt lat="43.50996153306964" lon="3.2519261001197584"><ele>161.0</ele><time>2026-04-06T08:55:34Z</time></trkpt><trkpt lat="43.510014171286755" lon="3.2520791797361417"><ele>161.0</ele><time>2026-04-06T08:55:36Z</time></trkpt><trkpt lat="43.51007396675588" lon="3.252229299410695"><ele>161.0</ele><time>2026-04-06T08:55:38Z</time></trkpt><trkpt lat="43.51013444495887" lon="3.2523780701980054"><ele>161.0</ele><time>2026-04-06T08:55:40Z</time></trkpt><trkpt lat="43.510193879611634" lon="3.252531107589807"><ele>161.125</ele><time>2026-04-06T08:55:42Z</time></trkpt><trkpt lat="43.510223232962446" lon="3.2526101025721874"><ele>161.25</ele><time>2026-04-06T08:55:43Z</time></trkpt><trkpt lat="43.51025445730113" lon="3.2526872064252514"><ele>161.375</ele><time>2026-04-06T08:55:44Z</time></trkpt><trkpt lat="43.510287995759626" lon="3.2527609965892523"><ele>161.5</ele><time>2026-04-06T08:55:45Z</time></trkpt><trkpt lat="43.51031722161765" lon="3.2528379831186527"><ele>161.625</ele><time>2026-04-06T08:55:46Z</time></trkpt><trkpt lat="43.51034090114533" lon="3.2529199849598056"><ele>161.75</ele><time>2026-04-06T08:55:47Z</time></trkpt><trkpt lat="43.5103660304242" lon="3.253000456103937"><ele>161.875</ele><time>2026-04-06T08:55:48Z</time></trkpt><trkpt lat="43.51039559136346" lon="3.253077809050112"><ele>162.0</ele><time>2026-04-06T08:55:49Z</time></trkpt><trkpt lat="43.510425698968135" lon="3.2531563684425375"><ele>162.39999999999998</ele><time>2026-04-06T08:55:50Z</time></trkpt><trkpt lat="43.51045807301121" lon="3.2532332967199724"><ele>162.79999999999998</ele><time>2026-04-06T08:55:51Z</time></trkpt><trkpt lat="43.51051999282061" lon="3.253383427651956"><ele>163.2</ele><time>2026-04-06T08:55:53Z</time></trkpt><trkpt lat="43.51057386159412" lon="3.2535379815699774"><ele>163.6</ele><time>2026-04-06T08:55:55Z</time></trkpt><trkpt lat="43.51061933159563" lon="3.253695395034989"><ele>164.0</ele><time>2026-04-06T08:55:57Z</time></trkpt><trkpt lat="43.51065983037376" lon="3.2538502229130355"><ele>164.0</ele><time>2026-04-06T08:55:59Z</time></trkpt><trkpt lat="43.51069313083287" lon="3.2540053747931057"><ele>164.0</ele><time>2026-04-06T08:56:01Z</time></trkpt><trkpt lat="43.51073149193138" lon="3.2541545298127903"><ele>164.0</ele><time>2026-04-06T08:56:03Z</time></trkpt><trkpt lat="43.510761694771695" lon="3.254301348039194"><ele>164.0</ele><time>2026-04-06T08:56:05Z</time></trkpt><trkpt lat="43.51079438115198" lon="3.254445434611736"><ele>164.0</ele><time>2026-04-06T08:56:07Z</time></trkpt><trkpt lat="43.510831553350506" lon="3.2545828998468114"><ele>164.0</ele><time>2026-04-06T08:56:09Z</time></trkpt><trkpt lat="43.51087520104087" lon="3.254713019177376"><ele>164.0</ele><time>2026-04-06T08:56:11Z</time></trkpt><trkpt lat="43.5109340854772" lon="3.254837686869271"><ele>164.0</ele><time>2026-04-06T08:56:13Z</time></trkpt><trkpt lat="43.51100844951749" lon="3.2549513671110293"><ele>164.0</ele><time>2026-04-06T08:56:15Z</time></trkpt><trkpt lat="43.5110934934166" lon="3.2550568315292763"><ele>164.5</ele><time>2026-04-06T08:56:17Z</time></trkpt><trkpt lat="43.511182691784605" lon="3.255165996763022"><ele>165.0</ele><time>2026-04-06T08:56:19Z</time></trkpt><trkpt lat="43.51126957834274" lon="3.2552754452502004"><ele>165.5</ele><time>2026-04-06T08:56:21Z</time></trkpt><trkpt lat="43.51134905957194" lon="3.2553893288525275"><ele>166.0</ele><time>2026-04-06T08:56:23Z</time></trkpt><trkpt lat="43.51142095452091" lon="3.2555168434092985"><ele>166.75</ele><time>2026-04-06T08:56:25Z</time></trkpt><trkpt lat="43.51148624547588" lon="3.2556528636742894"><ele>167.5</ele><time>2026-04-06T08:56:27Z</time></trkpt><trkpt lat="43.5115293014407" lon="3.25580132487421"><ele>168.25</ele><time>2026-04-06T08:56:29Z</time></trkpt><trkpt lat="43.51155631998651" lon="3.2559558313192936"><ele>169.0</ele><time>2026-04-06T08:56:31Z</time></trkpt><trkpt lat="43.51158185588555" lon="3.2561114509985867"><ele>169.0</ele><time>2026-04-06T08:56:33Z</time></trkpt><trkpt lat="43.51161411915564" lon="3.256260242514578"><ele>169.0</ele><time>2026-04-06T08:56:35Z</time></trkpt><trkpt lat="43.51164851953735" lon="3.2564113895734557"><ele>169.0</ele><time>2026-04-06T08:56:37Z</time></trkpt><trkpt lat="43.51169422838402" lon="3.2565617474637207"><ele>169.0</ele><time>2026-04-06T08:56:39Z</time></trkpt><trkpt lat="43.5117452569103" lon="3.256717167712734"><ele>169.0</ele><time>2026-04-06T08:56:41Z</time></trkpt><trkpt lat="43.51177496631112" lon="3.2567977573618596"><ele>169.0</ele><time>2026-04-06T08:56:42Z</time></trkpt><trkpt lat="43.511803769268916" lon="3.256878692352315"><ele>169.0</ele><time>2026-04-06T08:56:43Z</time></trkpt><trkpt lat="43.511833046168185" lon="3.256961227885466"><ele>169.0</ele><time>2026-04-06T08:56:44Z</time></trkpt><trkpt lat="43.51186229159947" lon="3.2570440265884075"><ele>169.0</ele><time>2026-04-06T08:56:45Z</time></trkpt><trkpt lat="43.511891920774076" lon="3.257127142427705"><ele>169.0</ele><time>2026-04-06T08:56:46Z</time></trkpt><trkpt lat="43.51192033885052" lon="3.2572111244057678"><ele>169.0</ele><time>2026-04-06T08:56:47Z</time></trkpt><trkpt lat="43.51194598279056" lon="3.257296521779825"><ele>169.0</ele><time>2026-04-06T08:56:48Z</time></trkpt><trkpt lat="43.51197193652513" lon="3.2573825690980245"><ele>169.0</ele><time>2026-04-06T08:56:49Z</time></trkpt><trkpt lat="43.51200066902952" lon="3.257467238901942"><ele>169.0</ele><time>2026-04-06T08:56:50Z</time></trkpt><trkpt lat="43.512030884531825" lon="3.2575514365141873"><ele>169.0</ele><time>2026-04-06T08:56:51Z</time></trkpt><trkpt lat="43.51206151707062" lon="3.2576349322491915"><ele>169.0</ele><time>2026-04-06T08:56:52Z</time></trkpt><trkpt lat="43.51209240716596" lon="3.257718857882253"><ele>169.0</ele><time>2026-04-06T08:56:53Z</time></trkpt><trkpt lat="43.512123927660326" lon="3.2578023080987975"><ele>169.0</ele><time>2026-04-06T08:56:54Z</time></trkpt><trkpt lat="43.51215244486418" lon="3.2578890375342646"><ele>169.0</ele><time>2026-04-06T08:56:55Z</time></trkpt><trkpt lat="43.51217963158146" lon="3.2579773482005403"><ele>169.0</ele><time>2026-04-06T08:56:56Z</time></trkpt><trkpt lat="43.51220789429828" lon="3.2580648409279287"><ele>169.0</ele><time>2026-04-06T08:56:57Z</time></trkpt><trkpt lat="43.51223433171864" lon="3.2581538471580145"><ele>169.0</ele><time>2026-04-06T08:56:58Z</time></trkpt><trkpt lat="43.51225596262194" lon="3.2582454750837786"><ele>169.0</ele><time>2026-04-06T08:56:59Z</time></trkpt><trkpt lat="43.51227734563829" lon="3.258337103928252"><ele>169.0</ele><time>2026-04-06T08:57:00Z</time></trkpt><trkpt lat="43.51229839862473" lon="3.258431471702191"><ele>169.0</ele><time>2026-04-06T08:57:01Z</time></trkpt><trkpt lat="43.512321704732834" lon="3.258525206175774"><ele>168.85714285714286</ele><time>2026-04-06T08:57:02Z</time></trkpt><trkpt lat="43.51234302334323" lon="3.2586200179252893"><ele>168.71428571428572</ele><time>2026-04-06T08:57:03Z</time></trkpt><trkpt lat="43.512361757462564" lon="3.2587143949590205"><ele>168.57142857142856</ele><time>2026-04-06T08:57:04Z</time></trkpt><trkpt lat="43.512383419456036" lon="3.2588100718845237"><ele>168.42857142857144</ele><time>2026-04-06T08:57:05Z</time></trkpt><trkpt lat="43.51240776288601" lon="3.2589062283844794"><ele>168.28571428571428</ele><time>2026-04-06T08:57:06Z</time></trkpt><trkpt lat="43.51243355984612" lon="3.2590009277073975"><ele>168.14285714285714</ele><time>2026-04-06T08:57:07Z</time></trkpt><trkpt lat="43.51246144320945" lon="3.259095655122459"><ele>168.0</ele><time>2026-04-06T08:57:08Z</time></trkpt><trkpt lat="43.512491523744536" lon="3.259189221435911"><ele>167.83333333333334</ele><time>2026-04-06T08:57:09Z</time></trkpt><trkpt lat="43.512523363374946" lon="3.259283126483877"><ele>167.66666666666666</ele><time>2026-04-06T08:57:10Z</time></trkpt><trkpt lat="43.51255485143707" lon="3.2593774572028154"><ele>167.5</ele><time>2026-04-06T08:57:11Z</time></trkpt><trkpt lat="43.51258776701843" lon="3.259472132900146"><ele>167.33333333333331</ele><time>2026-04-06T08:57:12Z</time></trkpt><trkpt lat="43.51262231880084" lon="3.259565346348261"><ele>167.16666666666666</ele><time>2026-04-06T08:57:13Z</time></trkpt><trkpt lat="43.51265642070948" lon="3.2596591016116334"><ele>167.0</ele><time>2026-04-06T08:57:14Z</time></trkpt><trkpt lat="43.5126876119567" lon="3.259753389157041"><ele>166.33333333333331</ele><time>2026-04-06T08:57:15Z</time></trkpt><trkpt lat="43.51271045344098" lon="3.2598532200644446"><ele>165.66666666666666</ele><time>2026-04-06T08:57:16Z</time></trkpt><trkpt lat="43.512725260269356" lon="3.2599569143914646"><ele>165.0</ele><time>2026-04-06T08:57:17Z</time></trkpt><trkpt lat="43.51272762257694" lon="3.260063542022423"><ele>164.33333333333334</ele><time>2026-04-06T08:57:18Z</time></trkpt><trkpt lat="43.5127166942307" lon="3.260168590740377"><ele>163.66666666666669</ele><time>2026-04-06T08:57:19Z</time></trkpt><trkpt lat="43.51268513526492" lon="3.2602663625267168"><ele>163.0</ele><time>2026-04-06T08:57:20Z</time></trkpt><trkpt lat="43.51264250968225" lon="3.260354332635311"><ele>163.0</ele><time>2026-04-06T08:57:21Z</time></trkpt><trkpt lat="43.51259185998986" lon="3.2604328940295177"><ele>163.0</ele><time>2026-04-06T08:57:22Z</time></trkpt><trkpt lat="43.51253339407684" lon="3.2604999026292596"><ele>163.0</ele><time>2026-04-06T08:57:23Z</time></trkpt><trkpt lat="43.5124662878586" lon="3.260553918546328"><ele>163.0</ele><time>2026-04-06T08:57:24Z</time></trkpt><trkpt lat="43.512395595222515" lon="3.260599162895842"><ele>163.0</ele><time>2026-04-06T08:57:25Z</time></trkpt><trkpt lat="43.512326714298865" lon="3.260650244195358"><ele>163.0</ele><time>2026-04-06T08:57:26Z</time></trkpt><trkpt lat="43.51225908839464" lon="3.2607056936990277"><ele>162.66666666666669</ele><time>2026-04-06T08:57:27Z</time></trkpt><trkpt lat="43.51218935639129" lon="3.260764926617533"><ele>162.33333333333334</ele><time>2026-04-06T08:57:28Z</time></trkpt><trkpt lat="43.512118119824116" lon="3.260823694529978"><ele>162.0</ele><time>2026-04-06T08:57:29Z</time></trkpt><trkpt lat="43.5120481028266" lon="3.260883595541"><ele>161.66666666666666</ele><time>2026-04-06T08:57:30Z</time></trkpt><trkpt lat="43.51198032337503" lon="3.2609513821650573"><ele>161.33333333333331</ele><time>2026-04-06T08:57:31Z</time></trkpt><trkpt lat="43.511922668866106" lon="3.261028306038506"><ele>161.0</ele><time>2026-04-06T08:57:32Z</time></trkpt><trkpt lat="43.51187734359044" lon="3.261124824517336"><ele>160.83333333333331</ele><time>2026-04-06T08:57:33Z</time></trkpt><trkpt lat="43.51184501772008" lon="3.2612303921090513"><ele>160.66666666666666</ele><time>2026-04-06T08:57:34Z</time></trkpt><trkpt lat="43.511819950947" lon="3.2613350099268295"><ele>160.5</ele><time>2026-04-06T08:57:35Z</time></trkpt><trkpt lat="43.511814152601126" lon="3.261445980664186"><ele>160.33333333333334</ele><time>2026-04-06T08:57:36Z</time></trkpt><trkpt lat="43.51182381258044" lon="3.261553324300818"><ele>160.16666666666669</ele><time>2026-04-06T08:57:37Z</time></trkpt><trkpt lat="43.51184627082098" lon="3.2616590391718328"><ele>160.0</ele><time>2026-04-06T08:57:38Z</time></trkpt><trkpt lat="43.51187585164492" lon="3.2617595780057793"><ele>159.83333333333334</ele><time>2026-04-06T08:57:39Z</time></trkpt><trkpt lat="43.51191706077005" lon="3.2618563403806817"><ele>159.66666666666669</ele><time>2026-04-06T08:57:40Z</time></trkpt><trkpt lat="43.51196507524892" lon="3.2619469145002857"><ele>159.5</ele><time>2026-04-06T08:57:41Z</time></trkpt><trkpt lat="43.51200060407882" lon="3.2620453530715086"><ele>159.33333333333334</ele><time>2026-04-06T08:57:42Z</time></trkpt><trkpt lat="43.51202216848386" lon="3.2621553580174125"><ele>159.16666666666666</ele><time>2026-04-06T08:57:43Z</time></trkpt><trkpt lat="43.51201343487315" lon="3.2622787832559954"><ele>159.0</ele><time>2026-04-06T08:57:44Z</time></trkpt><trkpt lat="43.511980864937264" lon="3.2624018540869923"><ele>158.4</ele><time>2026-04-06T08:57:45Z</time></trkpt><trkpt lat="43.51192828374684" lon="3.2625153875057245"><ele>157.8</ele><time>2026-04-06T08:57:46Z</time></trkpt><trkpt lat="43.51185694938171" lon="3.2626106293868005"><ele>157.2</ele><time>2026-04-06T08:57:47Z</time></trkpt><trkpt lat="43.511775197445864" lon="3.2626825264073887"><ele>156.6</ele><time>2026-04-06T08:57:48Z</time></trkpt><trkpt lat="43.51169188812168" lon="3.2627433028637745"><ele>156.0</ele><time>2026-04-06T08:57:49Z</time></trkpt><trkpt lat="43.51160885888195" lon="3.262795032584588"><ele>156.0</ele><time>2026-04-06T08:57:50Z</time></trkpt><trkpt lat="43.51152605187806" lon="3.262840682269364"><ele>156.0</ele><time>2026-04-06T08:57:51Z</time></trkpt><trkpt lat="43.511444574385926" lon="3.262888677532276"><ele>156.0</ele><time>2026-04-06T08:57:52Z</time></trkpt><trkpt lat="43.51136348163313" lon="3.2629398892706587"><ele>156.0</ele><time>2026-04-06T08:57:53Z</time></trkpt><trkpt lat="43.51127792817942" lon="3.2629908508109526"><ele>156.0</ele><time>2026-04-06T08:57:54Z</time></trkpt><trkpt lat="43.51119027725726" lon="3.2630410005424517"><ele>155.6</ele><time>2026-04-06T08:57:55Z</time></trkpt><trkpt lat="43.51109940026881" lon="3.2630921298541034"><ele>155.2</ele><time>2026-04-06T08:57:56Z</time></trkpt><trkpt lat="43.51101086664016" lon="3.263149817282848"><ele>154.8</ele><time>2026-04-06T08:57:57Z</time></trkpt><trkpt lat="43.51092732471552" lon="3.2632211374366697"><ele>154.4</ele><time>2026-04-06T08:57:58Z</time></trkpt><trkpt lat="43.510851124535776" lon="3.26330814441929"><ele>154.0</ele><time>2026-04-06T08:57:59Z</time></trkpt><trkpt lat="43.510787218864365" lon="3.2634128499939936"><ele>153.8</ele><time>2026-04-06T08:58:00Z</time></trkpt><trkpt lat="43.510734231166815" lon="3.2635336723465804"><ele>153.60000000000002</ele><time>2026-04-06T08:58:01Z</time></trkpt><trkpt lat="43.51069655854033" lon="3.2636605092956845"><ele>153.4</ele><time>2026-04-06T08:58:02Z</time></trkpt><trkpt lat="43.51066267215508" lon="3.2637924632838087"><ele>153.20000000000002</ele><time>2026-04-06T08:58:03Z</time></trkpt><trkpt lat="43.510635007873766" lon="3.2639265441533385"><ele>153.0</ele><time>2026-04-06T08:58:04Z</time></trkpt><trkpt lat="43.51060669247545" lon="3.2640615124520203"><ele>153.0</ele><time>2026-04-06T08:58:05Z</time></trkpt><trkpt lat="43.510578770465756" lon="3.2642007027423268"><ele>153.0</ele><time>2026-04-06T08:58:06Z</time></trkpt><trkpt lat="43.51055423410013" lon="3.2643421831229524"><ele>153.0</ele><time>2026-04-06T08:58:07Z</time></trkpt><trkpt lat="43.51053099863932" lon="3.2644850492127193"><ele>153.0</ele><time>2026-04-06T08:58:08Z</time></trkpt><trkpt lat="43.510511875411254" lon="3.264627311212348"><ele>153.0</ele><time>2026-04-06T08:58:09Z</time></trkpt><trkpt lat="43.510489174403844" lon="3.2647708607196364"><ele>153.6</ele><time>2026-04-06T08:58:10Z</time></trkpt><trkpt lat="43.51045963258226" lon="3.264911858440603"><ele>154.20000000000002</ele><time>2026-04-06T08:58:11Z</time></trkpt><trkpt lat="43.51042488792379" lon="3.2650494602084748"><ele>154.8</ele><time>2026-04-06T08:58:12Z</time></trkpt><trkpt lat="43.51038927893203" lon="3.265186788083206"><ele>155.4</ele><time>2026-04-06T08:58:13Z</time></trkpt><trkpt lat="43.51035632824958" lon="3.2653269572261165"><ele>156.0</ele><time>2026-04-06T08:58:14Z</time></trkpt><trkpt lat="43.51032073095923" lon="3.2654693810410267"><ele>154.2</ele><time>2026-04-06T08:58:15Z</time></trkpt><trkpt lat="43.510294635740514" lon="3.265611947476638"><ele>152.39999999999998</ele><time>2026-04-06T08:58:16Z</time></trkpt><trkpt lat="43.51026808565145" lon="3.26575994315355"><ele>150.6</ele><time>2026-04-06T08:58:17Z</time></trkpt><trkpt lat="43.51024833910433" lon="3.2659145634332543"><ele>148.79999999999998</ele><time>2026-04-06T08:58:18Z</time></trkpt><trkpt lat="43.51022689252215" lon="3.2660713339694114"><ele>147.0</ele><time>2026-04-06T08:58:19Z</time></trkpt><trkpt lat="43.510203495377205" lon="3.2662274793647037"><ele>145.6</ele><time>2026-04-06T08:58:20Z</time></trkpt><trkpt lat="43.510179139796094" lon="3.266381075552444"><ele>144.2</ele><time>2026-04-06T08:58:21Z</time></trkpt><trkpt lat="43.510158368565506" lon="3.2665244503903743"><ele>142.8</ele><time>2026-04-06T08:58:22Z</time></trkpt><trkpt lat="43.51014886545743" lon="3.266661127750865"><ele>141.4</ele><time>2026-04-06T08:58:23Z</time></trkpt><trkpt lat="43.51015870053066" lon="3.2667942668331182"><ele>140.0</ele><time>2026-04-06T08:58:24Z</time></trkpt><trkpt lat="43.510188076602944" lon="3.266922025220425"><ele>140.4</ele><time>2026-04-06T08:58:25Z</time></trkpt><trkpt lat="43.51024304823696" lon="3.267035089658228"><ele>140.8</ele><time>2026-04-06T08:58:26Z</time></trkpt><trkpt lat="43.510317779884495" lon="3.2671306950599495"><ele>141.2</ele><time>2026-04-06T08:58:27Z</time></trkpt><trkpt lat="43.51040545642164" lon="3.267204689684472"><ele>141.6</ele><time>2026-04-06T08:58:28Z</time></trkpt><trkpt lat="43.51049826843003" lon="3.2672616809885398"><ele>142.0</ele><time>2026-04-06T08:58:29Z</time></trkpt><trkpt lat="43.510587064542314" lon="3.267331466973935"><ele>140.0</ele><time>2026-04-06T08:58:30Z</time></trkpt><trkpt lat="43.51067182802523" lon="3.267388146423927"><ele>138.0</ele><time>2026-04-06T08:58:31Z</time></trkpt><trkpt lat="43.51076386926877" lon="3.2674581443905524"><ele>136.0</ele><time>2026-04-06T08:58:32Z</time></trkpt><trkpt lat="43.510853125439006" lon="3.267526234481668"><ele>134.0</ele><time>2026-04-06T08:58:33Z</time></trkpt><trkpt lat="43.5109310704289" lon="3.2676020661061305"><ele>132.0</ele><time>2026-04-06T08:58:34Z</time></trkpt><trkpt lat="43.510985618018054" lon="3.267691530894012"><ele>132.0</ele><time>2026-04-06T08:58:35Z</time></trkpt><trkpt lat="43.511024946089364" lon="3.267786203080621"><ele>132.0</ele><time>2026-04-06T08:58:36Z</time></trkpt><trkpt lat="43.51106076969426" lon="3.2678961749726128"><ele>132.0</ele><time>2026-04-06T08:58:37Z</time></trkpt><trkpt lat="43.51107381695098" lon="3.2680225659367754"><ele>132.0</ele><time>2026-04-06T08:58:38Z</time></trkpt><trkpt lat="43.511063186467936" lon="3.2681542475900747"><ele>132.0</ele><time>2026-04-06T08:58:39Z</time></trkpt><trkpt lat="43.511030999713505" lon="3.268274214249723"><ele>132.0</ele><time>2026-04-06T08:58:40Z</time></trkpt><trkpt lat="43.51099516800113" lon="3.268392493101822"><ele>131.0</ele><time>2026-04-06T08:58:41Z</time></trkpt><trkpt lat="43.51096100176458" lon="3.268511152802054"><ele>130.0</ele><time>2026-04-06T08:58:42Z</time></trkpt><trkpt lat="43.5109302761256" lon="3.2686284825746834"><ele>129.0</ele><time>2026-04-06T08:58:43Z</time></trkpt><trkpt lat="43.510894621757856" lon="3.268740232736043"><ele>128.0</ele><time>2026-04-06T08:58:44Z</time></trkpt><trkpt lat="43.51086028091992" lon="3.268850576630182"><ele>127.0</ele><time>2026-04-06T08:58:45Z</time></trkpt><trkpt lat="43.510832166852914" lon="3.2689589476243004"><ele>126.0</ele><time>2026-04-06T08:58:46Z</time></trkpt><trkpt lat="43.5108140531204" lon="3.269070796510192"><ele>125.33333333333333</ele><time>2026-04-06T08:58:47Z</time></trkpt><trkpt lat="43.51080991008017" lon="3.269180525893061"><ele>124.66666666666666</ele><time>2026-04-06T08:58:48Z</time></trkpt><trkpt lat="43.510820902234144" lon="3.2692891565096005"><ele>124.0</ele><time>2026-04-06T08:58:49Z</time></trkpt><trkpt lat="43.510853297651465" lon="3.269398408091559"><ele>123.33333333333333</ele><time>2026-04-06T08:58:50Z</time></trkpt><trkpt lat="43.51089708183892" lon="3.2695021015227463"><ele>122.66666666666666</ele><time>2026-04-06T08:58:51Z</time></trkpt><trkpt lat="43.51095684507404" lon="3.2696100481778636"><ele>122.0</ele><time>2026-04-06T08:58:52Z</time></trkpt><trkpt lat="43.51101876424688" lon="3.269701614297568"><ele>121.39999999999999</ele><time>2026-04-06T08:58:53Z</time></trkpt><trkpt lat="43.51108175787695" lon="3.269808462628202"><ele>120.79999999999998</ele><time>2026-04-06T08:58:54Z</time></trkpt><trkpt lat="43.5111359018237" lon="3.269920503845981"><ele>120.2</ele><time>2026-04-06T08:58:55Z</time></trkpt><trkpt lat="43.51119062333552" lon="3.270035545317521"><ele>119.6</ele><time>2026-04-06T08:58:56Z</time></trkpt><trkpt lat="43.51124025228157" lon="3.270158806695391"><ele>119.0</ele><time>2026-04-06T08:58:57Z</time></trkpt><trkpt lat="43.511280849231035" lon="3.270288086672624"><ele>118.80000000000001</ele><time>2026-04-06T08:58:58Z</time></trkpt><trkpt lat="43.511318377814874" lon="3.2704187935609124"><ele>118.60000000000001</ele><time>2026-04-06T08:58:59Z</time></trkpt><trkpt lat="43.511355156629286" lon="3.270541791290349"><ele>118.4</ele><time>2026-04-06T08:59:00Z</time></trkpt><trkpt lat="43.5113835408994" lon="3.2706610559835627"><ele>118.2</ele><time>2026-04-06T08:59:01Z</time></trkpt><trkpt lat="43.51141919052318" lon="3.270772677474209"><ele>118.0</ele><time>2026-04-06T08:59:02Z</time></trkpt><trkpt lat="43.511460305481215" lon="3.270877969712194"><ele>118.0</ele><time>2026-04-06T08:59:03Z</time></trkpt><trkpt lat="43.511508177943085" lon="3.270967062336502"><ele>118.00000000000001</ele><time>2026-04-06T08:59:04Z</time></trkpt><trkpt lat="43.511580686311206" lon="3.2710769131043507"><ele>118.00000000000001</ele><time>2026-04-06T08:59:06Z</time></trkpt><trkpt lat="43.51164092046141" lon="3.2711846708153263"><ele>118.0</ele><time>2026-04-06T08:59:09Z</time></trkpt><trkpt lat="43.511723461734746" lon="3.2713032579575074"><ele>118.0</ele><time>2026-04-06T08:59:11Z</time></trkpt><trkpt lat="43.51177359666376" lon="3.2713723292037797"><ele>116.66666666666667</ele><time>2026-04-06T08:59:12Z</time></trkpt><trkpt lat="43.51182553662485" lon="3.2714464739635924"><ele>115.33333333333334</ele><time>2026-04-06T08:59:13Z</time></trkpt><trkpt lat="43.51187882417893" lon="3.2715271500648018"><ele>114.0</ele><time>2026-04-06T08:59:14Z</time></trkpt><trkpt lat="43.51193559859347" lon="3.2716058437093687"><ele>112.66666666666666</ele><time>2026-04-06T08:59:15Z</time></trkpt><trkpt lat="43.51198963801783" lon="3.2716884573811567"><ele>111.33333333333333</ele><time>2026-04-06T08:59:16Z</time></trkpt><trkpt lat="43.51200892574465" lon="3.2718038728948633"><ele>110.0</ele><time>2026-04-06T08:59:17Z</time></trkpt><trkpt lat="43.512007866770425" lon="3.2719121232345825"><ele>109.99999999999999</ele><time>2026-04-06T08:59:18Z</time></trkpt><trkpt lat="43.511998488470105" lon="3.2720126154681823"><ele>110.0</ele><time>2026-04-06T08:59:19Z</time></trkpt><trkpt lat="43.511985231528065" lon="3.2721089157845165"><ele>110.0</ele><time>2026-04-06T08:59:20Z</time></trkpt><trkpt lat="43.511968849328866" lon="3.272199387601302"><ele>110.0</ele><time>2026-04-06T08:59:21Z</time></trkpt><trkpt lat="43.51193901082635" lon="3.272339035309884"><ele>109.99999999999999</ele><time>2026-04-06T08:59:23Z</time></trkpt><trkpt lat="43.51189328867524" lon="3.2724172321457674"><ele>110.0</ele><time>2026-04-06T08:59:26Z</time></trkpt><trkpt lat="43.51186792061323" lon="3.272509312589858"><ele>109.2</ele><time>2026-04-06T08:59:28Z</time></trkpt><trkpt lat="43.51185200781715" lon="3.2726064780646276"><ele>108.4</ele><time>2026-04-06T08:59:30Z</time></trkpt><trkpt lat="43.511905175873466" lon="3.2726896298995656"><ele>107.6</ele><time>2026-04-06T08:59:31Z</time></trkpt><trkpt lat="43.51195268664724" lon="3.2728140309217957"><ele>106.8</ele><time>2026-04-06T08:59:33Z</time></trkpt><trkpt lat="43.51199606223274" lon="3.272948255429062"><ele>106.0</ele><time>2026-04-06T08:59:35Z</time></trkpt><trkpt lat="43.5120371391631" lon="3.273075740458852"><ele>106.00000000000001</ele><time>2026-04-06T08:59:37Z</time></trkpt><trkpt lat="43.51207362659746" lon="3.2731779050725343"><ele>106.0</ele><time>2026-04-06T08:59:39Z</time></trkpt><trkpt lat="43.51211440779178" lon="3.2732613783448596"><ele>106.0</ele><time>2026-04-06T08:59:47Z</time></trkpt><trkpt lat="43.512183017694845" lon="3.2732282219549953"><ele>106.0</ele><time>2026-04-06T08:59:51Z</time></trkpt><trkpt lat="43.51226021603454" lon="3.2731449721832497"><ele>106.00000000000001</ele><time>2026-04-06T08:59:53Z</time></trkpt><trkpt lat="43.5123159742082" lon="3.2730881581483815"><ele>106.0</ele><time>2026-04-06T08:59:54Z</time></trkpt><trkpt lat="43.512363033120955" lon="3.27302814850642"><ele>106.6</ele><time>2026-04-06T08:59:55Z</time></trkpt><trkpt lat="43.51241083863029" lon="3.2729665398600365"><ele>107.19999999999999</ele><time>2026-04-06T08:59:56Z</time></trkpt><trkpt lat="43.51249840150625" lon="3.2728383023513885"><ele>107.80000000000001</ele><time>2026-04-06T08:59:58Z</time></trkpt><trkpt lat="43.512544791332104" lon="3.2727795625685516"><ele>108.4</ele><time>2026-04-06T08:59:59Z</time></trkpt><trkpt lat="43.51263542199381" lon="3.272668436866121"><ele>109.0</ele><time>2026-04-06T09:00:01Z</time></trkpt><trkpt lat="43.5127152863944" lon="3.272553168945537"><ele>109.00000000000001</ele><time>2026-04-06T09:00:03Z</time></trkpt><trkpt lat="43.51281178610472" lon="3.272467494975954"><ele>109.0</ele><time>2026-04-06T09:00:05Z</time></trkpt><trkpt lat="43.512850622464676" lon="3.272396136754693"><ele>109.0</ele><time>2026-04-06T09:00:06Z</time></trkpt><trkpt lat="43.51290248976479" lon="3.272342224639106"><ele>109.0</ele><time>2026-04-06T09:00:07Z</time></trkpt><trkpt lat="43.512963105335324" lon="3.2722990142768156"><ele>109.00000000000001</ele><time>2026-04-06T09:00:08Z</time></trkpt><trkpt lat="43.51303378204838" lon="3.2722709502096903"><ele>109.0</ele><time>2026-04-06T09:00:09Z</time></trkpt><trkpt lat="43.51311986349491" lon="3.2721758929715"><ele>109.00000000000001</ele><time>2026-04-06T09:00:11Z</time></trkpt><trkpt lat="43.513249692622125" lon="3.2722429823016883"><ele>109.0</ele><time>2026-04-06T09:00:12Z</time></trkpt><trkpt lat="43.51332199191392" lon="3.2722380911379276"><ele>109.0</ele><time>2026-04-06T09:00:13Z</time></trkpt><trkpt lat="43.51339105429641" lon="3.2722200388535487"><ele>109.0</ele><time>2026-04-06T09:00:14Z</time></trkpt><trkpt lat="43.51345595472604" lon="3.2722079292518056"><ele>109.00000000000001</ele><time>2026-04-06T09:00:15Z</time></trkpt><trkpt lat="43.513520569480505" lon="3.2721893278900285"><ele>109.0</ele><time>2026-04-06T09:00:16Z</time></trkpt><trkpt lat="43.51358571005908" lon="3.2721850899379206"><ele>109.00000000000001</ele><time>2026-04-06T09:00:17Z</time></trkpt><trkpt lat="43.513687219064124" lon="3.2721615449449457"><ele>109.0</ele><time>2026-04-06T09:00:19Z</time></trkpt><trkpt lat="43.51377020901265" lon="3.2721430353072116"><ele>109.0</ele><time>2026-04-06T09:00:21Z</time></trkpt><trkpt lat="43.513860926703494" lon="3.272077687636517"><ele>109.0</ele><time>2026-04-06T09:00:23Z</time></trkpt><trkpt lat="43.51392758618425" lon="3.27205079708629"><ele>109.00000000000001</ele><time>2026-04-06T09:00:24Z</time></trkpt><trkpt lat="43.51400097195158" lon="3.2720356317270496"><ele>109.0</ele><time>2026-04-06T09:00:25Z</time></trkpt><trkpt lat="43.514073810438674" lon="3.2720294826425396"><ele>108.71428571428572</ele><time>2026-04-06T09:00:26Z</time></trkpt><trkpt lat="43.51414688751595" lon="3.272023503601471"><ele>108.42857142857143</ele><time>2026-04-06T09:00:27Z</time></trkpt><trkpt lat="43.51421674579459" lon="3.272052874981665"><ele>108.14285714285714</ele><time>2026-04-06T09:00:28Z</time></trkpt><trkpt lat="43.514292378787225" lon="3.2720490700488956"><ele>107.85714285714286</ele><time>2026-04-06T09:00:29Z</time></trkpt><trkpt lat="43.514365755583874" lon="3.2720587328269954"><ele>107.57142857142857</ele><time>2026-04-06T09:00:30Z</time></trkpt><trkpt lat="43.514438093021916" lon="3.272076280539587"><ele>107.28571428571429</ele><time>2026-04-06T09:00:31Z</time></trkpt><trkpt lat="43.51451193421087" lon="3.2720916526705763"><ele>107.0</ele><time>2026-04-06T09:00:32Z</time></trkpt><trkpt lat="43.51458623246925" lon="3.2721015182697797"><ele>106.49999999999999</ele><time>2026-04-06T09:00:33Z</time></trkpt><trkpt lat="43.514664630266815" lon="3.272109359341584"><ele>106.0</ele><time>2026-04-06T09:00:34Z</time></trkpt><trkpt lat="43.51474084688123" lon="3.2721233759183637"><ele>105.5</ele><time>2026-04-06T09:00:35Z</time></trkpt><trkpt lat="43.51481592009982" lon="3.272144032465441"><ele>105.0</ele><time>2026-04-06T09:00:36Z</time></trkpt><trkpt lat="43.514883989060614" lon="3.272175931907882"><ele>104.49999999999999</ele><time>2026-04-06T09:00:37Z</time></trkpt><trkpt lat="43.51494252605695" lon="3.2722188233997143"><ele>104.0</ele><time>2026-04-06T09:00:38Z</time></trkpt><trkpt lat="43.51504709131023" lon="3.2722912577636256"><ele>104.0</ele><time>2026-04-06T09:00:40Z</time></trkpt><trkpt lat="43.51514749237341" lon="3.272343002043026"><ele>104.0</ele><time>2026-04-06T09:00:42Z</time></trkpt><trkpt lat="43.51525302739611" lon="3.272406067429727"><ele>104.0</ele><time>2026-04-06T09:00:44Z</time></trkpt><trkpt lat="43.51535387806757" lon="3.272466615181858"><ele>104.0</ele><time>2026-04-06T09:00:46Z</time></trkpt><trkpt lat="43.51545650351252" lon="3.272529938721372"><ele>104.0</ele><time>2026-04-06T09:00:48Z</time></trkpt><trkpt lat="43.515562385064534" lon="3.272594634529994"><ele>104.0</ele><time>2026-04-06T09:00:50Z</time></trkpt><trkpt lat="43.51567333375081" lon="3.272677605558075"><ele>104.0</ele><time>2026-04-06T09:00:52Z</time></trkpt><trkpt lat="43.515787094355886" lon="3.2727414534893575"><ele>104.0</ele><time>2026-04-06T09:00:54Z</time></trkpt><trkpt lat="43.51589384714444" lon="3.272798147301311"><ele>104.0</ele><time>2026-04-06T09:00:56Z</time></trkpt><trkpt lat="43.51599265528556" lon="3.2728660573054738"><ele>104.0</ele><time>2026-04-06T09:00:58Z</time></trkpt><trkpt lat="43.516098678516" lon="3.2729320612406028"><ele>104.0</ele><time>2026-04-06T09:01:00Z</time></trkpt><trkpt lat="43.516210107051855" lon="3.2730028310557393"><ele>104.0</ele><time>2026-04-06T09:01:02Z</time></trkpt><trkpt lat="43.516320301539565" lon="3.273070139058309"><ele>104.0</ele><time>2026-04-06T09:01:04Z</time></trkpt><trkpt lat="43.51642643826456" lon="3.2731396763328657"><ele>105.25</ele><time>2026-04-06T09:01:06Z</time></trkpt><trkpt lat="43.516533621089565" lon="3.273205868128944"><ele>106.5</ele><time>2026-04-06T09:01:08Z</time></trkpt><trkpt lat="43.51663902728538" lon="3.2732674601200666"><ele>107.75</ele><time>2026-04-06T09:01:10Z</time></trkpt><trkpt lat="43.516747541865435" lon="3.2733275910581034"><ele>109.0</ele><time>2026-04-06T09:01:12Z</time></trkpt><trkpt lat="43.516855450285966" lon="3.273395411900584"><ele>109.0</ele><time>2026-04-06T09:01:14Z</time></trkpt><trkpt lat="43.51696277839016" lon="3.2734668692513695"><ele>109.0</ele><time>2026-04-06T09:01:16Z</time></trkpt><trkpt lat="43.51706931753699" lon="3.2735296231366084"><ele>109.0</ele><time>2026-04-06T09:01:18Z</time></trkpt><trkpt lat="43.51717661116722" lon="3.2735921023872745"><ele>109.0</ele><time>2026-04-06T09:01:20Z</time></trkpt><trkpt lat="43.51727861229697" lon="3.273648901633885"><ele>110.6</ele><time>2026-04-06T09:01:22Z</time></trkpt><trkpt lat="43.51737393184162" lon="3.2737014500279065"><ele>112.2</ele><time>2026-04-06T09:01:24Z</time></trkpt><trkpt lat="43.51746661825335" lon="3.2737621584186614"><ele>113.79999999999998</ele><time>2026-04-06T09:01:26Z</time></trkpt><trkpt lat="43.51756056388843" lon="3.2738101792047414"><ele>115.39999999999999</ele><time>2026-04-06T09:01:28Z</time></trkpt><trkpt lat="43.51765694177635" lon="3.2738611525237618"><ele>117.0</ele><time>2026-04-06T09:01:30Z</time></trkpt><trkpt lat="43.51775084021585" lon="3.2739271432239345"><ele>117.19999999999999</ele><time>2026-04-06T09:01:32Z</time></trkpt><trkpt lat="43.517846700411575" lon="3.2739863801815945"><ele>117.39999999999999</ele><time>2026-04-06T09:01:34Z</time></trkpt><trkpt lat="43.51794250547131" lon="3.274041361198048"><ele>117.60000000000001</ele><time>2026-04-06T09:01:36Z</time></trkpt><trkpt lat="43.51803450924636" lon="3.274098132417342"><ele>117.80000000000001</ele><time>2026-04-06T09:01:38Z</time></trkpt><trkpt lat="43.518127770319666" lon="3.274150303293339"><ele>118.0</ele><time>2026-04-06T09:01:40Z</time></trkpt><trkpt lat="43.518220385585764" lon="3.2742173418988423"><ele>118.0</ele><time>2026-04-06T09:01:42Z</time></trkpt><trkpt lat="43.51831333870671" lon="3.274283702325212"><ele>118.00000000000001</ele><time>2026-04-06T09:01:44Z</time></trkpt><trkpt lat="43.51840642586149" lon="3.2743443249817488"><ele>118.00000000000001</ele><time>2026-04-06T09:01:46Z</time></trkpt><trkpt lat="43.51849067979989" lon="3.274418411229183"><ele>118.0</ele><time>2026-04-06T09:01:48Z</time></trkpt><trkpt lat="43.518557803015845" lon="3.2745138351074443"><ele>118.0</ele><time>2026-04-06T09:01:50Z</time></trkpt><trkpt lat="43.51859035275811" lon="3.2746606818559556"><ele>117.0</ele><time>2026-04-06T09:01:52Z</time></trkpt><trkpt lat="43.51861341497438" lon="3.274826958803082"><ele>116.00000000000001</ele><time>2026-04-06T09:01:54Z</time></trkpt><trkpt lat="43.518646171377696" lon="3.2749955263569017"><ele>115.00000000000001</ele><time>2026-04-06T09:01:56Z</time></trkpt><trkpt lat="43.51866408701163" lon="3.2750838596087846"><ele>114.0</ele><time>2026-04-06T09:01:57Z</time></trkpt><trkpt lat="43.5186802105278" lon="3.2751715649641224"><ele>113.0</ele><time>2026-04-06T09:01:58Z</time></trkpt><trkpt lat="43.51869464757702" lon="3.2752634055401653"><ele>113.0</ele><time>2026-04-06T09:01:59Z</time></trkpt><trkpt lat="43.51870924860077" lon="3.27535552693127"><ele>113.0</ele><time>2026-04-06T09:02:00Z</time></trkpt><trkpt lat="43.51872531161683" lon="3.27544935696658"><ele>113.0</ele><time>2026-04-06T09:02:01Z</time></trkpt><trkpt lat="43.51874536941682" lon="3.275542283292965"><ele>113.0</ele><time>2026-04-06T09:02:02Z</time></trkpt><trkpt lat="43.51877867887487" lon="3.2756262547362622"><ele>113.0</ele><time>2026-04-06T09:02:03Z</time></trkpt><trkpt lat="43.51881361809674" lon="3.275703217153531"><ele>113.0</ele><time>2026-04-06T09:02:04Z</time></trkpt><trkpt lat="43.51885406201449" lon="3.275779357712823"><ele>113.0</ele><time>2026-04-06T09:02:05Z</time></trkpt><trkpt lat="43.51889429340867" lon="3.2758568506007566"><ele>113.85714285714286</ele><time>2026-04-06T09:02:06Z</time></trkpt><trkpt lat="43.518934095206255" lon="3.275930294911874"><ele>114.71428571428571</ele><time>2026-04-06T09:02:07Z</time></trkpt><trkpt lat="43.518969956921254" lon="3.2760086293599864"><ele>115.57142857142857</ele><time>2026-04-06T09:02:08Z</time></trkpt><trkpt lat="43.51900754862341" lon="3.2760817453401767"><ele>116.42857142857143</ele><time>2026-04-06T09:02:09Z</time></trkpt><trkpt lat="43.51904681405444" lon="3.276153910354297"><ele>117.28571428571428</ele><time>2026-04-06T09:02:10Z</time></trkpt><trkpt lat="43.5190849597669" lon="3.276224634703571"><ele>118.14285714285714</ele><time>2026-04-06T09:02:11Z</time></trkpt><trkpt lat="43.519121025484296" lon="3.2762989276153602"><ele>119.0</ele><time>2026-04-06T09:02:12Z</time></trkpt><trkpt lat="43.51916199220545" lon="3.2763678608466966"><ele>117.66666666666666</ele><time>2026-04-06T09:02:13Z</time></trkpt><trkpt lat="43.51919909702507" lon="3.2764400694263687"><ele>116.33333333333333</ele><time>2026-04-06T09:02:14Z</time></trkpt><trkpt lat="43.51927484166905" lon="3.2765821283926493"><ele>115.0</ele><time>2026-04-06T09:02:16Z</time></trkpt><trkpt lat="43.5193123005805" lon="3.276653264657752"><ele>113.66666666666666</ele><time>2026-04-06T09:02:17Z</time></trkpt><trkpt lat="43.5193501664605" lon="3.2767231428421537"><ele>112.33333333333333</ele><time>2026-04-06T09:02:18Z</time></trkpt><trkpt lat="43.519425657842284" lon="3.2768625247551992"><ele>111.0</ele><time>2026-04-06T09:02:20Z</time></trkpt><trkpt lat="43.51949943090549" lon="3.277000920935233"><ele>111.83333333333333</ele><time>2026-04-06T09:02:22Z</time></trkpt><trkpt lat="43.51957137487763" lon="3.277144741122513"><ele>112.66666666666666</ele><time>2026-04-06T09:02:24Z</time></trkpt><trkpt lat="43.51961180005012" lon="3.2772156838951285"><ele>113.5</ele><time>2026-04-06T09:02:25Z</time></trkpt><trkpt lat="43.51965476922725" lon="3.277284941781349"><ele>114.33333333333333</ele><time>2026-04-06T09:02:26Z</time></trkpt><trkpt lat="43.519695716743044" lon="3.2773529772018337"><ele>115.16666666666666</ele><time>2026-04-06T09:02:27Z</time></trkpt><trkpt lat="43.51976810627475" lon="3.2774938916848257"><ele>116.0</ele><time>2026-04-06T09:02:29Z</time></trkpt><trkpt lat="43.51984548369988" lon="3.2776228900656994"><ele>116.0</ele><time>2026-04-06T09:02:31Z</time></trkpt><trkpt lat="43.5199375821851" lon="3.2777352220963287"><ele>116.0</ele><time>2026-04-06T09:02:33Z</time></trkpt><trkpt lat="43.520034640675796" lon="3.2778380633958992"><ele>116.0</ele><time>2026-04-06T09:02:35Z</time></trkpt><trkpt lat="43.52012372582174" lon="3.2779427212554157"><ele>116.0</ele><time>2026-04-06T09:02:37Z</time></trkpt><trkpt lat="43.520209125503705" lon="3.278040283693098"><ele>116.19999999999999</ele><time>2026-04-06T09:02:39Z</time></trkpt><trkpt lat="43.52029283603633" lon="3.278138653310729"><ele>116.39999999999999</ele><time>2026-04-06T09:02:41Z</time></trkpt><trkpt lat="43.52037208767532" lon="3.2782414930088635"><ele>116.6</ele><time>2026-04-06T09:02:43Z</time></trkpt><trkpt lat="43.52045023303163" lon="3.2783362192020697"><ele>116.8</ele><time>2026-04-06T09:02:45Z</time></trkpt><trkpt lat="43.520528747267576" lon="3.2784169936341905"><ele>117.0</ele><time>2026-04-06T09:02:47Z</time></trkpt><trkpt lat="43.52061339318801" lon="3.2784482489655575"><ele>117.0</ele><time>2026-04-06T09:02:49Z</time></trkpt><trkpt lat="43.52072530552569" lon="3.2784141112829204"><ele>116.99999999999999</ele><time>2026-04-06T09:02:51Z</time></trkpt><trkpt lat="43.520812224622084" lon="3.2783960267551806"><ele>116.99999999999999</ele><time>2026-04-06T09:02:53Z</time></trkpt><trkpt lat="43.520886627485694" lon="3.278367894363201"><ele>117.0</ele><time>2026-04-06T09:02:54Z</time></trkpt><trkpt lat="43.52100178909179" lon="3.278327614803656"><ele>117.0</ele><time>2026-04-06T09:02:56Z</time></trkpt><trkpt lat="43.52106423561254" lon="3.2783437313227655"><ele>117.0</ele><time>2026-04-06T09:02:57Z</time></trkpt><trkpt lat="43.52118444611778" lon="3.278331204817606"><ele>117.0</ele><time>2026-04-06T09:02:59Z</time></trkpt><trkpt lat="43.521297183927025" lon="3.2783028422745466"><ele>117.0</ele><time>2026-04-06T09:03:01Z</time></trkpt><trkpt lat="43.52141421371685" lon="3.278284992182479"><ele>117.0</ele><time>2026-04-06T09:03:03Z</time></trkpt><trkpt lat="43.52153025526356" lon="3.278284667244659"><ele>117.5</ele><time>2026-04-06T09:03:05Z</time></trkpt><trkpt lat="43.521648020217405" lon="3.278301857897444"><ele>118.0</ele><time>2026-04-06T09:03:07Z</time></trkpt><trkpt lat="43.52176186886747" lon="3.2783308216601235"><ele>118.5</ele><time>2026-04-06T09:03:09Z</time></trkpt><trkpt lat="43.521872779073284" lon="3.278368132564338"><ele>119.0</ele><time>2026-04-06T09:03:11Z</time></trkpt><trkpt lat="43.52197671772773" lon="3.2784223870709943"><ele>121.0</ele><time>2026-04-06T09:03:13Z</time></trkpt><trkpt lat="43.522082423650005" lon="3.2784705632744386"><ele>123.0</ele><time>2026-04-06T09:03:15Z</time></trkpt><trkpt lat="43.522184953321464" lon="3.27850268520806"><ele>125.0</ele><time>2026-04-06T09:03:17Z</time></trkpt><trkpt lat="43.522292516788106" lon="3.278554785056958"><ele>127.0</ele><time>2026-04-06T09:03:19Z</time></trkpt><trkpt lat="43.52240678577401" lon="3.278616701778132"><ele>127.00000000000001</ele><time>2026-04-06T09:03:21Z</time></trkpt><trkpt lat="43.52246707445968" lon="3.278643281400981"><ele>127.0</ele><time>2026-04-06T09:03:22Z</time></trkpt><trkpt lat="43.52252825962898" lon="3.2786662829293527"><ele>127.0</ele><time>2026-04-06T09:03:23Z</time></trkpt><trkpt lat="43.522589943540225" lon="3.278689380090357"><ele>127.0</ele><time>2026-04-06T09:03:24Z</time></trkpt><trkpt lat="43.522704976543686" lon="3.278735197321005"><ele>127.00000000000001</ele><time>2026-04-06T09:03:26Z</time></trkpt><trkpt lat="43.52276642806561" lon="3.2787744399678256"><ele>127.0</ele><time>2026-04-06T09:03:27Z</time></trkpt><trkpt lat="43.522886870786486" lon="3.278813195525959"><ele>126.42857142857143</ele><time>2026-04-06T09:03:29Z</time></trkpt><trkpt lat="43.522948057931224" lon="3.2788474447069293"><ele>125.85714285714286</ele><time>2026-04-06T09:03:30Z</time></trkpt><trkpt lat="43.523009053299745" lon="3.278879128036783"><ele>125.28571428571429</ele><time>2026-04-06T09:03:31Z</time></trkpt><trkpt lat="43.52307020175476" lon="3.278907101761508"><ele>124.71428571428572</ele><time>2026-04-06T09:03:32Z</time></trkpt><trkpt lat="43.52313064723358" lon="3.278935016757152"><ele>124.14285714285714</ele><time>2026-04-06T09:03:33Z</time></trkpt><trkpt lat="43.52319298975453" lon="3.278959871229615"><ele>123.57142857142858</ele><time>2026-04-06T09:03:34Z</time></trkpt><trkpt lat="43.52325555158492" lon="3.2789882991411776"><ele>123.00000000000001</ele><time>2026-04-06T09:03:35Z</time></trkpt><trkpt lat="43.52331651326375" lon="3.279018690246616"><ele>123.0</ele><time>2026-04-06T09:03:36Z</time></trkpt><trkpt lat="43.52337757614843" lon="3.279052187852783"><ele>123.0</ele><time>2026-04-06T09:03:37Z</time></trkpt><trkpt lat="43.523434422974766" lon="3.279090716156146"><ele>123.0</ele><time>2026-04-06T09:03:38Z</time></trkpt><trkpt lat="43.52350073347399" lon="3.2791153372109214"><ele>123.0</ele><time>2026-04-06T09:03:39Z</time></trkpt><trkpt lat="43.523563431427455" lon="3.279138152525533"><ele>123.0</ele><time>2026-04-06T09:03:40Z</time></trkpt><trkpt lat="43.5236263340311" lon="3.279164549002919"><ele>123.0</ele><time>2026-04-06T09:03:41Z</time></trkpt><trkpt lat="43.5237449689751" lon="3.279219828680917"><ele>123.5</ele><time>2026-04-06T09:03:43Z</time></trkpt><trkpt lat="43.52380689407901" lon="3.279246847673021"><ele>124.0</ele><time>2026-04-06T09:03:44Z</time></trkpt><trkpt lat="43.52386950141801" lon="3.279272891906553"><ele>124.5</ele><time>2026-04-06T09:03:45Z</time></trkpt><trkpt lat="43.523999351904315" lon="3.279317691246854"><ele>125.0</ele><time>2026-04-06T09:03:47Z</time></trkpt><trkpt lat="43.524068063554594" lon="3.279355582996973"><ele>125.5</ele><time>2026-04-06T09:03:48Z</time></trkpt><trkpt lat="43.524139114486154" lon="3.2793748622788637"><ele>126.0</ele><time>2026-04-06T09:03:49Z</time></trkpt><trkpt lat="43.524212424107944" lon="3.2793948553472676"><ele>126.0</ele><time>2026-04-06T09:03:50Z</time></trkpt><trkpt lat="43.52428942723733" lon="3.2794147886159712"><ele>126.0</ele><time>2026-04-06T09:03:51Z</time></trkpt><trkpt lat="43.52437173302384" lon="3.2794357698595746"><ele>126.0</ele><time>2026-04-06T09:03:52Z</time></trkpt><trkpt lat="43.52445061265678" lon="3.2794494267808156"><ele>126.0</ele><time>2026-04-06T09:03:53Z</time></trkpt><trkpt lat="43.52453604525961" lon="3.279474169881762"><ele>126.0</ele><time>2026-04-06T09:03:54Z</time></trkpt><trkpt lat="43.52461156168781" lon="3.2795019527532485"><ele>126.0</ele><time>2026-04-06T09:03:55Z</time></trkpt><trkpt lat="43.524700135765876" lon="3.2795324413423232"><ele>125.8</ele><time>2026-04-06T09:03:56Z</time></trkpt><trkpt lat="43.524786935258966" lon="3.279554690075752"><ele>125.6</ele><time>2026-04-06T09:03:57Z</time></trkpt><trkpt lat="43.52487537257702" lon="3.2795734414312796"><ele>125.4</ele><time>2026-04-06T09:03:58Z</time></trkpt><trkpt lat="43.52496460373044" lon="3.279574265678986"><ele>125.2</ele><time>2026-04-06T09:03:59Z</time></trkpt><trkpt lat="43.52505485668149" lon="3.2795498395210965"><ele>125.0</ele><time>2026-04-06T09:04:00Z</time></trkpt><trkpt lat="43.525141153069114" lon="3.2795069181896093"><ele>124.99999999999999</ele><time>2026-04-06T09:04:01Z</time></trkpt><trkpt lat="43.525222350500144" lon="3.279454549954393"><ele>125.0</ele><time>2026-04-06T09:04:02Z</time></trkpt><trkpt lat="43.525302724991136" lon="3.2794080321058443"><ele>125.0</ele><time>2026-04-06T09:04:03Z</time></trkpt><trkpt lat="43.525383048681675" lon="3.279371385896575"><ele>125.0</ele><time>2026-04-06T09:04:04Z</time></trkpt><trkpt lat="43.52546520645357" lon="3.2793382419327552"><ele>124.99999999999999</ele><time>2026-04-06T09:04:05Z</time></trkpt><trkpt lat="43.52553952178506" lon="3.279290029509393"><ele>125.0</ele><time>2026-04-06T09:04:06Z</time></trkpt><trkpt lat="43.52561524661682" lon="3.2792512419032924"><ele>124.33333333333333</ele><time>2026-04-06T09:04:07Z</time></trkpt><trkpt lat="43.525687817168595" lon="3.2792082136356977"><ele>123.66666666666666</ele><time>2026-04-06T09:04:08Z</time></trkpt><trkpt lat="43.52575406367588" lon="3.2791506550925957"><ele>123.0</ele><time>2026-04-06T09:04:09Z</time></trkpt><trkpt lat="43.52582137445013" lon="3.2790980629202005"><ele>122.33333333333334</ele><time>2026-04-06T09:04:10Z</time></trkpt><trkpt lat="43.52588608956642" lon="3.279049768159667"><ele>121.66666666666667</ele><time>2026-04-06T09:04:11Z</time></trkpt><trkpt lat="43.525950213505894" lon="3.27899886802207"><ele>121.0</ele><time>2026-04-06T09:04:12Z</time></trkpt><trkpt lat="43.52601207732381" lon="3.278948837024266"><ele>122.00000000000001</ele><time>2026-04-06T09:04:13Z</time></trkpt><trkpt lat="43.526073081624205" lon="3.278898267424649"><ele>123.0</ele><time>2026-04-06T09:04:14Z</time></trkpt><trkpt lat="43.52613310724938" lon="3.278849915323874"><ele>124.0</ele><time>2026-04-06T09:04:15Z</time></trkpt><trkpt lat="43.52618873210341" lon="3.278800395810237"><ele>125.0</ele><time>2026-04-06T09:04:16Z</time></trkpt><trkpt lat="43.52624362198674" lon="3.2787498807065214"><ele>126.00000000000001</ele><time>2026-04-06T09:04:17Z</time></trkpt><trkpt lat="43.52629550344877" lon="3.278698783909353"><ele>127.0</ele><time>2026-04-06T09:04:18Z</time></trkpt><trkpt lat="43.526398381359066" lon="3.2786103240490205"><ele>127.0</ele><time>2026-04-06T09:04:20Z</time></trkpt><trkpt lat="43.5265039926329" lon="3.278528944588588"><ele>127.0</ele><time>2026-04-06T09:04:22Z</time></trkpt><trkpt lat="43.52660540404497" lon="3.278439890257418"><ele>127.0</ele><time>2026-04-06T09:04:24Z</time></trkpt><trkpt lat="43.52670598334257" lon="3.278345600328148"><ele>127.0</ele><time>2026-04-06T09:04:26Z</time></trkpt><trkpt lat="43.526817169913464" lon="3.278277441990454"><ele>127.0</ele><time>2026-04-06T09:04:28Z</time></trkpt><trkpt lat="43.52693554214305" lon="3.2782282128308653"><ele>127.0</ele><time>2026-04-06T09:04:30Z</time></trkpt><trkpt lat="43.52705413588391" lon="3.278179940424772"><ele>127.0</ele><time>2026-04-06T09:04:32Z</time></trkpt><trkpt lat="43.52717401546124" lon="3.278150052037678"><ele>127.0</ele><time>2026-04-06T09:04:34Z</time></trkpt><trkpt lat="43.52728823979478" lon="3.2781304251932464"><ele>125.8</ele><time>2026-04-06T09:04:36Z</time></trkpt><trkpt lat="43.5273502843213" lon="3.2781145049073626"><ele>124.6</ele><time>2026-04-06T09:04:37Z</time></trkpt><trkpt lat="43.52746553555308" lon="3.278060581376221"><ele>123.39999999999999</ele><time>2026-04-06T09:04:39Z</time></trkpt><trkpt lat="43.527578877679105" lon="3.2779926288021115"><ele>122.19999999999999</ele><time>2026-04-06T09:04:41Z</time></trkpt><trkpt lat="43.52769094223334" lon="3.277928768865286"><ele>121.0</ele><time>2026-04-06T09:04:43Z</time></trkpt><trkpt lat="43.52780949277615" lon="3.2778912742461617"><ele>121.4</ele><time>2026-04-06T09:04:45Z</time></trkpt><trkpt lat="43.52787244460697" lon="3.277892588729544"><ele>121.8</ele><time>2026-04-06T09:04:46Z</time></trkpt><trkpt lat="43.52798283714172" lon="3.2779734434981758"><ele>122.20000000000002</ele><time>2026-04-06T09:04:48Z</time></trkpt><trkpt lat="43.528071697421765" lon="3.2780905193328653"><ele>122.60000000000001</ele><time>2026-04-06T09:04:50Z</time></trkpt><trkpt lat="43.528172340163025" lon="3.278199872450942"><ele>123.0</ele><time>2026-04-06T09:04:52Z</time></trkpt><trkpt lat="43.52827943795124" lon="3.2782559903115938"><ele>123.00000000000001</ele><time>2026-04-06T09:04:54Z</time></trkpt><trkpt lat="43.52834519018692" lon="3.2782509367556716"><ele>123.0</ele><time>2026-04-06T09:04:55Z</time></trkpt><trkpt lat="43.528406944781054" lon="3.278216605632047"><ele>123.00000000000001</ele><time>2026-04-06T09:04:56Z</time></trkpt><trkpt lat="43.5284630611275" lon="3.2781649990889496"><ele>123.00000000000001</ele><time>2026-04-06T09:04:57Z</time></trkpt><trkpt lat="43.528515549273514" lon="3.278111478675225"><ele>123.0</ele><time>2026-04-06T09:04:58Z</time></trkpt><trkpt lat="43.52856857859774" lon="3.278060535868359"><ele>123.00000000000001</ele><time>2026-04-06T09:04:59Z</time></trkpt><trkpt lat="43.52862420478343" lon="3.2780129663670152"><ele>123.00000000000001</ele><time>2026-04-06T09:05:00Z</time></trkpt><trkpt lat="43.528678690033864" lon="3.2779650594425616"><ele>122.60000000000001</ele><time>2026-04-06T09:05:01Z</time></trkpt><trkpt lat="43.52873247166854" lon="3.2779171617417364"><ele>122.20000000000002</ele><time>2026-04-06T09:05:02Z</time></trkpt><trkpt lat="43.528835641613874" lon="3.277817047908594"><ele>121.8</ele><time>2026-04-06T09:05:04Z</time></trkpt><trkpt lat="43.52888773791974" lon="3.2777678351060247"><ele>121.4</ele><time>2026-04-06T09:05:05Z</time></trkpt><trkpt lat="43.52899250519194" lon="3.277677924406721"><ele>121.0</ele><time>2026-04-06T09:05:07Z</time></trkpt><trkpt lat="43.52908802696344" lon="3.2775824491085523"><ele>121.0</ele><time>2026-04-06T09:05:09Z</time></trkpt><trkpt lat="43.52918465151247" lon="3.2775187727619337"><ele>121.0</ele><time>2026-04-06T09:05:11Z</time></trkpt><trkpt lat="43.52928606857504" lon="3.277426014587937"><ele>121.0</ele><time>2026-04-06T09:05:13Z</time></trkpt><trkpt lat="43.52937562519834" lon="3.277333588221517"><ele>121.0</ele><time>2026-04-06T09:05:15Z</time></trkpt><trkpt lat="43.52948107610427" lon="3.2772565672491627"><ele>121.25</ele><time>2026-04-06T09:05:17Z</time></trkpt><trkpt lat="43.52959118251262" lon="3.277195351503454"><ele>121.5</ele><time>2026-04-06T09:05:19Z</time></trkpt><trkpt lat="43.52970069852478" lon="3.277144582114423"><ele>121.75</ele><time>2026-04-06T09:05:21Z</time></trkpt><trkpt lat="43.529812188393834" lon="3.277090438232776"><ele>122.0</ele><time>2026-04-06T09:05:23Z</time></trkpt><trkpt lat="43.52992378868596" lon="3.2770396217220874"><ele>122.0</ele><time>2026-04-06T09:05:25Z</time></trkpt><trkpt lat="43.530035274557754" lon="3.2769888137253"><ele>122.0</ele><time>2026-04-06T09:05:27Z</time></trkpt><trkpt lat="43.53014684893829" lon="3.2769300600736218"><ele>122.0</ele><time>2026-04-06T09:05:29Z</time></trkpt><trkpt lat="43.53025377557423" lon="3.2768680066732854"><ele>122.0</ele><time>2026-04-06T09:05:31Z</time></trkpt><trkpt lat="43.5303589534113" lon="3.2768125000076083"><ele>122.5</ele><time>2026-04-06T09:05:33Z</time></trkpt><trkpt lat="43.530468447115126" lon="3.2767753122337946"><ele>123.0</ele><time>2026-04-06T09:05:35Z</time></trkpt><trkpt lat="43.530575302460925" lon="3.2767227495555487"><ele>123.5</ele><time>2026-04-06T09:05:37Z</time></trkpt><trkpt lat="43.530683287659066" lon="3.276670822810694"><ele>124.0</ele><time>2026-04-06T09:05:39Z</time></trkpt><trkpt lat="43.53079756347961" lon="3.2766176146454793"><ele>124.0</ele><time>2026-04-06T09:05:41Z</time></trkpt><trkpt lat="43.530910174176896" lon="3.2765702052450236"><ele>124.0</ele><time>2026-04-06T09:05:43Z</time></trkpt><trkpt lat="43.53102306456373" lon="3.276515826252417"><ele>124.0</ele><time>2026-04-06T09:05:45Z</time></trkpt><trkpt lat="43.531137561026135" lon="3.2764563976893952"><ele>124.0</ele><time>2026-04-06T09:05:47Z</time></trkpt><trkpt lat="43.53124801127883" lon="3.2763921590216647"><ele>124.25</ele><time>2026-04-06T09:05:49Z</time></trkpt><trkpt lat="43.531359294115305" lon="3.276330402202974"><ele>124.5</ele><time>2026-04-06T09:05:51Z</time></trkpt><trkpt lat="43.53147108216506" lon="3.2762615124640266"><ele>124.75</ele><time>2026-04-06T09:05:53Z</time></trkpt><trkpt lat="43.5315787947383" lon="3.276185724160781"><ele>125.0</ele><time>2026-04-06T09:05:55Z</time></trkpt><trkpt lat="43.5316899110894" lon="3.2761195251802437"><ele>125.0</ele><time>2026-04-06T09:05:57Z</time></trkpt><trkpt lat="43.53180095165838" lon="3.276049678182854"><ele>125.0</ele><time>2026-04-06T09:05:59Z</time></trkpt><trkpt lat="43.53190953427799" lon="3.27597542916565"><ele>125.0</ele><time>2026-04-06T09:06:01Z</time></trkpt><trkpt lat="43.53201611969876" lon="3.2759044251451823"><ele>125.0</ele><time>2026-04-06T09:06:03Z</time></trkpt><trkpt lat="43.53212140623621" lon="3.275836217657555"><ele>125.75</ele><time>2026-04-06T09:06:05Z</time></trkpt><trkpt lat="43.532224429661" lon="3.2757581563552947"><ele>126.5</ele><time>2026-04-06T09:06:07Z</time></trkpt><trkpt lat="43.53233164832691" lon="3.2756882115810124"><ele>127.25</ele><time>2026-04-06T09:06:09Z</time></trkpt><trkpt lat="43.53243700712441" lon="3.2756133431036156"><ele>128.0</ele><time>2026-04-06T09:06:11Z</time></trkpt><trkpt lat="43.53254153950405" lon="3.275531732930396"><ele>128.0</ele><time>2026-04-06T09:06:13Z</time></trkpt><trkpt lat="43.53264880409794" lon="3.2754585176011903"><ele>128.0</ele><time>2026-04-06T09:06:15Z</time></trkpt><trkpt lat="43.53275274909987" lon="3.2753783690694034"><ele>128.0</ele><time>2026-04-06T09:06:17Z</time></trkpt><trkpt lat="43.53285294189537" lon="3.275283945331153"><ele>128.0</ele><time>2026-04-06T09:06:19Z</time></trkpt><trkpt lat="43.532953978635774" lon="3.275192824816773"><ele>128.5</ele><time>2026-04-06T09:06:21Z</time></trkpt><trkpt lat="43.533054002084725" lon="3.275104375239386"><ele>129.0</ele><time>2026-04-06T09:06:23Z</time></trkpt><trkpt lat="43.533157656986894" lon="3.2750349529916147"><ele>129.5</ele><time>2026-04-06T09:06:25Z</time></trkpt><trkpt lat="43.53326068173453" lon="3.2749760471245954"><ele>130.0</ele><time>2026-04-06T09:06:27Z</time></trkpt><trkpt lat="43.53336937940201" lon="3.274953564759386"><ele>130.0</ele><time>2026-04-06T09:06:29Z</time></trkpt><trkpt lat="43.53347504929839" lon="3.274975672052304"><ele>130.0</ele><time>2026-04-06T09:06:31Z</time></trkpt><trkpt lat="43.53357664503735" lon="3.2750108429519114"><ele>130.0</ele><time>2026-04-06T09:06:33Z</time></trkpt><trkpt lat="43.533674429325025" lon="3.27504697393579"><ele>130.0</ele><time>2026-04-06T09:06:35Z</time></trkpt><trkpt lat="43.533771753335806" lon="3.275066690073681"><ele>130.0</ele><time>2026-04-06T09:06:37Z</time></trkpt><trkpt lat="43.53387030653532" lon="3.275083937576097"><ele>131.8</ele><time>2026-04-06T09:06:39Z</time></trkpt><trkpt lat="43.533969096002004" lon="3.275081956294105"><ele>133.6</ele><time>2026-04-06T09:06:41Z</time></trkpt><trkpt lat="43.534068009909284" lon="3.2750454184009588"><ele>135.4</ele><time>2026-04-06T09:06:43Z</time></trkpt><trkpt lat="43.5341608023326" lon="3.274990264233698"><ele>137.2</ele><time>2026-04-06T09:06:45Z</time></trkpt><trkpt lat="43.53425868136309" lon="3.27495990683446"><ele>139.0</ele><time>2026-04-06T09:06:47Z</time></trkpt><trkpt lat="43.53435680563879" lon="3.274909895790966"><ele>139.0</ele><time>2026-04-06T09:06:49Z</time></trkpt><trkpt lat="43.5344539092582" lon="3.2748604050204233"><ele>139.0</ele><time>2026-04-06T09:06:51Z</time></trkpt><trkpt lat="43.534548290884025" lon="3.274798784809127"><ele>139.0</ele><time>2026-04-06T09:06:53Z</time></trkpt><trkpt lat="43.534643456646215" lon="3.274746237232386"><ele>139.0</ele><time>2026-04-06T09:06:55Z</time></trkpt><trkpt lat="43.53473968863895" lon="3.2746928634141197"><ele>139.0</ele><time>2026-04-06T09:06:57Z</time></trkpt><trkpt lat="43.53483775236618" lon="3.274646160426364"><ele>138.4</ele><time>2026-04-06T09:06:59Z</time></trkpt><trkpt lat="43.53493677918441" lon="3.274597082211372"><ele>137.8</ele><time>2026-04-06T09:07:01Z</time></trkpt><trkpt lat="43.535034111898916" lon="3.2745327788892156"><ele>137.2</ele><time>2026-04-06T09:07:03Z</time></trkpt><trkpt lat="43.53513362615679" lon="3.2744772678254694"><ele>136.6</ele><time>2026-04-06T09:07:05Z</time></trkpt><trkpt lat="43.535236091360545" lon="3.274426817621046"><ele>136.0</ele><time>2026-04-06T09:07:07Z</time></trkpt><trkpt lat="43.53533596735222" lon="3.274379882078801"><ele>137.2</ele><time>2026-04-06T09:07:09Z</time></trkpt><trkpt lat="43.5354405942221" lon="3.2743445590497116"><ele>138.39999999999998</ele><time>2026-04-06T09:07:11Z</time></trkpt><trkpt lat="43.53553312798158" lon="3.27427929921758"><ele>139.6</ele><time>2026-04-06T09:07:13Z</time></trkpt><trkpt lat="43.53563320466429" lon="3.274237286509985"><ele>140.79999999999998</ele><time>2026-04-06T09:07:15Z</time></trkpt><trkpt lat="43.5357237884675" lon="3.2741695741568466"><ele>142.0</ele><time>2026-04-06T09:07:17Z</time></trkpt><trkpt lat="43.53581230695072" lon="3.2741094696189026"><ele>142.0</ele><time>2026-04-06T09:07:19Z</time></trkpt><trkpt lat="43.53590240043233" lon="3.2740482223272176"><ele>142.0</ele><time>2026-04-06T09:07:21Z</time></trkpt><trkpt lat="43.535988412942366" lon="3.2739926425864385"><ele>142.0</ele><time>2026-04-06T09:07:23Z</time></trkpt><trkpt lat="43.536079178303126" lon="3.2739334475751276"><ele>142.0</ele><time>2026-04-06T09:07:25Z</time></trkpt><trkpt lat="43.536168620410315" lon="3.2738731715494764"><ele>142.0</ele><time>2026-04-06T09:07:27Z</time></trkpt><trkpt lat="43.53625900084691" lon="3.2738148047204474"><ele>140.79999999999998</ele><time>2026-04-06T09:07:29Z</time></trkpt><trkpt lat="43.536362651067314" lon="3.27376832038959"><ele>139.6</ele><time>2026-04-06T09:07:31Z</time></trkpt><trkpt lat="43.536463306142366" lon="3.273777702724559"><ele>138.39999999999998</ele><time>2026-04-06T09:07:33Z</time></trkpt><trkpt lat="43.536556962459414" lon="3.2737920255227246"><ele>137.2</ele><time>2026-04-06T09:07:35Z</time></trkpt><trkpt lat="43.53663779856324" lon="3.273802610932806"><ele>136.0</ele><time>2026-04-06T09:07:37Z</time></trkpt><trkpt lat="43.536736640720314" lon="3.2738186116685304"><ele>136.0</ele><time>2026-04-06T09:07:39Z</time></trkpt><trkpt lat="43.53683700378309" lon="3.2738381152520817"><ele>136.0</ele><time>2026-04-06T09:07:41Z</time></trkpt><trkpt lat="43.53694262140791" lon="3.273860126658894"><ele>136.0</ele><time>2026-04-06T09:07:43Z</time></trkpt><trkpt lat="43.53705035431445" lon="3.273874861664215"><ele>136.0</ele><time>2026-04-06T09:07:45Z</time></trkpt><trkpt lat="43.537154254833524" lon="3.2738911501966155"><ele>136.0</ele><time>2026-04-06T09:07:47Z</time></trkpt><trkpt lat="43.53725633339673" lon="3.2739109395311026"><ele>136.4</ele><time>2026-04-06T09:07:49Z</time></trkpt><trkpt lat="43.53735711937777" lon="3.2739263232271503"><ele>136.8</ele><time>2026-04-06T09:07:51Z</time></trkpt><trkpt lat="43.537442370817296" lon="3.273950033582327"><ele>137.20000000000002</ele><time>2026-04-06T09:07:53Z</time></trkpt><trkpt lat="43.53753227523586" lon="3.2739706720977493"><ele>137.6</ele><time>2026-04-06T09:07:55Z</time></trkpt><trkpt lat="43.537618799714274" lon="3.273992417764209"><ele>138.0</ele><time>2026-04-06T09:07:57Z</time></trkpt><trkpt lat="43.53770189358361" lon="3.2740125924870735"><ele>139.16666666666666</ele><time>2026-04-06T09:07:59Z</time></trkpt><trkpt lat="43.53779091128011" lon="3.2740351447285123"><ele>140.33333333333334</ele><time>2026-04-06T09:08:01Z</time></trkpt><trkpt lat="43.537878021567785" lon="3.274061303693531"><ele>141.5</ele><time>2026-04-06T09:08:03Z</time></trkpt><trkpt lat="43.53796422602007" lon="3.2740852755155054"><ele>142.66666666666669</ele><time>2026-04-06T09:08:05Z</time></trkpt><trkpt lat="43.53805267830342" lon="3.2741065422230986"><ele>143.83333333333334</ele><time>2026-04-06T09:08:07Z</time></trkpt><trkpt lat="43.53814076727174" lon="3.2741302053767534"><ele>145.0</ele><time>2026-04-06T09:08:09Z</time></trkpt><trkpt lat="43.53822760697657" lon="3.274158422352724"><ele>145.0</ele><time>2026-04-06T09:08:11Z</time></trkpt><trkpt lat="43.538314972864725" lon="3.27417511177759"><ele>145.0</ele><time>2026-04-06T09:08:13Z</time></trkpt><trkpt lat="43.5384014414749" lon="3.274200661656465"><ele>145.0</ele><time>2026-04-06T09:08:15Z</time></trkpt><trkpt lat="43.538491280911096" lon="3.274220762661377"><ele>145.0</ele><time>2026-04-06T09:08:17Z</time></trkpt><trkpt lat="43.53858121810875" lon="3.2742263399976816"><ele>145.0</ele><time>2026-04-06T09:08:19Z</time></trkpt><trkpt lat="43.538675024652505" lon="3.274219615775414"><ele>144.8</ele><time>2026-04-06T09:08:21Z</time></trkpt><trkpt lat="43.53876969875754" lon="3.2742060405177282"><ele>144.6</ele><time>2026-04-06T09:08:23Z</time></trkpt><trkpt lat="43.53886223749362" lon="3.274192343054362"><ele>144.4</ele><time>2026-04-06T09:08:25Z</time></trkpt><trkpt lat="43.53895383741812" lon="3.274174885675071"><ele>144.2</ele><time>2026-04-06T09:08:27Z</time></trkpt><trkpt lat="43.53904557424479" lon="3.274161479149024"><ele>144.0</ele><time>2026-04-06T09:08:29Z</time></trkpt><trkpt lat="43.53914855644374" lon="3.2741679072974947"><ele>144.0</ele><time>2026-04-06T09:08:31Z</time></trkpt><trkpt lat="43.53925129999079" lon="3.2741476004581416"><ele>144.0</ele><time>2026-04-06T09:08:33Z</time></trkpt><trkpt lat="43.53935344564247" lon="3.274110908202437"><ele>144.0</ele><time>2026-04-06T09:08:35Z</time></trkpt><trkpt lat="43.53945665202421" lon="3.274074249776152"><ele>144.0</ele><time>2026-04-06T09:08:37Z</time></trkpt><trkpt lat="43.53956387043749" lon="3.274031955173237"><ele>144.0</ele><time>2026-04-06T09:08:39Z</time></trkpt><trkpt lat="43.539677600985826" lon="3.273988967495488"><ele>143.2</ele><time>2026-04-06T09:08:41Z</time></trkpt><trkpt lat="43.539737847258706" lon="3.273957607763527"><ele>142.4</ele><time>2026-04-06T09:08:42Z</time></trkpt><trkpt lat="43.539855526079684" lon="3.273908277704712"><ele>141.6</ele><time>2026-04-06T09:08:44Z</time></trkpt><trkpt lat="43.539978269538125" lon="3.273855283486604"><ele>140.8</ele><time>2026-04-06T09:08:46Z</time></trkpt><trkpt lat="43.540042156198844" lon="3.2738439676136464"><ele>140.0</ele><time>2026-04-06T09:08:47Z</time></trkpt><trkpt lat="43.540154293541626" lon="3.2737621685338913"><ele>140.0</ele><time>2026-04-06T09:08:49Z</time></trkpt><trkpt lat="43.540252109522264" lon="3.2736683166313005"><ele>140.0</ele><time>2026-04-06T09:08:51Z</time></trkpt><trkpt lat="43.540345241962726" lon="3.2735735112698414"><ele>140.0</ele><time>2026-04-06T09:08:53Z</time></trkpt><trkpt lat="43.54042259589489" lon="3.273465216295707"><ele>140.0</ele><time>2026-04-06T09:08:55Z</time></trkpt><trkpt lat="43.540509156047925" lon="3.2733792521078025"><ele>140.0</ele><time>2026-04-06T09:08:57Z</time></trkpt><trkpt lat="43.5405934036266" lon="3.2732925332773832"><ele>140.0</ele><time>2026-04-06T09:08:59Z</time></trkpt><trkpt lat="43.54067724441109" lon="3.273210414930703"><ele>140.0</ele><time>2026-04-06T09:09:01Z</time></trkpt><trkpt lat="43.540761740179484" lon="3.2731276063146244"><ele>140.0</ele><time>2026-04-06T09:09:03Z</time></trkpt><trkpt lat="43.54084102957302" lon="3.2730464014586174"><ele>140.0</ele><time>2026-04-06T09:09:05Z</time></trkpt><trkpt lat="43.54091725928279" lon="3.2729642267384236"><ele>139.8</ele><time>2026-04-06T09:09:07Z</time></trkpt><trkpt lat="43.541006263582574" lon="3.272902223375573"><ele>139.6</ele><time>2026-04-06T09:09:09Z</time></trkpt><trkpt lat="43.541077428758555" lon="3.2727999813528688"><ele>139.4</ele><time>2026-04-06T09:09:11Z</time></trkpt><trkpt lat="43.54115766639174" lon="3.2727188513656054"><ele>139.2</ele><time>2026-04-06T09:09:13Z</time></trkpt><trkpt lat="43.54124149981513" lon="3.272634101226407"><ele>139.0</ele><time>2026-04-06T09:09:15Z</time></trkpt><trkpt lat="43.541343514984625" lon="3.2725850967627577"><ele>139.0</ele><time>2026-04-06T09:09:17Z</time></trkpt><trkpt lat="43.54143389246037" lon="3.2725220095069143"><ele>139.0</ele><time>2026-04-06T09:09:19Z</time></trkpt><trkpt lat="43.54153283174012" lon="3.272498723228502"><ele>139.0</ele><time>2026-04-06T09:09:21Z</time></trkpt><trkpt lat="43.54162823279491" lon="3.272473669391276"><ele>139.0</ele><time>2026-04-06T09:09:23Z</time></trkpt><trkpt lat="43.541719762937916" lon="3.272451601403542"><ele>139.0</ele><time>2026-04-06T09:09:25Z</time></trkpt><trkpt lat="43.54180914264177" lon="3.2724291790458326"><ele>139.0</ele><time>2026-04-06T09:09:27Z</time></trkpt><trkpt lat="43.54189582320676" lon="3.2723999774220243"><ele>139.0</ele><time>2026-04-06T09:09:29Z</time></trkpt><trkpt lat="43.54198324490335" lon="3.2723715279894523"><ele>139.0</ele><time>2026-04-06T09:09:31Z</time></trkpt><trkpt lat="43.54206951684005" lon="3.272352820762984"><ele>139.0</ele><time>2026-04-06T09:09:33Z</time></trkpt><trkpt lat="43.54215654657725" lon="3.272320233007867"><ele>139.0</ele><time>2026-04-06T09:09:35Z</time></trkpt><trkpt lat="43.54224251373471" lon="3.2723085444270805"><ele>139.0</ele><time>2026-04-06T09:09:37Z</time></trkpt><trkpt lat="43.54233111637536" lon="3.2723073227369315"><ele>140.0</ele><time>2026-04-06T09:09:39Z</time></trkpt><trkpt lat="43.54242412484267" lon="3.272311938768051"><ele>141.0</ele><time>2026-04-06T09:09:41Z</time></trkpt><trkpt lat="43.542517630708595" lon="3.27234849072336"><ele>142.0</ele><time>2026-04-06T09:09:43Z</time></trkpt><trkpt lat="43.54260174823742" lon="3.2724178877647923"><ele>143.0</ele><time>2026-04-06T09:09:45Z</time></trkpt><trkpt lat="43.542688194999535" lon="3.272496602654738"><ele>144.0</ele><time>2026-04-06T09:09:47Z</time></trkpt><trkpt lat="43.542781972373305" lon="3.2725655437998666"><ele>144.4</ele><time>2026-04-06T09:09:49Z</time></trkpt><trkpt lat="43.542886720813584" lon="3.272610239737188"><ele>144.8</ele><time>2026-04-06T09:09:51Z</time></trkpt><trkpt lat="43.542985535727574" lon="3.2726364998651793"><ele>145.2</ele><time>2026-04-06T09:09:53Z</time></trkpt><trkpt lat="43.54309012995334" lon="3.2726515976028363"><ele>145.6</ele><time>2026-04-06T09:09:55Z</time></trkpt><trkpt lat="43.543198099172216" lon="3.2726587970969407"><ele>146.0</ele><time>2026-04-06T09:09:57Z</time></trkpt><trkpt lat="43.5433010641941" lon="3.272661838632187"><ele>146.0</ele><time>2026-04-06T09:09:59Z</time></trkpt><trkpt lat="43.54340253491072" lon="3.272671185490417"><ele>146.0</ele><time>2026-04-06T09:10:01Z</time></trkpt><trkpt lat="43.543508409153795" lon="3.272680916239161"><ele>146.0</ele><time>2026-04-06T09:10:03Z</time></trkpt><trkpt lat="43.54361189465821" lon="3.272681128076067"><ele>146.0</ele><time>2026-04-06T09:10:05Z</time></trkpt><trkpt lat="43.54371573074732" lon="3.272684961801169"><ele>146.0</ele><time>2026-04-06T09:10:07Z</time></trkpt><trkpt lat="43.54382448573371" lon="3.272692269946299"><ele>146.5</ele><time>2026-04-06T09:10:09Z</time></trkpt><trkpt lat="43.54393504621212" lon="3.272702938815577"><ele>147.0</ele><time>2026-04-06T09:10:11Z</time></trkpt><trkpt lat="43.54404981467916" lon="3.2727098581593657"><ele>147.5</ele><time>2026-04-06T09:10:13Z</time></trkpt><trkpt lat="43.544167268542786" lon="3.272712538040569"><ele>148.0</ele><time>2026-04-06T09:10:15Z</time></trkpt><trkpt lat="43.544284578169304" lon="3.272726902175188"><ele>148.0</ele><time>2026-04-06T09:10:17Z</time></trkpt><trkpt lat="43.54440515443985" lon="3.272734118986163"><ele>148.0</ele><time>2026-04-06T09:10:19Z</time></trkpt><trkpt lat="43.544523961699085" lon="3.272740793945206"><ele>148.0</ele><time>2026-04-06T09:10:21Z</time></trkpt><trkpt lat="43.544644276098055" lon="3.2727548009945364"><ele>148.0</ele><time>2026-04-06T09:10:23Z</time></trkpt><trkpt lat="43.54476196166416" lon="3.272760642332498"><ele>148.25</ele><time>2026-04-06T09:10:25Z</time></trkpt><trkpt lat="43.544877296515" lon="3.2727615138359405"><ele>148.5</ele><time>2026-04-06T09:10:27Z</time></trkpt><trkpt lat="43.54498950733194" lon="3.2727596989589847"><ele>148.75</ele><time>2026-04-06T09:10:29Z</time></trkpt><trkpt lat="43.54510160252656" lon="3.2727534759144725"><ele>149.0</ele><time>2026-04-06T09:10:31Z</time></trkpt><trkpt lat="43.54521632196727" lon="3.272742774167003"><ele>149.0</ele><time>2026-04-06T09:10:33Z</time></trkpt><trkpt lat="43.54533291620135" lon="3.2727384608264356"><ele>149.0</ele><time>2026-04-06T09:10:35Z</time></trkpt><trkpt lat="43.545447051394326" lon="3.2727320400692346"><ele>149.0</ele><time>2026-04-06T09:10:37Z</time></trkpt><trkpt lat="43.54556058227563" lon="3.2727240798587025"><ele>149.0</ele><time>2026-04-06T09:10:39Z</time></trkpt><trkpt lat="43.54567597597622" lon="3.2727222766650437"><ele>149.25</ele><time>2026-04-06T09:10:41Z</time></trkpt><trkpt lat="43.545795161267165" lon="3.27272255963188"><ele>149.5</ele><time>2026-04-06T09:10:43Z</time></trkpt><trkpt lat="43.545909926393804" lon="3.2727257183892084"><ele>149.75</ele><time>2026-04-06T09:10:45Z</time></trkpt><trkpt lat="43.54602300706137" lon="3.2727311154032384"><ele>150.0</ele><time>2026-04-06T09:10:47Z</time></trkpt><trkpt lat="43.546134739950524" lon="3.2727461752237295"><ele>151.75</ele><time>2026-04-06T09:10:49Z</time></trkpt><trkpt lat="43.546249146151055" lon="3.2727741426012598"><ele>153.5</ele><time>2026-04-06T09:10:51Z</time></trkpt><trkpt lat="43.54636443583459" lon="3.272793126503505"><ele>155.25</ele><time>2026-04-06T09:10:53Z</time></trkpt><trkpt lat="43.54647877677045" lon="3.272810667594448"><ele>157.0</ele><time>2026-04-06T09:10:55Z</time></trkpt><trkpt lat="43.54658960211191" lon="3.2728390045265385"><ele>157.0</ele><time>2026-04-06T09:10:57Z</time></trkpt><trkpt lat="43.54669014440221" lon="3.272858871115407"><ele>157.0</ele><time>2026-04-06T09:10:59Z</time></trkpt><trkpt lat="43.54678736689429" lon="3.2728695598253674"><ele>157.0</ele><time>2026-04-06T09:11:01Z</time></trkpt><trkpt lat="43.546885785179406" lon="3.272875929769952"><ele>157.0</ele><time>2026-04-06T09:11:03Z</time></trkpt><trkpt lat="43.54698937556554" lon="3.272876395703133"><ele>157.0</ele><time>2026-04-06T09:11:05Z</time></trkpt><trkpt lat="43.54709533853461" lon="3.2728690781987297"><ele>158.39999999999998</ele><time>2026-04-06T09:11:07Z</time></trkpt><trkpt lat="43.54719926392809" lon="3.27286939394929"><ele>159.79999999999998</ele><time>2026-04-06T09:11:09Z</time></trkpt><trkpt lat="43.54730342054101" lon="3.2728653107211905"><ele>161.2</ele><time>2026-04-06T09:11:11Z</time></trkpt><trkpt lat="43.54740855276242" lon="3.272853669574298"><ele>162.6</ele><time>2026-04-06T09:11:13Z</time></trkpt><trkpt lat="43.547511775941715" lon="3.272841320844201"><ele>164.0</ele><time>2026-04-06T09:11:15Z</time></trkpt><trkpt lat="43.54761248297548" lon="3.2728298447919277"><ele>164.0</ele><time>2026-04-06T09:11:17Z</time></trkpt><trkpt lat="43.547712463221146" lon="3.2728103457810396"><ele>164.0</ele><time>2026-04-06T09:11:19Z</time></trkpt><trkpt lat="43.54781300855708" lon="3.2727764286118233"><ele>164.0</ele><time>2026-04-06T09:11:21Z</time></trkpt><trkpt lat="43.547907967639105" lon="3.272730679759643"><ele>164.0</ele><time>2026-04-06T09:11:23Z</time></trkpt><trkpt lat="43.54800322871183" lon="3.2726802638528487"><ele>164.0</ele><time>2026-04-06T09:11:25Z</time></trkpt><trkpt lat="43.548097330172304" lon="3.2726266983724384"><ele>164.79999999999998</ele><time>2026-04-06T09:11:27Z</time></trkpt><trkpt lat="43.54818895833317" lon="3.27256571665606"><ele>165.6</ele><time>2026-04-06T09:11:29Z</time></trkpt><trkpt lat="43.54827471600981" lon="3.2725069884263034"><ele>166.4</ele><time>2026-04-06T09:11:31Z</time></trkpt><trkpt lat="43.54834819326685" lon="3.2724615056290425"><ele>167.2</ele><time>2026-04-06T09:11:33Z</time></trkpt><trkpt lat="43.548431240014075" lon="3.272422410038417"><ele>168.0</ele><time>2026-04-06T09:11:35Z</time></trkpt><trkpt lat="43.54852532446242" lon="3.272412966268588"><ele>168.0</ele><time>2026-04-06T09:11:37Z</time></trkpt><trkpt lat="43.548611767150014" lon="3.272407607053394"><ele>168.0</ele><time>2026-04-06T09:11:39Z</time></trkpt><trkpt lat="43.548685020576656" lon="3.2724388747747346"><ele>168.0</ele><time>2026-04-06T09:11:41Z</time></trkpt><trkpt lat="43.54875717261857" lon="3.2725083378908972"><ele>168.0</ele><time>2026-04-06T09:11:43Z</time></trkpt><trkpt lat="43.54882534796804" lon="3.272579899209333"><ele>168.0</ele><time>2026-04-06T09:11:45Z</time></trkpt><trkpt lat="43.548892560378846" lon="3.2726412935835354"><ele>168.0</ele><time>2026-04-06T09:11:47Z</time></trkpt><trkpt lat="43.54896948082735" lon="3.2726842447019733"><ele>169.4</ele><time>2026-04-06T09:11:49Z</time></trkpt><trkpt lat="43.5490541176326" lon="3.2727190224745724"><ele>170.8</ele><time>2026-04-06T09:11:51Z</time></trkpt><trkpt lat="43.54914407757109" lon="3.272728233020017"><ele>172.2</ele><time>2026-04-06T09:11:53Z</time></trkpt><trkpt lat="43.549240058521676" lon="3.2727134036826118"><ele>173.6</ele><time>2026-04-06T09:11:55Z</time></trkpt><trkpt lat="43.54933201716636" lon="3.2726966777251874"><ele>175.0</ele><time>2026-04-06T09:11:57Z</time></trkpt><trkpt lat="43.54941768722667" lon="3.2726731240928086"><ele>175.0</ele><time>2026-04-06T09:11:59Z</time></trkpt><trkpt lat="43.54949982038952" lon="3.2726602258039725"><ele>175.0</ele><time>2026-04-06T09:12:01Z</time></trkpt><trkpt lat="43.549584712530496" lon="3.2726511238944074"><ele>175.0</ele><time>2026-04-06T09:12:03Z</time></trkpt><trkpt lat="43.54966936641273" lon="3.272666530775238"><ele>175.0</ele><time>2026-04-06T09:12:05Z</time></trkpt><trkpt lat="43.54974692600551" lon="3.2727191958296085"><ele>175.0</ele><time>2026-04-06T09:12:07Z</time></trkpt><trkpt lat="43.54981090094516" lon="3.2728006242235685"><ele>175.0</ele><time>2026-04-06T09:12:09Z</time></trkpt><trkpt lat="43.549859326175195" lon="3.272901273432811"><ele>176.0</ele><time>2026-04-06T09:12:11Z</time></trkpt><trkpt lat="43.54990217483004" lon="3.273008458378417"><ele>177.0</ele><time>2026-04-06T09:12:13Z</time></trkpt><trkpt lat="43.549939186462765" lon="3.273117482027382"><ele>178.0</ele><time>2026-04-06T09:12:15Z</time></trkpt><trkpt lat="43.54996100698834" lon="3.2732321067651444"><ele>179.0</ele><time>2026-04-06T09:12:17Z</time></trkpt><trkpt lat="43.54997682559885" lon="3.273348184835977"><ele>180.0</ele><time>2026-04-06T09:12:19Z</time></trkpt><trkpt lat="43.54999470317485" lon="3.273461429928237"><ele>181.0</ele><time>2026-04-06T09:12:21Z</time></trkpt><trkpt lat="43.55000959711275" lon="3.2735795387358477"><ele>181.16666666666669</ele><time>2026-04-06T09:12:23Z</time></trkpt><trkpt lat="43.550023287029006" lon="3.273698305047176"><ele>181.33333333333334</ele><time>2026-04-06T09:12:25Z</time></trkpt><trkpt lat="43.550033189071875" lon="3.2738183215814245"><ele>181.5</ele><time>2026-04-06T09:12:27Z</time></trkpt><trkpt lat="43.55002478609154" lon="3.273934357149142"><ele>181.66666666666666</ele><time>2026-04-06T09:12:29Z</time></trkpt><trkpt lat="43.54999825253188" lon="3.2740492158801757"><ele>181.83333333333331</ele><time>2026-04-06T09:12:31Z</time></trkpt><trkpt lat="43.54995931195298" lon="3.2741562924031573"><ele>182.0</ele><time>2026-04-06T09:12:33Z</time></trkpt><trkpt lat="43.54991918285261" lon="3.274249691007904"><ele>182.5</ele><time>2026-04-06T09:12:35Z</time></trkpt><trkpt lat="43.54993657145101" lon="3.274344041858304"><ele>183.0</ele><time>2026-04-06T09:12:37Z</time></trkpt><trkpt lat="43.5500072787306" lon="3.274389219392703"><ele>183.5</ele><time>2026-04-06T09:12:39Z</time></trkpt><trkpt lat="43.550077416734965" lon="3.2743341114897895"><ele>184.0</ele><time>2026-04-06T09:12:41Z</time></trkpt><trkpt lat="43.55012082348995" lon="3.274227813190389"><ele>184.5</ele><time>2026-04-06T09:12:43Z</time></trkpt><trkpt lat="43.550168053985175" lon="3.274131517960867"><ele>185.0</ele><time>2026-04-06T09:12:45Z</time></trkpt><trkpt lat="43.55021534254346" lon="3.2740330530177544"><ele>184.5</ele><time>2026-04-06T09:12:47Z</time></trkpt><trkpt lat="43.55025860355196" lon="3.273931004643572"><ele>184.0</ele><time>2026-04-06T09:12:49Z</time></trkpt><trkpt lat="43.55030596811083" lon="3.2738238344673016"><ele>183.5</ele><time>2026-04-06T09:12:51Z</time></trkpt><trkpt lat="43.55032019934558" lon="3.2736958812488823"><ele>183.0</ele><time>2026-04-06T09:12:53Z</time></trkpt><trkpt lat="43.55031468604034" lon="3.2735689058882507"><ele>182.5</ele><time>2026-04-06T09:12:55Z</time></trkpt><trkpt lat="43.55031319874279" lon="3.2734624472740936"><ele>182.0</ele><time>2026-04-06T09:12:57Z</time></trkpt><trkpt lat="43.55034593371739" lon="3.273362781650594"><ele>186.6</ele><time>2026-04-06T09:13:00Z</time></trkpt><trkpt lat="43.55040531008625" lon="3.2734947285914333"><ele>191.2</ele><time>2026-04-06T09:13:03Z</time></trkpt><trkpt lat="43.55040945834868" lon="3.273611129955985"><ele>195.8</ele><time>2026-04-06T09:13:05Z</time></trkpt><trkpt lat="43.55040787672071" lon="3.27372560121644"><ele>200.4</ele><time>2026-04-06T09:13:07Z</time></trkpt><trkpt lat="43.550406292785176" lon="3.2738399923330816"><ele>205.0</ele><time>2026-04-06T09:13:09Z</time></trkpt><trkpt lat="43.55039857050211" lon="3.2739602941215735"><ele>206.66666666666666</ele><time>2026-04-06T09:13:11Z</time></trkpt><trkpt lat="43.550385433081175" lon="3.2740805365200147"><ele>208.33333333333331</ele><time>2026-04-06T09:13:13Z</time></trkpt><trkpt lat="43.550361397045734" lon="3.274201444679565"><ele>210.0</ele><time>2026-04-06T09:13:15Z</time></trkpt><trkpt lat="43.55032534150031" lon="3.274316047365909"><ele>211.66666666666669</ele><time>2026-04-06T09:13:17Z</time></trkpt><trkpt lat="43.550290296329884" lon="3.2744292858896813"><ele>213.33333333333334</ele><time>2026-04-06T09:13:19Z</time></trkpt><trkpt lat="43.55029337180066" lon="3.2745417745469574"><ele>215.0</ele><time>2026-04-06T09:13:21Z</time></trkpt><trkpt lat="43.55036693134097" lon="3.2746067456369254"><ele>215.0</ele><time>2026-04-06T09:13:23Z</time></trkpt><trkpt lat="43.55045345840815" lon="3.274550487931883"><ele>215.0</ele><time>2026-04-06T09:13:25Z</time></trkpt><trkpt lat="43.550484129350465" lon="3.274422158763132"><ele>215.0</ele><time>2026-04-06T09:13:27Z</time></trkpt><trkpt lat="43.55051978250388" lon="3.274307163278563"><ele>215.0</ele><time>2026-04-06T09:13:29Z</time></trkpt><trkpt lat="43.55054619113635" lon="3.2741904011316434"><ele>215.0</ele><time>2026-04-06T09:13:31Z</time></trkpt><trkpt lat="43.55057223625817" lon="3.2740752458413973"><ele>215.00000000000003</ele><time>2026-04-06T09:13:33Z</time></trkpt><trkpt lat="43.550599283615895" lon="3.273955659358116"><ele>215.0</ele><time>2026-04-06T09:13:35Z</time></trkpt><trkpt lat="43.550625165148986" lon="3.273841596848548"><ele>215.0</ele><time>2026-04-06T09:13:37Z</time></trkpt><trkpt lat="43.55065017994947" lon="3.273728478570027"><ele>215.0</ele><time>2026-04-06T09:13:39Z</time></trkpt><trkpt lat="43.5506748767087" lon="3.2736069026693984"><ele>215.00000000000003</ele><time>2026-04-06T09:13:41Z</time></trkpt><trkpt lat="43.55070047368617" lon="3.273491021160958"><ele>215.0</ele><time>2026-04-06T09:13:43Z</time></trkpt><trkpt lat="43.55073722205999" lon="3.2733888739078525"><ele>213.33333333333334</ele><time>2026-04-06T09:13:45Z</time></trkpt><trkpt lat="43.550787438955595" lon="3.273303309458202"><ele>211.66666666666669</ele><time>2026-04-06T09:13:47Z</time></trkpt><trkpt lat="43.55084459121274" lon="3.2732437116032203"><ele>210.0</ele><time>2026-04-06T09:13:49Z</time></trkpt><trkpt lat="43.55091516657891" lon="3.273194144880161"><ele>208.33333333333331</ele><time>2026-04-06T09:13:51Z</time></trkpt><trkpt lat="43.550991348337135" lon="3.2731569443969737"><ele>206.66666666666666</ele><time>2026-04-06T09:13:53Z</time></trkpt><trkpt lat="43.55106670578768" lon="3.2731229781677644"><ele>205.0</ele><time>2026-04-06T09:13:55Z</time></trkpt><trkpt lat="43.551144266777" lon="3.2730860979383403"><ele>203.99999999999997</ele><time>2026-04-06T09:13:57Z</time></trkpt><trkpt lat="43.55122101095659" lon="3.2730586178486494"><ele>203.0</ele><time>2026-04-06T09:13:59Z</time></trkpt><trkpt lat="43.551300052455225" lon="3.2730290504469903"><ele>202.0</ele><time>2026-04-06T09:14:01Z</time></trkpt><trkpt lat="43.551381281924364" lon="3.2729981482548434"><ele>201.0</ele><time>2026-04-06T09:14:03Z</time></trkpt><trkpt lat="43.55146503218294" lon="3.2729851510906465"><ele>199.99999999999997</ele><time>2026-04-06T09:14:05Z</time></trkpt><trkpt lat="43.551549084979854" lon="3.272977951672747"><ele>199.0</ele><time>2026-04-06T09:14:07Z</time></trkpt><trkpt lat="43.55163392191841" lon="3.2729610868935777"><ele>198.99999999999997</ele><time>2026-04-06T09:14:09Z</time></trkpt><trkpt lat="43.55172149555303" lon="3.272949400840594"><ele>199.0</ele><time>2026-04-06T09:14:11Z</time></trkpt><trkpt lat="43.55180857202406" lon="3.27294708104422"><ele>199.0</ele><time>2026-04-06T09:14:13Z</time></trkpt><trkpt lat="43.55189643306531" lon="3.272930583576581"><ele>199.0</ele><time>2026-04-06T09:14:15Z</time></trkpt><trkpt lat="43.551982871106624" lon="3.2729031627559695"><ele>198.99999999999997</ele><time>2026-04-06T09:14:17Z</time></trkpt><trkpt lat="43.552069304607535" lon="3.2728865097345494"><ele>199.0</ele><time>2026-04-06T09:14:19Z</time></trkpt><trkpt lat="43.552157692155824" lon="3.2728797072292135"><ele>200.33333333333331</ele><time>2026-04-06T09:14:21Z</time></trkpt><trkpt lat="43.55224633652107" lon="3.2728847886913597"><ele>201.66666666666666</ele><time>2026-04-06T09:14:23Z</time></trkpt><trkpt lat="43.55233235766362" lon="3.2728990243570406"><ele>203.0</ele><time>2026-04-06T09:14:25Z</time></trkpt><trkpt lat="43.55241720822718" lon="3.2729279331393495"><ele>204.33333333333331</ele><time>2026-04-06T09:14:27Z</time></trkpt><trkpt lat="43.55249690904541" lon="3.2729735172719505"><ele>205.66666666666666</ele><time>2026-04-06T09:14:29Z</time></trkpt><trkpt lat="43.55257834826597" lon="3.2730177939824543"><ele>207.0</ele><time>2026-04-06T09:14:31Z</time></trkpt><trkpt lat="43.55264831714226" lon="3.2730719175139447"><ele>208.66666666666666</ele><time>2026-04-06T09:14:33Z</time></trkpt><trkpt lat="43.55270931521704" lon="3.273137491300879"><ele>210.33333333333331</ele><time>2026-04-06T09:14:35Z</time></trkpt><trkpt lat="43.55276904894433" lon="3.2732098086465884"><ele>212.0</ele><time>2026-04-06T09:14:37Z</time></trkpt><trkpt lat="43.552817931613696" lon="3.2732913001542547"><ele>213.66666666666666</ele><time>2026-04-06T09:14:39Z</time></trkpt><trkpt lat="43.552869141154424" lon="3.2733727452909425"><ele>215.33333333333331</ele><time>2026-04-06T09:14:41Z</time></trkpt><trkpt lat="43.55291302043033" lon="3.2734663168153584"><ele>217.0</ele><time>2026-04-06T09:14:43Z</time></trkpt><trkpt lat="43.55295494391055" lon="3.273562373967002"><ele>216.99999999999997</ele><time>2026-04-06T09:14:45Z</time></trkpt><trkpt lat="43.553007554573526" lon="3.273648150067099"><ele>217.0</ele><time>2026-04-06T09:14:47Z</time></trkpt><trkpt lat="43.55307332323463" lon="3.273717956412522"><ele>217.0</ele><time>2026-04-06T09:14:49Z</time></trkpt><trkpt lat="43.55315087930532" lon="3.2737657314174267"><ele>217.0</ele><time>2026-04-06T09:14:51Z</time></trkpt><trkpt lat="43.55323622556886" lon="3.2737818100582383"><ele>216.99999999999997</ele><time>2026-04-06T09:14:53Z</time></trkpt><trkpt lat="43.55331735938054" lon="3.2737875921967072"><ele>217.0</ele><time>2026-04-06T09:14:55Z</time></trkpt><trkpt lat="43.553399539559635" lon="3.273799983338192"><ele>216.99999999999997</ele><time>2026-04-06T09:14:57Z</time></trkpt><trkpt lat="43.553481350332106" lon="3.27381203795365"><ele>217.0</ele><time>2026-04-06T09:14:59Z</time></trkpt><trkpt lat="43.55354977209507" lon="3.273820954186699"><ele>217.0</ele><time>2026-04-06T09:15:01Z</time></trkpt><trkpt lat="43.553629735135914" lon="3.273819280214401"><ele>217.0</ele><time>2026-04-06T09:15:04Z</time></trkpt><trkpt lat="43.55371443441279" lon="3.2738353865489174"><ele>216.99999999999997</ele><time>2026-04-06T09:15:07Z</time></trkpt><trkpt lat="43.5537929835549" lon="3.27385023099341"><ele>217.0</ele><time>2026-04-06T09:15:09Z</time></trkpt><trkpt lat="43.55388020322078" lon="3.2738712542679993"><ele>217.0</ele><time>2026-04-06T09:15:11Z</time></trkpt><trkpt lat="43.5539715883389" lon="3.273894213956309"><ele>217.0</ele><time>2026-04-06T09:15:13Z</time></trkpt><trkpt lat="43.55406123337243" lon="3.273936864392403"><ele>217.0</ele><time>2026-04-06T09:15:15Z</time></trkpt><trkpt lat="43.55415521539179" lon="3.273985794868337"><ele>217.0</ele><time>2026-04-06T09:15:17Z</time></trkpt><trkpt lat="43.55424795022751" lon="3.274039091359056"><ele>217.0</ele><time>2026-04-06T09:15:19Z</time></trkpt><trkpt lat="43.55433939374687" lon="3.2740974137314245"><ele>219.39999999999998</ele><time>2026-04-06T09:15:21Z</time></trkpt><trkpt lat="43.5544302649591" lon="3.2741542566191804"><ele>221.79999999999998</ele><time>2026-04-06T09:15:23Z</time></trkpt><trkpt lat="43.5545246528531" lon="3.274199245720373"><ele>224.2</ele><time>2026-04-06T09:15:25Z</time></trkpt><trkpt lat="43.554625581408054" lon="3.2741975409526507"><ele>226.6</ele><time>2026-04-06T09:15:27Z</time></trkpt><trkpt lat="43.55472239090404" lon="3.2741651774787512"><ele>229.0</ele><time>2026-04-06T09:15:29Z</time></trkpt><trkpt lat="43.554815519530145" lon="3.2741413107374027"><ele>229.0</ele><time>2026-04-06T09:15:31Z</time></trkpt><trkpt lat="43.55491633382281" lon="3.2741218980539615"><ele>228.99999999999997</ele><time>2026-04-06T09:15:33Z</time></trkpt><trkpt lat="43.555011948829645" lon="3.274106483244998"><ele>228.99999999999997</ele><time>2026-04-06T09:15:35Z</time></trkpt><trkpt lat="43.555100923132784" lon="3.274079689567149"><ele>229.0</ele><time>2026-04-06T09:15:37Z</time></trkpt><trkpt lat="43.555183168161555" lon="3.274025141760845"><ele>229.0</ele><time>2026-04-06T09:15:39Z</time></trkpt><trkpt lat="43.555246512677236" lon="3.273931707540239"><ele>229.0</ele><time>2026-04-06T09:15:41Z</time></trkpt><trkpt lat="43.555273451695676" lon="3.273803659343401"><ele>228.99999999999997</ele><time>2026-04-06T09:15:43Z</time></trkpt><trkpt lat="43.55527825905549" lon="3.273668503283836"><ele>228.99999999999997</ele><time>2026-04-06T09:15:45Z</time></trkpt><trkpt lat="43.55527119845166" lon="3.273535571610494"><ele>229.0</ele><time>2026-04-06T09:15:47Z</time></trkpt><trkpt lat="43.55523683317947" lon="3.2734041110966623"><ele>229.0</ele><time>2026-04-06T09:15:49Z</time></trkpt><trkpt lat="43.55518894481815" lon="3.2732880608684303"><ele>229.0</ele><time>2026-04-06T09:15:51Z</time></trkpt><trkpt lat="43.555138332684216" lon="3.2731801502999938"><ele>228.99999999999997</ele><time>2026-04-06T09:15:53Z</time></trkpt><trkpt lat="43.55508743515002" lon="3.2730718497002305"><ele>228.99999999999997</ele><time>2026-04-06T09:15:55Z</time></trkpt><trkpt lat="43.555034408048236" lon="3.2729623577960902"><ele>229.0</ele><time>2026-04-06T09:15:57Z</time></trkpt><trkpt lat="43.5549816006873" lon="3.2728533196696086"><ele>229.0</ele><time>2026-04-06T09:15:59Z</time></trkpt><trkpt lat="43.55493015269391" lon="3.272742195913451"><ele>231.6</ele><time>2026-04-06T09:16:01Z</time></trkpt><trkpt lat="43.55487844325199" lon="3.272629628464839"><ele>234.2</ele><time>2026-04-06T09:16:03Z</time></trkpt><trkpt lat="43.55483059404775" lon="3.272513912549272"><ele>236.79999999999998</ele><time>2026-04-06T09:16:05Z</time></trkpt><trkpt lat="43.55478730467246" lon="3.2723965459336584"><ele>239.39999999999998</ele><time>2026-04-06T09:16:07Z</time></trkpt><trkpt lat="43.554747879945516" lon="3.272280821846926"><ele>242.0</ele><time>2026-04-06T09:16:09Z</time></trkpt><trkpt lat="43.554713252599754" lon="3.2721540314524025"><ele>243.50000000000003</ele><time>2026-04-06T09:16:11Z</time></trkpt><trkpt lat="43.554672081664684" lon="3.2720297641634652"><ele>245.0</ele><time>2026-04-06T09:16:13Z</time></trkpt><trkpt lat="43.554642423194984" lon="3.2718998955599967"><ele>246.5</ele><time>2026-04-06T09:16:15Z</time></trkpt><trkpt lat="43.55462926500649" lon="3.2717709331106573"><ele>248.0</ele><time>2026-04-06T09:16:17Z</time></trkpt><trkpt lat="43.554589699359816" lon="3.2716753618515706"><ele>249.50000000000003</ele><time>2026-04-06T09:16:19Z</time></trkpt><trkpt lat="43.55459028386126" lon="3.2715748000864155"><ele>251.0</ele><time>2026-04-06T09:16:21Z</time></trkpt><trkpt lat="43.55458756269261" lon="3.271458171003974"><ele>251.00000000000003</ele><time>2026-04-06T09:16:24Z</time></trkpt><trkpt lat="43.55466189631392" lon="3.2714530178918766"><ele>251.0</ele><time>2026-04-06T09:16:27Z</time></trkpt><trkpt lat="43.55469213849278" lon="3.2715592940695135"><ele>251.0</ele><time>2026-04-06T09:16:29Z</time></trkpt><trkpt lat="43.5547045492016" lon="3.2716567469877003"><ele>251.0</ele><time>2026-04-06T09:16:31Z</time></trkpt><trkpt lat="43.554746048043484" lon="3.271755103537293"><ele>251.00000000000003</ele><time>2026-04-06T09:16:33Z</time></trkpt><trkpt lat="43.55479608497169" lon="3.271841127976928"><ele>251.0</ele><time>2026-04-06T09:16:35Z</time></trkpt><trkpt lat="43.55484433348491" lon="3.2719215763209437"><ele>250.99999999999997</ele><time>2026-04-06T09:16:37Z</time></trkpt><trkpt lat="43.55489830297764" lon="3.2719919562676023"><ele>251.0</ele><time>2026-04-06T09:16:39Z</time></trkpt><trkpt lat="43.55495514156745" lon="3.2720534791313405"><ele>250.99999999999997</ele><time>2026-04-06T09:16:41Z</time></trkpt><trkpt lat="43.55500977754542" lon="3.2721200316553927"><ele>250.99999999999997</ele><time>2026-04-06T09:16:43Z</time></trkpt><trkpt lat="43.55506935215107" lon="3.272172122501814"><ele>251.0</ele><time>2026-04-06T09:16:45Z</time></trkpt><trkpt lat="43.555130910561445" lon="3.2722225325185823"><ele>250.99999999999997</ele><time>2026-04-06T09:16:47Z</time></trkpt><trkpt lat="43.555192261227155" lon="3.272278714443254"><ele>250.99999999999997</ele><time>2026-04-06T09:16:49Z</time></trkpt><trkpt lat="43.555253931294835" lon="3.272335439572521"><ele>251.28571428571425</ele><time>2026-04-06T09:16:51Z</time></trkpt><trkpt lat="43.55531933239267" lon="3.272385277283643"><ele>251.57142857142856</ele><time>2026-04-06T09:16:53Z</time></trkpt><trkpt lat="43.55538427200117" lon="3.272434317675523"><ele>251.85714285714286</ele><time>2026-04-06T09:16:55Z</time></trkpt><trkpt lat="43.555449779072475" lon="3.2724754273993613"><ele>252.14285714285714</ele><time>2026-04-06T09:16:57Z</time></trkpt><trkpt lat="43.55551555057187" lon="3.2725194190457914"><ele>252.42857142857144</ele><time>2026-04-06T09:16:59Z</time></trkpt><trkpt lat="43.55558065289717" lon="3.272559213946567"><ele>252.71428571428575</ele><time>2026-04-06T09:17:01Z</time></trkpt><trkpt lat="43.55564809451754" lon="3.27258866772722"><ele>253.00000000000003</ele><time>2026-04-06T09:17:03Z</time></trkpt><trkpt lat="43.555710913938604" lon="3.272619056791698"><ele>253.00000000000003</ele><time>2026-04-06T09:17:05Z</time></trkpt><trkpt lat="43.55577291985651" lon="3.2726492281983255"><ele>253.0</ele><time>2026-04-06T09:17:07Z</time></trkpt><trkpt lat="43.55583941433843" lon="3.2726627249482374"><ele>253.00000000000003</ele><time>2026-04-06T09:17:09Z</time></trkpt><trkpt lat="43.555906055447984" lon="3.2726622526856537"><ele>253.00000000000003</ele><time>2026-04-06T09:17:11Z</time></trkpt><trkpt lat="43.55597393761569" lon="3.272661834379822"><ele>253.0</ele><time>2026-04-06T09:17:13Z</time></trkpt><trkpt lat="43.55603979768824" lon="3.27266564308679"><ele>253.00000000000003</ele><time>2026-04-06T09:17:15Z</time></trkpt><trkpt lat="43.55610264700341" lon="3.2726509396414856"><ele>253.00000000000003</ele><time>2026-04-06T09:17:17Z</time></trkpt><trkpt lat="43.55617566436473" lon="3.272631596158171"><ele>253.83333333333331</ele><time>2026-04-06T09:17:19Z</time></trkpt><trkpt lat="43.55625446195792" lon="3.27261457590803"><ele>254.66666666666666</ele><time>2026-04-06T09:17:21Z</time></trkpt><trkpt lat="43.556331399638985" lon="3.2725964286756173"><ele>255.5</ele><time>2026-04-06T09:17:23Z</time></trkpt><trkpt lat="43.55640766088132" lon="3.272569400916847"><ele>256.3333333333333</ele><time>2026-04-06T09:17:25Z</time></trkpt><trkpt lat="43.556487030655234" lon="3.272555054204807"><ele>257.1666666666667</ele><time>2026-04-06T09:17:27Z</time></trkpt><trkpt lat="43.55656339205632" lon="3.272541104293217"><ele>258.0</ele><time>2026-04-06T09:17:29Z</time></trkpt><trkpt lat="43.55663543750534" lon="3.272531367536144"><ele>257.99999999999994</ele><time>2026-04-06T09:17:31Z</time></trkpt><trkpt lat="43.55671868275338" lon="3.2725200293195376"><ele>258.0</ele><time>2026-04-06T09:17:34Z</time></trkpt><trkpt lat="43.556786184383405" lon="3.2725187741043777"><ele>258.0</ele><time>2026-04-06T09:17:36Z</time></trkpt><trkpt lat="43.556858705417326" lon="3.2725190358444833"><ele>258.0</ele><time>2026-04-06T09:17:38Z</time></trkpt><trkpt lat="43.55692857970918" lon="3.2725178784050675"><ele>258.0</ele><time>2026-04-06T09:17:40Z</time></trkpt><trkpt lat="43.556994417792744" lon="3.272538973871624"><ele>257.99999999999994</ele><time>2026-04-06T09:17:42Z</time></trkpt><trkpt lat="43.55704755106077" lon="3.2726029994912413"><ele>258.0</ele><time>2026-04-06T09:17:44Z</time></trkpt><trkpt lat="43.557084704190196" lon="3.2726889105973123"><ele>258.4285714285714</ele><time>2026-04-06T09:17:46Z</time></trkpt><trkpt lat="43.55710650613792" lon="3.2727854609626217"><ele>258.85714285714283</ele><time>2026-04-06T09:17:48Z</time></trkpt><trkpt lat="43.557123912670505" lon="3.272880072046171"><ele>259.2857142857143</ele><time>2026-04-06T09:17:50Z</time></trkpt><trkpt lat="43.55713357704054" lon="3.2729778625137005"><ele>259.71428571428567</ele><time>2026-04-06T09:17:52Z</time></trkpt><trkpt lat="43.55714945650186" lon="3.273073977903266"><ele>260.1428571428571</ele><time>2026-04-06T09:17:54Z</time></trkpt><trkpt lat="43.55716200199639" lon="3.2731731137009272"><ele>260.57142857142856</ele><time>2026-04-06T09:17:56Z</time></trkpt><trkpt lat="43.55718117788142" lon="3.2732721911413183"><ele>261.0</ele><time>2026-04-06T09:17:58Z</time></trkpt><trkpt lat="43.557199620671966" lon="3.2733691009614123"><ele>261.8571428571429</ele><time>2026-04-06T09:18:00Z</time></trkpt><trkpt lat="43.557229963014095" lon="3.273462416958443"><ele>262.7142857142857</ele><time>2026-04-06T09:18:01.999Z</time></trkpt><trkpt lat="43.557268366824474" lon="3.273548937604609"><ele>263.57142857142856</ele><time>2026-04-06T09:18:04Z</time></trkpt><trkpt lat="43.5573155530056" lon="3.2736265648751735"><ele>264.42857142857144</ele><time>2026-04-06T09:18:06Z</time></trkpt><trkpt lat="43.557373157271996" lon="3.2736922892042233"><ele>265.2857142857143</ele><time>2026-04-06T09:18:08Z</time></trkpt><trkpt lat="43.5574370713878" lon="3.2737487048162053"><ele>266.14285714285717</ele><time>2026-04-06T09:18:10Z</time></trkpt><trkpt lat="43.55750833249166" lon="3.2737852359859954"><ele>267.0</ele><time>2026-04-06T09:18:12Z</time></trkpt><trkpt lat="43.55758332116461" lon="3.2738060507666376"><ele>267.0</ele><time>2026-04-06T09:18:14Z</time></trkpt><trkpt lat="43.557654466390964" lon="3.2738086476560495"><ele>267.0</ele><time>2026-04-06T09:18:16Z</time></trkpt><trkpt lat="43.557724200424005" lon="3.2738141892611"><ele>267.0</ele><time>2026-04-06T09:18:18Z</time></trkpt><trkpt lat="43.55779723535357" lon="3.273819393368265"><ele>267.0</ele><time>2026-04-06T09:18:20Z</time></trkpt><trkpt lat="43.557871006792226" lon="3.2738369179433486"><ele>267.0</ele><time>2026-04-06T09:18:22Z</time></trkpt><trkpt lat="43.557951739976296" lon="3.2738297381238963"><ele>267.0</ele><time>2026-04-06T09:18:24Z</time></trkpt><trkpt lat="43.55802921128653" lon="3.2738834081453634"><ele>266.4</ele><time>2026-04-06T09:18:26Z</time></trkpt><trkpt lat="43.558103416135545" lon="3.2739472714865254"><ele>265.79999999999995</ele><time>2026-04-06T09:18:28Z</time></trkpt><trkpt lat="43.55818134479197" lon="3.2740347607784948"><ele>265.2</ele><time>2026-04-06T09:18:30Z</time></trkpt><trkpt lat="43.558234314118664" lon="3.2741695371909687"><ele>264.59999999999997</ele><time>2026-04-06T09:18:32Z</time></trkpt><trkpt lat="43.55827060897124" lon="3.2743263887019323"><ele>264.0</ele><time>2026-04-06T09:18:34Z</time></trkpt><trkpt lat="43.558286016678025" lon="3.2744107365480954"><ele>264.0</ele><time>2026-04-06T09:18:35Z</time></trkpt><trkpt lat="43.558303195618755" lon="3.2744984183035073"><ele>264.0</ele><time>2026-04-06T09:18:36Z</time></trkpt><trkpt lat="43.558320725505695" lon="3.274589072772861"><ele>264.0</ele><time>2026-04-06T09:18:37Z</time></trkpt><trkpt lat="43.55834050463323" lon="3.2746813749128174"><ele>264.0</ele><time>2026-04-06T09:18:38Z</time></trkpt><trkpt lat="43.55836198204431" lon="3.2747766802690212"><ele>264.0</ele><time>2026-04-06T09:18:39Z</time></trkpt><trkpt lat="43.55838719382553" lon="3.2748717614855547"><ele>264.0</ele><time>2026-04-06T09:18:40Z</time></trkpt><trkpt lat="43.55841595811379" lon="3.2749633058431606"><ele>264.0</ele><time>2026-04-06T09:18:41Z</time></trkpt><trkpt lat="43.558460849166174" lon="3.2750445298901982"><ele>264.2857142857143</ele><time>2026-04-06T09:18:42Z</time></trkpt><trkpt lat="43.5585152840332" lon="3.2751059291620903"><ele>264.57142857142856</ele><time>2026-04-06T09:18:43Z</time></trkpt><trkpt lat="43.558580863952265" lon="3.2751369004825928"><ele>264.8571428571429</ele><time>2026-04-06T09:18:44Z</time></trkpt><trkpt lat="43.55864374086494" lon="3.2751757287278287"><ele>265.1428571428571</ele><time>2026-04-06T09:18:45Z</time></trkpt><trkpt lat="43.55871647703311" lon="3.275171889129732"><ele>265.42857142857144</ele><time>2026-04-06T09:18:46Z</time></trkpt><trkpt lat="43.558784795248" lon="3.275116040602897"><ele>265.7142857142857</ele><time>2026-04-06T09:18:47Z</time></trkpt><trkpt lat="43.55885086675653" lon="3.2750745988511247"><ele>266.0</ele><time>2026-04-06T09:18:48Z</time></trkpt><trkpt lat="43.55892401375813" lon="3.2750478622804553"><ele>265.1666666666667</ele><time>2026-04-06T09:18:49Z</time></trkpt><trkpt lat="43.55899128262521" lon="3.275001833178525"><ele>264.33333333333337</ele><time>2026-04-06T09:18:50Z</time></trkpt><trkpt lat="43.559059212555766" lon="3.2749532115846787"><ele>263.5</ele><time>2026-04-06T09:18:51Z</time></trkpt><trkpt lat="43.559117800185966" lon="3.2748850423331644"><ele>262.6666666666667</ele><time>2026-04-06T09:18:52Z</time></trkpt><trkpt lat="43.55918574476045" lon="3.27483688324654"><ele>261.8333333333333</ele><time>2026-04-06T09:18:53Z</time></trkpt><trkpt lat="43.55925465558052" lon="3.2747893885279824"><ele>261.0</ele><time>2026-04-06T09:18:54Z</time></trkpt><trkpt lat="43.55932504777064" lon="3.2747445373546955"><ele>259.1666666666667</ele><time>2026-04-06T09:18:55Z</time></trkpt><trkpt lat="43.55939549233531" lon="3.2747025117489623"><ele>257.3333333333333</ele><time>2026-04-06T09:18:56Z</time></trkpt><trkpt lat="43.559467579632106" lon="3.2746706483033896"><ele>255.5</ele><time>2026-04-06T09:18:57Z</time></trkpt><trkpt lat="43.559544031315475" lon="3.274664579082932"><ele>253.66666666666666</ele><time>2026-04-06T09:18:58Z</time></trkpt><trkpt lat="43.55961954213292" lon="3.2746770305841335"><ele>251.83333333333331</ele><time>2026-04-06T09:18:59Z</time></trkpt><trkpt lat="43.559693447014574" lon="3.274701589052685"><ele>250.0</ele><time>2026-04-06T09:19:00Z</time></trkpt><trkpt lat="43.559767914878314" lon="3.2747270806421676"><ele>249.83333333333331</ele><time>2026-04-06T09:19:01Z</time></trkpt><trkpt lat="43.55984347871745" lon="3.274757842670949"><ele>249.66666666666666</ele><time>2026-04-06T09:19:02Z</time></trkpt><trkpt lat="43.55991988163308" lon="3.274783677096901"><ele>249.5</ele><time>2026-04-06T09:19:03Z</time></trkpt><trkpt lat="43.55999705671417" lon="3.2748059039832973"><ele>249.33333333333331</ele><time>2026-04-06T09:19:04Z</time></trkpt><trkpt lat="43.56007269007282" lon="3.274833297496591"><ele>249.16666666666666</ele><time>2026-04-06T09:19:05Z</time></trkpt><trkpt lat="43.56014704054442" lon="3.274866275364575"><ele>249.0</ele><time>2026-04-06T09:19:06Z</time></trkpt><trkpt lat="43.56022033008325" lon="3.274908915402009"><ele>249.5</ele><time>2026-04-06T09:19:07Z</time></trkpt><trkpt lat="43.56028597192984" lon="3.27496566822756"><ele>250.0</ele><time>2026-04-06T09:19:08Z</time></trkpt><trkpt lat="43.56034313608357" lon="3.275040653582272"><ele>250.5</ele><time>2026-04-06T09:19:09Z</time></trkpt><trkpt lat="43.560384976473436" lon="3.2751289957228513"><ele>251.0</ele><time>2026-04-06T09:19:10Z</time></trkpt><trkpt lat="43.560421113637474" lon="3.2752190395349854"><ele>251.5</ele><time>2026-04-06T09:19:11Z</time></trkpt><trkpt lat="43.560457439986706" lon="3.275308592579543"><ele>252.0</ele><time>2026-04-06T09:19:12Z</time></trkpt><trkpt lat="43.56048913335019" lon="3.275399186656585"><ele>252.0</ele><time>2026-04-06T09:19:13Z</time></trkpt><trkpt lat="43.560517837376786" lon="3.2754911269434888"><ele>252.0</ele><time>2026-04-06T09:19:14Z</time></trkpt><trkpt lat="43.56054981245809" lon="3.2755841451833785"><ele>252.0</ele><time>2026-04-06T09:19:15Z</time></trkpt><trkpt lat="43.56058750392503" lon="3.2756770100793746"><ele>252.0</ele><time>2026-04-06T09:19:16Z</time></trkpt><trkpt lat="43.56062579334501" lon="3.2757678478979364"><ele>252.0</ele><time>2026-04-06T09:19:17Z</time></trkpt><trkpt lat="43.560667367593375" lon="3.2758559765633746"><ele>252.0</ele><time>2026-04-06T09:19:18Z</time></trkpt><trkpt lat="43.56071466450078" lon="3.2759386103668615"><ele>252.6</ele><time>2026-04-06T09:19:19Z</time></trkpt><trkpt lat="43.560766426235425" lon="3.276013934725352"><ele>253.2</ele><time>2026-04-06T09:19:20Z</time></trkpt><trkpt lat="43.5608236093305" lon="3.276075261569406"><ele>253.8</ele><time>2026-04-06T09:19:21Z</time></trkpt><trkpt lat="43.56088067021696" lon="3.2761255593615917"><ele>254.4</ele><time>2026-04-06T09:19:22Z</time></trkpt><trkpt lat="43.56098370544862" lon="3.276219028462311"><ele>255.0</ele><time>2026-04-06T09:19:24Z</time></trkpt><trkpt lat="43.56108304417841" lon="3.2762962459072313"><ele>255.0</ele><time>2026-04-06T09:19:26Z</time></trkpt><trkpt lat="43.56118288720884" lon="3.276367197592478"><ele>255.0</ele><time>2026-04-06T09:19:28Z</time></trkpt><trkpt lat="43.56128033334474" lon="3.276436676017237"><ele>255.0</ele><time>2026-04-06T09:19:30Z</time></trkpt><trkpt lat="43.561376397081396" lon="3.276504017058856"><ele>255.0</ele><time>2026-04-06T09:19:32Z</time></trkpt><trkpt lat="43.561472413516064" lon="3.2765701738733917"><ele>255.0</ele><time>2026-04-06T09:19:34Z</time></trkpt><trkpt lat="43.56157883408285" lon="3.276605519553854"><ele>255.8</ele><time>2026-04-06T09:19:36Z</time></trkpt><trkpt lat="43.561686394447264" lon="3.2766215053823076"><ele>256.6</ele><time>2026-04-06T09:19:38Z</time></trkpt><trkpt lat="43.56178735535161" lon="3.2766262578904617"><ele>257.4</ele><time>2026-04-06T09:19:40Z</time></trkpt><trkpt lat="43.56187967386783" lon="3.276649548716222"><ele>258.2</ele><time>2026-04-06T09:19:42Z</time></trkpt><trkpt lat="43.56197514606951" lon="3.2766607534332195"><ele>259.0</ele><time>2026-04-06T09:19:44Z</time></trkpt><trkpt lat="43.56207070861365" lon="3.2766798585763555"><ele>259.4</ele><time>2026-04-06T09:19:46Z</time></trkpt><trkpt lat="43.562163153290214" lon="3.2766802020917396"><ele>259.79999999999995</ele><time>2026-04-06T09:19:48Z</time></trkpt><trkpt lat="43.562253495614385" lon="3.2766605450524464"><ele>260.20000000000005</ele><time>2026-04-06T09:19:50Z</time></trkpt><trkpt lat="43.56234070766978" lon="3.2766497836053534"><ele>260.6</ele><time>2026-04-06T09:19:52Z</time></trkpt><trkpt lat="43.56243134633343" lon="3.2766276423833243"><ele>261.0</ele><time>2026-04-06T09:19:54Z</time></trkpt><trkpt lat="43.56252139188918" lon="3.276599029735982"><ele>261.0</ele><time>2026-04-06T09:19:56Z</time></trkpt><trkpt lat="43.56260940944134" lon="3.276585112967831"><ele>261.0</ele><time>2026-04-06T09:19:58Z</time></trkpt><trkpt lat="43.56270054678214" lon="3.2765812579306344"><ele>261.0</ele><time>2026-04-06T09:20:00Z</time></trkpt><trkpt lat="43.56278918774697" lon="3.276554858304601"><ele>261.0</ele><time>2026-04-06T09:20:02Z</time></trkpt><trkpt lat="43.56286633563206" lon="3.2765015252068586"><ele>261.0</ele><time>2026-04-06T09:20:04Z</time></trkpt><trkpt lat="43.56288893232508" lon="3.276344838634966"><ele>261.6</ele><time>2026-04-06T09:20:06Z</time></trkpt><trkpt lat="43.562810181495166" lon="3.2762480002802903"><ele>262.20000000000005</ele><time>2026-04-06T09:20:08Z</time></trkpt><trkpt lat="43.56274955253102" lon="3.2761543104869846"><ele>262.79999999999995</ele><time>2026-04-06T09:20:10Z</time></trkpt><trkpt lat="43.5626786363035" lon="3.276081316368503"><ele>263.4</ele><time>2026-04-06T09:20:12Z</time></trkpt><trkpt lat="43.56260790651978" lon="3.2760093595068422"><ele>264.0</ele><time>2026-04-06T09:20:14Z</time></trkpt><trkpt lat="43.562526096760195" lon="3.2759538652833493"><ele>264.0</ele><time>2026-04-06T09:20:16Z</time></trkpt><trkpt lat="43.56248892662058" lon="3.2758449197928505"><ele>264.0</ele><time>2026-04-06T09:20:18Z</time></trkpt><trkpt lat="43.562458399726104" lon="3.2757447980927275"><ele>264.0</ele><time>2026-04-06T09:20:20Z</time></trkpt><trkpt lat="43.5625118798712" lon="3.275658737319731"><ele>264.0</ele><time>2026-04-06T09:20:22Z</time></trkpt><trkpt lat="43.56259608932559" lon="3.2756630821100927"><ele>264.0</ele><time>2026-04-06T09:20:24Z</time></trkpt><trkpt lat="43.56266926519553" lon="3.2757161808021205"><ele>264.0</ele><time>2026-04-06T09:20:26Z</time></trkpt><trkpt lat="43.562738174186315" lon="3.2757641964332853"><ele>264.0</ele><time>2026-04-06T09:20:28Z</time></trkpt><trkpt lat="43.56280988219864" lon="3.27581289908746"><ele>264.0</ele><time>2026-04-06T09:20:30Z</time></trkpt><trkpt lat="43.56288565801372" lon="3.275856984103358"><ele>264.0</ele><time>2026-04-06T09:20:32Z</time></trkpt><trkpt lat="43.56295628459408" lon="3.275907193425473"><ele>264.0</ele><time>2026-04-06T09:20:34Z</time></trkpt><trkpt lat="43.56303156714747" lon="3.2759438417517375"><ele>264.0</ele><time>2026-04-06T09:20:36Z</time></trkpt><trkpt lat="43.5631055061358" lon="3.2759915545655587"><ele>264.0</ele><time>2026-04-06T09:20:38Z</time></trkpt><trkpt lat="43.56318203120507" lon="3.2760404446738653"><ele>266.0</ele><time>2026-04-06T09:20:40Z</time></trkpt><trkpt lat="43.563259968171096" lon="3.276082506456796"><ele>268.0</ele><time>2026-04-06T09:20:42Z</time></trkpt><trkpt lat="43.56333312188462" lon="3.2761292204949415"><ele>270.0</ele><time>2026-04-06T09:20:44Z</time></trkpt><trkpt lat="43.56340916421386" lon="3.27618019712517"><ele>272.0</ele><time>2026-04-06T09:20:46Z</time></trkpt><trkpt lat="43.56348282646784" lon="3.276240188176747"><ele>274.0</ele><time>2026-04-06T09:20:48Z</time></trkpt><trkpt lat="43.5635389157532" lon="3.2763259553642885"><ele>276.0</ele><time>2026-04-06T09:20:50Z</time></trkpt><trkpt lat="43.56357493826821" lon="3.2764277147329426"><ele>275.5</ele><time>2026-04-06T09:20:52Z</time></trkpt><trkpt lat="43.563593599431684" lon="3.2765380275480274"><ele>275.0</ele><time>2026-04-06T09:20:54Z</time></trkpt><trkpt lat="43.56360189275771" lon="3.276653634529963"><ele>274.5</ele><time>2026-04-06T09:20:56Z</time></trkpt><trkpt lat="43.56361455302774" lon="3.2767676285199436"><ele>274.0</ele><time>2026-04-06T09:20:58Z</time></trkpt><trkpt lat="43.563625610250135" lon="3.2768802620127717"><ele>273.5</ele><time>2026-04-06T09:21:00Z</time></trkpt><trkpt lat="43.56361975686525" lon="3.276992532478147"><ele>273.0</ele><time>2026-04-06T09:21:02Z</time></trkpt><trkpt lat="43.563604555900355" lon="3.277105310539396"><ele>273.0</ele><time>2026-04-06T09:21:04Z</time></trkpt><trkpt lat="43.56356077216184" lon="3.2772043061531417"><ele>273.0</ele><time>2026-04-06T09:21:06Z</time></trkpt><trkpt lat="43.563492672250185" lon="3.2772714691025238"><ele>273.0</ele><time>2026-04-06T09:21:08Z</time></trkpt><trkpt lat="43.56341493846973" lon="3.2773192535900173"><ele>273.0</ele><time>2026-04-06T09:21:10Z</time></trkpt><trkpt lat="43.56334260142567" lon="3.2773790523577473"><ele>273.0</ele><time>2026-04-06T09:21:12Z</time></trkpt><trkpt lat="43.56328261909872" lon="3.277451294835491"><ele>273.0</ele><time>2026-04-06T09:21:14Z</time></trkpt><trkpt lat="43.56323414474077" lon="3.277544530196827"><ele>274.5</ele><time>2026-04-06T09:21:16Z</time></trkpt><trkpt lat="43.56320112735125" lon="3.2776569083690186"><ele>276.0</ele><time>2026-04-06T09:21:18Z</time></trkpt><trkpt lat="43.56318448960171" lon="3.277765671422312"><ele>277.5</ele><time>2026-04-06T09:21:20Z</time></trkpt><trkpt lat="43.563195039040785" lon="3.2778802452697238"><ele>279.0</ele><time>2026-04-06T09:21:22Z</time></trkpt><trkpt lat="43.56321325180296" lon="3.2779898603555573"><ele>280.5</ele><time>2026-04-06T09:21:24Z</time></trkpt><trkpt lat="43.5632395888766" lon="3.278094120358171"><ele>282.0</ele><time>2026-04-06T09:21:26Z</time></trkpt><trkpt lat="43.563270137356575" lon="3.27819280696751"><ele>282.6666666666667</ele><time>2026-04-06T09:21:28Z</time></trkpt><trkpt lat="43.56329055194879" lon="3.2783009105444307"><ele>283.3333333333333</ele><time>2026-04-06T09:21:30Z</time></trkpt><trkpt lat="43.56331549312396" lon="3.2784083982345424"><ele>284.0</ele><time>2026-04-06T09:21:32Z</time></trkpt><trkpt lat="43.56334122838528" lon="3.2785142480605396"><ele>284.66666666666663</ele><time>2026-04-06T09:21:34Z</time></trkpt><trkpt lat="43.56336969938857" lon="3.2786228885971633"><ele>285.3333333333333</ele><time>2026-04-06T09:21:36Z</time></trkpt><trkpt lat="43.563401646785465" lon="3.278724952171671"><ele>286.0</ele><time>2026-04-06T09:21:38Z</time></trkpt><trkpt lat="43.56343226757696" lon="3.278823798243984"><ele>286.0</ele><time>2026-04-06T09:21:40Z</time></trkpt><trkpt lat="43.5634635938713" lon="3.2789054413279892"><ele>286.0</ele><time>2026-04-06T09:21:42Z</time></trkpt><trkpt lat="43.56350818219305" lon="3.278987941444796"><ele>286.0</ele><time>2026-04-06T09:21:45Z</time></trkpt><trkpt lat="43.56356199972826" lon="3.2790448499520615"><ele>286.0</ele><time>2026-04-06T09:22:30Z</time></trkpt><trkpt lat="43.563635719204235" lon="3.2791074617798"><ele>286.0</ele><time>2026-04-06T09:22:34Z</time></trkpt><trkpt lat="43.56370846546394" lon="3.279119862573559"><ele>286.0</ele><time>2026-04-06T09:22:36Z</time></trkpt><trkpt lat="43.56379940942228" lon="3.2791236076752357"><ele>285.5</ele><time>2026-04-06T09:22:38Z</time></trkpt><trkpt lat="43.56389794450659" lon="3.279121579576375"><ele>285.0</ele><time>2026-04-06T09:22:40Z</time></trkpt><trkpt lat="43.564007305367376" lon="3.279115017718603"><ele>284.5</ele><time>2026-04-06T09:22:42Z</time></trkpt><trkpt lat="43.5641230138461" lon="3.279090102164106"><ele>284.0</ele><time>2026-04-06T09:22:44Z</time></trkpt><trkpt lat="43.564246426180866" lon="3.2790619059748445"><ele>284.0</ele><time>2026-04-06T09:22:46Z</time></trkpt><trkpt lat="43.564310873462944" lon="3.279050573544957"><ele>284.0</ele><time>2026-04-06T09:22:47Z</time></trkpt><trkpt lat="43.56437611964123" lon="3.2790343208163737"><ele>284.0</ele><time>2026-04-06T09:22:48Z</time></trkpt><trkpt lat="43.56444246361206" lon="3.279013339408102"><ele>284.0</ele><time>2026-04-06T09:22:49Z</time></trkpt><trkpt lat="43.564510717199546" lon="3.278996580702385"><ele>284.0</ele><time>2026-04-06T09:22:50Z</time></trkpt><trkpt lat="43.56457731584633" lon="3.2789680029841834"><ele>284.0</ele><time>2026-04-06T09:22:51Z</time></trkpt><trkpt lat="43.564643354059776" lon="3.2789348464370476"><ele>284.0</ele><time>2026-04-06T09:22:52Z</time></trkpt><trkpt lat="43.5647155250278" lon="3.2789124184872236"><ele>284.6666666666667</ele><time>2026-04-06T09:22:53Z</time></trkpt><trkpt lat="43.56477736008355" lon="3.2788606333293573"><ele>285.33333333333337</ele><time>2026-04-06T09:22:54Z</time></trkpt><trkpt lat="43.564836371797625" lon="3.2788043390802635"><ele>286.0</ele><time>2026-04-06T09:22:55Z</time></trkpt><trkpt lat="43.56489641363502" lon="3.2787416157858766"><ele>286.6666666666667</ele><time>2026-04-06T09:22:56Z</time></trkpt><trkpt lat="43.56495463089886" lon="3.278674315425454"><ele>287.3333333333333</ele><time>2026-04-06T09:22:57Z</time></trkpt><trkpt lat="43.56501447298407" lon="3.2786029308603934"><ele>288.0</ele><time>2026-04-06T09:22:58Z</time></trkpt><trkpt lat="43.56507513989347" lon="3.2785304070162815"><ele>288.0</ele><time>2026-04-06T09:22:59Z</time></trkpt><trkpt lat="43.56513098007167" lon="3.2784419229444453"><ele>288.0</ele><time>2026-04-06T09:23:00Z</time></trkpt><trkpt lat="43.56519668450174" lon="3.2783718912882454"><ele>288.0</ele><time>2026-04-06T09:23:01Z</time></trkpt><trkpt lat="43.5652590706828" lon="3.2782944147782107"><ele>288.0</ele><time>2026-04-06T09:23:02Z</time></trkpt><trkpt lat="43.56532565744353" lon="3.2782259427844433"><ele>288.0</ele><time>2026-04-06T09:23:03Z</time></trkpt><trkpt lat="43.565398478270595" lon="3.2781687049097483"><ele>288.0</ele><time>2026-04-06T09:23:04Z</time></trkpt><trkpt lat="43.565463707670105" lon="3.278097916364073"><ele>287.0</ele><time>2026-04-06T09:23:05Z</time></trkpt><trkpt lat="43.56553031759896" lon="3.2780256293795076"><ele>286.0</ele><time>2026-04-06T09:23:06Z</time></trkpt><trkpt lat="43.56559763361874" lon="3.2779525761823085"><ele>285.0</ele><time>2026-04-06T09:23:07Z</time></trkpt><trkpt lat="43.56566672235069" lon="3.2778775988642193"><ele>284.0</ele><time>2026-04-06T09:23:08Z</time></trkpt><trkpt lat="43.56573787285725" lon="3.2778046757460535"><ele>283.0</ele><time>2026-04-06T09:23:09Z</time></trkpt><trkpt lat="43.56581208981194" lon="3.277738173628491"><ele>282.0</ele><time>2026-04-06T09:23:10Z</time></trkpt><trkpt lat="43.565890124637946" lon="3.2776765070902485"><ele>282.0</ele><time>2026-04-06T09:23:11Z</time></trkpt><trkpt lat="43.56596777898201" lon="3.277607216589605"><ele>282.0</ele><time>2026-04-06T09:23:12Z</time></trkpt><trkpt lat="43.566053593613546" lon="3.2775640748995234"><ele>282.0</ele><time>2026-04-06T09:23:13Z</time></trkpt><trkpt lat="43.566143371365186" lon="3.2775282547906834"><ele>282.0</ele><time>2026-04-06T09:23:14Z</time></trkpt><trkpt lat="43.56623391588153" lon="3.277498333240634"><ele>282.0</ele><time>2026-04-06T09:23:15Z</time></trkpt><trkpt lat="43.56632318210068" lon="3.2774646253883652"><ele>280.2</ele><time>2026-04-06T09:23:16Z</time></trkpt><trkpt lat="43.566411472945354" lon="3.2774229062076126"><ele>278.4</ele><time>2026-04-06T09:23:17Z</time></trkpt><trkpt lat="43.566499592733464" lon="3.2773868952314262"><ele>276.6</ele><time>2026-04-06T09:23:18Z</time></trkpt><trkpt lat="43.56659153858731" lon="3.277363068788466"><ele>274.8</ele><time>2026-04-06T09:23:19Z</time></trkpt><trkpt lat="43.566678432364576" lon="3.2773190680946005"><ele>273.0</ele><time>2026-04-06T09:23:20Z</time></trkpt><trkpt lat="43.56676747867213" lon="3.2772886460421113"><ele>273.3333333333333</ele><time>2026-04-06T09:23:21Z</time></trkpt><trkpt lat="43.56685312179779" lon="3.2772533536075765"><ele>273.6666666666667</ele><time>2026-04-06T09:23:22Z</time></trkpt><trkpt lat="43.566937332983144" lon="3.2772274127358836"><ele>274.0</ele><time>2026-04-06T09:23:23Z</time></trkpt><trkpt lat="43.567016513931904" lon="3.2771887119086074"><ele>274.33333333333337</ele><time>2026-04-06T09:23:24Z</time></trkpt><trkpt lat="43.56708946500123" lon="3.277159237935246"><ele>274.6666666666667</ele><time>2026-04-06T09:23:25Z</time></trkpt><trkpt lat="43.56715434225744" lon="3.2771177296715255"><ele>275.0</ele><time>2026-04-06T09:23:26Z</time></trkpt><trkpt lat="43.567227139395406" lon="3.2770963481567303"><ele>275.0</ele><time>2026-04-06T09:23:27Z</time></trkpt><trkpt lat="43.56729484959464" lon="3.277045721372474"><ele>275.0</ele><time>2026-04-06T09:23:28Z</time></trkpt><trkpt lat="43.56735544984136" lon="3.2769871479848285"><ele>275.0</ele><time>2026-04-06T09:23:29Z</time></trkpt><trkpt lat="43.56740973409218" lon="3.2769185394300626"><ele>275.0</ele><time>2026-04-06T09:23:30Z</time></trkpt><trkpt lat="43.56744847798467" lon="3.276846292538089"><ele>275.0</ele><time>2026-04-06T09:23:31Z</time></trkpt><trkpt lat="43.567546573854884" lon="3.276769672229011"><ele>275.0</ele><time>2026-04-06T09:23:33Z</time></trkpt><trkpt lat="43.56764130344063" lon="3.2767829943420046"><ele>275.0</ele><time>2026-04-06T09:23:35Z</time></trkpt><trkpt lat="43.567724057299564" lon="3.276780765982346"><ele>275.0</ele><time>2026-04-06T09:23:38Z</time></trkpt><trkpt lat="43.5677847439341" lon="3.276728774403224"><ele>275.0</ele><time>2026-04-06T09:23:41Z</time></trkpt><trkpt lat="43.56785425559728" lon="3.2767091160972583"><ele>275.0</ele><time>2026-04-06T09:23:44Z</time></trkpt><trkpt lat="43.567940788162346" lon="3.276691745881462"><ele>275.0</ele><time>2026-04-06T09:23:47Z</time></trkpt><trkpt lat="43.56801975952932" lon="3.276682752845981"><ele>275.0</ele><time>2026-04-06T09:23:49Z</time></trkpt><trkpt lat="43.56811332409951" lon="3.276695687587286"><ele>274.8</ele><time>2026-04-06T09:23:51Z</time></trkpt><trkpt lat="43.5682193252852" lon="3.2766403755483484"><ele>274.6</ele><time>2026-04-06T09:23:53Z</time></trkpt><trkpt lat="43.56833225534302" lon="3.2766026604217777"><ele>274.4</ele><time>2026-04-06T09:23:55Z</time></trkpt><trkpt lat="43.568420854071746" lon="3.276570509727081"><ele>274.2</ele><time>2026-04-06T09:23:57Z</time></trkpt><trkpt lat="43.56849590653807" lon="3.2765897658378584"><ele>274.0</ele><time>2026-04-06T09:23:59Z</time></trkpt><trkpt lat="43.56851895362566" lon="3.276694045295594"><ele>274.0</ele><time>2026-04-06T09:24:01Z</time></trkpt><trkpt lat="43.56848125439733" lon="3.2767876626019947"><ele>274.0</ele><time>2026-04-06T09:24:03Z</time></trkpt><trkpt lat="43.56843755049507" lon="3.276869959390504"><ele>274.0</ele><time>2026-04-06T09:24:05Z</time></trkpt><trkpt lat="43.568388255738945" lon="3.276956751330271"><ele>274.0</ele><time>2026-04-06T09:24:07Z</time></trkpt><trkpt lat="43.56834553638082" lon="3.2770545191991105"><ele>274.0</ele><time>2026-04-06T09:24:09Z</time></trkpt><trkpt lat="43.56830184247361" lon="3.2771552522222853"><ele>274.0</ele><time>2026-04-06T09:24:11Z</time></trkpt><trkpt lat="43.56826103583763" lon="3.2772693255736525"><ele>273.59999999999997</ele><time>2026-04-06T09:24:13Z</time></trkpt><trkpt lat="43.5682166598898" lon="3.2773894101554415"><ele>273.2</ele><time>2026-04-06T09:24:15Z</time></trkpt><trkpt lat="43.56817485643631" lon="3.277517809571657"><ele>272.79999999999995</ele><time>2026-04-06T09:24:17Z</time></trkpt><trkpt lat="43.56813059376702" lon="3.2776513235249514"><ele>272.4</ele><time>2026-04-06T09:24:19Z</time></trkpt><trkpt lat="43.56808524711539" lon="3.2777887624091795"><ele>272.0</ele><time>2026-04-06T09:24:21Z</time></trkpt><trkpt lat="43.56804043273779" lon="3.277924675439071"><ele>272.0</ele><time>2026-04-06T09:24:23Z</time></trkpt><trkpt lat="43.56800167940759" lon="3.2780666799805864"><ele>272.0</ele><time>2026-04-06T09:24:25Z</time></trkpt><trkpt lat="43.56797752573975" lon="3.278216981434497"><ele>272.0</ele><time>2026-04-06T09:24:27Z</time></trkpt><trkpt lat="43.56797599426906" lon="3.27837496485184"><ele>272.0</ele><time>2026-04-06T09:24:29Z</time></trkpt><trkpt lat="43.56799123786268" lon="3.2785311038028864"><ele>272.25</ele><time>2026-04-06T09:24:31Z</time></trkpt><trkpt lat="43.56804112155633" lon="3.2786722451043118"><ele>272.5</ele><time>2026-04-06T09:24:33Z</time></trkpt><trkpt lat="43.56812025228139" lon="3.278786887392348"><ele>272.75</ele><time>2026-04-06T09:24:35Z</time></trkpt><trkpt lat="43.568213658550775" lon="3.278889335174007"><ele>273.0</ele><time>2026-04-06T09:24:37Z</time></trkpt><trkpt lat="43.56828715115085" lon="3.2790098162227106"><ele>272.6</ele><time>2026-04-06T09:24:39Z</time></trkpt><trkpt lat="43.568299094757826" lon="3.279153908774356"><ele>272.20000000000005</ele><time>2026-04-06T09:24:41Z</time></trkpt><trkpt lat="43.56825177904922" lon="3.279277829977071"><ele>271.8</ele><time>2026-04-06T09:24:43Z</time></trkpt><trkpt lat="43.56816758085461" lon="3.279344090527424"><ele>271.40000000000003</ele><time>2026-04-06T09:24:45Z</time></trkpt><trkpt lat="43.56807736973023" lon="3.279382221144875"><ele>271.0</ele><time>2026-04-06T09:24:47Z</time></trkpt><trkpt lat="43.56797715990629" lon="3.279400076174169"><ele>271.0</ele><time>2026-04-06T09:24:49Z</time></trkpt><trkpt lat="43.567871734323866" lon="3.279454987146267"><ele>271.0</ele><time>2026-04-06T09:24:51Z</time></trkpt><trkpt lat="43.567775063501834" lon="3.2795368262469338"><ele>271.0</ele><time>2026-04-06T09:24:53Z</time></trkpt><trkpt lat="43.56774900270073" lon="3.279616150374286"><ele>271.0</ele><time>2026-04-06T09:24:54Z</time></trkpt><trkpt lat="43.56768662790668" lon="3.279737286652332"><ele>271.0</ele><time>2026-04-06T09:24:56Z</time></trkpt><trkpt lat="43.56762168248749" lon="3.279858129664966"><ele>269.6</ele><time>2026-04-06T09:24:58Z</time></trkpt><trkpt lat="43.56757125911513" lon="3.279994087150525"><ele>268.20000000000005</ele><time>2026-04-06T09:25:00Z</time></trkpt><trkpt lat="43.56755426135577" lon="3.2801478303285325"><ele>266.79999999999995</ele><time>2026-04-06T09:25:02Z</time></trkpt><trkpt lat="43.56758484155281" lon="3.2802978826218827"><ele>265.4</ele><time>2026-04-06T09:25:04Z</time></trkpt><trkpt lat="43.56765400023358" lon="3.2804168830115983"><ele>264.0</ele><time>2026-04-06T09:25:06Z</time></trkpt><trkpt lat="43.567723648422906" lon="3.280542440145477"><ele>264.25</ele><time>2026-04-06T09:25:08Z</time></trkpt><trkpt lat="43.56775751366678" lon="3.2806946198803444"><ele>264.5</ele><time>2026-04-06T09:25:10Z</time></trkpt><trkpt lat="43.5677634663159" lon="3.2808474281460254"><ele>264.75</ele><time>2026-04-06T09:25:12Z</time></trkpt><trkpt lat="43.56776209444211" lon="3.2810069521089655"><ele>265.0</ele><time>2026-04-06T09:25:14Z</time></trkpt><trkpt lat="43.56770932490361" lon="3.2811514671062527"><ele>265.0</ele><time>2026-04-06T09:25:16Z</time></trkpt><trkpt lat="43.56760608879983" lon="3.281234672101809"><ele>265.0</ele><time>2026-04-06T09:25:18Z</time></trkpt><trkpt lat="43.567505577204486" lon="3.281323316165502"><ele>265.0</ele><time>2026-04-06T09:25:20Z</time></trkpt><trkpt lat="43.56742787364699" lon="3.2814509951285307"><ele>265.0</ele><time>2026-04-06T09:25:22Z</time></trkpt><trkpt lat="43.56736849165426" lon="3.2815887496873835"><ele>265.4</ele><time>2026-04-06T09:25:24Z</time></trkpt><trkpt lat="43.567295148296786" lon="3.2817131855928476"><ele>265.8</ele><time>2026-04-06T09:25:26Z</time></trkpt><trkpt lat="43.56723265827686" lon="3.2818330853589073"><ele>266.2</ele><time>2026-04-06T09:25:28Z</time></trkpt><trkpt lat="43.56718337290494" lon="3.281963971127726"><ele>266.6</ele><time>2026-04-06T09:25:30Z</time></trkpt><trkpt lat="43.5671441167591" lon="3.2820976019880614"><ele>267.0</ele><time>2026-04-06T09:25:32Z</time></trkpt><trkpt lat="43.56711622450444" lon="3.282233608514632"><ele>267.8</ele><time>2026-04-06T09:25:34Z</time></trkpt><trkpt lat="43.56708714910646" lon="3.2823733081707354"><ele>268.6</ele><time>2026-04-06T09:25:36Z</time></trkpt><trkpt lat="43.56704919187518" lon="3.2825221877077864"><ele>269.40000000000003</ele><time>2026-04-06T09:25:38Z</time></trkpt><trkpt lat="43.56702099450989" lon="3.28267438857392"><ele>270.2</ele><time>2026-04-06T09:25:40Z</time></trkpt><trkpt lat="43.566993373304776" lon="3.282828126265821"><ele>271.0</ele><time>2026-04-06T09:25:42Z</time></trkpt><trkpt lat="43.56697394945275" lon="3.2829860060412024"><ele>270.0</ele><time>2026-04-06T09:25:44Z</time></trkpt><trkpt lat="43.56697126345764" lon="3.2831439780708633"><ele>269.0</ele><time>2026-04-06T09:25:46Z</time></trkpt><trkpt lat="43.56698727398399" lon="3.2833016001058755"><ele>268.0</ele><time>2026-04-06T09:25:48Z</time></trkpt><trkpt lat="43.56702888194476" lon="3.283453523765165"><ele>267.0</ele><time>2026-04-06T09:25:50Z</time></trkpt><trkpt lat="43.567078541596096" lon="3.2835967136093123"><ele>267.0</ele><time>2026-04-06T09:25:52Z</time></trkpt><trkpt lat="43.56713603968875" lon="3.2837328295743164"><ele>267.0</ele><time>2026-04-06T09:25:54Z</time></trkpt><trkpt lat="43.56722664283938" lon="3.2838241899078127"><ele>267.0</ele><time>2026-04-06T09:25:56Z</time></trkpt><trkpt lat="43.56732745685096" lon="3.2838603534761064"><ele>267.0</ele><time>2026-04-06T09:25:58Z</time></trkpt><trkpt lat="43.56742648918465" lon="3.2838156017899562"><ele>267.0</ele><time>2026-04-06T09:26:00Z</time></trkpt><trkpt lat="43.56751398551519" lon="3.283749144714498"><ele>267.0</ele><time>2026-04-06T09:26:02Z</time></trkpt><trkpt lat="43.56760401795718" lon="3.283667185676291"><ele>267.0</ele><time>2026-04-06T09:26:04Z</time></trkpt><trkpt lat="43.56770290786066" lon="3.2835685321522448"><ele>267.0</ele><time>2026-04-06T09:26:06Z</time></trkpt><trkpt lat="43.567803625017056" lon="3.283460647636373"><ele>267.0</ele><time>2026-04-06T09:26:08Z</time></trkpt><trkpt lat="43.567858026547896" lon="3.283400920203252"><ele>267.0</ele><time>2026-04-06T09:26:09Z</time></trkpt><trkpt lat="43.56791295858419" lon="3.2833406101033416"><ele>265.00000000000006</ele><time>2026-04-06T09:26:10Z</time></trkpt><trkpt lat="43.567965201040316" lon="3.28328251033428"><ele>263.0</ele><time>2026-04-06T09:26:11Z</time></trkpt><trkpt lat="43.56807241439397" lon="3.2832341173190343"><ele>261.0</ele><time>2026-04-06T09:26:13Z</time></trkpt><trkpt lat="43.568140331694394" lon="3.283213585095967"><ele>259.0</ele><time>2026-04-06T09:26:14Z</time></trkpt><trkpt lat="43.56820259774474" lon="3.2832002966026073"><ele>257.0</ele><time>2026-04-06T09:26:15Z</time></trkpt><trkpt lat="43.56826344837353" lon="3.2831688754708614"><ele>255.00000000000003</ele><time>2026-04-06T09:26:16Z</time></trkpt><trkpt lat="43.568331083419594" lon="3.2831596283573528"><ele>253.00000000000003</ele><time>2026-04-06T09:26:17Z</time></trkpt><trkpt lat="43.56839130961439" lon="3.28312193265971"><ele>253.83333333333331</ele><time>2026-04-06T09:26:18Z</time></trkpt><trkpt lat="43.568452114242874" lon="3.283073459543265"><ele>254.66666666666666</ele><time>2026-04-06T09:26:19Z</time></trkpt><trkpt lat="43.568510925632836" lon="3.283017393990304"><ele>255.5</ele><time>2026-04-06T09:26:20Z</time></trkpt><trkpt lat="43.56857089513376" lon="3.2829605475121086"><ele>256.3333333333333</ele><time>2026-04-06T09:26:21Z</time></trkpt><trkpt lat="43.568634246200055" lon="3.282898439676231"><ele>257.1666666666667</ele><time>2026-04-06T09:26:22Z</time></trkpt><trkpt lat="43.56869421626288" lon="3.282823298775156"><ele>258.0</ele><time>2026-04-06T09:26:23Z</time></trkpt><trkpt lat="43.56875056663897" lon="3.2827508795298503"><ele>257.99999999999994</ele><time>2026-04-06T09:26:24Z</time></trkpt><trkpt lat="43.56880785926672" lon="3.282690143412263"><ele>258.0</ele><time>2026-04-06T09:26:25Z</time></trkpt><trkpt lat="43.56886947718582" lon="3.2826496734165898"><ele>258.0</ele><time>2026-04-06T09:26:26Z</time></trkpt><trkpt lat="43.56893926690254" lon="3.2826395099482784"><ele>258.0</ele><time>2026-04-06T09:26:27Z</time></trkpt><trkpt lat="43.569013978679266" lon="3.2826242856067216"><ele>258.0</ele><time>2026-04-06T09:26:28Z</time></trkpt><trkpt lat="43.56908902253676" lon="3.282613815419145"><ele>257.99999999999994</ele><time>2026-04-06T09:26:29Z</time></trkpt><trkpt lat="43.569163692178606" lon="3.282604136820562"><ele>258.0</ele><time>2026-04-06T09:26:30Z</time></trkpt><trkpt lat="43.56923575966606" lon="3.2825712495487904"><ele>257.99999999999994</ele><time>2026-04-06T09:26:31Z</time></trkpt><trkpt lat="43.569312892736534" lon="3.2825706517962923"><ele>258.0</ele><time>2026-04-06T09:26:32Z</time></trkpt><trkpt lat="43.56938180819067" lon="3.282513465812531"><ele>258.0</ele><time>2026-04-06T09:26:33Z</time></trkpt><trkpt lat="43.56945843265419" lon="3.282495657449344"><ele>258.0</ele><time>2026-04-06T09:26:34Z</time></trkpt><trkpt lat="43.569522959338165" lon="3.2824573444746528"><ele>258.0</ele><time>2026-04-06T09:26:35Z</time></trkpt><trkpt lat="43.56958487711026" lon="3.2824138020280818"><ele>257.99999999999994</ele><time>2026-04-06T09:26:36Z</time></trkpt><trkpt lat="43.56964436783477" lon="3.282363253313997"><ele>258.0</ele><time>2026-04-06T09:26:37Z</time></trkpt><trkpt lat="43.56970236010908" lon="3.282297940244738"><ele>257.8333333333333</ele><time>2026-04-06T09:26:38Z</time></trkpt><trkpt lat="43.56975265670327" lon="3.282229441573656"><ele>257.6666666666667</ele><time>2026-04-06T09:26:39Z</time></trkpt><trkpt lat="43.56978305042596" lon="3.282140680322545"><ele>257.5</ele><time>2026-04-06T09:26:40Z</time></trkpt><trkpt lat="43.569834495590754" lon="3.282072794677473"><ele>257.33333333333337</ele><time>2026-04-06T09:26:41Z</time></trkpt><trkpt lat="43.569865173254186" lon="3.2819880511977555"><ele>257.1666666666667</ele><time>2026-04-06T09:26:42Z</time></trkpt><trkpt lat="43.569880550746724" lon="3.2818910388434017"><ele>257.0</ele><time>2026-04-06T09:26:43Z</time></trkpt><trkpt lat="43.56990390857048" lon="3.2817541383311206"><ele>257.0</ele><time>2026-04-06T09:26:45Z</time></trkpt><trkpt lat="43.569957918296126" lon="3.2816938681331185"><ele>257.0</ele><time>2026-04-06T09:26:47Z</time></trkpt><trkpt lat="43.5700263177167" lon="3.281742252260457"><ele>257.0</ele><time>2026-04-06T09:26:48Z</time></trkpt><trkpt lat="43.570123366181996" lon="3.281717931509202"><ele>257.0</ele><time>2026-04-06T09:26:50Z</time></trkpt><trkpt lat="43.57023625467687" lon="3.2816672613072355"><ele>257.0</ele><time>2026-04-06T09:26:52Z</time></trkpt><trkpt lat="43.570350095211865" lon="3.2816192244167364"><ele>255.00000000000003</ele><time>2026-04-06T09:26:54Z</time></trkpt><trkpt lat="43.570454447169716" lon="3.2815697971019375"><ele>253.0</ele><time>2026-04-06T09:26:56Z</time></trkpt><trkpt lat="43.57051624858844" lon="3.2816023227626405"><ele>251.0</ele><time>2026-04-06T09:26:57Z</time></trkpt><trkpt lat="43.57057745889844" lon="3.2816431068327296"><ele>249.0</ele><time>2026-04-06T09:26:58Z</time></trkpt><trkpt lat="43.57064476833085" lon="3.2816875463182114"><ele>247.00000000000003</ele><time>2026-04-06T09:26:59Z</time></trkpt><trkpt lat="43.570711428041754" lon="3.281730614564748"><ele>245.0</ele><time>2026-04-06T09:27:00Z</time></trkpt><trkpt lat="43.57077650298448" lon="3.281773709551621"><ele>245.0</ele><time>2026-04-06T09:27:01Z</time></trkpt><trkpt lat="43.57083776491705" lon="3.281828073177024"><ele>245.0</ele><time>2026-04-06T09:27:02Z</time></trkpt><trkpt lat="43.57089411161368" lon="3.2818899629624805"><ele>245.0</ele><time>2026-04-06T09:27:03Z</time></trkpt><trkpt lat="43.57095189631932" lon="3.2819494184888485"><ele>245.0</ele><time>2026-04-06T09:27:04Z</time></trkpt><trkpt lat="43.57100912665171" lon="3.2820024407322506"><ele>245.0</ele><time>2026-04-06T09:27:05Z</time></trkpt><trkpt lat="43.57106567333086" lon="3.2820508154091312"><ele>245.0</ele><time>2026-04-06T09:27:06Z</time></trkpt><trkpt lat="43.571120340138826" lon="3.282100411558147"><ele>245.0</ele><time>2026-04-06T09:27:07Z</time></trkpt><trkpt lat="43.57117742286255" lon="3.282143598262129"><ele>242.8</ele><time>2026-04-06T09:27:08Z</time></trkpt><trkpt lat="43.571235019475516" lon="3.2821858040779492"><ele>240.6</ele><time>2026-04-06T09:27:09Z</time></trkpt><trkpt lat="43.57134662628741" lon="3.2822520547575413"><ele>238.39999999999998</ele><time>2026-04-06T09:27:11Z</time></trkpt><trkpt lat="43.571468514538054" lon="3.2822749359179513"><ele>236.2</ele><time>2026-04-06T09:27:13Z</time></trkpt><trkpt lat="43.571583916361206" lon="3.282270518307543"><ele>234.0</ele><time>2026-04-06T09:27:15Z</time></trkpt><trkpt lat="43.571681609081985" lon="3.282227936904428"><ele>234.0</ele><time>2026-04-06T09:27:17Z</time></trkpt><trkpt lat="43.57174824904755" lon="3.2821299184974784"><ele>233.99999999999997</ele><time>2026-04-06T09:27:19Z</time></trkpt><trkpt lat="43.57179504258129" lon="3.2819842160426"><ele>233.99999999999997</ele><time>2026-04-06T09:27:21Z</time></trkpt><trkpt lat="43.57182861087866" lon="3.28181213128068"><ele>234.0</ele><time>2026-04-06T09:27:23Z</time></trkpt><trkpt lat="43.571826146229874" lon="3.2817173026247577"><ele>234.0</ele><time>2026-04-06T09:27:24Z</time></trkpt><trkpt lat="43.57181880461377" lon="3.2816209121136244"><ele>234.0</ele><time>2026-04-06T09:27:25Z</time></trkpt><trkpt lat="43.57180619770248" lon="3.2815264130995825"><ele>234.0</ele><time>2026-04-06T09:27:26Z</time></trkpt><trkpt lat="43.57179788911978" lon="3.2814339835432937"><ele>234.0</ele><time>2026-04-06T09:27:27Z</time></trkpt><trkpt lat="43.57179846532224" lon="3.2813425482265157"><ele>234.0</ele><time>2026-04-06T09:27:28Z</time></trkpt><trkpt lat="43.571804573672004" lon="3.2812547592193115"><ele>234.0</ele><time>2026-04-06T09:27:29Z</time></trkpt><trkpt lat="43.57183394165714" lon="3.2810892760379353"><ele>234.0</ele><time>2026-04-06T09:27:31Z</time></trkpt><trkpt lat="43.5718837829502" lon="3.2810247439994202"><ele>235.0</ele><time>2026-04-06T09:27:32Z</time></trkpt><trkpt lat="43.57191674481591" lon="3.2809435041800863"><ele>236.00000000000003</ele><time>2026-04-06T09:27:33Z</time></trkpt><trkpt lat="43.57193954676566" lon="3.2808510537679196"><ele>237.0</ele><time>2026-04-06T09:27:34Z</time></trkpt><trkpt lat="43.57195490735182" lon="3.2807558739240474"><ele>238.0</ele><time>2026-04-06T09:27:35Z</time></trkpt><trkpt lat="43.57197320424168" lon="3.2806578544081773"><ele>239.00000000000003</ele><time>2026-04-06T09:27:36Z</time></trkpt><trkpt lat="43.571995802102435" lon="3.280564085054123"><ele>240.0</ele><time>2026-04-06T09:27:37Z</time></trkpt><trkpt lat="43.572023066032315" lon="3.28047028405964"><ele>241.0</ele><time>2026-04-06T09:27:38Z</time></trkpt><trkpt lat="43.57205123917746" lon="3.2803738638982027"><ele>238.49999999999997</ele><time>2026-04-06T09:27:39Z</time></trkpt><trkpt lat="43.57207633466079" lon="3.280282634639728"><ele>236.0</ele><time>2026-04-06T09:27:40Z</time></trkpt><trkpt lat="43.572104572284495" lon="3.280199497665125"><ele>233.5</ele><time>2026-04-06T09:27:41Z</time></trkpt><trkpt lat="43.57213993092025" lon="3.280121950209126"><ele>231.0</ele><time>2026-04-06T09:27:42Z</time></trkpt><trkpt lat="43.57217315728241" lon="3.2800447473324725"><ele>228.49999999999997</ele><time>2026-04-06T09:27:43Z</time></trkpt><trkpt lat="43.572217571738925" lon="3.2798885666741575"><ele>226.0</ele><time>2026-04-06T09:27:45Z</time></trkpt><trkpt lat="43.57222194657933" lon="3.2797285307432222"><ele>226.0</ele><time>2026-04-06T09:27:47Z</time></trkpt><trkpt lat="43.57221615053922" lon="3.2795882230564497"><ele>226.00000000000003</ele><time>2026-04-06T09:27:49Z</time></trkpt><trkpt lat="43.57226985837451" lon="3.2794913098507332"><ele>226.00000000000003</ele><time>2026-04-06T09:27:52Z</time></trkpt><trkpt lat="43.57237409990661" lon="3.2794758710045198"><ele>226.0</ele><time>2026-04-06T09:27:54Z</time></trkpt><trkpt lat="43.57248524979958" lon="3.2794546654165293"><ele>226.0</ele><time>2026-04-06T09:27:56Z</time></trkpt><trkpt lat="43.57259753582737" lon="3.2794716450265065"><ele>226.0</ele><time>2026-04-06T09:27:58Z</time></trkpt><trkpt lat="43.57270920835932" lon="3.2794652577385675"><ele>226.0</ele><time>2026-04-06T09:28:00Z</time></trkpt><trkpt lat="43.57277323570122" lon="3.279449776975754"><ele>226.0</ele><time>2026-04-06T09:28:01Z</time></trkpt><trkpt lat="43.57283693903454" lon="3.2794541391915812"><ele>226.0</ele><time>2026-04-06T09:28:02Z</time></trkpt><trkpt lat="43.57290092944876" lon="3.279441578674383"><ele>226.0</ele><time>2026-04-06T09:28:03Z</time></trkpt><trkpt lat="43.57296489412289" lon="3.2794082977815426"><ele>226.0</ele><time>2026-04-06T09:28:04Z</time></trkpt><trkpt lat="43.57303062094342" lon="3.279397666126808"><ele>226.0</ele><time>2026-04-06T09:28:05Z</time></trkpt><trkpt lat="43.57309605437887" lon="3.279379688539795"><ele>224.16666666666666</ele><time>2026-04-06T09:28:06Z</time></trkpt><trkpt lat="43.57316289385528" lon="3.279368375036949"><ele>222.33333333333331</ele><time>2026-04-06T09:28:07Z</time></trkpt><trkpt lat="43.57322940626622" lon="3.2793495476065986"><ele>220.5</ele><time>2026-04-06T09:28:08Z</time></trkpt><trkpt lat="43.573291222149614" lon="3.279324715032358"><ele>218.66666666666669</ele><time>2026-04-06T09:28:09Z</time></trkpt><trkpt lat="43.57335778925324" lon="3.279320856051632"><ele>216.83333333333334</ele><time>2026-04-06T09:28:10Z</time></trkpt><trkpt lat="43.57346975201444" lon="3.279288299776107"><ele>215.0</ele><time>2026-04-06T09:28:12Z</time></trkpt><trkpt lat="43.573582809284154" lon="3.279349119633163"><ele>215.00000000000003</ele><time>2026-04-06T09:28:14Z</time></trkpt><trkpt lat="43.573643133675276" lon="3.2793990893482423"><ele>215.0</ele><time>2026-04-06T09:28:15Z</time></trkpt><trkpt lat="43.57370290589676" lon="3.279435438203041"><ele>215.0</ele><time>2026-04-06T09:28:16Z</time></trkpt><trkpt lat="43.57376623099029" lon="3.2794645808638827"><ele>215.0</ele><time>2026-04-06T09:28:17Z</time></trkpt><trkpt lat="43.57382839748232" lon="3.279488022020506"><ele>215.00000000000003</ele><time>2026-04-06T09:28:18Z</time></trkpt><trkpt lat="43.573942448712785" lon="3.2795361075496587"><ele>215.0</ele><time>2026-04-06T09:28:20Z</time></trkpt><trkpt lat="43.57405869552737" lon="3.2795762253506746"><ele>212.8</ele><time>2026-04-06T09:28:22Z</time></trkpt><trkpt lat="43.57417285405704" lon="3.2795706549641745"><ele>210.6</ele><time>2026-04-06T09:28:24Z</time></trkpt><trkpt lat="43.57429406067042" lon="3.279498917501355"><ele>208.39999999999998</ele><time>2026-04-06T09:28:26Z</time></trkpt><trkpt lat="43.57437126295292" lon="3.279480438609342"><ele>206.2</ele><time>2026-04-06T09:28:27Z</time></trkpt><trkpt lat="43.574448143270025" lon="3.279445155450713"><ele>204.0</ele><time>2026-04-06T09:28:28Z</time></trkpt><trkpt lat="43.574520291494466" lon="3.2794063085598357"><ele>201.33333333333334</ele><time>2026-04-06T09:28:29Z</time></trkpt><trkpt lat="43.574595224230166" lon="3.279375048023832"><ele>198.66666666666666</ele><time>2026-04-06T09:28:30Z</time></trkpt><trkpt lat="43.57467070712593" lon="3.2793430007008264"><ele>196.0</ele><time>2026-04-06T09:28:31Z</time></trkpt><trkpt lat="43.57474004803288" lon="3.2793081463200977"><ele>193.33333333333331</ele><time>2026-04-06T09:28:32Z</time></trkpt><trkpt lat="43.5748031972843" lon="3.2792809929303246"><ele>190.66666666666666</ele><time>2026-04-06T09:28:33Z</time></trkpt><trkpt lat="43.574919064993914" lon="3.2792324693076886"><ele>188.0</ele><time>2026-04-06T09:28:35Z</time></trkpt><trkpt lat="43.57502989760356" lon="3.2791612595680513"><ele>188.0</ele><time>2026-04-06T09:28:37Z</time></trkpt><trkpt lat="43.575084664486695" lon="3.279106245351726"><ele>188.0</ele><time>2026-04-06T09:28:38Z</time></trkpt><trkpt lat="43.57514318037713" lon="3.279057935717964"><ele>188.0</ele><time>2026-04-06T09:28:39Z</time></trkpt><trkpt lat="43.575212782465876" lon="3.2790544595569684"><ele>188.0</ele><time>2026-04-06T09:28:40Z</time></trkpt><trkpt lat="43.575330815152796" lon="3.2790219521411665"><ele>188.0</ele><time>2026-04-06T09:28:42Z</time></trkpt><trkpt lat="43.57543029385844" lon="3.2790822271951834"><ele>188.0</ele><time>2026-04-06T09:28:44Z</time></trkpt><trkpt lat="43.575467889422065" lon="3.279199566454585"><ele>188.0</ele><time>2026-04-06T09:28:46Z</time></trkpt><trkpt lat="43.57551921843107" lon="3.279307783485795"><ele>188.0</ele><time>2026-04-06T09:28:48Z</time></trkpt><trkpt lat="43.5755037805762" lon="3.279405287448496"><ele>188.0</ele><time>2026-04-06T09:28:50Z</time></trkpt><trkpt lat="43.57544234263824" lon="3.2794508386065826"><ele>188.0</ele><time>2026-04-06T09:28:52Z</time></trkpt><trkpt lat="43.575376967810044" lon="3.2795013924449585"><ele>188.0</ele><time>2026-04-06T09:28:54Z</time></trkpt><trkpt lat="43.57529420958573" lon="3.27953784579406"><ele>188.0</ele><time>2026-04-06T09:28:56Z</time></trkpt><trkpt lat="43.57521122145698" lon="3.279584692309509"><ele>188.0</ele><time>2026-04-06T09:28:58Z</time></trkpt><trkpt lat="43.5751280468303" lon="3.279631083240392"><ele>188.0</ele><time>2026-04-06T09:29:00Z</time></trkpt><trkpt lat="43.575044745380005" lon="3.279668475802347"><ele>188.0</ele><time>2026-04-06T09:29:02Z</time></trkpt><trkpt lat="43.57496356492907" lon="3.2797054575396305"><ele>188.0</ele><time>2026-04-06T09:29:04Z</time></trkpt><trkpt lat="43.574886813916216" lon="3.2797533853657783"><ele>188.0</ele><time>2026-04-06T09:29:06Z</time></trkpt><trkpt lat="43.57481609021415" lon="3.279814415772319"><ele>188.0</ele><time>2026-04-06T09:29:08Z</time></trkpt><trkpt lat="43.574744547133534" lon="3.279879551780489"><ele>188.0</ele><time>2026-04-06T09:29:10Z</time></trkpt><trkpt lat="43.574670932966754" lon="3.2799378783165376"><ele>188.0</ele><time>2026-04-06T09:29:12Z</time></trkpt><trkpt lat="43.5745979897821" lon="3.2799991196400873"><ele>188.0</ele><time>2026-04-06T09:29:14Z</time></trkpt><trkpt lat="43.574527175098204" lon="3.2800602700018224"><ele>188.0</ele><time>2026-04-06T09:29:16Z</time></trkpt><trkpt lat="43.5744566961407" lon="3.280117860843865"><ele>188.0</ele><time>2026-04-06T09:29:18Z</time></trkpt><trkpt lat="43.574384672640186" lon="3.2801742852357143"><ele>188.0</ele><time>2026-04-06T09:29:20Z</time></trkpt><trkpt lat="43.57430957115875" lon="3.280227588180557"><ele>188.0</ele><time>2026-04-06T09:29:22Z</time></trkpt><trkpt lat="43.57422723871544" lon="3.28025926730174"><ele>188.0</ele><time>2026-04-06T09:29:24Z</time></trkpt><trkpt lat="43.574166201635755" lon="3.280334246529424"><ele>188.0</ele><time>2026-04-06T09:29:26Z</time></trkpt><trkpt lat="43.574094242471496" lon="3.2803843696345565"><ele>188.0</ele><time>2026-04-06T09:29:28Z</time></trkpt><trkpt lat="43.574029050240696" lon="3.2804483711206283"><ele>188.0</ele><time>2026-04-06T09:29:30Z</time></trkpt><trkpt lat="43.57396430903208" lon="3.280513008624868"><ele>188.0</ele><time>2026-04-06T09:29:32Z</time></trkpt><trkpt lat="43.573897755909" lon="3.2805739989114313"><ele>187.16666666666666</ele><time>2026-04-06T09:29:34Z</time></trkpt><trkpt lat="43.57383032864187" lon="3.2806315099911787"><ele>186.33333333333331</ele><time>2026-04-06T09:29:36Z</time></trkpt><trkpt lat="43.57376188362472" lon="3.280690462012086"><ele>185.5</ele><time>2026-04-06T09:29:38Z</time></trkpt><trkpt lat="43.57369694675741" lon="3.2807601769342076"><ele>184.66666666666666</ele><time>2026-04-06T09:29:40Z</time></trkpt><trkpt lat="43.57362874210154" lon="3.2808231030980184"><ele>183.83333333333334</ele><time>2026-04-06T09:29:42Z</time></trkpt><trkpt lat="43.573557604352935" lon="3.2808761120549654"><ele>183.0</ele><time>2026-04-06T09:29:44Z</time></trkpt><trkpt lat="43.57348802006333" lon="3.280928771231831"><ele>183.0</ele><time>2026-04-06T09:29:46Z</time></trkpt><trkpt lat="43.5734180135765" lon="3.2809836596311945"><ele>183.0</ele><time>2026-04-06T09:29:48Z</time></trkpt><trkpt lat="43.57335342611089" lon="3.2810537931802743"><ele>183.0</ele><time>2026-04-06T09:29:50Z</time></trkpt><trkpt lat="43.57329557204035" lon="3.2811358211606976"><ele>183.0</ele><time>2026-04-06T09:29:52Z</time></trkpt><trkpt lat="43.573251655246565" lon="3.2812337592671863"><ele>183.0</ele><time>2026-04-06T09:29:54Z</time></trkpt><trkpt lat="43.573218638991605" lon="3.2813387608333455"><ele>183.0</ele><time>2026-04-06T09:29:56Z</time></trkpt><trkpt lat="43.57321350870332" lon="3.281458034103024"><ele>184.4</ele><time>2026-04-06T09:29:58Z</time></trkpt><trkpt lat="43.57323036007959" lon="3.281583479634509"><ele>185.8</ele><time>2026-04-06T09:30:00Z</time></trkpt><trkpt lat="43.57324536888651" lon="3.281708369697121"><ele>187.2</ele><time>2026-04-06T09:30:02Z</time></trkpt><trkpt lat="43.573263328607915" lon="3.2818343331933373"><ele>188.6</ele><time>2026-04-06T09:30:04Z</time></trkpt><trkpt lat="43.573294979020346" lon="3.281963518896884"><ele>190.0</ele><time>2026-04-06T09:30:06Z</time></trkpt><trkpt lat="43.57332730240502" lon="3.2821007902233763"><ele>190.0</ele><time>2026-04-06T09:30:08Z</time></trkpt><trkpt lat="43.57335475047638" lon="3.282246024033907"><ele>190.0</ele><time>2026-04-06T09:30:10Z</time></trkpt><trkpt lat="43.57336181828783" lon="3.282399419219683"><ele>190.0</ele><time>2026-04-06T09:30:12Z</time></trkpt><trkpt lat="43.573360872295595" lon="3.2825567527951174"><ele>190.0</ele><time>2026-04-06T09:30:14Z</time></trkpt><trkpt lat="43.5733552031543" lon="3.2827277065635823"><ele>190.42857142857144</ele><time>2026-04-06T09:30:16Z</time></trkpt><trkpt lat="43.57334740533333" lon="3.2828183102904407"><ele>190.85714285714286</ele><time>2026-04-06T09:30:17Z</time></trkpt><trkpt lat="43.57333760551929" lon="3.282909036796568"><ele>191.28571428571428</ele><time>2026-04-06T09:30:18Z</time></trkpt><trkpt lat="43.573332885139" lon="3.2829996855173587"><ele>191.71428571428572</ele><time>2026-04-06T09:30:19Z</time></trkpt><trkpt lat="43.57332621063723" lon="3.283090547399635"><ele>192.14285714285714</ele><time>2026-04-06T09:30:20Z</time></trkpt><trkpt lat="43.57332014914354" lon="3.2831823714457125"><ele>192.57142857142858</ele><time>2026-04-06T09:30:21Z</time></trkpt><trkpt lat="43.5733096052089" lon="3.283274805487229"><ele>193.0</ele><time>2026-04-06T09:30:22Z</time></trkpt><trkpt lat="43.5732861220739" lon="3.283362110867334"><ele>193.5</ele><time>2026-04-06T09:30:23Z</time></trkpt><trkpt lat="43.57324413767254" lon="3.283516783452689"><ele>194.0</ele><time>2026-04-06T09:30:25Z</time></trkpt><trkpt lat="43.57320079546322" lon="3.283665444618914"><ele>194.5</ele><time>2026-04-06T09:30:27Z</time></trkpt><trkpt lat="43.57318061579337" lon="3.2838170972103007"><ele>195.0</ele><time>2026-04-06T09:30:29Z</time></trkpt><trkpt lat="43.57319786923403" lon="3.2839756355376886"><ele>193.75</ele><time>2026-04-06T09:30:31Z</time></trkpt><trkpt lat="43.57323244290889" lon="3.284133585313461"><ele>192.5</ele><time>2026-04-06T09:30:33Z</time></trkpt><trkpt lat="43.57327032685827" lon="3.284298106353604"><ele>191.25</ele><time>2026-04-06T09:30:35Z</time></trkpt><trkpt lat="43.57329196567872" lon="3.2844646372013773"><ele>190.0</ele><time>2026-04-06T09:30:37Z</time></trkpt><trkpt lat="43.57332687541521" lon="3.2846236437916447"><ele>190.0</ele><time>2026-04-06T09:30:39Z</time></trkpt><trkpt lat="43.5733550480118" lon="3.2847017322793812"><ele>190.0</ele><time>2026-04-06T09:30:40Z</time></trkpt><trkpt lat="43.573409258554086" lon="3.284856123743805"><ele>190.0</ele><time>2026-04-06T09:30:42Z</time></trkpt><trkpt lat="43.5734696770955" lon="3.2850037544635105"><ele>190.0</ele><time>2026-04-06T09:30:44Z</time></trkpt><trkpt lat="43.5735657058127" lon="3.28509327942684"><ele>190.0</ele><time>2026-04-06T09:30:46Z</time></trkpt><trkpt lat="43.57368229161345" lon="3.2851374128766424"><ele>191.2</ele><time>2026-04-06T09:30:48Z</time></trkpt><trkpt lat="43.57379566792013" lon="3.2851560885227733"><ele>192.4</ele><time>2026-04-06T09:30:50Z</time></trkpt><trkpt lat="43.57390702342046" lon="3.2851582959166064"><ele>193.60000000000002</ele><time>2026-04-06T09:30:52Z</time></trkpt><trkpt lat="43.57401696946639" lon="3.2851573304345547"><ele>194.8</ele><time>2026-04-06T09:30:54Z</time></trkpt><trkpt lat="43.57412892298251" lon="3.2851676273852535"><ele>196.0</ele><time>2026-04-06T09:30:56Z</time></trkpt><trkpt lat="43.574225786368665" lon="3.2851312971483155"><ele>196.0</ele><time>2026-04-06T09:30:58Z</time></trkpt><trkpt lat="43.57432158535564" lon="3.285122608946526"><ele>196.0</ele><time>2026-04-06T09:31:00Z</time></trkpt><trkpt lat="43.574413914080694" lon="3.285089639469009"><ele>196.0</ele><time>2026-04-06T09:31:02Z</time></trkpt><trkpt lat="43.57450452057511" lon="3.2850769040175063"><ele>196.0</ele><time>2026-04-06T09:31:04Z</time></trkpt><trkpt lat="43.57459016030242" lon="3.2850556495254466"><ele>196.0</ele><time>2026-04-06T09:31:06Z</time></trkpt><trkpt lat="43.57467689298164" lon="3.28504039977538"><ele>196.60000000000002</ele><time>2026-04-06T09:31:08Z</time></trkpt><trkpt lat="43.57476298301655" lon="3.285004049037409"><ele>197.2</ele><time>2026-04-06T09:31:10Z</time></trkpt><trkpt lat="43.574852703427105" lon="3.2849862225984974"><ele>197.8</ele><time>2026-04-06T09:31:12Z</time></trkpt><trkpt lat="43.57494296316978" lon="3.284979597290191"><ele>198.39999999999998</ele><time>2026-04-06T09:31:14Z</time></trkpt><trkpt lat="43.575031780687695" lon="3.284942778864371"><ele>199.0</ele><time>2026-04-06T09:31:16Z</time></trkpt><trkpt lat="43.5751181183146" lon="3.2848936629608936"><ele>199.0</ele><time>2026-04-06T09:31:18Z</time></trkpt><trkpt lat="43.57519958548584" lon="3.284843448859509"><ele>199.0</ele><time>2026-04-06T09:31:20Z</time></trkpt><trkpt lat="43.575280956755435" lon="3.2847916770377434"><ele>199.0</ele><time>2026-04-06T09:31:22Z</time></trkpt><trkpt lat="43.57536393287339" lon="3.284738884199647"><ele>199.0</ele><time>2026-04-06T09:31:24Z</time></trkpt><trkpt lat="43.57544271123788" lon="3.28466362530261"><ele>199.0</ele><time>2026-04-06T09:31:26Z</time></trkpt><trkpt lat="43.575533005859405" lon="3.2846212504490984"><ele>201.2</ele><time>2026-04-06T09:31:28Z</time></trkpt><trkpt lat="43.575610660166404" lon="3.2845298181682643"><ele>203.39999999999998</ele><time>2026-04-06T09:31:30Z</time></trkpt><trkpt lat="43.57567063841144" lon="3.2844227865684514"><ele>205.6</ele><time>2026-04-06T09:31:32Z</time></trkpt><trkpt lat="43.57570560189614" lon="3.2842831441909004"><ele>207.8</ele><time>2026-04-06T09:31:34Z</time></trkpt><trkpt lat="43.575717355069116" lon="3.2841543877336314"><ele>210.0</ele><time>2026-04-06T09:31:36Z</time></trkpt><trkpt lat="43.57576670356945" lon="3.2840396048776905"><ele>210.0</ele><time>2026-04-06T09:31:38Z</time></trkpt><trkpt lat="43.57583358723766" lon="3.283942389824879"><ele>210.0</ele><time>2026-04-06T09:31:40Z</time></trkpt><trkpt lat="43.57591166535699" lon="3.2838607232208257"><ele>210.0</ele><time>2026-04-06T09:31:42Z</time></trkpt><trkpt lat="43.57598987493613" lon="3.28377563407464"><ele>210.0</ele><time>2026-04-06T09:31:44Z</time></trkpt><trkpt lat="43.576072208350496" lon="3.2837042621936487"><ele>210.0</ele><time>2026-04-06T09:31:46Z</time></trkpt><trkpt lat="43.576157465423755" lon="3.2836221932184135"><ele>213.8</ele><time>2026-04-06T09:31:48Z</time></trkpt><trkpt lat="43.57624264413957" lon="3.2835469521879244"><ele>217.6</ele><time>2026-04-06T09:31:50Z</time></trkpt><trkpt lat="43.576343363831846" lon="3.2835117283815123"><ele>221.39999999999998</ele><time>2026-04-06T09:31:52Z</time></trkpt><trkpt lat="43.57644648385452" lon="3.283473974853024"><ele>225.2</ele><time>2026-04-06T09:31:54Z</time></trkpt><trkpt lat="43.57655051393304" lon="3.2834856489175115"><ele>229.0</ele><time>2026-04-06T09:31:56Z</time></trkpt><trkpt lat="43.576650121672714" lon="3.2834693900706244"><ele>229.0</ele><time>2026-04-06T09:31:58Z</time></trkpt><trkpt lat="43.576715846623074" lon="3.2835367001108744"><ele>228.99999999999997</ele><time>2026-04-06T09:32:00Z</time></trkpt><trkpt lat="43.57668063704397" lon="3.283687837080258"><ele>228.99999999999997</ele><time>2026-04-06T09:32:02Z</time></trkpt><trkpt lat="43.57665707857803" lon="3.2838296995929985"><ele>229.0</ele><time>2026-04-06T09:32:04Z</time></trkpt><trkpt lat="43.576639693780564" lon="3.2839636128201493"><ele>229.0</ele><time>2026-04-06T09:32:06Z</time></trkpt><trkpt lat="43.576623867837526" lon="3.2841139299493585"><ele>226.79999999999998</ele><time>2026-04-06T09:32:08Z</time></trkpt><trkpt lat="43.57661561384301" lon="3.284264170341204"><ele>224.59999999999997</ele><time>2026-04-06T09:32:10Z</time></trkpt><trkpt lat="43.57663025231502" lon="3.2844098767756513"><ele>222.4</ele><time>2026-04-06T09:32:12Z</time></trkpt><trkpt lat="43.57669287907672" lon="3.2845326094049945"><ele>220.2</ele><time>2026-04-06T09:32:14Z</time></trkpt><trkpt lat="43.576786558797885" lon="3.2846249422107454"><ele>218.0</ele><time>2026-04-06T09:32:16Z</time></trkpt><trkpt lat="43.576887999369625" lon="3.2846921897895682"><ele>218.0</ele><time>2026-04-06T09:32:18Z</time></trkpt><trkpt lat="43.57698985838378" lon="3.28475121985259"><ele>218.0</ele><time>2026-04-06T09:32:20Z</time></trkpt><trkpt lat="43.577091606107224" lon="3.28481020703922"><ele>218.0</ele><time>2026-04-06T09:32:22Z</time></trkpt><trkpt lat="43.57719456801382" lon="3.284866645921388"><ele>218.0</ele><time>2026-04-06T09:32:24Z</time></trkpt><trkpt lat="43.577293299536244" lon="3.2849235983572997"><ele>218.0</ele><time>2026-04-06T09:32:26Z</time></trkpt><trkpt lat="43.5773852512308" lon="3.2849955876894468"><ele>221.60000000000002</ele><time>2026-04-06T09:32:28Z</time></trkpt><trkpt lat="43.57746341441958" lon="3.285083794270868"><ele>225.20000000000002</ele><time>2026-04-06T09:32:30Z</time></trkpt><trkpt lat="43.57753887163652" lon="3.2851637326879373"><ele>228.8</ele><time>2026-04-06T09:32:32Z</time></trkpt><trkpt lat="43.577608022751804" lon="3.2852602962089903"><ele>232.4</ele><time>2026-04-06T09:32:34Z</time></trkpt><trkpt lat="43.57767590495156" lon="3.285359261197607"><ele>236.0</ele><time>2026-04-06T09:32:36Z</time></trkpt><trkpt lat="43.5777444550014" lon="3.285454467130053"><ele>236.0</ele><time>2026-04-06T09:32:38Z</time></trkpt><trkpt lat="43.57782341457335" lon="3.285538202855541"><ele>236.00000000000003</ele><time>2026-04-06T09:32:40Z</time></trkpt><trkpt lat="43.577903526735845" lon="3.2856112570047618"><ele>236.00000000000003</ele><time>2026-04-06T09:32:42Z</time></trkpt><trkpt lat="43.57799323050777" lon="3.28565470995467"><ele>236.0</ele><time>2026-04-06T09:32:44Z</time></trkpt><trkpt lat="43.57808698343562" lon="3.2856866639405906"><ele>236.0</ele><time>2026-04-06T09:32:46Z</time></trkpt><trkpt lat="43.57818406667647" lon="3.285705204405807"><ele>237.00000000000003</ele><time>2026-04-06T09:32:48Z</time></trkpt><trkpt lat="43.578275407859365" lon="3.2857246553285933"><ele>238.0</ele><time>2026-04-06T09:32:50Z</time></trkpt><trkpt lat="43.57836350733105" lon="3.2857520211876055"><ele>239.0</ele><time>2026-04-06T09:32:52Z</time></trkpt><trkpt lat="43.57844725426479" lon="3.285783789554367"><ele>240.0</ele><time>2026-04-06T09:32:54Z</time></trkpt><trkpt lat="43.57852604165165" lon="3.285790051534654"><ele>241.00000000000003</ele><time>2026-04-06T09:32:56Z</time></trkpt><trkpt lat="43.57860755039296" lon="3.2857903703777387"><ele>242.0</ele><time>2026-04-06T09:32:58Z</time></trkpt><trkpt lat="43.578680042541706" lon="3.2857801151205432"><ele>244.16666666666669</ele><time>2026-04-06T09:33:00Z</time></trkpt><trkpt lat="43.5787605348516" lon="3.285784396550828"><ele>246.33333333333334</ele><time>2026-04-06T09:33:02Z</time></trkpt><trkpt lat="43.57883834756082" lon="3.2857873162159725"><ele>248.5</ele><time>2026-04-06T09:33:04Z</time></trkpt><trkpt lat="43.5789213851423" lon="3.28579098660302"><ele>250.66666666666669</ele><time>2026-04-06T09:33:06Z</time></trkpt><trkpt lat="43.57899901369865" lon="3.285801023158606"><ele>252.83333333333334</ele><time>2026-04-06T09:33:08Z</time></trkpt><trkpt lat="43.57907728427443" lon="3.28581290602846"><ele>255.0</ele><time>2026-04-06T09:33:10Z</time></trkpt><trkpt lat="43.5791572512453" lon="3.2858335155123695"><ele>255.0</ele><time>2026-04-06T09:33:12Z</time></trkpt><trkpt lat="43.579233932095526" lon="3.285852136539677"><ele>255.0</ele><time>2026-04-06T09:33:14Z</time></trkpt><trkpt lat="43.57931165218149" lon="3.2858841499474125"><ele>255.0</ele><time>2026-04-06T09:33:16Z</time></trkpt><trkpt lat="43.57938355506639" lon="3.285915800423887"><ele>255.0</ele><time>2026-04-06T09:33:18Z</time></trkpt><trkpt lat="43.57946367019944" lon="3.285951268468513"><ele>255.0</ele><time>2026-04-06T09:33:20Z</time></trkpt><trkpt lat="43.57954360367742" lon="3.285978365625433"><ele>255.0</ele><time>2026-04-06T09:33:22Z</time></trkpt><trkpt lat="43.57962472979851" lon="3.286000419270729"><ele>256.1666666666667</ele><time>2026-04-06T09:33:24Z</time></trkpt><trkpt lat="43.579705983349896" lon="3.286009162239723"><ele>257.3333333333333</ele><time>2026-04-06T09:33:26Z</time></trkpt><trkpt lat="43.57978237537433" lon="3.285993218506777"><ele>258.5</ele><time>2026-04-06T09:33:28Z</time></trkpt><trkpt lat="43.57986390388141" lon="3.2859791426597575"><ele>259.66666666666663</ele><time>2026-04-06T09:33:30Z</time></trkpt><trkpt lat="43.57994205384947" lon="3.2859638538582376"><ele>260.8333333333333</ele><time>2026-04-06T09:33:32Z</time></trkpt><trkpt lat="43.58001884237547" lon="3.2859329111681728"><ele>262.0</ele><time>2026-04-06T09:33:34Z</time></trkpt><trkpt lat="43.5800943142262" lon="3.285896377773957"><ele>262.0</ele><time>2026-04-06T09:33:36Z</time></trkpt><trkpt lat="43.58017397207663" lon="3.2858726735132993"><ele>262.0</ele><time>2026-04-06T09:33:38Z</time></trkpt><trkpt lat="43.580245297381495" lon="3.285828574505421"><ele>262.0</ele><time>2026-04-06T09:33:40Z</time></trkpt><trkpt lat="43.58031760433688" lon="3.2857905570968136"><ele>262.0</ele><time>2026-04-06T09:33:42Z</time></trkpt><trkpt lat="43.580391344434226" lon="3.285755078324898"><ele>262.0</ele><time>2026-04-06T09:33:44Z</time></trkpt><trkpt lat="43.58045867636536" lon="3.2857000240207532"><ele>262.0</ele><time>2026-04-06T09:33:46Z</time></trkpt><trkpt lat="43.58053243180173" lon="3.2856799966984154"><ele>263.3333333333333</ele><time>2026-04-06T09:33:48Z</time></trkpt><trkpt lat="43.58060853925377" lon="3.285649829296466"><ele>264.66666666666663</ele><time>2026-04-06T09:33:50Z</time></trkpt><trkpt lat="43.58068431138831" lon="3.2856133521998334"><ele>266.0</ele><time>2026-04-06T09:33:52Z</time></trkpt><trkpt lat="43.580762860486175" lon="3.285589251741467"><ele>267.3333333333333</ele><time>2026-04-06T09:33:54Z</time></trkpt><trkpt lat="43.580844084152865" lon="3.2855901096496725"><ele>268.6666666666667</ele><time>2026-04-06T09:33:56Z</time></trkpt><trkpt lat="43.58092343652479" lon="3.2856148842128348"><ele>270.0</ele><time>2026-04-06T09:33:58Z</time></trkpt><trkpt lat="43.58100023777103" lon="3.2856369162711476"><ele>270.0</ele><time>2026-04-06T09:34:00Z</time></trkpt><trkpt lat="43.58108049181472" lon="3.285635882500633"><ele>270.0</ele><time>2026-04-06T09:34:02Z</time></trkpt><trkpt lat="43.58115222529482" lon="3.2856894717211973"><ele>270.0</ele><time>2026-04-06T09:34:04Z</time></trkpt><trkpt lat="43.58121748504755" lon="3.2857495692785053"><ele>270.0</ele><time>2026-04-06T09:34:06Z</time></trkpt><trkpt lat="43.58124296318097" lon="3.285861961459922"><ele>270.0</ele><time>2026-04-06T09:34:08Z</time></trkpt><trkpt lat="43.5811635272894" lon="3.285949588352541"><ele>270.0</ele><time>2026-04-06T09:34:10Z</time></trkpt><trkpt lat="43.581082107535444" lon="3.2859713616583983"><ele>270.0</ele><time>2026-04-06T09:34:12Z</time></trkpt><trkpt lat="43.58100681097969" lon="3.2859957615250774"><ele>270.0</ele><time>2026-04-06T09:34:14Z</time></trkpt><trkpt lat="43.58092729633363" lon="3.2860255205460693"><ele>270.0</ele><time>2026-04-06T09:34:16Z</time></trkpt><trkpt lat="43.580856120273836" lon="3.2860763848806096"><ele>270.0</ele><time>2026-04-06T09:34:18Z</time></trkpt><trkpt lat="43.58078191388507" lon="3.28610657609805"><ele>270.0</ele><time>2026-04-06T09:34:20Z</time></trkpt><trkpt lat="43.58070943052493" lon="3.286152342904382"><ele>270.0</ele><time>2026-04-06T09:34:22Z</time></trkpt><trkpt lat="43.58063874437995" lon="3.286201749277427"><ele>270.0</ele><time>2026-04-06T09:34:24Z</time></trkpt><trkpt lat="43.58057746711353" lon="3.2862737738836953"><ele>270.0</ele><time>2026-04-06T09:34:26Z</time></trkpt><trkpt lat="43.580504288261" lon="3.2863268915217843"><ele>270.0</ele><time>2026-04-06T09:34:28Z</time></trkpt><trkpt lat="43.58043299615211" lon="3.286382703755125"><ele>270.0</ele><time>2026-04-06T09:34:30Z</time></trkpt><trkpt lat="43.58036602433044" lon="3.2864364525588874"><ele>270.0</ele><time>2026-04-06T09:34:32Z</time></trkpt><trkpt lat="43.58029690833558" lon="3.286488652991055"><ele>270.0</ele><time>2026-04-06T09:34:34Z</time></trkpt><trkpt lat="43.58023523905086" lon="3.286563648832522"><ele>269.6666666666667</ele><time>2026-04-06T09:34:36Z</time></trkpt><trkpt lat="43.58016955588366" lon="3.2866244062477015"><ele>269.3333333333333</ele><time>2026-04-06T09:34:38Z</time></trkpt><trkpt lat="43.5801048811394" lon="3.2866880455485528"><ele>269.0</ele><time>2026-04-06T09:34:40Z</time></trkpt><trkpt lat="43.58003971961627" lon="3.2867513280529734"><ele>268.66666666666663</ele><time>2026-04-06T09:34:42Z</time></trkpt><trkpt lat="43.57996868829735" lon="3.2868012365768196"><ele>268.3333333333333</ele><time>2026-04-06T09:34:44Z</time></trkpt><trkpt lat="43.57989467089762" lon="3.286841032083363"><ele>268.0</ele><time>2026-04-06T09:34:46Z</time></trkpt><trkpt lat="43.57981386732257" lon="3.286855903981399"><ele>268.0</ele><time>2026-04-06T09:34:48Z</time></trkpt><trkpt lat="43.579738286095534" lon="3.2868981554840153"><ele>268.0</ele><time>2026-04-06T09:34:50Z</time></trkpt><trkpt lat="43.57966212193956" lon="3.286921122612215"><ele>268.0</ele><time>2026-04-06T09:34:52Z</time></trkpt><trkpt lat="43.57958171661226" lon="3.2869382943201977"><ele>268.0</ele><time>2026-04-06T09:34:54Z</time></trkpt><trkpt lat="43.57950349431405" lon="3.286957415976956"><ele>268.0</ele><time>2026-04-06T09:34:56Z</time></trkpt><trkpt lat="43.579426485298214" lon="3.2869920046594943"><ele>268.0</ele><time>2026-04-06T09:34:58Z</time></trkpt><trkpt lat="43.57935053443943" lon="3.287032712541769"><ele>266.5</ele><time>2026-04-06T09:35:00Z</time></trkpt><trkpt lat="43.57927552999344" lon="3.2870788774402193"><ele>265.0</ele><time>2026-04-06T09:35:02Z</time></trkpt><trkpt lat="43.579202311258584" lon="3.2871294989993225"><ele>263.5</ele><time>2026-04-06T09:35:04Z</time></trkpt><trkpt lat="43.57913215290882" lon="3.2871820553540996"><ele>262.0</ele><time>2026-04-06T09:35:06Z</time></trkpt><trkpt lat="43.57905822298288" lon="3.287235436133468"><ele>260.5</ele><time>2026-04-06T09:35:08Z</time></trkpt><trkpt lat="43.5789882670831" lon="3.2872931428026946"><ele>259.0</ele><time>2026-04-06T09:35:10Z</time></trkpt><trkpt lat="43.57891809958598" lon="3.287346542735661"><ele>260.8333333333333</ele><time>2026-04-06T09:35:12Z</time></trkpt><trkpt lat="43.57884751610084" lon="3.2874089347866247"><ele>262.66666666666663</ele><time>2026-04-06T09:35:14Z</time></trkpt><trkpt lat="43.57877657620235" lon="3.287472850521755"><ele>264.5</ele><time>2026-04-06T09:35:16Z</time></trkpt><trkpt lat="43.57871030014794" lon="3.2875452569782175"><ele>266.3333333333333</ele><time>2026-04-06T09:35:18Z</time></trkpt><trkpt lat="43.57865234809646" lon="3.2876198841772686"><ele>268.1666666666667</ele><time>2026-04-06T09:35:20Z</time></trkpt><trkpt lat="43.57859873380593" lon="3.287708774056381"><ele>270.0</ele><time>2026-04-06T09:35:22Z</time></trkpt><trkpt lat="43.57857469711219" lon="3.2878161188065285"><ele>270.0</ele><time>2026-04-06T09:35:24Z</time></trkpt><trkpt lat="43.578574752244386" lon="3.2879349135316143"><ele>270.0</ele><time>2026-04-06T09:35:26Z</time></trkpt><trkpt lat="43.578603589902556" lon="3.2880426497358046"><ele>270.0</ele><time>2026-04-06T09:35:28Z</time></trkpt><trkpt lat="43.57865598845786" lon="3.288123398985947"><ele>270.0</ele><time>2026-04-06T09:35:30Z</time></trkpt><trkpt lat="43.578713350365824" lon="3.2881711447355135"><ele>270.0</ele><time>2026-04-06T09:35:32Z</time></trkpt><trkpt lat="43.57878389400527" lon="3.288119279877836"><ele>270.0</ele><time>2026-04-06T09:35:34Z</time></trkpt><trkpt lat="43.57878324908321" lon="3.2880032595891575"><ele>271.8333333333333</ele><time>2026-04-06T09:35:36Z</time></trkpt><trkpt lat="43.57881242365197" lon="3.287920674693424"><ele>273.6666666666667</ele><time>2026-04-06T09:35:38Z</time></trkpt><trkpt lat="43.57888494654214" lon="3.2878964072136916"><ele>275.5</ele><time>2026-04-06T09:35:41Z</time></trkpt><trkpt lat="43.57896393959681" lon="3.2879012412945476"><ele>277.33333333333337</ele><time>2026-04-06T09:35:44Z</time></trkpt><trkpt lat="43.579068918345584" lon="3.28803642025899"><ele>279.1666666666667</ele><time>2026-04-06T09:35:47Z</time></trkpt><trkpt lat="43.579137709057" lon="3.2880838725222694"><ele>281.0</ele><time>2026-04-06T09:35:49Z</time></trkpt><trkpt lat="43.57920021412475" lon="3.2881472249789723"><ele>282.0</ele><time>2026-04-06T09:35:51Z</time></trkpt><trkpt lat="43.5792622414831" lon="3.2882085375799437"><ele>283.0</ele><time>2026-04-06T09:35:53Z</time></trkpt><trkpt lat="43.57932610819407" lon="3.2882662314492315"><ele>284.0</ele><time>2026-04-06T09:35:55Z</time></trkpt><trkpt lat="43.57939369092703" lon="3.288320061512778"><ele>285.0</ele><time>2026-04-06T09:35:57Z</time></trkpt><trkpt lat="43.57946416546259" lon="3.28837497559791"><ele>286.0</ele><time>2026-04-06T09:35:59Z</time></trkpt><trkpt lat="43.579527974155816" lon="3.288430912185702"><ele>287.0</ele><time>2026-04-06T09:36:01Z</time></trkpt><trkpt lat="43.579592665499305" lon="3.288480098576012"><ele>288.83333333333337</ele><time>2026-04-06T09:36:03Z</time></trkpt><trkpt lat="43.57965801085452" lon="3.288530184380813"><ele>290.6666666666667</ele><time>2026-04-06T09:36:05Z</time></trkpt><trkpt lat="43.57972235099605" lon="3.2885797174154945"><ele>292.5</ele><time>2026-04-06T09:36:07Z</time></trkpt><trkpt lat="43.579789429770514" lon="3.288629806114409"><ele>294.3333333333333</ele><time>2026-04-06T09:36:09Z</time></trkpt><trkpt lat="43.579853005339366" lon="3.2886841578126393"><ele>296.16666666666663</ele><time>2026-04-06T09:36:11Z</time></trkpt><trkpt lat="43.5799184951733" lon="3.2887305260679143"><ele>298.0</ele><time>2026-04-06T09:36:13Z</time></trkpt><trkpt lat="43.579989574152584" lon="3.2887818604724655"><ele>298.0</ele><time>2026-04-06T09:36:15Z</time></trkpt><trkpt lat="43.58005777096741" lon="3.2888337407781654"><ele>298.0</ele><time>2026-04-06T09:36:17Z</time></trkpt><trkpt lat="43.58012573950884" lon="3.2888854378688688"><ele>298.0</ele><time>2026-04-06T09:36:19Z</time></trkpt><trkpt lat="43.58018692606869" lon="3.2889426666139028"><ele>298.0</ele><time>2026-04-06T09:36:21Z</time></trkpt><trkpt lat="43.580249759904476" lon="3.2889950989647083"><ele>298.0</ele><time>2026-04-06T09:36:23Z</time></trkpt><trkpt lat="43.58031045076121" lon="3.289052468092714"><ele>298.0</ele><time>2026-04-06T09:36:25Z</time></trkpt><trkpt lat="43.58036579729873" lon="3.2891147738380204"><ele>298.0</ele><time>2026-04-06T09:36:27Z</time></trkpt><trkpt lat="43.580422827110965" lon="3.2891733795279445"><ele>300.6</ele><time>2026-04-06T09:36:29Z</time></trkpt><trkpt lat="43.5804738239607" lon="3.289242789928853"><ele>303.20000000000005</ele><time>2026-04-06T09:36:31Z</time></trkpt><trkpt lat="43.58051539236845" lon="3.2893455135402445"><ele>305.8</ele><time>2026-04-06T09:36:33Z</time></trkpt><trkpt lat="43.58051928281052" lon="3.289474220986666"><ele>308.40000000000003</ele><time>2026-04-06T09:36:35Z</time></trkpt><trkpt lat="43.58046317736628" lon="3.2895946337158137"><ele>311.0</ele><time>2026-04-06T09:36:37Z</time></trkpt><trkpt lat="43.580396460020836" lon="3.289701876256173"><ele>310.40000000000003</ele><time>2026-04-06T09:36:39Z</time></trkpt><trkpt lat="43.58034032771448" lon="3.2898177888542883"><ele>309.8</ele><time>2026-04-06T09:36:41Z</time></trkpt><trkpt lat="43.58030645409363" lon="3.28995755296658"><ele>309.20000000000005</ele><time>2026-04-06T09:36:43Z</time></trkpt><trkpt lat="43.58031711285534" lon="3.290121978164442"><ele>308.6</ele><time>2026-04-06T09:36:45Z</time></trkpt><trkpt lat="43.580339780462985" lon="3.2902037797456787"><ele>308.0</ele><time>2026-04-06T09:36:46Z</time></trkpt><trkpt lat="43.58037525932448" lon="3.290281816308934"><ele>308.0</ele><time>2026-04-06T09:36:47Z</time></trkpt><trkpt lat="43.58041012338872" lon="3.2903550693935966"><ele>308.0</ele><time>2026-04-06T09:36:48Z</time></trkpt><trkpt lat="43.580446271836045" lon="3.2904265390325658"><ele>308.0</ele><time>2026-04-06T09:36:49Z</time></trkpt><trkpt lat="43.580474638784885" lon="3.290582353092705"><ele>308.0</ele><time>2026-04-06T09:36:51Z</time></trkpt><trkpt lat="43.58044901130552" lon="3.290664467674546"><ele>308.0</ele><time>2026-04-06T09:36:52Z</time></trkpt><trkpt lat="43.58034589624691" lon="3.290745507058297"><ele>308.0</ele><time>2026-04-06T09:36:54Z</time></trkpt><trkpt lat="43.58023302212942" lon="3.290742793468645"><ele>305.0</ele><time>2026-04-06T09:36:56Z</time></trkpt><trkpt lat="43.580125690157175" lon="3.290744028502923"><ele>302.0</ele><time>2026-04-06T09:36:58Z</time></trkpt><trkpt lat="43.58002367602981" lon="3.290753283156397"><ele>299.0</ele><time>2026-04-06T09:37:00Z</time></trkpt><trkpt lat="43.57993231477924" lon="3.2907700156529165"><ele>296.0</ele><time>2026-04-06T09:37:02Z</time></trkpt><trkpt lat="43.57985221573839" lon="3.290852689295124"><ele>293.0</ele><time>2026-04-06T09:37:04Z</time></trkpt><trkpt lat="43.579781515441816" lon="3.2909631744916297"><ele>293.0</ele><time>2026-04-06T09:37:06Z</time></trkpt><trkpt lat="43.57970522156495" lon="3.2910838639605227"><ele>293.0</ele><time>2026-04-06T09:37:08Z</time></trkpt><trkpt lat="43.57967503427386" lon="3.2912488125160535"><ele>293.0</ele><time>2026-04-06T09:37:10Z</time></trkpt><trkpt lat="43.57969371421363" lon="3.2913477135252127"><ele>293.0</ele><time>2026-04-06T09:37:11Z</time></trkpt><trkpt lat="43.5797366113854" lon="3.29144642140942"><ele>293.0</ele><time>2026-04-06T09:37:12Z</time></trkpt><trkpt lat="43.57980759471474" lon="3.2915098841009325"><ele>292.5</ele><time>2026-04-06T09:37:13Z</time></trkpt><trkpt lat="43.57988252634477" lon="3.2915601935737646"><ele>292.0</ele><time>2026-04-06T09:37:14Z</time></trkpt><trkpt lat="43.57994756655984" lon="3.2916305666117216"><ele>291.5</ele><time>2026-04-06T09:37:15Z</time></trkpt><trkpt lat="43.580030137994775" lon="3.2916556235121766"><ele>291.0</ele><time>2026-04-06T09:37:16Z</time></trkpt><trkpt lat="43.58009769608186" lon="3.291690749663131"><ele>290.5</ele><time>2026-04-06T09:37:17Z</time></trkpt><trkpt lat="43.580180168496305" lon="3.291800829520822"><ele>290.0</ele><time>2026-04-06T09:37:19Z</time></trkpt><trkpt lat="43.58017247007641" lon="3.2919013502025676"><ele>290.0</ele><time>2026-04-06T09:37:20Z</time></trkpt><trkpt lat="43.58016073539778" lon="3.2919927117968157"><ele>290.0</ele><time>2026-04-06T09:37:21Z</time></trkpt><trkpt lat="43.58010641268605" lon="3.292064729512286"><ele>290.0</ele><time>2026-04-06T09:37:22Z</time></trkpt><trkpt lat="43.580032220242536" lon="3.29210050239493"><ele>290.0</ele><time>2026-04-06T09:37:23Z</time></trkpt><trkpt lat="43.5799497482703" lon="3.2920658918292722"><ele>290.0</ele><time>2026-04-06T09:37:24Z</time></trkpt><trkpt lat="43.579869645889744" lon="3.292079733163314"><ele>290.0</ele><time>2026-04-06T09:37:25Z</time></trkpt><trkpt lat="43.5797900341257" lon="3.292080673762616"><ele>290.0</ele><time>2026-04-06T09:37:26Z</time></trkpt><trkpt lat="43.57971032487443" lon="3.292094708655942"><ele>290.0</ele><time>2026-04-06T09:37:27Z</time></trkpt><trkpt lat="43.57962431780376" lon="3.292114388302752"><ele>290.0</ele><time>2026-04-06T09:37:28Z</time></trkpt><trkpt lat="43.579535319999984" lon="3.292124052410816"><ele>290.0</ele><time>2026-04-06T09:37:29Z</time></trkpt><trkpt lat="43.579443884559694" lon="3.2921479845234884"><ele>290.0</ele><time>2026-04-06T09:37:30Z</time></trkpt><trkpt lat="43.57935379722728" lon="3.2921792997846397"><ele>290.0</ele><time>2026-04-06T09:37:31Z</time></trkpt><trkpt lat="43.579260218429305" lon="3.2922127137873844"><ele>289.2</ele><time>2026-04-06T09:37:32Z</time></trkpt><trkpt lat="43.579163174185354" lon="3.2922528464648826"><ele>288.4</ele><time>2026-04-06T09:37:33Z</time></trkpt><trkpt lat="43.57906437625514" lon="3.292285107760265"><ele>287.6</ele><time>2026-04-06T09:37:34Z</time></trkpt><trkpt lat="43.57895876112326" lon="3.292306645970864"><ele>286.8</ele><time>2026-04-06T09:37:35Z</time></trkpt><trkpt lat="43.57885078463735" lon="3.292316981078553"><ele>286.0</ele><time>2026-04-06T09:37:36Z</time></trkpt><trkpt lat="43.578740145848826" lon="3.2923169315093506"><ele>284.8</ele><time>2026-04-06T09:37:37Z</time></trkpt><trkpt lat="43.578632658934026" lon="3.2922607861906537"><ele>283.6</ele><time>2026-04-06T09:37:38Z</time></trkpt><trkpt lat="43.578527051044325" lon="3.2922411213518212"><ele>282.4</ele><time>2026-04-06T09:37:39Z</time></trkpt><trkpt lat="43.578419680845926" lon="3.2922195445766165"><ele>281.2</ele><time>2026-04-06T09:37:40Z</time></trkpt><trkpt lat="43.57831007674736" lon="3.2922023750742175"><ele>280.0</ele><time>2026-04-06T09:37:41Z</time></trkpt><trkpt lat="43.57820025549419" lon="3.292210769461787"><ele>278.0</ele><time>2026-04-06T09:37:42Z</time></trkpt><trkpt lat="43.57809005662007" lon="3.2921988425897526"><ele>276.0</ele><time>2026-04-06T09:37:43Z</time></trkpt><trkpt lat="43.57798135005413" lon="3.292199988483115"><ele>274.0</ele><time>2026-04-06T09:37:44Z</time></trkpt><trkpt lat="43.57787361961594" lon="3.292197661040711"><ele>272.0</ele><time>2026-04-06T09:37:45Z</time></trkpt><trkpt lat="43.57776014749613" lon="3.2921948827380687"><ele>270.0</ele><time>2026-04-06T09:37:46Z</time></trkpt><trkpt lat="43.577645392375366" lon="3.292192765336337"><ele>270.75</ele><time>2026-04-06T09:37:47Z</time></trkpt><trkpt lat="43.57752520841235" lon="3.2921945768803336"><ele>271.5</ele><time>2026-04-06T09:37:48Z</time></trkpt><trkpt lat="43.577401297028246" lon="3.2922079912386355"><ele>272.25</ele><time>2026-04-06T09:37:49Z</time></trkpt><trkpt lat="43.577278147496926" lon="3.292236018867114"><ele>273.0</ele><time>2026-04-06T09:37:50Z</time></trkpt><trkpt lat="43.577160055158046" lon="3.2922786031646374"><ele>273.0</ele><time>2026-04-06T09:37:51Z</time></trkpt><trkpt lat="43.57704185664853" lon="3.2922716599438377"><ele>273.0</ele><time>2026-04-06T09:37:52Z</time></trkpt><trkpt lat="43.57693098327759" lon="3.292268333679234"><ele>273.0</ele><time>2026-04-06T09:37:53Z</time></trkpt><trkpt lat="43.57681787407355" lon="3.2922682526153264"><ele>273.0</ele><time>2026-04-06T09:37:54Z</time></trkpt><trkpt lat="43.57670453978971" lon="3.2922249762226174"><ele>268.0</ele><time>2026-04-06T09:37:55Z</time></trkpt><trkpt lat="43.57659032107215" lon="3.2921815422265626"><ele>263.0</ele><time>2026-04-06T09:37:56Z</time></trkpt><trkpt lat="43.57647521319239" lon="3.292126205599258"><ele>258.0</ele><time>2026-04-06T09:37:57Z</time></trkpt><trkpt lat="43.57636967844646" lon="3.2920412202166456"><ele>253.0</ele><time>2026-04-06T09:37:58Z</time></trkpt><trkpt lat="43.5762557192044" lon="3.291974123219776"><ele>252.5</ele><time>2026-04-06T09:37:59Z</time></trkpt><trkpt lat="43.57613316575547" lon="3.291932483425738"><ele>252.0</ele><time>2026-04-06T09:38:00Z</time></trkpt><trkpt lat="43.57601282564555" lon="3.291874447465141"><ele>251.5</ele><time>2026-04-06T09:38:01Z</time></trkpt><trkpt lat="43.5758916959301" lon="3.2918260292167822"><ele>251.0</ele><time>2026-04-06T09:38:02Z</time></trkpt><trkpt lat="43.57577063890758" lon="3.291781695920582"><ele>251.0</ele><time>2026-04-06T09:38:03Z</time></trkpt><trkpt lat="43.575647160839274" lon="3.2917278968024823"><ele>251.0</ele><time>2026-04-06T09:38:04Z</time></trkpt><trkpt lat="43.5755252777683" lon="3.291674330484257"><ele>251.0</ele><time>2026-04-06T09:38:05Z</time></trkpt><trkpt lat="43.575399909153546" lon="3.2916260680287763"><ele>251.0</ele><time>2026-04-06T09:38:06Z</time></trkpt><trkpt lat="43.57527400973272" lon="3.291582432058437"><ele>251.0</ele><time>2026-04-06T09:38:07Z</time></trkpt><trkpt lat="43.5751439866635" lon="3.29153762530761"><ele>251.0</ele><time>2026-04-06T09:38:08Z</time></trkpt><trkpt lat="43.57501538375805" lon="3.291489388137996"><ele>251.0</ele><time>2026-04-06T09:38:09Z</time></trkpt><trkpt lat="43.5748844789741" lon="3.291456445749245"><ele>251.0</ele><time>2026-04-06T09:38:10Z</time></trkpt><trkpt lat="43.574755155179055" lon="3.2914248700686457"><ele>248.25</ele><time>2026-04-06T09:38:11Z</time></trkpt><trkpt lat="43.57463097566885" lon="3.2913812557858177"><ele>245.5</ele><time>2026-04-06T09:38:12Z</time></trkpt><trkpt lat="43.57451308251876" lon="3.2913583305062235"><ele>242.75</ele><time>2026-04-06T09:38:13Z</time></trkpt><trkpt lat="43.57440212054915" lon="3.2913379281208535"><ele>240.0</ele><time>2026-04-06T09:38:14Z</time></trkpt><trkpt lat="43.57429779669208" lon="3.291326091191601"><ele>235.75</ele><time>2026-04-06T09:38:15Z</time></trkpt><trkpt lat="43.574186613715455" lon="3.2913213131798855"><ele>231.5</ele><time>2026-04-06T09:38:16Z</time></trkpt><trkpt lat="43.57407224091367" lon="3.291333440898188"><ele>227.25</ele><time>2026-04-06T09:38:17Z</time></trkpt><trkpt lat="43.573954452569424" lon="3.291360046670685"><ele>223.0</ele><time>2026-04-06T09:38:18Z</time></trkpt><trkpt lat="43.57383569603946" lon="3.291385016635935"><ele>223.0</ele><time>2026-04-06T09:38:19Z</time></trkpt><trkpt lat="43.57371614451761" lon="3.2914143381765832"><ele>223.0</ele><time>2026-04-06T09:38:20Z</time></trkpt><trkpt lat="43.573596865849204" lon="3.291436641784553"><ele>223.0</ele><time>2026-04-06T09:38:21Z</time></trkpt><trkpt lat="43.573479863463774" lon="3.2914575165491162"><ele>223.0</ele><time>2026-04-06T09:38:22Z</time></trkpt><trkpt lat="43.57336648094605" lon="3.2914721516523824"><ele>224.8</ele><time>2026-04-06T09:38:23Z</time></trkpt><trkpt lat="43.57325265476309" lon="3.291457398494444"><ele>226.60000000000002</ele><time>2026-04-06T09:38:24Z</time></trkpt><trkpt lat="43.57314153615631" lon="3.291454264162072"><ele>228.39999999999998</ele><time>2026-04-06T09:38:25Z</time></trkpt><trkpt lat="43.57302864068394" lon="3.2914691726347653"><ele>230.2</ele><time>2026-04-06T09:38:26Z</time></trkpt><trkpt lat="43.57291947256631" lon="3.2914514487986466"><ele>232.0</ele><time>2026-04-06T09:38:27Z</time></trkpt><trkpt lat="43.572811965442185" lon="3.2914311351047245"><ele>227.0</ele><time>2026-04-06T09:38:28Z</time></trkpt><trkpt lat="43.572705836800914" lon="3.291410758432243"><ele>222.0</ele><time>2026-04-06T09:38:29Z</time></trkpt><trkpt lat="43.57260293304224" lon="3.291382338459409"><ele>217.0</ele><time>2026-04-06T09:38:30Z</time></trkpt><trkpt lat="43.57250279998601" lon="3.291359013336871"><ele>212.0</ele><time>2026-04-06T09:38:31Z</time></trkpt><trkpt lat="43.57240523517216" lon="3.2913312225461864"><ele>207.0</ele><time>2026-04-06T09:38:32Z</time></trkpt><trkpt lat="43.57231226348118" lon="3.291293130857853"><ele>207.0</ele><time>2026-04-06T09:38:33Z</time></trkpt><trkpt lat="43.57222130083325" lon="3.291254617876855"><ele>207.0</ele><time>2026-04-06T09:38:34Z</time></trkpt><trkpt lat="43.57213310172058" lon="3.2912287447017476"><ele>207.0</ele><time>2026-04-06T09:38:35Z</time></trkpt><trkpt lat="43.5720410285165" lon="3.291203180277833"><ele>207.0</ele><time>2026-04-06T09:38:36Z</time></trkpt><trkpt lat="43.57194764993243" lon="3.291184726695005"><ele>207.0</ele><time>2026-04-06T09:38:37Z</time></trkpt><trkpt lat="43.57185144308511" lon="3.291178518985351"><ele>206.8</ele><time>2026-04-06T09:38:38Z</time></trkpt><trkpt lat="43.571749826263684" lon="3.291197219422809"><ele>206.6</ele><time>2026-04-06T09:38:39Z</time></trkpt><trkpt lat="43.57164851633408" lon="3.291233869947805"><ele>206.4</ele><time>2026-04-06T09:38:40Z</time></trkpt><trkpt lat="43.571546869503095" lon="3.2912715947634084"><ele>206.20000000000002</ele><time>2026-04-06T09:38:41Z</time></trkpt><trkpt lat="43.571450036448105" lon="3.2913087685263105"><ele>206.0</ele><time>2026-04-06T09:38:42Z</time></trkpt><trkpt lat="43.571353201618926" lon="3.2913435132348314"><ele>206.0</ele><time>2026-04-06T09:38:43Z</time></trkpt><trkpt lat="43.571257114051015" lon="3.291372923849622"><ele>206.0</ele><time>2026-04-06T09:38:44Z</time></trkpt><trkpt lat="43.5711619430198" lon="3.2913949484817584"><ele>206.0</ele><time>2026-04-06T09:38:45Z</time></trkpt><trkpt lat="43.57106403848885" lon="3.29142644891528"><ele>206.0</ele><time>2026-04-06T09:38:46Z</time></trkpt><trkpt lat="43.570963283180795" lon="3.291435735686267"><ele>206.0</ele><time>2026-04-06T09:38:47Z</time></trkpt><trkpt lat="43.570865168931924" lon="3.291447685711261"><ele>207.0</ele><time>2026-04-06T09:38:48Z</time></trkpt><trkpt lat="43.57076322714276" lon="3.291458146684152"><ele>208.0</ele><time>2026-04-06T09:38:49Z</time></trkpt><trkpt lat="43.570658660010324" lon="3.291439784408573"><ele>209.0</ele><time>2026-04-06T09:38:50Z</time></trkpt><trkpt lat="43.570554600619886" lon="3.2914429412832087"><ele>210.0</ele><time>2026-04-06T09:38:51Z</time></trkpt><trkpt lat="43.57045218398427" lon="3.2914674066894327"><ele>211.0</ele><time>2026-04-06T09:38:52Z</time></trkpt><trkpt lat="43.57035601407155" lon="3.2915075777774745"><ele>208.33333333333331</ele><time>2026-04-06T09:38:53Z</time></trkpt><trkpt lat="43.570267821758726" lon="3.291558148809564"><ele>205.66666666666666</ele><time>2026-04-06T09:38:54Z</time></trkpt><trkpt lat="43.57019051092013" lon="3.291616713684027"><ele>203.0</ele><time>2026-04-06T09:38:55Z</time></trkpt><trkpt lat="43.57012310767835" lon="3.291684290552818"><ele>200.33333333333331</ele><time>2026-04-06T09:38:56Z</time></trkpt><trkpt lat="43.570072445621534" lon="3.2917605007588318"><ele>197.66666666666666</ele><time>2026-04-06T09:38:57Z</time></trkpt><trkpt lat="43.570040746111815" lon="3.291851984810905"><ele>195.0</ele><time>2026-04-06T09:38:58Z</time></trkpt><trkpt lat="43.57003421042865" lon="3.2919623774247637"><ele>195.0</ele><time>2026-04-06T09:38:59Z</time></trkpt><trkpt lat="43.57004798242143" lon="3.292081137357293"><ele>195.0</ele><time>2026-04-06T09:39:00Z</time></trkpt><trkpt lat="43.57006937858691" lon="3.292199286209515"><ele>195.0</ele><time>2026-04-06T09:39:01Z</time></trkpt><trkpt lat="43.57008397986208" lon="3.2923229717498583"><ele>195.0</ele><time>2026-04-06T09:39:02Z</time></trkpt><trkpt lat="43.57009158468944" lon="3.292444309898919"><ele>195.0</ele><time>2026-04-06T09:39:03Z</time></trkpt><trkpt lat="43.570102305604614" lon="3.2925665042991588"><ele>195.0</ele><time>2026-04-06T09:39:04Z</time></trkpt><trkpt lat="43.570124491476456" lon="3.292678938865714"><ele>194.4</ele><time>2026-04-06T09:39:05Z</time></trkpt><trkpt lat="43.570160126736326" lon="3.292781858447928"><ele>193.8</ele><time>2026-04-06T09:39:06Z</time></trkpt><trkpt lat="43.570216281160434" lon="3.2928754925495505"><ele>193.2</ele><time>2026-04-06T09:39:07Z</time></trkpt><trkpt lat="43.57027664935719" lon="3.292971724412433"><ele>192.6</ele><time>2026-04-06T09:39:08Z</time></trkpt><trkpt lat="43.570347344866754" lon="3.293060779169127"><ele>192.0</ele><time>2026-04-06T09:39:09Z</time></trkpt><trkpt lat="43.57042651878728" lon="3.293146135961699"><ele>193.2</ele><time>2026-04-06T09:39:10Z</time></trkpt><trkpt lat="43.57051298057558" lon="3.2932168079117896"><ele>194.39999999999998</ele><time>2026-04-06T09:39:11Z</time></trkpt><trkpt lat="43.570605680388304" lon="3.29327667455944"><ele>195.60000000000002</ele><time>2026-04-06T09:39:12Z</time></trkpt><trkpt lat="43.57070108348236" lon="3.2933433894767394"><ele>196.8</ele><time>2026-04-06T09:39:13Z</time></trkpt><trkpt lat="43.57079511763498" lon="3.293403967429284"><ele>198.0</ele><time>2026-04-06T09:39:14Z</time></trkpt><trkpt lat="43.570874903299945" lon="3.293486916044389"><ele>198.0</ele><time>2026-04-06T09:39:15Z</time></trkpt><trkpt lat="43.570950740436224" lon="3.293571688620735"><ele>198.0</ele><time>2026-04-06T09:39:16Z</time></trkpt><trkpt lat="43.57102607070533" lon="3.293660794912921"><ele>198.0</ele><time>2026-04-06T09:39:17Z</time></trkpt><trkpt lat="43.57110387195309" lon="3.293746674683482"><ele>198.0</ele><time>2026-04-06T09:39:18Z</time></trkpt><trkpt lat="43.57117967874403" lon="3.2938178122163033"><ele>198.0</ele><time>2026-04-06T09:39:19Z</time></trkpt><trkpt lat="43.571261629860786" lon="3.2938715880805316"><ele>196.33333333333334</ele><time>2026-04-06T09:39:20Z</time></trkpt><trkpt lat="43.571357271764434" lon="3.2939031763159203"><ele>194.66666666666666</ele><time>2026-04-06T09:39:21Z</time></trkpt><trkpt lat="43.57145648670613" lon="3.293912823361855"><ele>193.0</ele><time>2026-04-06T09:39:22Z</time></trkpt><trkpt lat="43.571527583243494" lon="3.2939657502359596"><ele>191.33333333333331</ele><time>2026-04-06T09:39:23Z</time></trkpt><trkpt lat="43.57158858709731" lon="3.294030551643534"><ele>189.66666666666666</ele><time>2026-04-06T09:39:24Z</time></trkpt><trkpt lat="43.5716548875386" lon="3.2940965945439094"><ele>188.0</ele><time>2026-04-06T09:39:25Z</time></trkpt><trkpt lat="43.57169877884996" lon="3.2942043609469747"><ele>188.0</ele><time>2026-04-06T09:39:26Z</time></trkpt><trkpt lat="43.57175663317583" lon="3.2942909549598873"><ele>188.0</ele><time>2026-04-06T09:39:27Z</time></trkpt><trkpt lat="43.571829365865774" lon="3.2943692715883834"><ele>188.0</ele><time>2026-04-06T09:39:28Z</time></trkpt><trkpt lat="43.57190753009301" lon="3.2944412990543293"><ele>188.0</ele><time>2026-04-06T09:39:29Z</time></trkpt><trkpt lat="43.571985369829044" lon="3.2945173328019806"><ele>188.0</ele><time>2026-04-06T09:39:30Z</time></trkpt><trkpt lat="43.57206344916697" lon="3.294600012459836"><ele>187.66666666666666</ele><time>2026-04-06T09:39:31Z</time></trkpt><trkpt lat="43.57213874512796" lon="3.294687390597383"><ele>187.33333333333331</ele><time>2026-04-06T09:39:32Z</time></trkpt><trkpt lat="43.572207079613115" lon="3.2947742298797533"><ele>187.0</ele><time>2026-04-06T09:39:33Z</time></trkpt><trkpt lat="43.57226325991069" lon="3.2948712723700013"><ele>186.66666666666666</ele><time>2026-04-06T09:39:34Z</time></trkpt><trkpt lat="43.572303603490525" lon="3.2949635664796424"><ele>186.33333333333334</ele><time>2026-04-06T09:39:35Z</time></trkpt><trkpt lat="43.57231940678548" lon="3.295065085903602"><ele>186.0</ele><time>2026-04-06T09:39:36Z</time></trkpt><trkpt lat="43.572305845205875" lon="3.295168010509664"><ele>186.0</ele><time>2026-04-06T09:39:37Z</time></trkpt><trkpt lat="43.57226731543902" lon="3.2952589976245705"><ele>186.0</ele><time>2026-04-06T09:39:38Z</time></trkpt><trkpt lat="43.572226466735394" lon="3.2953341306707644"><ele>186.0</ele><time>2026-04-06T09:39:39Z</time></trkpt><trkpt lat="43.57212380684925" lon="3.2954245127948387"><ele>186.0</ele><time>2026-04-06T09:39:41Z</time></trkpt><trkpt lat="43.57200995379896" lon="3.295434078822737"><ele>186.0</ele><time>2026-04-06T09:39:43Z</time></trkpt><trkpt lat="43.57190521184919" lon="3.295391435109246"><ele>184.0</ele><time>2026-04-06T09:39:45Z</time></trkpt><trkpt lat="43.57180036466239" lon="3.295377840419059"><ele>182.0</ele><time>2026-04-06T09:39:47Z</time></trkpt><trkpt lat="43.571702189650615" lon="3.295338174977308"><ele>180.0</ele><time>2026-04-06T09:39:49Z</time></trkpt><trkpt lat="43.57160482003108" lon="3.2953128167249086"><ele>178.0</ele><time>2026-04-06T09:39:51Z</time></trkpt><trkpt lat="43.57151585616915" lon="3.2952823329064618"><ele>176.0</ele><time>2026-04-06T09:39:53Z</time></trkpt><trkpt lat="43.571427837582945" lon="3.2952528911670003"><ele>176.0</ele><time>2026-04-06T09:39:55Z</time></trkpt><trkpt lat="43.57134250745525" lon="3.2952214943173006"><ele>176.0</ele><time>2026-04-06T09:39:57Z</time></trkpt><trkpt lat="43.5712552710482" lon="3.29519470368058"><ele>176.0</ele><time>2026-04-06T09:39:59Z</time></trkpt><trkpt lat="43.57116322377325" lon="3.295162757352735"><ele>176.0</ele><time>2026-04-06T09:40:01Z</time></trkpt><trkpt lat="43.57107331242419" lon="3.295135891620074"><ele>176.0</ele><time>2026-04-06T09:40:03Z</time></trkpt><trkpt lat="43.570983391111376" lon="3.2951188077498292"><ele>177.0</ele><time>2026-04-06T09:40:05Z</time></trkpt><trkpt lat="43.570894580541584" lon="3.295082674812839"><ele>178.0</ele><time>2026-04-06T09:40:07Z</time></trkpt><trkpt lat="43.57080347551971" lon="3.2950598980422723"><ele>179.0</ele><time>2026-04-06T09:40:09Z</time></trkpt><trkpt lat="43.570709916324496" lon="3.295047511657477"><ele>180.0</ele><time>2026-04-06T09:40:11Z</time></trkpt><trkpt lat="43.57061569449772" lon="3.295020736198003"><ele>181.0</ele><time>2026-04-06T09:40:13Z</time></trkpt><trkpt lat="43.570516575619834" lon="3.2950069940763798"><ele>181.0</ele><time>2026-04-06T09:40:15Z</time></trkpt><trkpt lat="43.57041753394203" lon="3.2949923595706716"><ele>181.0</ele><time>2026-04-06T09:40:17Z</time></trkpt><trkpt lat="43.570318184049114" lon="3.2949729219468122"><ele>181.0</ele><time>2026-04-06T09:40:19Z</time></trkpt><trkpt lat="43.57021352396992" lon="3.2949560722478948"><ele>181.0</ele><time>2026-04-06T09:40:21Z</time></trkpt><trkpt lat="43.57010662808464" lon="3.2949394466526036"><ele>181.0</ele><time>2026-04-06T09:40:23Z</time></trkpt><trkpt lat="43.56999723131034" lon="3.2949277539170563"><ele>180.8</ele><time>2026-04-06T09:40:25Z</time></trkpt><trkpt lat="43.56988803412078" lon="3.2949336105272105"><ele>180.60000000000002</ele><time>2026-04-06T09:40:27Z</time></trkpt><trkpt lat="43.56977970729017" lon="3.294942263271046"><ele>180.4</ele><time>2026-04-06T09:40:29Z</time></trkpt><trkpt lat="43.5696724257526" lon="3.294954318013394"><ele>180.2</ele><time>2026-04-06T09:40:31Z</time></trkpt><trkpt lat="43.569563330982255" lon="3.2949676325548487"><ele>180.0</ele><time>2026-04-06T09:40:33Z</time></trkpt><trkpt lat="43.56945658292075" lon="3.2949869430437557"><ele>180.0</ele><time>2026-04-06T09:40:35Z</time></trkpt><trkpt lat="43.56934755473798" lon="3.295018958125249"><ele>180.0</ele><time>2026-04-06T09:40:37Z</time></trkpt><trkpt lat="43.569240294307455" lon="3.2950609375094957"><ele>180.0</ele><time>2026-04-06T09:40:39Z</time></trkpt><trkpt lat="43.56913663573491" lon="3.2951118235542127"><ele>180.0</ele><time>2026-04-06T09:40:41Z</time></trkpt><trkpt lat="43.56903427588178" lon="3.295175832758822"><ele>180.0</ele><time>2026-04-06T09:40:43Z</time></trkpt><trkpt lat="43.56893052989241" lon="3.2952417935858027"><ele>180.0</ele><time>2026-04-06T09:40:45Z</time></trkpt><trkpt lat="43.56882905585988" lon="3.2953109705785417"><ele>180.0</ele><time>2026-04-06T09:40:47Z</time></trkpt><trkpt lat="43.56872440429221" lon="3.2953784787830407"><ele>180.0</ele><time>2026-04-06T09:40:49Z</time></trkpt><trkpt lat="43.56861700955461" lon="3.2954564345430777"><ele>180.0</ele><time>2026-04-06T09:40:51Z</time></trkpt><trkpt lat="43.56850812707629" lon="3.2955375084764964"><ele>182.0</ele><time>2026-04-06T09:40:53Z</time></trkpt><trkpt lat="43.568397189173794" lon="3.2956149521783162"><ele>184.0</ele><time>2026-04-06T09:40:55Z</time></trkpt><trkpt lat="43.56828940290621" lon="3.295693697888397"><ele>186.0</ele><time>2026-04-06T09:40:57Z</time></trkpt><trkpt lat="43.568232898130695" lon="3.2957335154617167"><ele>188.0</ele><time>2026-04-06T09:40:58Z</time></trkpt><trkpt lat="43.5681182305392" lon="3.2958071183569944"><ele>190.0</ele><time>2026-04-06T09:41:00Z</time></trkpt><trkpt lat="43.56800455816219" lon="3.295884938218816"><ele>190.0</ele><time>2026-04-06T09:41:02Z</time></trkpt><trkpt lat="43.567947324360475" lon="3.295924243303743"><ele>190.0</ele><time>2026-04-06T09:41:03Z</time></trkpt><trkpt lat="43.56789057241476" lon="3.2959634383079037"><ele>190.0</ele><time>2026-04-06T09:41:04Z</time></trkpt><trkpt lat="43.567831482417176" lon="3.296004061921318"><ele>190.0</ele><time>2026-04-06T09:41:05Z</time></trkpt><trkpt lat="43.567773276121315" lon="3.2960452724792644"><ele>190.0</ele><time>2026-04-06T09:41:06Z</time></trkpt><trkpt lat="43.567716250329084" lon="3.2960854971095457"><ele>190.0</ele><time>2026-04-06T09:41:07Z</time></trkpt><trkpt lat="43.56765867022885" lon="3.2961241691264287"><ele>190.0</ele><time>2026-04-06T09:41:08Z</time></trkpt><trkpt lat="43.567599505492666" lon="3.296165153696762"><ele>188.14285714285714</ele><time>2026-04-06T09:41:09Z</time></trkpt><trkpt lat="43.56754078108808" lon="3.2962015212226885"><ele>186.28571428571428</ele><time>2026-04-06T09:41:10Z</time></trkpt><trkpt lat="43.56748014627856" lon="3.2962311570520955"><ele>184.42857142857144</ele><time>2026-04-06T09:41:11Z</time></trkpt><trkpt lat="43.567417512137354" lon="3.2962527067868908"><ele>182.57142857142856</ele><time>2026-04-06T09:41:12Z</time></trkpt><trkpt lat="43.567355010300716" lon="3.296267792931256"><ele>180.7142857142857</ele><time>2026-04-06T09:41:13Z</time></trkpt><trkpt lat="43.56729145974885" lon="3.296276579255847"><ele>178.85714285714286</ele><time>2026-04-06T09:41:14Z</time></trkpt><trkpt lat="43.56716861850049" lon="3.2962798741437007"><ele>177.0</ele><time>2026-04-06T09:41:16Z</time></trkpt><trkpt lat="43.56704684754344" lon="3.296261815281583"><ele>176.0</ele><time>2026-04-06T09:41:18Z</time></trkpt><trkpt lat="43.56692639582726" lon="3.296233532013033"><ele>175.0</ele><time>2026-04-06T09:41:20Z</time></trkpt><trkpt lat="43.566810330614636" lon="3.2962230550933103"><ele>174.0</ele><time>2026-04-06T09:41:22Z</time></trkpt><trkpt lat="43.56669298911668" lon="3.296215722085554"><ele>173.0</ele><time>2026-04-06T09:41:24Z</time></trkpt><trkpt lat="43.56658316033168" lon="3.2962217754655097"><ele>173.0</ele><time>2026-04-06T09:41:26Z</time></trkpt><trkpt lat="43.56647452241419" lon="3.2962265894911633"><ele>173.0</ele><time>2026-04-06T09:41:28Z</time></trkpt><trkpt lat="43.56636724420296" lon="3.296235851397246"><ele>173.0</ele><time>2026-04-06T09:41:30Z</time></trkpt><trkpt lat="43.56626238233531" lon="3.2962449923817867"><ele>173.0</ele><time>2026-04-06T09:41:32Z</time></trkpt><trkpt lat="43.56615478812771" lon="3.2962564390552287"><ele>173.0</ele><time>2026-04-06T09:41:34Z</time></trkpt><trkpt lat="43.56605037060167" lon="3.2962681894664434"><ele>173.0</ele><time>2026-04-06T09:41:36Z</time></trkpt><trkpt lat="43.56594387569447" lon="3.2962744686178724"><ele>173.0</ele><time>2026-04-06T09:41:38Z</time></trkpt><trkpt lat="43.56583467026822" lon="3.2962759060836313"><ele>173.0</ele><time>2026-04-06T09:41:40Z</time></trkpt><trkpt lat="43.565725168754206" lon="3.2962801641328774"><ele>173.0</ele><time>2026-04-06T09:41:42Z</time></trkpt><trkpt lat="43.56561649819922" lon="3.296292948077811"><ele>173.0</ele><time>2026-04-06T09:41:44Z</time></trkpt><trkpt lat="43.56550690595633" lon="3.2963033112322577"><ele>173.0</ele><time>2026-04-06T09:41:46Z</time></trkpt><trkpt lat="43.56539804194236" lon="3.296330421751392"><ele>173.0</ele><time>2026-04-06T09:41:48Z</time></trkpt><trkpt lat="43.56528659593024" lon="3.2963564212794005"><ele>173.0</ele><time>2026-04-06T09:41:50Z</time></trkpt><trkpt lat="43.565176835967854" lon="3.296399177346836"><ele>173.0</ele><time>2026-04-06T09:41:52Z</time></trkpt><trkpt lat="43.56506814863464" lon="3.2964488593203116"><ele>176.25</ele><time>2026-04-06T09:41:54Z</time></trkpt><trkpt lat="43.564960985713384" lon="3.2965033569367916"><ele>179.5</ele><time>2026-04-06T09:41:56Z</time></trkpt><trkpt lat="43.56485627741999" lon="3.296566523831387"><ele>182.75</ele><time>2026-04-06T09:41:58Z</time></trkpt><trkpt lat="43.564756809214465" lon="3.296639374881777"><ele>186.0</ele><time>2026-04-06T09:42:00Z</time></trkpt><trkpt lat="43.56466002690595" lon="3.2967196334671938"><ele>186.0</ele><time>2026-04-06T09:42:02Z</time></trkpt><trkpt lat="43.564563823697654" lon="3.296805540611797"><ele>186.0</ele><time>2026-04-06T09:42:04Z</time></trkpt><trkpt lat="43.56447363935062" lon="3.296902672267417"><ele>186.0</ele><time>2026-04-06T09:42:06Z</time></trkpt><trkpt lat="43.564392886900094" lon="3.297010654458507"><ele>186.0</ele><time>2026-04-06T09:42:08Z</time></trkpt><trkpt lat="43.564307495844226" lon="3.2971163665731904"><ele>184.25</ele><time>2026-04-06T09:42:10Z</time></trkpt><trkpt lat="43.56422353289106" lon="3.2972226989694606"><ele>182.5</ele><time>2026-04-06T09:42:12Z</time></trkpt><trkpt lat="43.56414172288835" lon="3.297330250762297"><ele>180.75</ele><time>2026-04-06T09:42:14Z</time></trkpt><trkpt lat="43.564065731698676" lon="3.2974454936281767"><ele>179.0</ele><time>2026-04-06T09:42:16Z</time></trkpt><trkpt lat="43.56402362968724" lon="3.2975876853667394"><ele>179.0</ele><time>2026-04-06T09:42:18Z</time></trkpt><trkpt lat="43.564034073552435" lon="3.2977436121887975"><ele>179.0</ele><time>2026-04-06T09:42:20Z</time></trkpt><trkpt lat="43.56407741341472" lon="3.297890469982249"><ele>179.0</ele><time>2026-04-06T09:42:22Z</time></trkpt><trkpt lat="43.56413000033307" lon="3.2980235250914385"><ele>179.0</ele><time>2026-04-06T09:42:24Z</time></trkpt><trkpt lat="43.56417624813911" lon="3.2981574827706877"><ele>179.0</ele><time>2026-04-06T09:42:26Z</time></trkpt><trkpt lat="43.564205149384186" lon="3.2983034776498945"><ele>179.0</ele><time>2026-04-06T09:42:28Z</time></trkpt><trkpt lat="43.5641925375159" lon="3.2984604171307184"><ele>179.0</ele><time>2026-04-06T09:42:30Z</time></trkpt><trkpt lat="43.56413041232124" lon="3.2986017774671725"><ele>179.0</ele><time>2026-04-06T09:42:32Z</time></trkpt><trkpt lat="43.5640548880792" lon="3.298712736987243"><ele>179.0</ele><time>2026-04-06T09:42:34Z</time></trkpt><trkpt lat="43.563990242703" lon="3.2988276230331386"><ele>179.6</ele><time>2026-04-06T09:42:36Z</time></trkpt><trkpt lat="43.56393989562765" lon="3.2989544696825055"><ele>180.2</ele><time>2026-04-06T09:42:38Z</time></trkpt><trkpt lat="43.563912877194596" lon="3.299102183764031"><ele>180.79999999999998</ele><time>2026-04-06T09:42:40Z</time></trkpt><trkpt lat="43.56391948505709" lon="3.299259195462442"><ele>181.39999999999998</ele><time>2026-04-06T09:42:42Z</time></trkpt><trkpt lat="43.56396654719442" lon="3.2993992122560822"><ele>182.0</ele><time>2026-04-06T09:42:44Z</time></trkpt><trkpt lat="43.564040442440344" lon="3.2995155151110054"><ele>182.0</ele><time>2026-04-06T09:42:46Z</time></trkpt><trkpt lat="43.56413544196725" lon="3.2995973733277943"><ele>182.0</ele><time>2026-04-06T09:42:48Z</time></trkpt><trkpt lat="43.56424777471387" lon="3.2996436052176294"><ele>182.0</ele><time>2026-04-06T09:42:50Z</time></trkpt><trkpt lat="43.56435606554373" lon="3.2996642115285555"><ele>182.0</ele><time>2026-04-06T09:42:52Z</time></trkpt><trkpt lat="43.564460543442465" lon="3.299677168771854"><ele>182.0</ele><time>2026-04-06T09:42:54Z</time></trkpt><trkpt lat="43.564569630130215" lon="3.2996891810858164"><ele>181.2</ele><time>2026-04-06T09:42:56Z</time></trkpt><trkpt lat="43.56467955228535" lon="3.2997116793301826"><ele>180.39999999999998</ele><time>2026-04-06T09:42:58Z</time></trkpt><trkpt lat="43.56478852682565" lon="3.2997341628581265"><ele>179.60000000000002</ele><time>2026-04-06T09:43:00Z</time></trkpt><trkpt lat="43.56489150831347" lon="3.2997821426783167"><ele>178.8</ele><time>2026-04-06T09:43:02Z</time></trkpt><trkpt lat="43.56499770104826" lon="3.2998353169352197"><ele>178.0</ele><time>2026-04-06T09:43:04Z</time></trkpt><trkpt lat="43.56510561109127" lon="3.2998990554676593"><ele>178.0</ele><time>2026-04-06T09:43:06Z</time></trkpt><trkpt lat="43.565212486316334" lon="3.2999771133106592"><ele>178.0</ele><time>2026-04-06T09:43:08Z</time></trkpt><trkpt lat="43.565266613027205" lon="3.3000223211546205"><ele>178.0</ele><time>2026-04-06T09:43:09Z</time></trkpt><trkpt lat="43.56532302313995" lon="3.3000668694397017"><ele>178.0</ele><time>2026-04-06T09:43:10Z</time></trkpt><trkpt lat="43.56538131519059" lon="3.3001122772518694"><ele>178.0</ele><time>2026-04-06T09:43:11Z</time></trkpt><trkpt lat="43.565438368859674" lon="3.3001589724577616"><ele>178.0</ele><time>2026-04-06T09:43:12Z</time></trkpt><trkpt lat="43.56549581435446" lon="3.30021308380303"><ele>180.42857142857142</ele><time>2026-04-06T09:43:13Z</time></trkpt><trkpt lat="43.56555363752991" lon="3.3002630047923818"><ele>182.85714285714286</ele><time>2026-04-06T09:43:14Z</time></trkpt><trkpt lat="43.56561215136573" lon="3.3003197498858245"><ele>185.28571428571428</ele><time>2026-04-06T09:43:15Z</time></trkpt><trkpt lat="43.565668007448295" lon="3.300366469948852"><ele>187.71428571428572</ele><time>2026-04-06T09:43:16Z</time></trkpt><trkpt lat="43.56572286184743" lon="3.300414544428664"><ele>190.14285714285714</ele><time>2026-04-06T09:43:17Z</time></trkpt><trkpt lat="43.565778558219634" lon="3.300464907586496"><ele>192.57142857142856</ele><time>2026-04-06T09:43:18Z</time></trkpt><trkpt lat="43.565835830947364" lon="3.3005140785367466"><ele>195.0</ele><time>2026-04-06T09:43:19Z</time></trkpt><trkpt lat="43.56589139456077" lon="3.300564328540509"><ele>195.14285714285714</ele><time>2026-04-06T09:43:20Z</time></trkpt><trkpt lat="43.56595000654049" lon="3.3006100322427754"><ele>195.28571428571428</ele><time>2026-04-06T09:43:21Z</time></trkpt><trkpt lat="43.566006813478026" lon="3.300656153565464"><ele>195.42857142857144</ele><time>2026-04-06T09:43:22Z</time></trkpt><trkpt lat="43.56606335920383" lon="3.30070618860567"><ele>195.57142857142856</ele><time>2026-04-06T09:43:23Z</time></trkpt><trkpt lat="43.56611963808652" lon="3.300755853170754"><ele>195.71428571428572</ele><time>2026-04-06T09:43:24Z</time></trkpt><trkpt lat="43.566177158603196" lon="3.3008061859217896"><ele>195.85714285714286</ele><time>2026-04-06T09:43:25Z</time></trkpt><trkpt lat="43.566233910549514" lon="3.3008553135524092"><ele>196.0</ele><time>2026-04-06T09:43:26Z</time></trkpt><trkpt lat="43.56628734705703" lon="3.3009129620277005"><ele>196.0</ele><time>2026-04-06T09:43:27Z</time></trkpt><trkpt lat="43.56632994308395" lon="3.300985716402983"><ele>196.0</ele><time>2026-04-06T09:43:28Z</time></trkpt><trkpt lat="43.56636233568728" lon="3.301069138302953"><ele>196.0</ele><time>2026-04-06T09:43:29Z</time></trkpt><trkpt lat="43.566382555995155" lon="3.3011620818668552"><ele>196.0</ele><time>2026-04-06T09:43:30Z</time></trkpt><trkpt lat="43.56639010285973" lon="3.30126163754148"><ele>196.0</ele><time>2026-04-06T09:43:31Z</time></trkpt><trkpt lat="43.56638080100848" lon="3.301365378871082"><ele>196.0</ele><time>2026-04-06T09:43:32Z</time></trkpt><trkpt lat="43.56635779011882" lon="3.3014663802814384"><ele>196.0</ele><time>2026-04-06T09:43:33Z</time></trkpt><trkpt lat="43.566322971038204" lon="3.301556071567326"><ele>193.57142857142858</ele><time>2026-04-06T09:43:34Z</time></trkpt><trkpt lat="43.566271153487" lon="3.3016280893147694"><ele>191.14285714285714</ele><time>2026-04-06T09:43:35Z</time></trkpt><trkpt lat="43.56621206015234" lon="3.301685124276187"><ele>188.71428571428572</ele><time>2026-04-06T09:43:36Z</time></trkpt><trkpt lat="43.56614474442942" lon="3.3017206520745366"><ele>186.28571428571428</ele><time>2026-04-06T09:43:37Z</time></trkpt><trkpt lat="43.56607791505402" lon="3.3017345143079377"><ele>183.85714285714286</ele><time>2026-04-06T09:43:38Z</time></trkpt><trkpt lat="43.56600881119353" lon="3.3017290454657107"><ele>181.42857142857144</ele><time>2026-04-06T09:43:39Z</time></trkpt><trkpt lat="43.56594663733756" lon="3.301713779939514"><ele>179.0</ele><time>2026-04-06T09:43:40Z</time></trkpt><trkpt lat="43.565885129048254" lon="3.3016883920891638"><ele>179.0</ele><time>2026-04-06T09:43:41Z</time></trkpt><trkpt lat="43.56582860504583" lon="3.3016470440329804"><ele>179.0</ele><time>2026-04-06T09:43:42Z</time></trkpt><trkpt lat="43.5657116752379" lon="3.301586019931865"><ele>179.0</ele><time>2026-04-06T09:43:44Z</time></trkpt><trkpt lat="43.56559842101967" lon="3.3015226587449575"><ele>179.0</ele><time>2026-04-06T09:43:46Z</time></trkpt><trkpt lat="43.56548895767154" lon="3.3014534507924003"><ele>179.0</ele><time>2026-04-06T09:43:48Z</time></trkpt><trkpt lat="43.56537020770732" lon="3.3014213115531925"><ele>180.0</ele><time>2026-04-06T09:43:50Z</time></trkpt><trkpt lat="43.565254511764095" lon="3.301412516326854"><ele>181.0</ele><time>2026-04-06T09:43:52Z</time></trkpt><trkpt lat="43.56514429521967" lon="3.3014161065339125"><ele>182.0</ele><time>2026-04-06T09:43:54Z</time></trkpt><trkpt lat="43.56503576826319" lon="3.301433138531449"><ele>183.0</ele><time>2026-04-06T09:43:56Z</time></trkpt><trkpt lat="43.56492578561766" lon="3.3014459876543367"><ele>184.0</ele><time>2026-04-06T09:43:58Z</time></trkpt><trkpt lat="43.56481913376118" lon="3.301460012472516"><ele>184.0</ele><time>2026-04-06T09:44:00Z</time></trkpt><trkpt lat="43.56471066167763" lon="3.301471847503284"><ele>184.0</ele><time>2026-04-06T09:44:02Z</time></trkpt><trkpt lat="43.56460396884197" lon="3.3014919665239613"><ele>184.0</ele><time>2026-04-06T09:44:04Z</time></trkpt><trkpt lat="43.56449931412493" lon="3.301509073796578"><ele>184.0</ele><time>2026-04-06T09:44:06Z</time></trkpt><trkpt lat="43.56440173509941" lon="3.301546296363615"><ele>184.0</ele><time>2026-04-06T09:44:08Z</time></trkpt><trkpt lat="43.56431066422019" lon="3.3016193550581336"><ele>182.2</ele><time>2026-04-06T09:44:10Z</time></trkpt><trkpt lat="43.56424491027721" lon="3.3017333268511426"><ele>180.39999999999998</ele><time>2026-04-06T09:44:12Z</time></trkpt><trkpt lat="43.564216386495595" lon="3.30187728950551"><ele>178.6</ele><time>2026-04-06T09:44:14Z</time></trkpt><trkpt lat="43.56421978796979" lon="3.3020248378882227"><ele>176.8</ele><time>2026-04-06T09:44:16Z</time></trkpt><trkpt lat="43.564255975420906" lon="3.3021689086680457"><ele>175.0</ele><time>2026-04-06T09:44:18Z</time></trkpt><trkpt lat="43.564315437131725" lon="3.3023014329736795"><ele>175.0</ele><time>2026-04-06T09:44:20Z</time></trkpt><trkpt lat="43.564371608626885" lon="3.3024403607299018"><ele>175.0</ele><time>2026-04-06T09:44:22Z</time></trkpt><trkpt lat="43.56442639524908" lon="3.302582512282837"><ele>175.0</ele><time>2026-04-06T09:44:24Z</time></trkpt><trkpt lat="43.564477621951816" lon="3.3027240803347024"><ele>175.0</ele><time>2026-04-06T09:44:26Z</time></trkpt><trkpt lat="43.56453778561336" lon="3.3028603893742967"><ele>178.75</ele><time>2026-04-06T09:44:28Z</time></trkpt><trkpt lat="43.56459182443053" lon="3.3030051371825238"><ele>182.5</ele><time>2026-04-06T09:44:30Z</time></trkpt><trkpt lat="43.56464875034717" lon="3.3031460488847957"><ele>186.25</ele><time>2026-04-06T09:44:32Z</time></trkpt><trkpt lat="43.56470487222272" lon="3.303288128625616"><ele>190.0</ele><time>2026-04-06T09:44:34Z</time></trkpt><trkpt lat="43.56475947403129" lon="3.3034385115558007"><ele>190.0</ele><time>2026-04-06T09:44:36Z</time></trkpt><trkpt lat="43.56481304759441" lon="3.3035888858159588"><ele>190.0</ele><time>2026-04-06T09:44:38Z</time></trkpt><trkpt lat="43.564859525560045" lon="3.3037452082792025"><ele>190.0</ele><time>2026-04-06T09:44:40Z</time></trkpt><trkpt lat="43.56489256412721" lon="3.303905134705972"><ele>190.0</ele><time>2026-04-06T09:44:42Z</time></trkpt><trkpt lat="43.564917787668705" lon="3.3040689715445564"><ele>188.6</ele><time>2026-04-06T09:44:44Z</time></trkpt><trkpt lat="43.564930114322195" lon="3.3041547895750853"><ele>187.2</ele><time>2026-04-06T09:44:45Z</time></trkpt><trkpt lat="43.564950874651146" lon="3.3043212804205373"><ele>185.8</ele><time>2026-04-06T09:44:47Z</time></trkpt><trkpt lat="43.56497393826443" lon="3.304490289731108"><ele>184.4</ele><time>2026-04-06T09:44:49Z</time></trkpt><trkpt lat="43.56498509884456" lon="3.304663019370021"><ele>183.0</ele><time>2026-04-06T09:44:51Z</time></trkpt><trkpt lat="43.56500790721372" lon="3.3048359744346945"><ele>182.33333333333334</ele><time>2026-04-06T09:44:53Z</time></trkpt><trkpt lat="43.56502425728106" lon="3.3050072977215916"><ele>181.66666666666666</ele><time>2026-04-06T09:44:55Z</time></trkpt><trkpt lat="43.56503259224839" lon="3.3050960897153003"><ele>181.0</ele><time>2026-04-06T09:44:56Z</time></trkpt><trkpt lat="43.56504195652873" lon="3.3051822639583683"><ele>180.33333333333331</ele><time>2026-04-06T09:44:57Z</time></trkpt><trkpt lat="43.56504982181977" lon="3.305269706515918"><ele>179.66666666666666</ele><time>2026-04-06T09:44:58Z</time></trkpt><trkpt lat="43.56505848684961" lon="3.3053570077922383"><ele>179.0</ele><time>2026-04-06T09:44:59Z</time></trkpt><trkpt lat="43.56507993693703" lon="3.305528097625688"><ele>179.0</ele><time>2026-04-06T09:45:01Z</time></trkpt><trkpt lat="43.56510040235746" lon="3.3056957098639503"><ele>179.0</ele><time>2026-04-06T09:45:03Z</time></trkpt><trkpt lat="43.56511510717963" lon="3.305864731509577"><ele>179.0</ele><time>2026-04-06T09:45:05Z</time></trkpt><trkpt lat="43.56512420828725" lon="3.306033716644381"><ele>179.0</ele><time>2026-04-06T09:45:07Z</time></trkpt><trkpt lat="43.5651097906487" lon="3.306202774267202"><ele>179.0</ele><time>2026-04-06T09:45:09Z</time></trkpt><trkpt lat="43.56509087219347" lon="3.306286150854798"><ele>179.0</ele><time>2026-04-06T09:45:10Z</time></trkpt><trkpt lat="43.5650599510401" lon="3.3063630625276286"><ele>179.0</ele><time>2026-04-06T09:45:11Z</time></trkpt><trkpt lat="43.5649686072648" lon="3.3064762109491452"><ele>179.0</ele><time>2026-04-06T09:45:13Z</time></trkpt><trkpt lat="43.564868325088455" lon="3.306543223303261"><ele>179.0</ele><time>2026-04-06T09:45:15Z</time></trkpt><trkpt lat="43.56476384639056" lon="3.3065541024490432"><ele>179.0</ele><time>2026-04-06T09:45:17Z</time></trkpt><trkpt lat="43.56467021941074" lon="3.3065147323016495"><ele>179.0</ele><time>2026-04-06T09:45:19Z</time></trkpt><trkpt lat="43.56459105532968" lon="3.3064607014327163"><ele>179.0</ele><time>2026-04-06T09:45:21Z</time></trkpt><trkpt lat="43.564523327438984" lon="3.30638276050143"><ele>179.0</ele><time>2026-04-06T09:45:23Z</time></trkpt><trkpt lat="43.5644690166864" lon="3.306288963588891"><ele>179.0</ele><time>2026-04-06T09:45:25Z</time></trkpt><trkpt lat="43.56441521592218" lon="3.3061932666237825"><ele>179.0</ele><time>2026-04-06T09:45:27Z</time></trkpt><trkpt lat="43.5643655816243" lon="3.3060963377277828"><ele>178.66666666666666</ele><time>2026-04-06T09:45:29Z</time></trkpt><trkpt lat="43.56431453506323" lon="3.3060004956505975"><ele>178.33333333333331</ele><time>2026-04-06T09:45:31Z</time></trkpt><trkpt lat="43.56426394485239" lon="3.3059105665555077"><ele>178.0</ele><time>2026-04-06T09:45:33Z</time></trkpt><trkpt lat="43.56420793780587" lon="3.305814118840314"><ele>177.66666666666666</ele><time>2026-04-06T09:45:35Z</time></trkpt><trkpt lat="43.564148921544714" lon="3.305713964615477"><ele>177.33333333333334</ele><time>2026-04-06T09:45:37Z</time></trkpt><trkpt lat="43.564094924367026" lon="3.305604748365067"><ele>177.0</ele><time>2026-04-06T09:45:39Z</time></trkpt><trkpt lat="43.564046063255226" lon="3.3054921272503686"><ele>177.0</ele><time>2026-04-06T09:45:41Z</time></trkpt><trkpt lat="43.564014797953384" lon="3.305366566860757"><ele>177.0</ele><time>2026-04-06T09:45:43Z</time></trkpt><trkpt lat="43.56399809797989" lon="3.3052324774362356"><ele>177.0</ele><time>2026-04-06T09:45:45Z</time></trkpt><trkpt lat="43.564009173188445" lon="3.305096894483401"><ele>177.0</ele><time>2026-04-06T09:45:47Z</time></trkpt><trkpt lat="43.56399140698308" lon="3.3049650697751503"><ele>177.0</ele><time>2026-04-06T09:45:49Z</time></trkpt><trkpt lat="43.56398138044359" lon="3.3048342561436095"><ele>176.0</ele><time>2026-04-06T09:45:51Z</time></trkpt><trkpt lat="43.563951587139236" lon="3.3047086264604046"><ele>175.0</ele><time>2026-04-06T09:45:53Z</time></trkpt><trkpt lat="43.56391520529335" lon="3.3045902133730585"><ele>174.0</ele><time>2026-04-06T09:45:55Z</time></trkpt><trkpt lat="43.56386913656972" lon="3.304474655352205"><ele>173.0</ele><time>2026-04-06T09:45:57Z</time></trkpt><trkpt lat="43.56382499733897" lon="3.304356551368147"><ele>172.0</ele><time>2026-04-06T09:45:59Z</time></trkpt><trkpt lat="43.56377728215728" lon="3.3042444532874535"><ele>172.0</ele><time>2026-04-06T09:46:01Z</time></trkpt><trkpt lat="43.56373466349673" lon="3.304130335431968"><ele>172.0</ele><time>2026-04-06T09:46:03Z</time></trkpt><trkpt lat="43.563687553398616" lon="3.3040143644276236"><ele>172.0</ele><time>2026-04-06T09:46:05Z</time></trkpt><trkpt lat="43.56364529362506" lon="3.3038979363271164"><ele>172.0</ele><time>2026-04-06T09:46:07Z</time></trkpt><trkpt lat="43.563599223935334" lon="3.303786922755321"><ele>172.0</ele><time>2026-04-06T09:46:09Z</time></trkpt><trkpt lat="43.56354720116606" lon="3.303674906176667"><ele>173.39999999999998</ele><time>2026-04-06T09:46:11Z</time></trkpt><trkpt lat="43.563491593702565" lon="3.303562869206434"><ele>174.79999999999998</ele><time>2026-04-06T09:46:13Z</time></trkpt><trkpt lat="43.56343055843311" lon="3.3034589512351644"><ele>176.2</ele><time>2026-04-06T09:46:15Z</time></trkpt><trkpt lat="43.5633638398241" lon="3.3033593794047387"><ele>177.6</ele><time>2026-04-06T09:46:17Z</time></trkpt><trkpt lat="43.56329056606882" lon="3.303269796796834"><ele>179.0</ele><time>2026-04-06T09:46:19Z</time></trkpt><trkpt lat="43.563215239698984" lon="3.3031795746886714"><ele>179.0</ele><time>2026-04-06T09:46:21Z</time></trkpt><trkpt lat="43.56313325751425" lon="3.303101858696918"><ele>179.0</ele><time>2026-04-06T09:46:23Z</time></trkpt><trkpt lat="43.56304366766096" lon="3.303036766979081"><ele>179.0</ele><time>2026-04-06T09:46:25Z</time></trkpt><trkpt lat="43.56295212565389" lon="3.3029769973370904"><ele>179.0</ele><time>2026-04-06T09:46:27Z</time></trkpt><trkpt lat="43.56285853189781" lon="3.3029272301526458"><ele>179.0</ele><time>2026-04-06T09:46:29Z</time></trkpt><trkpt lat="43.56276377206098" lon="3.3028767794998197"><ele>177.2</ele><time>2026-04-06T09:46:31Z</time></trkpt><trkpt lat="43.56266892366773" lon="3.302827716242178"><ele>175.39999999999998</ele><time>2026-04-06T09:46:33Z</time></trkpt><trkpt lat="43.56257610842939" lon="3.3027746668036677"><ele>173.6</ele><time>2026-04-06T09:46:35Z</time></trkpt><trkpt lat="43.562478551584285" lon="3.3027302946844435"><ele>171.8</ele><time>2026-04-06T09:46:37Z</time></trkpt><trkpt lat="43.56238218334894" lon="3.302679648413978"><ele>170.0</ele><time>2026-04-06T09:46:39Z</time></trkpt><trkpt lat="43.56228599031067" lon="3.302636640111494"><ele>170.0</ele><time>2026-04-06T09:46:41Z</time></trkpt><trkpt lat="43.56219184713064" lon="3.302601322885032"><ele>170.0</ele><time>2026-04-06T09:46:43Z</time></trkpt><trkpt lat="43.56209739569116" lon="3.302581975029472"><ele>170.0</ele><time>2026-04-06T09:46:45Z</time></trkpt><trkpt lat="43.562009491365615" lon="3.3025986002897976"><ele>170.0</ele><time>2026-04-06T09:46:47Z</time></trkpt><trkpt lat="43.56192833928865" lon="3.3026298064990462"><ele>170.0</ele><time>2026-04-06T09:46:49Z</time></trkpt><trkpt lat="43.561859976877145" lon="3.3026854434398447"><ele>170.0</ele><time>2026-04-06T09:46:51Z</time></trkpt><trkpt lat="43.5617999119846" lon="3.302745639848679"><ele>171.0</ele><time>2026-04-06T09:46:53Z</time></trkpt><trkpt lat="43.56174685681166" lon="3.3028089971136625"><ele>172.0</ele><time>2026-04-06T09:46:55Z</time></trkpt><trkpt lat="43.56168776257824" lon="3.302857235066386"><ele>173.0</ele><time>2026-04-06T09:46:57Z</time></trkpt><trkpt lat="43.56160875193853" lon="3.30287264510736"><ele>174.0</ele><time>2026-04-06T09:46:59Z</time></trkpt><trkpt lat="43.56151989324855" lon="3.302873509231172"><ele>175.0</ele><time>2026-04-06T09:47:01Z</time></trkpt><trkpt lat="43.561435978718535" lon="3.302842328125968"><ele>176.0</ele><time>2026-04-06T09:47:03Z</time></trkpt><trkpt lat="43.56135991539873" lon="3.302806490300245"><ele>176.0</ele><time>2026-04-06T09:47:05Z</time></trkpt><trkpt lat="43.56128794572551" lon="3.3027468437375833"><ele>176.0</ele><time>2026-04-06T09:47:07Z</time></trkpt><trkpt lat="43.56122647004731" lon="3.3026837343039985"><ele>176.0</ele><time>2026-04-06T09:47:09Z</time></trkpt><trkpt lat="43.56117446638791" lon="3.302623532634005"><ele>176.0</ele><time>2026-04-06T09:47:42Z</time></trkpt><trkpt lat="43.56109816888714" lon="3.3025833659815462"><ele>176.0</ele><time>2026-04-06T09:47:46Z</time></trkpt><trkpt lat="43.56101377320782" lon="3.3025488333311146"><ele>176.0</ele><time>2026-04-06T09:47:48Z</time></trkpt><trkpt lat="43.56092335426447" lon="3.302511046758492"><ele>175.8</ele><time>2026-04-06T09:47:50Z</time></trkpt><trkpt lat="43.56081633153122" lon="3.3025073508921974"><ele>175.60000000000002</ele><time>2026-04-06T09:47:52Z</time></trkpt><trkpt lat="43.56070906236896" lon="3.3025529331918264"><ele>175.4</ele><time>2026-04-06T09:47:54Z</time></trkpt><trkpt lat="43.56061061628951" lon="3.3026304720715545"><ele>175.2</ele><time>2026-04-06T09:47:56Z</time></trkpt><trkpt lat="43.56053513382893" lon="3.3027391558470347"><ele>175.0</ele><time>2026-04-06T09:47:58Z</time></trkpt><trkpt lat="43.560458875645516" lon="3.302863686161863"><ele>175.0</ele><time>2026-04-06T09:48:00Z</time></trkpt><trkpt lat="43.56036972140631" lon="3.3029865283403086"><ele>175.0</ele><time>2026-04-06T09:48:02Z</time></trkpt><trkpt lat="43.560326835886194" lon="3.3030503353401652"><ele>175.0</ele><time>2026-04-06T09:48:03Z</time></trkpt><trkpt lat="43.560282510911094" lon="3.3031170979288547"><ele>175.0</ele><time>2026-04-06T09:48:04Z</time></trkpt><trkpt lat="43.560235535122025" lon="3.3031798994872426"><ele>175.0</ele><time>2026-04-06T09:48:05Z</time></trkpt><trkpt lat="43.56018096110991" lon="3.3032298820111228"><ele>175.0</ele><time>2026-04-06T09:48:06Z</time></trkpt><trkpt lat="43.560120846840746" lon="3.303267725530377"><ele>175.66666666666669</ele><time>2026-04-06T09:48:07Z</time></trkpt><trkpt lat="43.56005364028649" lon="3.3032791977657237"><ele>176.33333333333334</ele><time>2026-04-06T09:48:08Z</time></trkpt><trkpt lat="43.55998674672888" lon="3.303259030970114"><ele>177.0</ele><time>2026-04-06T09:48:09Z</time></trkpt><trkpt lat="43.55992772394488" lon="3.3032125279309215"><ele>177.66666666666666</ele><time>2026-04-06T09:48:10Z</time></trkpt><trkpt lat="43.559878617387966" lon="3.3031483931189043"><ele>178.33333333333331</ele><time>2026-04-06T09:48:11Z</time></trkpt><trkpt lat="43.559813332362" lon="3.3029984436656297"><ele>179.0</ele><time>2026-04-06T09:48:13Z</time></trkpt><trkpt lat="43.55980779450726" lon="3.3029099145377434"><ele>179.00000000000003</ele><time>2026-04-06T09:48:14Z</time></trkpt><trkpt lat="43.5598116860777" lon="3.3028161142092713"><ele>179.0</ele><time>2026-04-06T09:48:15Z</time></trkpt><trkpt lat="43.559815642004224" lon="3.302728811729375"><ele>179.0</ele><time>2026-04-06T09:48:16Z</time></trkpt><trkpt lat="43.55982010438862" lon="3.302641745873269"><ele>179.0</ele><time>2026-04-06T09:48:17Z</time></trkpt><trkpt lat="43.55982643010754" lon="3.3025534382665866"><ele>179.0</ele><time>2026-04-06T09:48:18Z</time></trkpt><trkpt lat="43.559832649081216" lon="3.302465218450232"><ele>179.00000000000003</ele><time>2026-04-06T09:48:19Z</time></trkpt><trkpt lat="43.55983505525549" lon="3.3023782336960066"><ele>179.0</ele><time>2026-04-06T09:48:20Z</time></trkpt><trkpt lat="43.55983307691429" lon="3.3022884985077834"><ele>177.66666666666666</ele><time>2026-04-06T09:48:21Z</time></trkpt><trkpt lat="43.55981948730355" lon="3.3022016144894764"><ele>176.33333333333331</ele><time>2026-04-06T09:48:22Z</time></trkpt><trkpt lat="43.55978008703484" lon="3.302034561183898"><ele>175.0</ele><time>2026-04-06T09:48:24Z</time></trkpt><trkpt lat="43.55972358538579" lon="3.3018818719382943"><ele>173.66666666666666</ele><time>2026-04-06T09:48:26Z</time></trkpt><trkpt lat="43.55968570912645" lon="3.3018110282669917"><ele>172.33333333333334</ele><time>2026-04-06T09:48:27Z</time></trkpt><trkpt lat="43.559646426504074" lon="3.3017425218318284"><ele>171.0</ele><time>2026-04-06T09:48:28Z</time></trkpt><trkpt lat="43.55960482801337" lon="3.3016767085736443"><ele>170.99999999999997</ele><time>2026-04-06T09:48:29Z</time></trkpt><trkpt lat="43.55956079606598" lon="3.3016107383581677"><ele>171.0</ele><time>2026-04-06T09:48:30Z</time></trkpt><trkpt lat="43.55951340317129" lon="3.3015484104471877"><ele>171.0</ele><time>2026-04-06T09:48:31Z</time></trkpt><trkpt lat="43.559467062943" lon="3.3014880121181975"><ele>171.0</ele><time>2026-04-06T09:48:32Z</time></trkpt><trkpt lat="43.55942447413438" lon="3.3014204211246585"><ele>171.0</ele><time>2026-04-06T09:48:33Z</time></trkpt><trkpt lat="43.55938137018262" lon="3.3013545920129923"><ele>170.99999999999997</ele><time>2026-04-06T09:48:34Z</time></trkpt><trkpt lat="43.5592908362333" lon="3.3012357027090764"><ele>171.0</ele><time>2026-04-06T09:48:36Z</time></trkpt><trkpt lat="43.55920869546485" lon="3.3011044685688486"><ele>171.99999999999997</ele><time>2026-04-06T09:48:38Z</time></trkpt><trkpt lat="43.55916579027196" lon="3.301037732699051"><ele>173.0</ele><time>2026-04-06T09:48:39Z</time></trkpt><trkpt lat="43.55912462336847" lon="3.3009677096936203"><ele>174.0</ele><time>2026-04-06T09:48:40Z</time></trkpt><trkpt lat="43.55908551883927" lon="3.300893419560303"><ele>175.0</ele><time>2026-04-06T09:48:41Z</time></trkpt><trkpt lat="43.559051341919236" lon="3.3008154991946754"><ele>176.0</ele><time>2026-04-06T09:48:42Z</time></trkpt><trkpt lat="43.55901425879331" lon="3.3007391688967354"><ele>176.99999999999997</ele><time>2026-04-06T09:48:43Z</time></trkpt><trkpt lat="43.55897208951357" lon="3.3006609671271017"><ele>178.0</ele><time>2026-04-06T09:48:44Z</time></trkpt><trkpt lat="43.558928340600104" lon="3.300584068816864"><ele>176.42857142857142</ele><time>2026-04-06T09:48:45Z</time></trkpt><trkpt lat="43.558884746829456" lon="3.3005071514773796"><ele>174.85714285714286</ele><time>2026-04-06T09:48:46Z</time></trkpt><trkpt lat="43.558847549901834" lon="3.300424100076874"><ele>173.28571428571428</ele><time>2026-04-06T09:48:47Z</time></trkpt><trkpt lat="43.5588044450424" lon="3.300339392553357"><ele>171.71428571428572</ele><time>2026-04-06T09:48:48Z</time></trkpt><trkpt lat="43.558760987121765" lon="3.3002559021737805"><ele>170.14285714285714</ele><time>2026-04-06T09:48:49Z</time></trkpt><trkpt lat="43.558718380732714" lon="3.300170139757938"><ele>168.57142857142856</ele><time>2026-04-06T09:48:50Z</time></trkpt><trkpt lat="43.55867593229331" lon="3.3000808232051395"><ele>167.0</ele><time>2026-04-06T09:48:51Z</time></trkpt><trkpt lat="43.55863036807913" lon="3.2999912635289177"><ele>168.16666666666666</ele><time>2026-04-06T09:48:52Z</time></trkpt><trkpt lat="43.558583157062074" lon="3.29990126512583"><ele>169.33333333333331</ele><time>2026-04-06T09:48:53Z</time></trkpt><trkpt lat="43.558533047959344" lon="3.2998089492746354"><ele>170.5</ele><time>2026-04-06T09:48:54Z</time></trkpt><trkpt lat="43.558481407587315" lon="3.299714078244305"><ele>171.66666666666666</ele><time>2026-04-06T09:48:55Z</time></trkpt><trkpt lat="43.55843023740079" lon="3.299616155790098"><ele>172.83333333333334</ele><time>2026-04-06T09:48:56Z</time></trkpt><trkpt lat="43.558381001843074" lon="3.299516606855739"><ele>174.0</ele><time>2026-04-06T09:48:57Z</time></trkpt><trkpt lat="43.558331310639495" lon="3.2994133383880944"><ele>174.0</ele><time>2026-04-06T09:48:58Z</time></trkpt><trkpt lat="43.558279163524745" lon="3.29931400251946"><ele>174.0</ele><time>2026-04-06T09:48:59Z</time></trkpt><trkpt lat="43.558228710354534" lon="3.2992076912900066"><ele>174.0</ele><time>2026-04-06T09:49:00Z</time></trkpt><trkpt lat="43.55817779936691" lon="3.299106131655803"><ele>174.0</ele><time>2026-04-06T09:49:01Z</time></trkpt><trkpt lat="43.558126767246875" lon="3.2989996665010386"><ele>174.0</ele><time>2026-04-06T09:49:02Z</time></trkpt><trkpt lat="43.558074509774066" lon="3.298892569729198"><ele>173.6</ele><time>2026-04-06T09:49:03Z</time></trkpt><trkpt lat="43.558020309263185" lon="3.2987864130351956"><ele>173.2</ele><time>2026-04-06T09:49:04Z</time></trkpt><trkpt lat="43.557967875913754" lon="3.2986869779811605"><ele>172.79999999999998</ele><time>2026-04-06T09:49:05Z</time></trkpt><trkpt lat="43.55791571168865" lon="3.2985886576457437"><ele>172.39999999999998</ele><time>2026-04-06T09:49:06Z</time></trkpt><trkpt lat="43.55786145591071" lon="3.2984889661056287"><ele>172.0</ele><time>2026-04-06T09:49:07Z</time></trkpt><trkpt lat="43.55780957947392" lon="3.2983860515460646"><ele>172.0</ele><time>2026-04-06T09:49:08Z</time></trkpt><trkpt lat="43.55776251350878" lon="3.2982841314395124"><ele>172.0</ele><time>2026-04-06T09:49:09Z</time></trkpt><trkpt lat="43.5577208490987" lon="3.2981828828932476"><ele>172.0</ele><time>2026-04-06T09:49:10Z</time></trkpt><trkpt lat="43.557655138873365" lon="3.298108793265051"><ele>172.0</ele><time>2026-04-06T09:49:11Z</time></trkpt><trkpt lat="43.55757545189955" lon="3.2980459117594454"><ele>172.0</ele><time>2026-04-06T09:49:12Z</time></trkpt><trkpt lat="43.55748813499962" lon="3.2980090978752736"><ele>172.0</ele><time>2026-04-06T09:49:13Z</time></trkpt><trkpt lat="43.55739583280544" lon="3.297994084267615"><ele>168.79999999999998</ele><time>2026-04-06T09:49:14Z</time></trkpt><trkpt lat="43.55730946355872" lon="3.2979739405533954"><ele>165.6</ele><time>2026-04-06T09:49:15Z</time></trkpt><trkpt lat="43.55721329884453" lon="3.297968740011578"><ele>162.39999999999998</ele><time>2026-04-06T09:49:16Z</time></trkpt><trkpt lat="43.55710934036879" lon="3.2979745225070243"><ele>159.2</ele><time>2026-04-06T09:49:17Z</time></trkpt><trkpt lat="43.55700301032608" lon="3.2979970978087647"><ele>156.0</ele><time>2026-04-06T09:49:18Z</time></trkpt><trkpt lat="43.55689513697254" lon="3.298029351817457"><ele>155.25</ele><time>2026-04-06T09:49:19Z</time></trkpt><trkpt lat="43.556778585976055" lon="3.2980597636394915"><ele>154.5</ele><time>2026-04-06T09:49:20Z</time></trkpt><trkpt lat="43.55665918163404" lon="3.298093465887436"><ele>153.75</ele><time>2026-04-06T09:49:21Z</time></trkpt><trkpt lat="43.556541081506204" lon="3.2981286999316204"><ele>153.0</ele><time>2026-04-06T09:49:22Z</time></trkpt><trkpt lat="43.5564243402405" lon="3.298158300322496"><ele>152.75</ele><time>2026-04-06T09:49:23Z</time></trkpt><trkpt lat="43.55631171167328" lon="3.298187283596514"><ele>152.5</ele><time>2026-04-06T09:49:24Z</time></trkpt><trkpt lat="43.55620077139167" lon="3.2982169493384355"><ele>152.25</ele><time>2026-04-06T09:49:25Z</time></trkpt><trkpt lat="43.55608682639087" lon="3.2982400327159263"><ele>152.0</ele><time>2026-04-06T09:49:26Z</time></trkpt><trkpt lat="43.55596853206287" lon="3.298205569818454"><ele>152.0</ele><time>2026-04-06T09:49:27Z</time></trkpt><trkpt lat="43.55584464713817" lon="3.298162845331602"><ele>152.0</ele><time>2026-04-06T09:49:28Z</time></trkpt><trkpt lat="43.55571306843454" lon="3.2981170366378008"><ele>152.0</ele><time>2026-04-06T09:49:28.999Z</time></trkpt><trkpt lat="43.555587904608835" lon="3.298023091452521"><ele>152.0</ele><time>2026-04-06T09:49:29.999Z</time></trkpt><trkpt lat="43.555447577595714" lon="3.2979611558229482"><ele>148.0</ele><time>2026-04-06T09:49:30.999Z</time></trkpt><trkpt lat="43.55531063386642" lon="3.297885322163262"><ele>144.0</ele><time>2026-04-06T09:49:31.999Z</time></trkpt><trkpt lat="43.55516541223004" lon="3.297824402556282"><ele>140.0</ele><time>2026-04-06T09:49:32.999Z</time></trkpt><trkpt lat="43.5550120426966" lon="3.2977807101535572"><ele>140.0</ele><time>2026-04-06T09:49:33.999Z</time></trkpt><trkpt lat="43.55486287870734" lon="3.2977564999352653"><ele>140.0</ele><time>2026-04-06T09:49:34.999Z</time></trkpt><trkpt lat="43.554722031106685" lon="3.297767500893357"><ele>140.0</ele><time>2026-04-06T09:49:35.999Z</time></trkpt><trkpt lat="43.55458231414226" lon="3.2977839819278794"><ele>140.0</ele><time>2026-04-06T09:49:36.999Z</time></trkpt><trkpt lat="43.554447949319496" lon="3.297770880301777"><ele>139.75</ele><time>2026-04-06T09:49:37.999Z</time></trkpt><trkpt lat="43.5543231991316" lon="3.297701480943399"><ele>139.5</ele><time>2026-04-06T09:49:38.999Z</time></trkpt><trkpt lat="43.55419151411146" lon="3.297668028227807"><ele>139.25</ele><time>2026-04-06T09:49:39.999Z</time></trkpt><trkpt lat="43.55406743681036" lon="3.2976189424873956"><ele>139.0</ele><time>2026-04-06T09:49:40.999Z</time></trkpt><trkpt lat="43.55394653640275" lon="3.2975685871878877"><ele>139.0</ele><time>2026-04-06T09:49:41.999Z</time></trkpt><trkpt lat="43.553826432295224" lon="3.297523834860082"><ele>139.0</ele><time>2026-04-06T09:49:42.999Z</time></trkpt><trkpt lat="43.55370965295618" lon="3.2974923363779363"><ele>139.0</ele><time>2026-04-06T09:49:43.999Z</time></trkpt><trkpt lat="43.55359677586423" lon="3.2974670307881913"><ele>139.0</ele><time>2026-04-06T09:49:44.999Z</time></trkpt><trkpt lat="43.55348717046092" lon="3.2974551538840133"><ele>137.8</ele><time>2026-04-06T09:49:45.999Z</time></trkpt><trkpt lat="43.55338210620137" lon="3.2974598034797746"><ele>136.60000000000002</ele><time>2026-04-06T09:49:46.999Z</time></trkpt><trkpt lat="43.55327968072738" lon="3.297473741936107"><ele>135.4</ele><time>2026-04-06T09:49:47.999Z</time></trkpt><trkpt lat="43.553181710335096" lon="3.297483011153671"><ele>134.20000000000002</ele><time>2026-04-06T09:49:48.999Z</time></trkpt><trkpt lat="43.55308839555802" lon="3.2974765658306944"><ele>133.0</ele><time>2026-04-06T09:49:49.999Z</time></trkpt><trkpt lat="43.552995756427435" lon="3.2974691021889373"><ele>133.0</ele><time>2026-04-06T09:49:50.999Z</time></trkpt><trkpt lat="43.5529057108656" lon="3.2974670141080082"><ele>133.0</ele><time>2026-04-06T09:49:51.999Z</time></trkpt><trkpt lat="43.552819422426865" lon="3.2974699824546096"><ele>133.0</ele><time>2026-04-06T09:49:52.999Z</time></trkpt><trkpt lat="43.55273439651489" lon="3.297471989034671"><ele>133.0</ele><time>2026-04-06T09:49:53.999Z</time></trkpt><trkpt lat="43.55265427485299" lon="3.2974888999441383"><ele>133.0</ele><time>2026-04-06T09:49:54.999Z</time></trkpt><trkpt lat="43.55257817772445" lon="3.2975116661563946"><ele>133.0</ele><time>2026-04-06T09:49:55.999Z</time></trkpt><trkpt lat="43.55250106699106" lon="3.297535892395457"><ele>133.14285714285714</ele><time>2026-04-06T09:49:56.999Z</time></trkpt><trkpt lat="43.552425427250334" lon="3.2975656258825694"><ele>133.28571428571428</ele><time>2026-04-06T09:49:57.999Z</time></trkpt><trkpt lat="43.552353179063" lon="3.2975989821871763"><ele>133.42857142857144</ele><time>2026-04-06T09:49:58.999Z</time></trkpt><trkpt lat="43.55228264680301" lon="3.297631563651048"><ele>133.57142857142856</ele><time>2026-04-06T09:49:59.999Z</time></trkpt><trkpt lat="43.5522110536582" lon="3.2976600850566484"><ele>133.71428571428572</ele><time>2026-04-06T09:50:00.999Z</time></trkpt><trkpt lat="43.55214233717244" lon="3.2976937298844"><ele>133.85714285714286</ele><time>2026-04-06T09:50:01.999Z</time></trkpt><trkpt lat="43.55207675490295" lon="3.2977284506588105"><ele>134.0</ele><time>2026-04-06T09:50:02.999Z</time></trkpt><trkpt lat="43.55201041209746" lon="3.2977588113868763"><ele>135.28571428571428</ele><time>2026-04-06T09:50:03.999Z</time></trkpt><trkpt lat="43.551946796781024" lon="3.2977908597548287"><ele>136.57142857142856</ele><time>2026-04-06T09:50:04.999Z</time></trkpt><trkpt lat="43.55188582881555" lon="3.2978239424051874"><ele>137.85714285714283</ele><time>2026-04-06T09:50:05.999Z</time></trkpt><trkpt lat="43.55182706058218" lon="3.2978611214342375"><ele>139.14285714285714</ele><time>2026-04-06T09:50:06.999Z</time></trkpt><trkpt lat="43.55176838511259" lon="3.2979015519791783"><ele>140.42857142857142</ele><time>2026-04-06T09:50:07.999Z</time></trkpt><trkpt lat="43.551709783399126" lon="3.2979395974185044"><ele>141.7142857142857</ele><time>2026-04-06T09:50:08.999Z</time></trkpt><trkpt lat="43.55165105286423" lon="3.2979783108481513"><ele>143.0</ele><time>2026-04-06T09:50:09.999Z</time></trkpt><trkpt lat="43.55159560165292" lon="3.298021833962368"><ele>141.0</ele><time>2026-04-06T09:50:10.999Z</time></trkpt><trkpt lat="43.551491937285924" lon="3.2980978377137573"><ele>139.0</ele><time>2026-04-06T09:50:12.999Z</time></trkpt><trkpt lat="43.5514005940743" lon="3.2981834271921704"><ele>137.0</ele><time>2026-04-06T09:50:14.999Z</time></trkpt><trkpt lat="43.5513157092539" lon="3.2982647978223727"><ele>135.0</ele><time>2026-04-06T09:50:16.999Z</time></trkpt><trkpt lat="43.55122500096529" lon="3.2983373411488177"><ele>133.0</ele><time>2026-04-06T09:50:18.999Z</time></trkpt><trkpt lat="43.55111895235567" lon="3.2984139878401377"><ele>132.8</ele><time>2026-04-06T09:50:20.999Z</time></trkpt><trkpt lat="43.5510097391013" lon="3.2984941175992644"><ele>132.60000000000002</ele><time>2026-04-06T09:50:22.999Z</time></trkpt><trkpt lat="43.550898297222695" lon="3.2985727534527314"><ele>132.39999999999998</ele><time>2026-04-06T09:50:25Z</time></trkpt><trkpt lat="43.55083810646104" lon="3.2986028361575754"><ele>132.2</ele><time>2026-04-06T09:50:26Z</time></trkpt><trkpt lat="43.55077781923433" lon="3.2986295247393387"><ele>132.0</ele><time>2026-04-06T09:50:27Z</time></trkpt><trkpt lat="43.550659388998305" lon="3.2986764870136254"><ele>132.0</ele><time>2026-04-06T09:50:29Z</time></trkpt><trkpt lat="43.550534814004834" lon="3.2986907108889674"><ele>132.0</ele><time>2026-04-06T09:50:31Z</time></trkpt><trkpt lat="43.55041198210579" lon="3.298662136571086"><ele>132.0</ele><time>2026-04-06T09:50:33Z</time></trkpt><trkpt lat="43.55035537417888" lon="3.2986238810454704"><ele>132.0</ele><time>2026-04-06T09:50:34Z</time></trkpt><trkpt lat="43.55026821333255" lon="3.2984976026034087"><ele>132.0</ele><time>2026-04-06T09:50:36Z</time></trkpt><trkpt lat="43.55023178649725" lon="3.298426586153014"><ele>132.0</ele><time>2026-04-06T09:50:37Z</time></trkpt><trkpt lat="43.550197059025734" lon="3.29835270033593"><ele>132.0</ele><time>2026-04-06T09:50:38Z</time></trkpt><trkpt lat="43.550164474593224" lon="3.298265108454446"><ele>132.0</ele><time>2026-04-06T09:50:39Z</time></trkpt><trkpt lat="43.55013253201241" lon="3.298174331193554"><ele>132.0</ele><time>2026-04-06T09:50:40Z</time></trkpt><trkpt lat="43.55009576904363" lon="3.2980866840383105"><ele>132.0</ele><time>2026-04-06T09:50:41Z</time></trkpt><trkpt lat="43.55005801185701" lon="3.2979969971530396"><ele>132.0</ele><time>2026-04-06T09:50:42Z</time></trkpt><trkpt lat="43.55001924908712" lon="3.2979060050712175"><ele>132.0</ele><time>2026-04-06T09:50:43Z</time></trkpt><trkpt lat="43.549977937142906" lon="3.2978167423178024"><ele>132.0</ele><time>2026-04-06T09:50:44Z</time></trkpt><trkpt lat="43.54993598534596" lon="3.297724055423192"><ele>132.0</ele><time>2026-04-06T09:50:45Z</time></trkpt><trkpt lat="43.54988960383384" lon="3.2976337090879975"><ele>132.0</ele><time>2026-04-06T09:50:46Z</time></trkpt><trkpt lat="43.5498410366007" lon="3.2975487601462135"><ele>132.0</ele><time>2026-04-06T09:50:47Z</time></trkpt><trkpt lat="43.54980102432976" lon="3.2974514846598364"><ele>132.0</ele><time>2026-04-06T09:50:48Z</time></trkpt><trkpt lat="43.5497242610261" lon="3.297405262523265"><ele>132.0</ele><time>2026-04-06T09:50:49Z</time></trkpt><trkpt lat="43.54965817182457" lon="3.2973556386905125"><ele>132.0</ele><time>2026-04-06T09:50:50Z</time></trkpt><trkpt lat="43.54959171215671" lon="3.2973197264786895"><ele>132.0</ele><time>2026-04-06T09:50:51Z</time></trkpt><trkpt lat="43.54952774745271" lon="3.2972925498097108"><ele>132.0</ele><time>2026-04-06T09:50:52Z</time></trkpt><trkpt lat="43.549432203345646" lon="3.2972609028853372"><ele>132.0</ele><time>2026-04-06T09:50:54Z</time></trkpt><trkpt lat="43.549344356088" lon="3.2972456782013886"><ele>132.0</ele><time>2026-04-06T09:50:56Z</time></trkpt><trkpt lat="43.549261484201224" lon="3.297245817717359"><ele>132.0</ele><time>2026-04-06T09:50:58Z</time></trkpt><trkpt lat="43.549178505864994" lon="3.297253683560062"><ele>133.79999999999998</ele><time>2026-04-06T09:51:00Z</time></trkpt><trkpt lat="43.54909016416901" lon="3.2972716169120724"><ele>135.6</ele><time>2026-04-06T09:51:02Z</time></trkpt><trkpt lat="43.5489956948687" lon="3.297275379283443"><ele>137.39999999999998</ele><time>2026-04-06T09:51:04Z</time></trkpt><trkpt lat="43.54890309322441" lon="3.2972898207408554"><ele>139.2</ele><time>2026-04-06T09:51:06Z</time></trkpt><trkpt lat="43.54881327967632" lon="3.297299803669973"><ele>141.0</ele><time>2026-04-06T09:51:08Z</time></trkpt><trkpt lat="43.548716122338135" lon="3.297306103716002"><ele>140.0</ele><time>2026-04-06T09:51:10Z</time></trkpt><trkpt lat="43.54862373061421" lon="3.297321766216875"><ele>139.0</ele><time>2026-04-06T09:51:12Z</time></trkpt><trkpt lat="43.54852748667869" lon="3.297344061324988"><ele>138.0</ele><time>2026-04-06T09:51:14Z</time></trkpt><trkpt lat="43.54842139877031" lon="3.2973700016680105"><ele>137.0</ele><time>2026-04-06T09:51:16Z</time></trkpt><trkpt lat="43.54830713295938" lon="3.297419171041122"><ele>136.0</ele><time>2026-04-06T09:51:18Z</time></trkpt><trkpt lat="43.548196154537195" lon="3.297497966534349"><ele>135.99999999999997</ele><time>2026-04-06T09:51:20Z</time></trkpt><trkpt lat="43.54814021486527" lon="3.2975453466696045"><ele>136.0</ele><time>2026-04-06T09:51:21Z</time></trkpt><trkpt lat="43.54808243885364" lon="3.2975904135834795"><ele>136.0</ele><time>2026-04-06T09:51:22Z</time></trkpt><trkpt lat="43.54802593075094" lon="3.297643573809682"><ele>136.0</ele><time>2026-04-06T09:51:23Z</time></trkpt><trkpt lat="43.54796743093699" lon="3.297697839242669"><ele>136.0</ele><time>2026-04-06T09:51:24Z</time></trkpt><trkpt lat="43.54791383643817" lon="3.2977608432725813"><ele>135.99999999999997</ele><time>2026-04-06T09:51:25Z</time></trkpt><trkpt lat="43.54785910700443" lon="3.2978257142779936"><ele>136.0</ele><time>2026-04-06T09:51:26Z</time></trkpt><trkpt lat="43.54780725284627" lon="3.297894778869729"><ele>134.66666666666669</ele><time>2026-04-06T09:51:27Z</time></trkpt><trkpt lat="43.54775757682649" lon="3.297969994504916"><ele>133.33333333333334</ele><time>2026-04-06T09:51:28Z</time></trkpt><trkpt lat="43.547711056824355" lon="3.298048802906448"><ele>132.0</ele><time>2026-04-06T09:51:29Z</time></trkpt><trkpt lat="43.5476641356987" lon="3.298129441661022"><ele>130.66666666666666</ele><time>2026-04-06T09:51:30Z</time></trkpt><trkpt lat="43.54761398178997" lon="3.2982084670155456"><ele>129.33333333333331</ele><time>2026-04-06T09:51:31Z</time></trkpt><trkpt lat="43.54756320962547" lon="3.298286535415777"><ele>128.0</ele><time>2026-04-06T09:51:32Z</time></trkpt><trkpt lat="43.547514307803226" lon="3.298367380400215"><ele>127.99999999999999</ele><time>2026-04-06T09:51:33Z</time></trkpt><trkpt lat="43.54746599879604" lon="3.2984502029712823"><ele>128.0</ele><time>2026-04-06T09:51:34Z</time></trkpt><trkpt lat="43.54741727282418" lon="3.2985342991448747"><ele>128.0</ele><time>2026-04-06T09:51:34.999Z</time></trkpt><trkpt lat="43.54736808359135" lon="3.298617735485894"><ele>128.0</ele><time>2026-04-06T09:51:35.999Z</time></trkpt><trkpt lat="43.54731894151038" lon="3.2987028384056907"><ele>127.99999999999999</ele><time>2026-04-06T09:51:36.999Z</time></trkpt><trkpt lat="43.547272828528826" lon="3.298790275335145"><ele>128.0</ele><time>2026-04-06T09:51:37.999Z</time></trkpt><trkpt lat="43.54722908958146" lon="3.2988807057171976"><ele>129.0</ele><time>2026-04-06T09:51:38.999Z</time></trkpt><trkpt lat="43.54718833737509" lon="3.298977456746301"><ele>130.0</ele><time>2026-04-06T09:51:39.999Z</time></trkpt><trkpt lat="43.547151645082366" lon="3.2990777808682594"><ele>131.0</ele><time>2026-04-06T09:51:40.999Z</time></trkpt><trkpt lat="43.547115050513966" lon="3.2991768861822215"><ele>132.0</ele><time>2026-04-06T09:51:41.999Z</time></trkpt><trkpt lat="43.547074275944574" lon="3.2992809551863687"><ele>133.0</ele><time>2026-04-06T09:51:42.999Z</time></trkpt><trkpt lat="43.54703545094706" lon="3.2993781556445723"><ele>134.0</ele><time>2026-04-06T09:51:43.999Z</time></trkpt><trkpt lat="43.546996139945605" lon="3.2994777079693227"><ele>131.83333333333331</ele><time>2026-04-06T09:51:44.999Z</time></trkpt><trkpt lat="43.54695830737929" lon="3.299576263394855"><ele>129.66666666666666</ele><time>2026-04-06T09:51:45.999Z</time></trkpt><trkpt lat="43.5469206640208" lon="3.29967855196994"><ele>127.5</ele><time>2026-04-06T09:51:46.999Z</time></trkpt><trkpt lat="43.54688300351666" lon="3.2997805683901027"><ele>125.33333333333334</ele><time>2026-04-06T09:51:47.999Z</time></trkpt><trkpt lat="43.546845638815505" lon="3.299881900458419"><ele>123.16666666666667</ele><time>2026-04-06T09:51:48.999Z</time></trkpt><trkpt lat="43.546809046204594" lon="3.299982627724249"><ele>121.0</ele><time>2026-04-06T09:51:49.999Z</time></trkpt><trkpt lat="43.546770222442504" lon="3.3000795490067745"><ele>121.0</ele><time>2026-04-06T09:51:50.999Z</time></trkpt><trkpt lat="43.546730358935775" lon="3.300173589955269"><ele>120.99999999999999</ele><time>2026-04-06T09:51:51.999Z</time></trkpt><trkpt lat="43.546692089485106" lon="3.3002660814585205"><ele>121.0</ele><time>2026-04-06T09:51:52.999Z</time></trkpt><trkpt lat="43.5466544988262" lon="3.30035693162674"><ele>121.0</ele><time>2026-04-06T09:51:53.999Z</time></trkpt><trkpt lat="43.546614979220315" lon="3.3004442115901127"><ele>120.99999999999999</ele><time>2026-04-06T09:51:54.999Z</time></trkpt><trkpt lat="43.54657330573135" lon="3.300526258633568"><ele>121.0</ele><time>2026-04-06T09:51:55.999Z</time></trkpt><trkpt lat="43.54652971922681" lon="3.3006023850857567"><ele>121.0</ele><time>2026-04-06T09:51:56.999Z</time></trkpt><trkpt lat="43.54648479562335" lon="3.3006756921293965"><ele>121.00000000000001</ele><time>2026-04-06T09:51:57.999Z</time></trkpt><trkpt lat="43.54644160483651" lon="3.3007458306002175"><ele>121.0</ele><time>2026-04-06T09:51:58.999Z</time></trkpt><trkpt lat="43.546398127466524" lon="3.3008114621477556"><ele>121.0</ele><time>2026-04-06T09:51:59.999Z</time></trkpt><trkpt lat="43.54635543756864" lon="3.3008756539128985"><ele>121.0</ele><time>2026-04-06T09:52:00.999Z</time></trkpt><trkpt lat="43.546269725630026" lon="3.3010022827751246"><ele>121.00000000000001</ele><time>2026-04-06T09:52:02.999Z</time></trkpt><trkpt lat="43.5461857671219" lon="3.30112656693906"><ele>121.0</ele><time>2026-04-06T09:52:04.999Z</time></trkpt><trkpt lat="43.54610312832256" lon="3.3012524739792637"><ele>121.0</ele><time>2026-04-06T09:52:06.999Z</time></trkpt><trkpt lat="43.54602657812254" lon="3.301378189270092"><ele>121.0</ele><time>2026-04-06T09:52:08.999Z</time></trkpt><trkpt lat="43.545946285312006" lon="3.301498614957666"><ele>121.0</ele><time>2026-04-06T09:52:10.999Z</time></trkpt><trkpt lat="43.545864273318514" lon="3.3016193553624915"><ele>121.0</ele><time>2026-04-06T09:52:12.999Z</time></trkpt><trkpt lat="43.54578102143483" lon="3.301739850377912"><ele>121.25</ele><time>2026-04-06T09:52:14.999Z</time></trkpt><trkpt lat="43.54569999363143" lon="3.3018639972604045"><ele>121.5</ele><time>2026-04-06T09:52:16.999Z</time></trkpt><trkpt lat="43.5456191494384" lon="3.301989398100735"><ele>121.75</ele><time>2026-04-06T09:52:18.999Z</time></trkpt><trkpt lat="43.54553714684174" lon="3.3021162547922214"><ele>122.0</ele><time>2026-04-06T09:52:20.999Z</time></trkpt><trkpt lat="43.545457387316794" lon="3.3022452219623144"><ele>121.5</ele><time>2026-04-06T09:52:22.999Z</time></trkpt><trkpt lat="43.54537613672798" lon="3.3023722416317827"><ele>121.0</ele><time>2026-04-06T09:52:24.999Z</time></trkpt><trkpt lat="43.545294830239875" lon="3.302499870612138"><ele>120.5</ele><time>2026-04-06T09:52:26.999Z</time></trkpt><trkpt lat="43.545210244802014" lon="3.3026188751902024"><ele>120.0</ele><time>2026-04-06T09:52:28.999Z</time></trkpt><trkpt lat="43.545115663959066" lon="3.3027260424434624"><ele>120.0</ele><time>2026-04-06T09:52:30.999Z</time></trkpt><trkpt lat="43.54501647890908" lon="3.3028293929770536"><ele>120.0</ele><time>2026-04-06T09:52:32.999Z</time></trkpt><trkpt lat="43.544913041211004" lon="3.3029258994758774"><ele>120.0</ele><time>2026-04-06T09:52:34.999Z</time></trkpt><trkpt lat="43.544809884387696" lon="3.303022863876042"><ele>120.0</ele><time>2026-04-06T09:52:36.999Z</time></trkpt><trkpt lat="43.5447058408432" lon="3.303117053362909"><ele>120.0</ele><time>2026-04-06T09:52:38.999Z</time></trkpt><trkpt lat="43.54460624731713" lon="3.3032132384724378"><ele>120.0</ele><time>2026-04-06T09:52:40.999Z</time></trkpt><trkpt lat="43.544506551409626" lon="3.3033084734596954"><ele>120.0</ele><time>2026-04-06T09:52:42.999Z</time></trkpt><trkpt lat="43.54440592002003" lon="3.30339669040575"><ele>120.0</ele><time>2026-04-06T09:52:45Z</time></trkpt><trkpt lat="43.54430706417326" lon="3.3034854212598375"><ele>119.75</ele><time>2026-04-06T09:52:47Z</time></trkpt><trkpt lat="43.544211290882096" lon="3.303574354973759"><ele>119.5</ele><time>2026-04-06T09:52:49Z</time></trkpt><trkpt lat="43.544115991293054" lon="3.3036648652964122"><ele>119.25</ele><time>2026-04-06T09:52:51Z</time></trkpt><trkpt lat="43.544023051903544" lon="3.303760142005514"><ele>119.0</ele><time>2026-04-06T09:52:53Z</time></trkpt><trkpt lat="43.54392545171132" lon="3.3038499710998903"><ele>119.0</ele><time>2026-04-06T09:52:55Z</time></trkpt><trkpt lat="43.54382611369468" lon="3.303943939663854"><ele>119.0</ele><time>2026-04-06T09:52:57Z</time></trkpt><trkpt lat="43.543725213099506" lon="3.3040383035699095"><ele>119.0</ele><time>2026-04-06T09:52:59Z</time></trkpt><trkpt lat="43.54362674989281" lon="3.3041342574184105"><ele>119.0</ele><time>2026-04-06T09:53:01Z</time></trkpt><trkpt lat="43.543527010709106" lon="3.304228441144909"><ele>118.75</ele><time>2026-04-06T09:53:03Z</time></trkpt><trkpt lat="43.543424527912315" lon="3.3043179353493213"><ele>118.5</ele><time>2026-04-06T09:53:05Z</time></trkpt><trkpt lat="43.54332684848" lon="3.3044141984789075"><ele>118.25</ele><time>2026-04-06T09:53:07Z</time></trkpt><trkpt lat="43.54322257025054" lon="3.3044976881037678"><ele>118.0</ele><time>2026-04-06T09:53:09Z</time></trkpt><trkpt lat="43.54312050429458" lon="3.3045845703234047"><ele>118.0</ele><time>2026-04-06T09:53:11Z</time></trkpt><trkpt lat="43.54301579352358" lon="3.304667742866775"><ele>118.0</ele><time>2026-04-06T09:53:13Z</time></trkpt><trkpt lat="43.54290955100526" lon="3.304747833580649"><ele>118.0</ele><time>2026-04-06T09:53:15Z</time></trkpt><trkpt lat="43.54280215485657" lon="3.304822734025141"><ele>118.0</ele><time>2026-04-06T09:53:17Z</time></trkpt><trkpt lat="43.54269457104009" lon="3.3049027915748423"><ele>117.83333333333334</ele><time>2026-04-06T09:53:19Z</time></trkpt><trkpt lat="43.542584961856655" lon="3.304982113980141"><ele>117.66666666666667</ele><time>2026-04-06T09:53:21Z</time></trkpt><trkpt lat="43.542530270824365" lon="3.305025321708147"><ele>117.5</ele><time>2026-04-06T09:53:22Z</time></trkpt><trkpt lat="43.54242142032683" lon="3.305111915948034"><ele>117.33333333333334</ele><time>2026-04-06T09:53:24Z</time></trkpt><trkpt lat="43.542364324175736" lon="3.305152083837549"><ele>117.16666666666667</ele><time>2026-04-06T09:53:25Z</time></trkpt><trkpt lat="43.54230707144221" lon="3.30519376804714"><ele>117.0</ele><time>2026-04-06T09:53:26Z</time></trkpt><trkpt lat="43.54225083712319" lon="3.3052360139736545"><ele>117.0</ele><time>2026-04-06T09:53:27Z</time></trkpt><trkpt lat="43.542141565548036" lon="3.3053234601002166"><ele>117.0</ele><time>2026-04-06T09:53:29Z</time></trkpt><trkpt lat="43.54203138750046" lon="3.3053991967607836"><ele>117.0</ele><time>2026-04-06T09:53:31Z</time></trkpt><trkpt lat="43.541924463502056" lon="3.3054730040650764"><ele>117.0</ele><time>2026-04-06T09:53:33Z</time></trkpt><trkpt lat="43.541827241101295" lon="3.305560638812282"><ele>116.75</ele><time>2026-04-06T09:53:35Z</time></trkpt><trkpt lat="43.54172763568925" lon="3.305630984784742"><ele>116.5</ele><time>2026-04-06T09:53:37Z</time></trkpt><trkpt lat="43.54162159130047" lon="3.305698094547318"><ele>116.25</ele><time>2026-04-06T09:53:39Z</time></trkpt><trkpt lat="43.54151755487647" lon="3.3057749554116453"><ele>116.0</ele><time>2026-04-06T09:53:40.999Z</time></trkpt><trkpt lat="43.541413077710665" lon="3.305855245782796"><ele>116.0</ele><time>2026-04-06T09:53:42.999Z</time></trkpt><trkpt lat="43.54130520010604" lon="3.3059301415378544"><ele>116.0</ele><time>2026-04-06T09:53:44.999Z</time></trkpt><trkpt lat="43.54120639433484" lon="3.306024045013273"><ele>116.0</ele><time>2026-04-06T09:53:46.999Z</time></trkpt><trkpt lat="43.5411243240852" lon="3.3061347103929535"><ele>116.0</ele><time>2026-04-06T09:53:48.999Z</time></trkpt><trkpt lat="43.54104922879083" lon="3.3062440954779717"><ele>116.0</ele><time>2026-04-06T09:53:50.999Z</time></trkpt><trkpt lat="43.54097552186362" lon="3.3063575298759136"><ele>116.0</ele><time>2026-04-06T09:53:52.999Z</time></trkpt><trkpt lat="43.54090210078868" lon="3.306482003277179"><ele>116.0</ele><time>2026-04-06T09:53:54.999Z</time></trkpt><trkpt lat="43.540831134228696" lon="3.306611406024305"><ele>116.0</ele><time>2026-04-06T09:53:56.999Z</time></trkpt><trkpt lat="43.54075673273411" lon="3.306734910185901"><ele>115.8</ele><time>2026-04-06T09:53:58.999Z</time></trkpt><trkpt lat="43.54068136898908" lon="3.3068525359474976"><ele>115.6</ele><time>2026-04-06T09:54:00.999Z</time></trkpt><trkpt lat="43.54061012174596" lon="3.306971620478614"><ele>115.4</ele><time>2026-04-06T09:54:02.999Z</time></trkpt><trkpt lat="43.540540702988494" lon="3.3070880034441856"><ele>115.2</ele><time>2026-04-06T09:54:04.999Z</time></trkpt><trkpt lat="43.54047263444984" lon="3.3072031121000567"><ele>115.0</ele><time>2026-04-06T09:54:06.999Z</time></trkpt><trkpt lat="43.54040259388789" lon="3.3073234393845192"><ele>115.25</ele><time>2026-04-06T09:54:09Z</time></trkpt><trkpt lat="43.540327159193794" lon="3.307447035501525"><ele>115.5</ele><time>2026-04-06T09:54:11Z</time></trkpt><trkpt lat="43.540250340734175" lon="3.3075737796486027"><ele>115.75</ele><time>2026-04-06T09:54:13Z</time></trkpt><trkpt lat="43.54017311912098" lon="3.3077053209112"><ele>116.0</ele><time>2026-04-06T09:54:15Z</time></trkpt><trkpt lat="43.540094513275214" lon="3.307835587834497"><ele>116.0</ele><time>2026-04-06T09:54:17Z</time></trkpt><trkpt lat="43.54002009182836" lon="3.3079713849730257"><ele>116.0</ele><time>2026-04-06T09:54:19Z</time></trkpt><trkpt lat="43.53994658770339" lon="3.3081016275361077"><ele>116.0</ele><time>2026-04-06T09:54:21Z</time></trkpt><trkpt lat="43.53987199811182" lon="3.308224404199646"><ele>116.0</ele><time>2026-04-06T09:54:23Z</time></trkpt><trkpt lat="43.53979899877399" lon="3.308347172471687"><ele>116.0</ele><time>2026-04-06T09:54:25Z</time></trkpt><trkpt lat="43.539727345300335" lon="3.3084742171440915"><ele>116.0</ele><time>2026-04-06T09:54:27Z</time></trkpt><trkpt lat="43.53964991867881" lon="3.3086048041482576"><ele>116.0</ele><time>2026-04-06T09:54:29Z</time></trkpt><trkpt lat="43.5395722646482" lon="3.3087382908998055"><ele>116.0</ele><time>2026-04-06T09:54:31Z</time></trkpt><trkpt lat="43.539500229089505" lon="3.3088774453009213"><ele>115.49999999999999</ele><time>2026-04-06T09:54:33Z</time></trkpt><trkpt lat="43.53943996827651" lon="3.309030369871497"><ele>115.0</ele><time>2026-04-06T09:54:35Z</time></trkpt><trkpt lat="43.539416326793095" lon="3.309112115180578"><ele>114.5</ele><time>2026-04-06T09:54:36Z</time></trkpt><trkpt lat="43.53939307960952" lon="3.3091992263091297"><ele>114.0</ele><time>2026-04-06T09:54:37Z</time></trkpt><trkpt lat="43.53937128648088" lon="3.309285455792781"><ele>113.49999999999999</ele><time>2026-04-06T09:54:38Z</time></trkpt><trkpt lat="43.53934910929426" lon="3.3093739248561764"><ele>113.0</ele><time>2026-04-06T09:54:39Z</time></trkpt><trkpt lat="43.53932579239546" lon="3.3094620587297654"><ele>113.0</ele><time>2026-04-06T09:54:40Z</time></trkpt><trkpt lat="43.53930290201913" lon="3.3095501343958262"><ele>113.0</ele><time>2026-04-06T09:54:41Z</time></trkpt><trkpt lat="43.5392805032392" lon="3.309637633326734"><ele>113.0</ele><time>2026-04-06T09:54:42Z</time></trkpt><trkpt lat="43.539260103206985" lon="3.309724643153102"><ele>113.0</ele><time>2026-04-06T09:54:43Z</time></trkpt><trkpt lat="43.53924344038177" lon="3.3098136015399264"><ele>113.0</ele><time>2026-04-06T09:54:44Z</time></trkpt><trkpt lat="43.53922320787636" lon="3.3098997339524416"><ele>113.0</ele><time>2026-04-06T09:54:45Z</time></trkpt><trkpt lat="43.53920313774911" lon="3.3099838832695037"><ele>113.0</ele><time>2026-04-06T09:54:46Z</time></trkpt><trkpt lat="43.53918426288056" lon="3.3100691812541885"><ele>112.80000000000001</ele><time>2026-04-06T09:54:47Z</time></trkpt><trkpt lat="43.53916428715804" lon="3.310152654048688"><ele>112.60000000000001</ele><time>2026-04-06T09:54:48Z</time></trkpt><trkpt lat="43.53913813715036" lon="3.3102326822536257"><ele>112.39999999999999</ele><time>2026-04-06T09:54:49Z</time></trkpt><trkpt lat="43.53903950614307" lon="3.3103289206954547"><ele>112.19999999999999</ele><time>2026-04-06T09:54:51Z</time></trkpt><trkpt lat="43.538921443933184" lon="3.310332828555776"><ele>112.0</ele><time>2026-04-06T09:54:53Z</time></trkpt><trkpt lat="43.53881532670066" lon="3.310340298393446"><ele>113.0</ele><time>2026-04-06T09:54:55Z</time></trkpt><trkpt lat="43.53871043458678" lon="3.310345840344754"><ele>113.99999999999999</ele><time>2026-04-06T09:54:57Z</time></trkpt><trkpt lat="43.53860338339384" lon="3.3103510462759926"><ele>114.99999999999999</ele><time>2026-04-06T09:54:59Z</time></trkpt><trkpt lat="43.53850067470928" lon="3.310355198344831"><ele>116.0</ele><time>2026-04-06T09:55:01Z</time></trkpt><trkpt lat="43.5384025620629" lon="3.31036904869397"><ele>117.0</ele><time>2026-04-06T09:55:03Z</time></trkpt><trkpt lat="43.538299313032994" lon="3.3103722263929503"><ele>117.0</ele><time>2026-04-06T09:55:05Z</time></trkpt><trkpt lat="43.53819274141114" lon="3.3103763549549794"><ele>117.0</ele><time>2026-04-06T09:55:07Z</time></trkpt><trkpt lat="43.538082053901945" lon="3.310352805930944"><ele>117.0</ele><time>2026-04-06T09:55:09Z</time></trkpt><trkpt lat="43.53797359395481" lon="3.3103028694687824"><ele>117.0</ele><time>2026-04-06T09:55:11Z</time></trkpt><trkpt lat="43.53786808585388" lon="3.3102344685584044"><ele>115.75</ele><time>2026-04-06T09:55:13Z</time></trkpt><trkpt lat="43.537761024679114" lon="3.3101666359057127"><ele>114.5</ele><time>2026-04-06T09:55:15Z</time></trkpt><trkpt lat="43.537653595265816" lon="3.31009465350511"><ele>113.25</ele><time>2026-04-06T09:55:17Z</time></trkpt><trkpt lat="43.537543280741524" lon="3.3100232569579413"><ele>112.0</ele><time>2026-04-06T09:55:19Z</time></trkpt><trkpt lat="43.53743082901879" lon="3.3099482398214475"><ele>112.00000000000001</ele><time>2026-04-06T09:55:21Z</time></trkpt><trkpt lat="43.53737109950589" lon="3.309910603017424"><ele>112.0</ele><time>2026-04-06T09:55:22Z</time></trkpt><trkpt lat="43.53731089322128" lon="3.309875141296352"><ele>112.0</ele><time>2026-04-06T09:55:23Z</time></trkpt><trkpt lat="43.5372498601509" lon="3.309837678008444"><ele>112.0</ele><time>2026-04-06T09:55:24Z</time></trkpt><trkpt lat="43.53719034733087" lon="3.309800668359117"><ele>112.00000000000001</ele><time>2026-04-06T09:55:25Z</time></trkpt><trkpt lat="43.53712934246343" lon="3.3097645645557283"><ele>112.0</ele><time>2026-04-06T09:55:26Z</time></trkpt><trkpt lat="43.537015217183644" lon="3.3096993622620223"><ele>116.0</ele><time>2026-04-06T09:55:28Z</time></trkpt><trkpt lat="43.5368949730541" lon="3.3096599224826417"><ele>120.0</ele><time>2026-04-06T09:55:30Z</time></trkpt><trkpt lat="43.53678237585794" lon="3.3096210682587834"><ele>124.0</ele><time>2026-04-06T09:55:32Z</time></trkpt><trkpt lat="43.536672951822474" lon="3.309583671175377"><ele>128.0</ele><time>2026-04-06T09:55:34Z</time></trkpt><trkpt lat="43.53656244651647" lon="3.3095493502457156"><ele>128.0</ele><time>2026-04-06T09:55:36Z</time></trkpt><trkpt lat="43.536455713781855" lon="3.3095093608709925"><ele>128.0</ele><time>2026-04-06T09:55:38Z</time></trkpt><trkpt lat="43.53634286588992" lon="3.3094754799298256"><ele>128.0</ele><time>2026-04-06T09:55:40Z</time></trkpt><trkpt lat="43.5362290998891" lon="3.3094412810466807"><ele>128.0</ele><time>2026-04-06T09:55:42Z</time></trkpt><trkpt lat="43.53610964561338" lon="3.30941429056373"><ele>126.5</ele><time>2026-04-06T09:55:44Z</time></trkpt><trkpt lat="43.53599099906834" lon="3.309389669621358"><ele>125.0</ele><time>2026-04-06T09:55:46Z</time></trkpt><trkpt lat="43.53587265603101" lon="3.309365072225084"><ele>123.5</ele><time>2026-04-06T09:55:48Z</time></trkpt><trkpt lat="43.53575554109942" lon="3.3093360841466994"><ele>122.0</ele><time>2026-04-06T09:55:50Z</time></trkpt><trkpt lat="43.53564608426793" lon="3.309278134724273"><ele>122.0</ele><time>2026-04-06T09:55:52Z</time></trkpt><trkpt lat="43.5355409578367" lon="3.30920430617656"><ele>121.99999999999999</ele><time>2026-04-06T09:55:54Z</time></trkpt><trkpt lat="43.53543463650507" lon="3.3091215119304676"><ele>121.99999999999999</ele><time>2026-04-06T09:55:56Z</time></trkpt><trkpt lat="43.53532579197434" lon="3.3090336208962046"><ele>122.0</ele><time>2026-04-06T09:55:58Z</time></trkpt><trkpt lat="43.53527058249771" lon="3.3089895528598063"><ele>122.0</ele><time>2026-04-06T09:55:59Z</time></trkpt><trkpt lat="43.5352160981392" lon="3.308944427779449"><ele>121.57142857142856</ele><time>2026-04-06T09:56:00Z</time></trkpt><trkpt lat="43.535161992977976" lon="3.308898826556613"><ele>121.14285714285714</ele><time>2026-04-06T09:56:01Z</time></trkpt><trkpt lat="43.535106726589056" lon="3.308854341627436"><ele>120.71428571428571</ele><time>2026-04-06T09:56:02Z</time></trkpt><trkpt lat="43.5350510249142" lon="3.3088098867259372"><ele>120.28571428571428</ele><time>2026-04-06T09:56:03Z</time></trkpt><trkpt lat="43.534993704014305" lon="3.3087645131626404"><ele>119.85714285714286</ele><time>2026-04-06T09:56:04Z</time></trkpt><trkpt lat="43.534937196767025" lon="3.3087174867520597"><ele>119.42857142857143</ele><time>2026-04-06T09:56:05Z</time></trkpt><trkpt lat="43.53488140755244" lon="3.30866837606543"><ele>119.0</ele><time>2026-04-06T09:56:06Z</time></trkpt><trkpt lat="43.5348266208202" lon="3.3086232931305535"><ele>119.0</ele><time>2026-04-06T09:56:07Z</time></trkpt><trkpt lat="43.53477123580814" lon="3.3085782120094147"><ele>119.0</ele><time>2026-04-06T09:56:08Z</time></trkpt><trkpt lat="43.53471515507575" lon="3.308535919035442"><ele>119.0</ele><time>2026-04-06T09:56:09Z</time></trkpt><trkpt lat="43.53465744335833" lon="3.308494713628567"><ele>119.0</ele><time>2026-04-06T09:56:10Z</time></trkpt><trkpt lat="43.53460139704302" lon="3.308451534086418"><ele>119.0</ele><time>2026-04-06T09:56:11Z</time></trkpt><trkpt lat="43.534547610582855" lon="3.3084040889700965"><ele>119.0</ele><time>2026-04-06T09:56:12Z</time></trkpt><trkpt lat="43.534494550702746" lon="3.3083548676073224"><ele>119.0</ele><time>2026-04-06T09:56:13Z</time></trkpt><trkpt lat="43.53443988037944" lon="3.3083071814329643"><ele>117.57142857142857</ele><time>2026-04-06T09:56:14Z</time></trkpt><trkpt lat="43.534386667820364" lon="3.308257661594636"><ele>116.14285714285714</ele><time>2026-04-06T09:56:15Z</time></trkpt><trkpt lat="43.53433475394894" lon="3.308203270476359"><ele>114.71428571428572</ele><time>2026-04-06T09:56:16Z</time></trkpt><trkpt lat="43.534281046554696" lon="3.308153332628526"><ele>113.28571428571428</ele><time>2026-04-06T09:56:17Z</time></trkpt><trkpt lat="43.53422848284083" lon="3.308104040313108"><ele>111.85714285714286</ele><time>2026-04-06T09:56:18Z</time></trkpt><trkpt lat="43.534177335313274" lon="3.3080508690323382"><ele>110.42857142857143</ele><time>2026-04-06T09:56:19Z</time></trkpt><trkpt lat="43.53412827701638" lon="3.307996439243603"><ele>109.0</ele><time>2026-04-06T09:56:20Z</time></trkpt><trkpt lat="43.53403480238612" lon="3.3078860370721213"><ele>109.00000000000001</ele><time>2026-04-06T09:56:22Z</time></trkpt><trkpt lat="43.533948453165515" lon="3.307768144587956"><ele>109.0</ele><time>2026-04-06T09:56:24Z</time></trkpt><trkpt lat="43.53386055620318" lon="3.3076446692233854"><ele>109.0</ele><time>2026-04-06T09:56:26Z</time></trkpt><trkpt lat="43.53381568992531" lon="3.3075802088643127"><ele>109.0</ele><time>2026-04-06T09:56:27Z</time></trkpt><trkpt lat="43.53377008371675" lon="3.307514627768138"><ele>109.00000000000001</ele><time>2026-04-06T09:56:28Z</time></trkpt><trkpt lat="43.53372512354477" lon="3.307452930268516"><ele>109.0</ele><time>2026-04-06T09:56:29Z</time></trkpt><trkpt lat="43.53367946558819" lon="3.3073892365203634"><ele>108.75</ele><time>2026-04-06T09:56:30Z</time></trkpt><trkpt lat="43.53363547889081" lon="3.3073219842472694"><ele>108.5</ele><time>2026-04-06T09:56:31Z</time></trkpt><trkpt lat="43.533587821753756" lon="3.307260105216994"><ele>108.25</ele><time>2026-04-06T09:56:32Z</time></trkpt><trkpt lat="43.53354495850058" lon="3.3071951191744695"><ele>108.0</ele><time>2026-04-06T09:56:33Z</time></trkpt><trkpt lat="43.533503838093324" lon="3.307128269699597"><ele>107.75</ele><time>2026-04-06T09:56:34Z</time></trkpt><trkpt lat="43.53346324842256" lon="3.3070606528377797"><ele>107.5</ele><time>2026-04-06T09:56:35Z</time></trkpt><trkpt lat="43.53342316003288" lon="3.3069922249778414"><ele>107.25</ele><time>2026-04-06T09:56:36Z</time></trkpt><trkpt lat="43.533384518315145" lon="3.3069235651317217"><ele>107.0</ele><time>2026-04-06T09:56:37Z</time></trkpt><trkpt lat="43.533351595382804" lon="3.3068483971263083"><ele>106.6</ele><time>2026-04-06T09:56:38Z</time></trkpt><trkpt lat="43.53332517596217" lon="3.3067689137907155"><ele>106.19999999999999</ele><time>2026-04-06T09:56:39Z</time></trkpt><trkpt lat="43.533286097089814" lon="3.3066075050231247"><ele>105.8</ele><time>2026-04-06T09:56:41Z</time></trkpt><trkpt lat="43.533265077022804" lon="3.3064450542632398"><ele>105.4</ele><time>2026-04-06T09:56:43Z</time></trkpt><trkpt lat="43.53325445268599" lon="3.306281564515954"><ele>105.0</ele><time>2026-04-06T09:56:45Z</time></trkpt><trkpt lat="43.53323980322046" lon="3.3061148820329156"><ele>104.83333333333333</ele><time>2026-04-06T09:56:47Z</time></trkpt><trkpt lat="43.533223840840655" lon="3.3059452167665926"><ele>104.66666666666666</ele><time>2026-04-06T09:56:49Z</time></trkpt><trkpt lat="43.53321018442909" lon="3.3057728977377026"><ele>104.5</ele><time>2026-04-06T09:56:51Z</time></trkpt><trkpt lat="43.53320494942874" lon="3.30568563484954"><ele>104.33333333333333</ele><time>2026-04-06T09:56:52Z</time></trkpt><trkpt lat="43.53319928502765" lon="3.3055969904245504"><ele>104.16666666666666</ele><time>2026-04-06T09:56:53Z</time></trkpt><trkpt lat="43.533190239035044" lon="3.3055088131011114"><ele>104.0</ele><time>2026-04-06T09:56:54Z</time></trkpt><trkpt lat="43.53318170159248" lon="3.3054195883369357"><ele>103.57142857142857</ele><time>2026-04-06T09:56:55Z</time></trkpt><trkpt lat="43.53317417168502" lon="3.305329862695506"><ele>103.14285714285715</ele><time>2026-04-06T09:56:56Z</time></trkpt><trkpt lat="43.53316297425856" lon="3.305239399646507"><ele>102.71428571428572</ele><time>2026-04-06T09:56:57Z</time></trkpt><trkpt lat="43.53315749882979" lon="3.3051451564791745"><ele>102.28571428571428</ele><time>2026-04-06T09:56:58Z</time></trkpt><trkpt lat="43.533153216341326" lon="3.3050545051627993"><ele>101.85714285714286</ele><time>2026-04-06T09:56:59Z</time></trkpt><trkpt lat="43.53314789494992" lon="3.3049627138363755"><ele>101.42857142857143</ele><time>2026-04-06T09:57:00Z</time></trkpt><trkpt lat="43.533138614942956" lon="3.3048704637455266"><ele>101.0</ele><time>2026-04-06T09:57:01Z</time></trkpt><trkpt lat="43.5331266873921" lon="3.304778823595217"><ele>101.0</ele><time>2026-04-06T09:57:02Z</time></trkpt><trkpt lat="43.533117609512175" lon="3.3046868174664166"><ele>101.0</ele><time>2026-04-06T09:57:03Z</time></trkpt><trkpt lat="43.53311677813722" lon="3.3045928594757568"><ele>101.0</ele><time>2026-04-06T09:57:04Z</time></trkpt><trkpt lat="43.53311114062373" lon="3.3044996949831305"><ele>101.0</ele><time>2026-04-06T09:57:05Z</time></trkpt><trkpt lat="43.53310687140177" lon="3.304407115900904"><ele>101.0</ele><time>2026-04-06T09:57:06Z</time></trkpt><trkpt lat="43.53310144984036" lon="3.3043161207501233"><ele>101.0</ele><time>2026-04-06T09:57:07Z</time></trkpt><trkpt lat="43.5330925899524" lon="3.3042244286409796"><ele>101.0</ele><time>2026-04-06T09:57:08Z</time></trkpt><trkpt lat="43.5330828341834" lon="3.30413132638135"><ele>101.0</ele><time>2026-04-06T09:57:09Z</time></trkpt><trkpt lat="43.53307506986908" lon="3.3040387269870504"><ele>101.0</ele><time>2026-04-06T09:57:10Z</time></trkpt><trkpt lat="43.5330692633595" lon="3.303945439573195"><ele>101.0</ele><time>2026-04-06T09:57:11Z</time></trkpt><trkpt lat="43.533063661466464" lon="3.3038506016284876"><ele>101.0</ele><time>2026-04-06T09:57:12Z</time></trkpt><trkpt lat="43.5330574894234" lon="3.303757997117084"><ele>101.0</ele><time>2026-04-06T09:57:13Z</time></trkpt><trkpt lat="43.53305070531545" lon="3.3036651547550195"><ele>101.0</ele><time>2026-04-06T09:57:14Z</time></trkpt><trkpt lat="43.533046932660646" lon="3.303572741620647"><ele>101.0</ele><time>2026-04-06T09:57:15Z</time></trkpt><trkpt lat="43.53304136009123" lon="3.3034818509114996"><ele>101.28571428571428</ele><time>2026-04-06T09:57:16Z</time></trkpt><trkpt lat="43.533033223976126" lon="3.3033913153257184"><ele>101.57142857142857</ele><time>2026-04-06T09:57:17Z</time></trkpt><trkpt lat="43.53302459785128" lon="3.303301128549226"><ele>101.85714285714286</ele><time>2026-04-06T09:57:18Z</time></trkpt><trkpt lat="43.533015262052565" lon="3.3032106144097866"><ele>102.14285714285714</ele><time>2026-04-06T09:57:19Z</time></trkpt><trkpt lat="43.53300771720054" lon="3.303117510740181"><ele>102.42857142857143</ele><time>2026-04-06T09:57:20Z</time></trkpt><trkpt lat="43.53300154893214" lon="3.3030245340319224"><ele>102.71428571428571</ele><time>2026-04-06T09:57:21Z</time></trkpt><trkpt lat="43.53299812680953" lon="3.3029304565309943"><ele>103.0</ele><time>2026-04-06T09:57:22Z</time></trkpt><trkpt lat="43.53299501686781" lon="3.302839087013326"><ele>103.2</ele><time>2026-04-06T09:57:23Z</time></trkpt><trkpt lat="43.532989599682615" lon="3.302746659433224"><ele>103.4</ele><time>2026-04-06T09:57:24Z</time></trkpt><trkpt lat="43.53298437881989" lon="3.3026576949520323"><ele>103.60000000000001</ele><time>2026-04-06T09:57:25Z</time></trkpt><trkpt lat="43.53296973901468" lon="3.3024908712804724"><ele>103.80000000000001</ele><time>2026-04-06T09:57:27Z</time></trkpt><trkpt lat="43.53291705896781" lon="3.3023568748856413"><ele>104.0</ele><time>2026-04-06T09:57:29Z</time></trkpt><trkpt lat="43.53283512235076" lon="3.302262930828764"><ele>104.0</ele><time>2026-04-06T09:57:31Z</time></trkpt><trkpt lat="43.53273174494711" lon="3.302205615755186"><ele>104.0</ele><time>2026-04-06T09:57:33Z</time></trkpt><trkpt lat="43.532616455190585" lon="3.3021877409921374"><ele>104.0</ele><time>2026-04-06T09:57:35Z</time></trkpt><trkpt lat="43.53249760256307" lon="3.3022146256764335"><ele>104.0</ele><time>2026-04-06T09:57:37Z</time></trkpt><trkpt lat="43.53237968372899" lon="3.3022686926984686"><ele>104.0</ele><time>2026-04-06T09:57:39Z</time></trkpt><trkpt lat="43.53226125277611" lon="3.302310339622157"><ele>104.0</ele><time>2026-04-06T09:57:41Z</time></trkpt><trkpt lat="43.53214539999293" lon="3.3023503614302285"><ele>104.0</ele><time>2026-04-06T09:57:43Z</time></trkpt><trkpt lat="43.532032122388806" lon="3.302396024946348"><ele>104.0</ele><time>2026-04-06T09:57:45Z</time></trkpt><trkpt lat="43.53190934169505" lon="3.3024363200472"><ele>103.85714285714285</ele><time>2026-04-06T09:57:47Z</time></trkpt><trkpt lat="43.53184408952862" lon="3.30246177160844"><ele>103.71428571428572</ele><time>2026-04-06T09:57:48Z</time></trkpt><trkpt lat="43.531775961896955" lon="3.302488634667659"><ele>103.57142857142857</ele><time>2026-04-06T09:57:49Z</time></trkpt><trkpt lat="43.531705293513404" lon="3.3025151968636908"><ele>103.42857142857142</ele><time>2026-04-06T09:57:50Z</time></trkpt><trkpt lat="43.531632593096674" lon="3.3025376446731083"><ele>103.28571428571428</ele><time>2026-04-06T09:57:51Z</time></trkpt><trkpt lat="43.53155791439539" lon="3.3025503307060484"><ele>103.14285714285714</ele><time>2026-04-06T09:57:52Z</time></trkpt><trkpt lat="43.53148396698158" lon="3.3025562554511456"><ele>103.0</ele><time>2026-04-06T09:57:52.999Z</time></trkpt><trkpt lat="43.53140942382111" lon="3.302562425571593"><ele>102.99999999999999</ele><time>2026-04-06T09:57:53.999Z</time></trkpt><trkpt lat="43.53133551179736" lon="3.3025651512052927"><ele>103.0</ele><time>2026-04-06T09:57:54.999Z</time></trkpt><trkpt lat="43.53126038968912" lon="3.3025687661488963"><ele>103.0</ele><time>2026-04-06T09:57:55.999Z</time></trkpt><trkpt lat="43.531185935279815" lon="3.30257074539169"><ele>103.0</ele><time>2026-04-06T09:57:56.999Z</time></trkpt><trkpt lat="43.531110134251165" lon="3.3025716520067503"><ele>103.0</ele><time>2026-04-06T09:57:57.999Z</time></trkpt><trkpt lat="43.531034989831596" lon="3.3025735835867933"><ele>102.99999999999999</ele><time>2026-04-06T09:57:58.999Z</time></trkpt><trkpt lat="43.5309609101416" lon="3.3025756818503798"><ele>103.0</ele><time>2026-04-06T09:57:59.999Z</time></trkpt><trkpt lat="43.53088712088065" lon="3.3025794767069403"><ele>102.85714285714285</ele><time>2026-04-06T09:58:00.999Z</time></trkpt><trkpt lat="43.530813051994066" lon="3.3025883141065044"><ele>102.71428571428571</ele><time>2026-04-06T09:58:01.999Z</time></trkpt><trkpt lat="43.53074030587043" lon="3.302593107976669"><ele>102.57142857142857</ele><time>2026-04-06T09:58:02.999Z</time></trkpt><trkpt lat="43.530669913750515" lon="3.302598579989017"><ele>102.42857142857142</ele><time>2026-04-06T09:58:03.999Z</time></trkpt><trkpt lat="43.53059988211774" lon="3.3026068318849644"><ele>102.28571428571429</ele><time>2026-04-06T09:58:04.999Z</time></trkpt><trkpt lat="43.5305312272603" lon="3.3026084171754744"><ele>102.14285714285714</ele><time>2026-04-06T09:58:05.999Z</time></trkpt><trkpt lat="43.53046295862302" lon="3.3026124795131855"><ele>102.0</ele><time>2026-04-06T09:58:06.999Z</time></trkpt><trkpt lat="43.53039631345609" lon="3.302620896324628"><ele>102.42857142857143</ele><time>2026-04-06T09:58:07.999Z</time></trkpt><trkpt lat="43.53032900927929" lon="3.302631387101769"><ele>102.85714285714286</ele><time>2026-04-06T09:58:08.999Z</time></trkpt><trkpt lat="43.530262943790326" lon="3.3026436456106594"><ele>103.28571428571428</ele><time>2026-04-06T09:58:09.999Z</time></trkpt><trkpt lat="43.53019728565798" lon="3.3026594604747013"><ele>103.71428571428572</ele><time>2026-04-06T09:58:10.999Z</time></trkpt><trkpt lat="43.530132939982295" lon="3.3026772115916003"><ele>104.14285714285714</ele><time>2026-04-06T09:58:12Z</time></trkpt><trkpt lat="43.53006780017362" lon="3.302697374153553"><ele>104.57142857142857</ele><time>2026-04-06T09:58:13Z</time></trkpt><trkpt lat="43.530002788294944" lon="3.3027192354619577"><ele>105.0</ele><time>2026-04-06T09:58:14Z</time></trkpt><trkpt lat="43.52993782806434" lon="3.3027403884187887"><ele>105.0</ele><time>2026-04-06T09:58:15Z</time></trkpt><trkpt lat="43.52987235019382" lon="3.302762582800116"><ele>105.0</ele><time>2026-04-06T09:58:16Z</time></trkpt><trkpt lat="43.52980586038976" lon="3.3027844420483614"><ele>105.0</ele><time>2026-04-06T09:58:17Z</time></trkpt><trkpt lat="43.52973776855564" lon="3.302802620416789"><ele>105.0</ele><time>2026-04-06T09:58:18Z</time></trkpt><trkpt lat="43.5296698465093" lon="3.302824043686354"><ele>105.0</ele><time>2026-04-06T09:58:19Z</time></trkpt><trkpt lat="43.52960085769149" lon="3.3028467832093917"><ele>105.0</ele><time>2026-04-06T09:58:20Z</time></trkpt><trkpt lat="43.52953133296898" lon="3.3028708317808984"><ele>105.0</ele><time>2026-04-06T09:58:21Z</time></trkpt><trkpt lat="43.52945960265365" lon="3.3028948247391066"><ele>104.83333333333333</ele><time>2026-04-06T09:58:22Z</time></trkpt><trkpt lat="43.529388985558164" lon="3.3029265652475694"><ele>104.66666666666666</ele><time>2026-04-06T09:58:23Z</time></trkpt><trkpt lat="43.529316018822634" lon="3.3029592674686343"><ele>104.5</ele><time>2026-04-06T09:58:24Z</time></trkpt><trkpt lat="43.52924242078042" lon="3.3029968369922504"><ele>104.33333333333333</ele><time>2026-04-06T09:58:25Z</time></trkpt><trkpt lat="43.52916611847789" lon="3.303038474821259"><ele>104.16666666666666</ele><time>2026-04-06T09:58:26Z</time></trkpt><trkpt lat="43.529091514232036" lon="3.3030902006221425"><ele>104.0</ele><time>2026-04-06T09:58:27Z</time></trkpt><trkpt lat="43.52901658054687" lon="3.303136449878918"><ele>103.16666666666666</ele><time>2026-04-06T09:58:28Z</time></trkpt><trkpt lat="43.52893504814504" lon="3.3031668881607574"><ele>102.33333333333333</ele><time>2026-04-06T09:58:29Z</time></trkpt><trkpt lat="43.528852736770105" lon="3.303186696246986"><ele>101.5</ele><time>2026-04-06T09:58:30Z</time></trkpt><trkpt lat="43.52876864713968" lon="3.3032002507478624"><ele>100.66666666666666</ele><time>2026-04-06T09:58:31Z</time></trkpt><trkpt lat="43.528686314012894" lon="3.3032093160554363"><ele>99.83333333333333</ele><time>2026-04-06T09:58:32Z</time></trkpt><trkpt lat="43.528603490523814" lon="3.303212959607709"><ele>99.0</ele><time>2026-04-06T09:58:33Z</time></trkpt><trkpt lat="43.52852454081854" lon="3.303214262871493"><ele>98.85714285714286</ele><time>2026-04-06T09:58:34Z</time></trkpt><trkpt lat="43.528446931776436" lon="3.303210936589613"><ele>98.71428571428571</ele><time>2026-04-06T09:58:35Z</time></trkpt><trkpt lat="43.52837275682755" lon="3.303197644033882"><ele>98.57142857142857</ele><time>2026-04-06T09:58:36Z</time></trkpt><trkpt lat="43.52830109737735" lon="3.303177850601735"><ele>98.42857142857143</ele><time>2026-04-06T09:58:37Z</time></trkpt><trkpt lat="43.528232008625736" lon="3.3031465554322725"><ele>98.28571428571428</ele><time>2026-04-06T09:58:38Z</time></trkpt><trkpt lat="43.5281608653552" lon="3.303125597501309"><ele>98.14285714285714</ele><time>2026-04-06T09:58:39Z</time></trkpt><trkpt lat="43.528088333804675" lon="3.303108073234433"><ele>98.0</ele><time>2026-04-06T09:58:40Z</time></trkpt><trkpt lat="43.52802022913141" lon="3.3030876729302756"><ele>98.0</ele><time>2026-04-06T09:58:41Z</time></trkpt><trkpt lat="43.52795595468653" lon="3.303062055116588"><ele>98.0</ele><time>2026-04-06T09:58:42Z</time></trkpt><trkpt lat="43.527894229116626" lon="3.3030431950485353"><ele>98.0</ele><time>2026-04-06T09:58:43Z</time></trkpt><trkpt lat="43.52777436682651" lon="3.3030179330246585"><ele>98.0</ele><time>2026-04-06T09:58:45Z</time></trkpt><trkpt lat="43.527663887735585" lon="3.3029930724661614"><ele>98.0</ele><time>2026-04-06T09:58:47Z</time></trkpt><trkpt lat="43.52755539388904" lon="3.302961268525851"><ele>97.60000000000001</ele><time>2026-04-06T09:58:49Z</time></trkpt><trkpt lat="43.52744454427078" lon="3.302931535270073"><ele>97.2</ele><time>2026-04-06T09:58:51Z</time></trkpt><trkpt lat="43.52733301532665" lon="3.3029016595197174"><ele>96.8</ele><time>2026-04-06T09:58:53Z</time></trkpt><trkpt lat="43.52721413544855" lon="3.302877081820637"><ele>96.4</ele><time>2026-04-06T09:58:55Z</time></trkpt><trkpt lat="43.52715194717629" lon="3.3028631410033564"><ele>96.0</ele><time>2026-04-06T09:58:56Z</time></trkpt><trkpt lat="43.52702908627072" lon="3.3028352055854424"><ele>96.0</ele><time>2026-04-06T09:58:58Z</time></trkpt><trkpt lat="43.526907417937096" lon="3.3028101491874686"><ele>96.0</ele><time>2026-04-06T09:59:00Z</time></trkpt><trkpt lat="43.52678652923151" lon="3.3027822546040593"><ele>96.0</ele><time>2026-04-06T09:59:02Z</time></trkpt><trkpt lat="43.5266645084652" lon="3.302758008832374"><ele>96.0</ele><time>2026-04-06T09:59:04Z</time></trkpt><trkpt lat="43.526601887529715" lon="3.3027415156197226"><ele>96.0</ele><time>2026-04-06T09:59:05Z</time></trkpt><trkpt lat="43.5265398719242" lon="3.3027241550880078"><ele>96.0</ele><time>2026-04-06T09:59:06Z</time></trkpt><trkpt lat="43.52641231865558" lon="3.3027025009591213"><ele>96.0</ele><time>2026-04-06T09:59:08Z</time></trkpt><trkpt lat="43.52634699925268" lon="3.3026912760308487"><ele>96.0</ele><time>2026-04-06T09:59:09Z</time></trkpt><trkpt lat="43.52628366963748" lon="3.3026754789410364"><ele>96.0</ele><time>2026-04-06T09:59:10Z</time></trkpt><trkpt lat="43.52622156237046" lon="3.3026604432909457"><ele>96.0</ele><time>2026-04-06T09:59:11Z</time></trkpt><trkpt lat="43.52609806807479" lon="3.302629231321628"><ele>96.0</ele><time>2026-04-06T09:59:13Z</time></trkpt><trkpt lat="43.52603506059628" lon="3.302615466021527"><ele>96.6</ele><time>2026-04-06T09:59:14Z</time></trkpt><trkpt lat="43.525972649700016" lon="3.302603403609008"><ele>97.19999999999999</ele><time>2026-04-06T09:59:15Z</time></trkpt><trkpt lat="43.52590975228734" lon="3.302592546329778"><ele>97.80000000000001</ele><time>2026-04-06T09:59:16Z</time></trkpt><trkpt lat="43.525786908909026" lon="3.302560026755627"><ele>98.4</ele><time>2026-04-06T09:59:18Z</time></trkpt><trkpt lat="43.525666465559084" lon="3.3025321558716865"><ele>99.0</ele><time>2026-04-06T09:59:20Z</time></trkpt><trkpt lat="43.52554946293367" lon="3.3025030742229915"><ele>99.0</ele><time>2026-04-06T09:59:22Z</time></trkpt><trkpt lat="43.525434174854496" lon="3.3024897165594846"><ele>99.0</ele><time>2026-04-06T09:59:24Z</time></trkpt><trkpt lat="43.525318006868" lon="3.302501328868051"><ele>99.0</ele><time>2026-04-06T09:59:26Z</time></trkpt><trkpt lat="43.5252007048433" lon="3.302541546364846"><ele>99.0</ele><time>2026-04-06T09:59:28Z</time></trkpt><trkpt lat="43.52513780469252" lon="3.3025670800422398"><ele>99.0</ele><time>2026-04-06T09:59:29Z</time></trkpt><trkpt lat="43.52507466940689" lon="3.302593031219214"><ele>99.83333333333333</ele><time>2026-04-06T09:59:30Z</time></trkpt><trkpt lat="43.52501190265386" lon="3.3026212248518956"><ele>100.66666666666666</ele><time>2026-04-06T09:59:31Z</time></trkpt><trkpt lat="43.52494936594663" lon="3.302646976439001"><ele>101.5</ele><time>2026-04-06T09:59:32Z</time></trkpt><trkpt lat="43.52488885036634" lon="3.302674787830428"><ele>102.33333333333333</ele><time>2026-04-06T09:59:33Z</time></trkpt><trkpt lat="43.52482681739654" lon="3.302701602789556"><ele>103.16666666666666</ele><time>2026-04-06T09:59:34Z</time></trkpt><trkpt lat="43.524706683706555" lon="3.302742054072084"><ele>104.0</ele><time>2026-04-06T09:59:36Z</time></trkpt><trkpt lat="43.5245885642018" lon="3.302779908942485"><ele>104.0</ele><time>2026-04-06T09:59:38Z</time></trkpt><trkpt lat="43.52448240240209" lon="3.302839445402732"><ele>104.0</ele><time>2026-04-06T09:59:40Z</time></trkpt><trkpt lat="43.52437818109501" lon="3.3028977564216073"><ele>104.0</ele><time>2026-04-06T09:59:42Z</time></trkpt><trkpt lat="43.5242826172467" lon="3.3029678709017687"><ele>104.0</ele><time>2026-04-06T09:59:44Z</time></trkpt><trkpt lat="43.52418527284213" lon="3.3030270582683996"><ele>104.0</ele><time>2026-04-06T09:59:46Z</time></trkpt><trkpt lat="43.52408789483917" lon="3.303087646206571"><ele>101.25</ele><time>2026-04-06T09:59:48Z</time></trkpt><trkpt lat="43.52398273269465" lon="3.303155707883422"><ele>98.5</ele><time>2026-04-06T09:59:50Z</time></trkpt><trkpt lat="43.523876520654575" lon="3.3032262804486425"><ele>95.75</ele><time>2026-04-06T09:59:52Z</time></trkpt><trkpt lat="43.52377418710226" lon="3.3032936201502996"><ele>93.0</ele><time>2026-04-06T09:59:54Z</time></trkpt><trkpt lat="43.52368012792486" lon="3.303362754757091"><ele>93.0</ele><time>2026-04-06T09:59:56Z</time></trkpt><trkpt lat="43.52359592679611" lon="3.3034346891010236"><ele>93.0</ele><time>2026-04-06T09:59:58Z</time></trkpt><trkpt lat="43.5235187194387" lon="3.303518590380653"><ele>93.0</ele><time>2026-04-06T09:59:59.999Z</time></trkpt><trkpt lat="43.52344234261752" lon="3.303608554478884"><ele>93.0</ele><time>2026-04-06T10:00:01.999Z</time></trkpt><trkpt lat="43.52336911321891" lon="3.303717601637948"><ele>93.0</ele><time>2026-04-06T10:00:03.999Z</time></trkpt><trkpt lat="43.52328884976542" lon="3.3038320421496397"><ele>92.5</ele><time>2026-04-06T10:00:05.999Z</time></trkpt><trkpt lat="43.5231979884051" lon="3.303941000244667"><ele>92.0</ele><time>2026-04-06T10:00:07.999Z</time></trkpt><trkpt lat="43.523109921937504" lon="3.3040576385909013"><ele>91.5</ele><time>2026-04-06T10:00:09.999Z</time></trkpt><trkpt lat="43.52302262334719" lon="3.3041764043890116"><ele>91.0</ele><time>2026-04-06T10:00:11.999Z</time></trkpt><trkpt lat="43.52293817303551" lon="3.3042830270009738"><ele>91.19999999999999</ele><time>2026-04-06T10:00:13.999Z</time></trkpt><trkpt lat="43.52284984722526" lon="3.3043817274350236"><ele>91.39999999999999</ele><time>2026-04-06T10:00:15.999Z</time></trkpt><trkpt lat="43.52276321424943" lon="3.3044777124514026"><ele>91.6</ele><time>2026-04-06T10:00:17.999Z</time></trkpt><trkpt lat="43.52267817024618" lon="3.3045718773112234"><ele>91.8</ele><time>2026-04-06T10:00:19.999Z</time></trkpt><trkpt lat="43.52259219673987" lon="3.3046603996405706"><ele>92.0</ele><time>2026-04-06T10:00:21.999Z</time></trkpt><trkpt lat="43.5225021976069" lon="3.304752719044474"><ele>92.0</ele><time>2026-04-06T10:00:23.999Z</time></trkpt><trkpt lat="43.52241309732112" lon="3.304845858395763"><ele>92.0</ele><time>2026-04-06T10:00:25.999Z</time></trkpt><trkpt lat="43.52232272214975" lon="3.30494005750706"><ele>92.0</ele><time>2026-04-06T10:00:27.999Z</time></trkpt><trkpt lat="43.52222936333579" lon="3.3050349952148927"><ele>92.0</ele><time>2026-04-06T10:00:30Z</time></trkpt><trkpt lat="43.52214064183642" lon="3.3051241000712417"><ele>92.6</ele><time>2026-04-06T10:00:32Z</time></trkpt><trkpt lat="43.52205169529656" lon="3.30521274602769"><ele>93.19999999999999</ele><time>2026-04-06T10:00:34Z</time></trkpt><trkpt lat="43.521966601768476" lon="3.3052997124607244"><ele>93.8</ele><time>2026-04-06T10:00:36Z</time></trkpt><trkpt lat="43.52188387759544" lon="3.305394359204585"><ele>94.4</ele><time>2026-04-06T10:00:38Z</time></trkpt><trkpt lat="43.52179268755115" lon="3.305478010310021"><ele>95.0</ele><time>2026-04-06T10:00:40Z</time></trkpt><trkpt lat="43.521692279951814" lon="3.3055680101816214"><ele>94.83333333333334</ele><time>2026-04-06T10:00:42Z</time></trkpt><trkpt lat="43.52159366810215" lon="3.3056698125765043"><ele>94.66666666666667</ele><time>2026-04-06T10:00:44Z</time></trkpt><trkpt lat="43.5214915157698" lon="3.3057706342604036"><ele>94.5</ele><time>2026-04-06T10:00:46Z</time></trkpt><trkpt lat="43.52143985928645" lon="3.3058270735364896"><ele>94.33333333333333</ele><time>2026-04-06T10:00:47Z</time></trkpt><trkpt lat="43.52138971394562" lon="3.3058852608754017"><ele>94.16666666666666</ele><time>2026-04-06T10:00:48Z</time></trkpt><trkpt lat="43.52134127046355" lon="3.30594553099492"><ele>94.0</ele><time>2026-04-06T10:00:49Z</time></trkpt><trkpt lat="43.52129338907109" lon="3.3060102530832447"><ele>94.0</ele><time>2026-04-06T10:00:50Z</time></trkpt><trkpt lat="43.52124713155846" lon="3.3060786216172153"><ele>94.0</ele><time>2026-04-06T10:00:51Z</time></trkpt><trkpt lat="43.52120436337265" lon="3.306157081116654"><ele>94.0</ele><time>2026-04-06T10:00:52Z</time></trkpt><trkpt lat="43.521161058604065" lon="3.3062343482156504"><ele>94.0</ele><time>2026-04-06T10:00:53Z</time></trkpt><trkpt lat="43.52111519835063" lon="3.3063135740310954"><ele>94.0</ele><time>2026-04-06T10:00:54Z</time></trkpt><trkpt lat="43.52106904056522" lon="3.3063931803402413"><ele>94.0</ele><time>2026-04-06T10:00:55Z</time></trkpt><trkpt lat="43.52102312147439" lon="3.3064753388626045"><ele>94.0</ele><time>2026-04-06T10:00:56Z</time></trkpt><trkpt lat="43.520976271703844" lon="3.3065544810415815"><ele>93.42857142857143</ele><time>2026-04-06T10:00:57Z</time></trkpt><trkpt lat="43.52092711190829" lon="3.3066320764483095"><ele>92.85714285714286</ele><time>2026-04-06T10:00:58Z</time></trkpt><trkpt lat="43.52087322150556" lon="3.3067044003583796"><ele>92.28571428571428</ele><time>2026-04-06T10:00:59Z</time></trkpt><trkpt lat="43.52081999318021" lon="3.306778040445012"><ele>91.71428571428572</ele><time>2026-04-06T10:01:00Z</time></trkpt><trkpt lat="43.520778969503944" lon="3.3068634063758955"><ele>91.14285714285715</ele><time>2026-04-06T10:01:01Z</time></trkpt><trkpt lat="43.520714799067875" lon="3.3069155219387865"><ele>90.57142857142857</ele><time>2026-04-06T10:01:02Z</time></trkpt><trkpt lat="43.52066425959492" lon="3.306988157723137"><ele>90.0</ele><time>2026-04-06T10:01:03Z</time></trkpt><trkpt lat="43.52061129158891" lon="3.3070588901907736"><ele>90.0</ele><time>2026-04-06T10:01:04Z</time></trkpt><trkpt lat="43.520557506615184" lon="3.3071256719164324"><ele>90.0</ele><time>2026-04-06T10:01:05Z</time></trkpt><trkpt lat="43.52050288485869" lon="3.3071905886047044"><ele>90.0</ele><time>2026-04-06T10:01:06Z</time></trkpt><trkpt lat="43.520449399569365" lon="3.307255568824348"><ele>90.0</ele><time>2026-04-06T10:01:07Z</time></trkpt><trkpt lat="43.52039576774252" lon="3.30731656366023"><ele>90.0</ele><time>2026-04-06T10:01:08Z</time></trkpt><trkpt lat="43.520342402601166" lon="3.307374412038858"><ele>90.0</ele><time>2026-04-06T10:01:09Z</time></trkpt><trkpt lat="43.52028531706108" lon="3.307429912045622"><ele>90.0</ele><time>2026-04-06T10:01:10Z</time></trkpt><trkpt lat="43.52022903452035" lon="3.307483137085272"><ele>89.57142857142857</ele><time>2026-04-06T10:01:11Z</time></trkpt><trkpt lat="43.520171496876806" lon="3.307534434280706"><ele>89.14285714285715</ele><time>2026-04-06T10:01:12Z</time></trkpt><trkpt lat="43.520113614543035" lon="3.3075834704530904"><ele>88.71428571428572</ele><time>2026-04-06T10:01:13Z</time></trkpt><trkpt lat="43.52005637864912" lon="3.3076293764499662"><ele>88.28571428571428</ele><time>2026-04-06T10:01:14Z</time></trkpt><trkpt lat="43.519999929492464" lon="3.3076743892689735"><ele>87.85714285714286</ele><time>2026-04-06T10:01:15Z</time></trkpt><trkpt lat="43.519944069370105" lon="3.307720902026259"><ele>87.42857142857143</ele><time>2026-04-06T10:01:16Z</time></trkpt><trkpt lat="43.51988850530475" lon="3.307767549349028"><ele>87.0</ele><time>2026-04-06T10:01:17Z</time></trkpt><trkpt lat="43.519833167692006" lon="3.3078130196265647"><ele>87.0</ele><time>2026-04-06T10:01:18Z</time></trkpt><trkpt lat="43.51977881278449" lon="3.3078591860147797"><ele>87.0</ele><time>2026-04-06T10:01:19Z</time></trkpt><trkpt lat="43.519723600672506" lon="3.3079058694292884"><ele>87.0</ele><time>2026-04-06T10:01:20Z</time></trkpt><trkpt lat="43.519666516123294" lon="3.307945889437414"><ele>87.0</ele><time>2026-04-06T10:01:21Z</time></trkpt><trkpt lat="43.51960604880201" lon="3.3079814323179657"><ele>87.0</ele><time>2026-04-06T10:01:22Z</time></trkpt><trkpt lat="43.51954681954598" lon="3.3080115867110313"><ele>87.0</ele><time>2026-04-06T10:01:23Z</time></trkpt><trkpt lat="43.51942500137827" lon="3.3080478986010977"><ele>87.0</ele><time>2026-04-06T10:01:25Z</time></trkpt><trkpt lat="43.51929993462297" lon="3.3080564527282386"><ele>86.8</ele><time>2026-04-06T10:01:27Z</time></trkpt><trkpt lat="43.5191746416268" lon="3.3080649016359485"><ele>86.6</ele><time>2026-04-06T10:01:29Z</time></trkpt><trkpt lat="43.5190513346886" lon="3.3080795257996654"><ele>86.39999999999999</ele><time>2026-04-06T10:01:31Z</time></trkpt><trkpt lat="43.518988245225536" lon="3.3080890738061184"><ele>86.19999999999999</ele><time>2026-04-06T10:01:32Z</time></trkpt><trkpt lat="43.5188678403092" lon="3.308098045500952"><ele>86.0</ele><time>2026-04-06T10:01:34Z</time></trkpt><trkpt lat="43.51874164934996" lon="3.3081126889856853"><ele>85.83333333333334</ele><time>2026-04-06T10:01:36Z</time></trkpt><trkpt lat="43.518617102023775" lon="3.308123978628017"><ele>85.66666666666667</ele><time>2026-04-06T10:01:38Z</time></trkpt><trkpt lat="43.518494003609966" lon="3.308144657553317"><ele>85.5</ele><time>2026-04-06T10:01:40Z</time></trkpt><trkpt lat="43.518430313565524" lon="3.308161767972243"><ele>85.33333333333333</ele><time>2026-04-06T10:01:41Z</time></trkpt><trkpt lat="43.51836788541211" lon="3.3081787902657993"><ele>85.16666666666666</ele><time>2026-04-06T10:01:42Z</time></trkpt><trkpt lat="43.51830545794001" lon="3.3081994666016086"><ele>85.0</ele><time>2026-04-06T10:01:43Z</time></trkpt><trkpt lat="43.51824381318326" lon="3.3082208521927985"><ele>85.0</ele><time>2026-04-06T10:01:44Z</time></trkpt><trkpt lat="43.51818246341714" lon="3.308246780424159"><ele>85.0</ele><time>2026-04-06T10:01:45Z</time></trkpt><trkpt lat="43.51812194586236" lon="3.308279039854336"><ele>85.0</ele><time>2026-04-06T10:01:46Z</time></trkpt><trkpt lat="43.51806234649048" lon="3.3083114669817397"><ele>85.0</ele><time>2026-04-06T10:01:47Z</time></trkpt><trkpt lat="43.51800144901121" lon="3.308343388962059"><ele>85.0</ele><time>2026-04-06T10:01:48Z</time></trkpt><trkpt lat="43.51789238897835" lon="3.308425453570404"><ele>85.0</ele><time>2026-04-06T10:01:50Z</time></trkpt><trkpt lat="43.51778501442814" lon="3.3085167268358098"><ele>85.6</ele><time>2026-04-06T10:01:52Z</time></trkpt><trkpt lat="43.517685944680665" lon="3.308615648102158"><ele>86.2</ele><time>2026-04-06T10:01:54Z</time></trkpt><trkpt lat="43.51758622837289" lon="3.3087143977392213"><ele>86.80000000000001</ele><time>2026-04-06T10:01:56Z</time></trkpt><trkpt lat="43.517534598491984" lon="3.308765447005544"><ele>87.4</ele><time>2026-04-06T10:01:57Z</time></trkpt><trkpt lat="43.51743699775202" lon="3.3088677833587634"><ele>88.0</ele><time>2026-04-06T10:01:59Z</time></trkpt><trkpt lat="43.51734539689056" lon="3.308965150297813"><ele>88.0</ele><time>2026-04-06T10:02:01Z</time></trkpt><trkpt lat="43.517254001916015" lon="3.3090493989308927"><ele>88.0</ele><time>2026-04-06T10:02:03Z</time></trkpt><trkpt lat="43.51716648837485" lon="3.3091409797427245"><ele>88.0</ele><time>2026-04-06T10:02:04.999Z</time></trkpt><trkpt lat="43.51707939214387" lon="3.3092284898103537"><ele>88.0</ele><time>2026-04-06T10:02:06.999Z</time></trkpt><trkpt lat="43.516991258324" lon="3.309314307533052"><ele>88.0</ele><time>2026-04-06T10:02:08.999Z</time></trkpt><trkpt lat="43.516904881064484" lon="3.309400403320754"><ele>90.60000000000001</ele><time>2026-04-06T10:02:10.999Z</time></trkpt><trkpt lat="43.516814812151054" lon="3.3094779107022387"><ele>93.2</ele><time>2026-04-06T10:02:12.999Z</time></trkpt><trkpt lat="43.516724198105045" lon="3.3095558778515866"><ele>95.8</ele><time>2026-04-06T10:02:14.999Z</time></trkpt><trkpt lat="43.51662810690058" lon="3.3096205677118267"><ele>98.4</ele><time>2026-04-06T10:02:16.999Z</time></trkpt><trkpt lat="43.51652928556861" lon="3.309680228002427"><ele>101.0</ele><time>2026-04-06T10:02:18.999Z</time></trkpt><trkpt lat="43.51642554388613" lon="3.309734874822952"><ele>99.8</ele><time>2026-04-06T10:02:20.999Z</time></trkpt><trkpt lat="43.51632155669169" lon="3.3097838018087713"><ele>98.6</ele><time>2026-04-06T10:02:22.999Z</time></trkpt><trkpt lat="43.516221441559296" lon="3.3098376945225088"><ele>97.4</ele><time>2026-04-06T10:02:24.999Z</time></trkpt><trkpt lat="43.51612203828311" lon="3.30988531584218"><ele>96.2</ele><time>2026-04-06T10:02:26.999Z</time></trkpt><trkpt lat="43.516022726018065" lon="3.3099317974414943"><ele>95.0</ele><time>2026-04-06T10:02:28.999Z</time></trkpt><trkpt lat="43.515917215602194" lon="3.309964854828219"><ele>95.0</ele><time>2026-04-06T10:02:31Z</time></trkpt><trkpt lat="43.515806555242584" lon="3.309971249705839"><ele>95.0</ele><time>2026-04-06T10:02:33Z</time></trkpt><trkpt lat="43.51569741414438" lon="3.3099700649988293"><ele>95.0</ele><time>2026-04-06T10:02:35Z</time></trkpt><trkpt lat="43.51558996490826" lon="3.3099601686853513"><ele>95.0</ele><time>2026-04-06T10:02:37Z</time></trkpt><trkpt lat="43.51548135489354" lon="3.309950597739861"><ele>95.0</ele><time>2026-04-06T10:02:39Z</time></trkpt><trkpt lat="43.515374802377366" lon="3.309946833366087"><ele>95.8</ele><time>2026-04-06T10:02:41Z</time></trkpt><trkpt lat="43.51526709437454" lon="3.3099417667286954"><ele>96.6</ele><time>2026-04-06T10:02:43Z</time></trkpt><trkpt lat="43.51515773585822" lon="3.3099435148753718"><ele>97.4</ele><time>2026-04-06T10:02:45Z</time></trkpt><trkpt lat="43.5150520057008" lon="3.3099359780810818"><ele>98.2</ele><time>2026-04-06T10:02:47Z</time></trkpt><trkpt lat="43.51494658642355" lon="3.3099320208487186"><ele>99.0</ele><time>2026-04-06T10:02:49Z</time></trkpt><trkpt lat="43.51484219644668" lon="3.3099273015651303"><ele>99.0</ele><time>2026-04-06T10:02:51Z</time></trkpt><trkpt lat="43.514737638167176" lon="3.309923302650298"><ele>99.0</ele><time>2026-04-06T10:02:53Z</time></trkpt><trkpt lat="43.514632536131714" lon="3.309920690386296"><ele>99.0</ele><time>2026-04-06T10:02:55Z</time></trkpt><trkpt lat="43.51452485435412" lon="3.309934231008037"><ele>99.0</ele><time>2026-04-06T10:02:57Z</time></trkpt><trkpt lat="43.514419218278384" lon="3.309946387908044"><ele>99.0</ele><time>2026-04-06T10:02:59Z</time></trkpt><trkpt lat="43.51431315378516" lon="3.3099594105252312"><ele>100.0</ele><time>2026-04-06T10:03:01Z</time></trkpt><trkpt lat="43.514205782171224" lon="3.309983436552985"><ele>101.0</ele><time>2026-04-06T10:03:03Z</time></trkpt><trkpt lat="43.514089158853075" lon="3.310003854515491"><ele>102.0</ele><time>2026-04-06T10:03:05Z</time></trkpt><trkpt lat="43.513968842417555" lon="3.31002364150262"><ele>103.0</ele><time>2026-04-06T10:03:07Z</time></trkpt><trkpt lat="43.51384447416902" lon="3.310049526839339"><ele>103.0</ele><time>2026-04-06T10:03:09Z</time></trkpt><trkpt lat="43.51371760998344" lon="3.310079375171074"><ele>103.0</ele><time>2026-04-06T10:03:11Z</time></trkpt><trkpt lat="43.51359237287542" lon="3.3100994172649756"><ele>103.0</ele><time>2026-04-06T10:03:13Z</time></trkpt><trkpt lat="43.51346889493798" lon="3.3101191064604483"><ele>103.0</ele><time>2026-04-06T10:03:15Z</time></trkpt><trkpt lat="43.51335119535511" lon="3.3101422357587813"><ele>103.0</ele><time>2026-04-06T10:03:17Z</time></trkpt><trkpt lat="43.51324135465341" lon="3.3101935684739168"><ele>103.0</ele><time>2026-04-06T10:03:19Z</time></trkpt><trkpt lat="43.51315229770163" lon="3.3102841035232404"><ele>103.0</ele><time>2026-04-06T10:03:21Z</time></trkpt><trkpt lat="43.51307701206257" lon="3.3103927297454185"><ele>103.0</ele><time>2026-04-06T10:03:23Z</time></trkpt><trkpt lat="43.51299558865586" lon="3.310491052437675"><ele>103.0</ele><time>2026-04-06T10:03:25Z</time></trkpt><trkpt lat="43.51292229523381" lon="3.31059692744019"><ele>102.80000000000001</ele><time>2026-04-06T10:03:27Z</time></trkpt><trkpt lat="43.51284591353011" lon="3.310699639314714"><ele>102.6</ele><time>2026-04-06T10:03:29Z</time></trkpt><trkpt lat="43.512762313276724" lon="3.310814736200478"><ele>102.4</ele><time>2026-04-06T10:03:31Z</time></trkpt><trkpt lat="43.5126874147563" lon="3.310927367586429"><ele>102.19999999999999</ele><time>2026-04-06T10:03:33Z</time></trkpt><trkpt lat="43.512609381850794" lon="3.311034784443899"><ele>102.0</ele><time>2026-04-06T10:03:35Z</time></trkpt><trkpt lat="43.51253137460395" lon="3.3111442960024666"><ele>102.0</ele><time>2026-04-06T10:03:37Z</time></trkpt><trkpt lat="43.51245041310741" lon="3.311245907878392"><ele>102.0</ele><time>2026-04-06T10:03:39Z</time></trkpt><trkpt lat="43.51237505836978" lon="3.3113532751843855"><ele>102.0</ele><time>2026-04-06T10:03:41Z</time></trkpt><trkpt lat="43.51230685509955" lon="3.3114461729587297"><ele>102.0</ele><time>2026-04-06T10:03:43Z</time></trkpt><trkpt lat="43.512243680410904" lon="3.3115408941338536"><ele>102.0</ele><time>2026-04-06T10:03:45Z</time></trkpt><trkpt lat="43.512177354016764" lon="3.311637096130446"><ele>101.8</ele><time>2026-04-06T10:03:47Z</time></trkpt><trkpt lat="43.51210254086874" lon="3.311734400122235"><ele>101.6</ele><time>2026-04-06T10:03:49Z</time></trkpt><trkpt lat="43.5120234356651" lon="3.3118272759775538"><ele>101.39999999999999</ele><time>2026-04-06T10:03:51Z</time></trkpt><trkpt lat="43.51195007325268" lon="3.311925954361662"><ele>101.19999999999999</ele><time>2026-04-06T10:03:53Z</time></trkpt><trkpt lat="43.51188176919205" lon="3.3120268247988767"><ele>101.0</ele><time>2026-04-06T10:03:55Z</time></trkpt><trkpt lat="43.51181094402162" lon="3.312123025108"><ele>101.16666666666666</ele><time>2026-04-06T10:03:57Z</time></trkpt><trkpt lat="43.51173379918643" lon="3.3122039886665258"><ele>101.33333333333333</ele><time>2026-04-06T10:03:59Z</time></trkpt><trkpt lat="43.51165520254266" lon="3.3122918744273364"><ele>101.5</ele><time>2026-04-06T10:04:01Z</time></trkpt><trkpt lat="43.511565432166776" lon="3.312385655243379"><ele>101.66666666666666</ele><time>2026-04-06T10:04:03Z</time></trkpt><trkpt lat="43.51151438995575" lon="3.312438233308311"><ele>101.83333333333333</ele><time>2026-04-06T10:04:04Z</time></trkpt><trkpt lat="43.51146382074571" lon="3.3124904158899624"><ele>102.0</ele><time>2026-04-06T10:04:05Z</time></trkpt><trkpt lat="43.511413069751576" lon="3.31254396440937"><ele>102.0</ele><time>2026-04-06T10:04:06Z</time></trkpt><trkpt lat="43.51131895842218" lon="3.31264397884567"><ele>102.0</ele><time>2026-04-06T10:04:08Z</time></trkpt><trkpt lat="43.511224504040676" lon="3.312740694211429"><ele>102.0</ele><time>2026-04-06T10:04:10Z</time></trkpt><trkpt lat="43.51113402132233" lon="3.3128401650177373"><ele>102.0</ele><time>2026-04-06T10:04:11.999Z</time></trkpt><trkpt lat="43.51104515254369" lon="3.3129344980647697"><ele>101.75</ele><time>2026-04-06T10:04:14Z</time></trkpt><trkpt lat="43.510957541741035" lon="3.3130296229363507"><ele>101.5</ele><time>2026-04-06T10:04:16Z</time></trkpt><trkpt lat="43.51086590275663" lon="3.3131327537066597"><ele>101.25</ele><time>2026-04-06T10:04:18Z</time></trkpt><trkpt lat="43.51077672349426" lon="3.3132274587227"><ele>101.0</ele><time>2026-04-06T10:04:20Z</time></trkpt><trkpt lat="43.510682846247605" lon="3.3133203078025284"><ele>101.0</ele><time>2026-04-06T10:04:22Z</time></trkpt><trkpt lat="43.51058429441334" lon="3.3133892590766463"><ele>101.0</ele><time>2026-04-06T10:04:24Z</time></trkpt><trkpt lat="43.510480767696656" lon="3.313429774123239"><ele>101.0</ele><time>2026-04-06T10:04:26Z</time></trkpt><trkpt lat="43.51037499259915" lon="3.3134733180812206"><ele>101.0</ele><time>2026-04-06T10:04:28Z</time></trkpt><trkpt lat="43.51025716422298" lon="3.3134004122986656"><ele>101.0</ele><time>2026-04-06T10:04:30Z</time></trkpt><trkpt lat="43.51015142997184" lon="3.313352576458123"><ele>101.0</ele><time>2026-04-06T10:04:32Z</time></trkpt><trkpt lat="43.510050777577234" lon="3.313291466798093"><ele>101.0</ele><time>2026-04-06T10:04:34Z</time></trkpt><trkpt lat="43.50995072669968" lon="3.313234639130983"><ele>101.0</ele><time>2026-04-06T10:04:36Z</time></trkpt><trkpt lat="43.50985080052486" lon="3.3131729991002348"><ele>101.0</ele><time>2026-04-06T10:04:38Z</time></trkpt><trkpt lat="43.50976042440893" lon="3.3130938088713844"><ele>101.19999999999999</ele><time>2026-04-06T10:04:40Z</time></trkpt><trkpt lat="43.509671737547464" lon="3.313026673481643"><ele>101.39999999999999</ele><time>2026-04-06T10:04:42Z</time></trkpt><trkpt lat="43.509584597168" lon="3.3129639280630916"><ele>101.6</ele><time>2026-04-06T10:04:44Z</time></trkpt><trkpt lat="43.50949828250402" lon="3.312899785608168"><ele>101.8</ele><time>2026-04-06T10:04:46Z</time></trkpt><trkpt lat="43.50940673348647" lon="3.3128295949093802"><ele>102.0</ele><time>2026-04-06T10:04:48Z</time></trkpt><trkpt lat="43.50931249291414" lon="3.3127633621608013"><ele>102.6</ele><time>2026-04-06T10:04:50Z</time></trkpt><trkpt lat="43.50921924693356" lon="3.3126917463797194"><ele>103.19999999999999</ele><time>2026-04-06T10:04:52Z</time></trkpt><trkpt lat="43.50912968652897" lon="3.3126194141423375"><ele>103.8</ele><time>2026-04-06T10:04:54Z</time></trkpt><trkpt lat="43.509035289644466" lon="3.3125462638914103"><ele>104.4</ele><time>2026-04-06T10:04:56Z</time></trkpt><trkpt lat="43.508940381587934" lon="3.31247282029909"><ele>105.0</ele><time>2026-04-06T10:04:58Z</time></trkpt><trkpt lat="43.5088513053071" lon="3.3123979502692893"><ele>105.0</ele><time>2026-04-06T10:05:00Z</time></trkpt><trkpt lat="43.50876108914567" lon="3.3123275206797738"><ele>105.0</ele><time>2026-04-06T10:05:02Z</time></trkpt><trkpt lat="43.50867248926879" lon="3.3122592901480488"><ele>105.0</ele><time>2026-04-06T10:05:04Z</time></trkpt><trkpt lat="43.50858269731631" lon="3.3121994835391373"><ele>105.0</ele><time>2026-04-06T10:05:06Z</time></trkpt><trkpt lat="43.50848136658614" lon="3.3121168527375446"><ele>105.0</ele><time>2026-04-06T10:05:08Z</time></trkpt><trkpt lat="43.50838591635444" lon="3.3120393350691386"><ele>105.6</ele><time>2026-04-06T10:05:10Z</time></trkpt><trkpt lat="43.50828918199265" lon="3.311969478498963"><ele>106.2</ele><time>2026-04-06T10:05:12Z</time></trkpt><trkpt lat="43.50819595642986" lon="3.311892263049385"><ele>106.80000000000001</ele><time>2026-04-06T10:05:14Z</time></trkpt><trkpt lat="43.508099656923676" lon="3.311814549841112"><ele>107.4</ele><time>2026-04-06T10:05:16Z</time></trkpt><trkpt lat="43.50800280905269" lon="3.311743451543154"><ele>108.0</ele><time>2026-04-06T10:05:18Z</time></trkpt><trkpt lat="43.50790829840003" lon="3.3116627955467"><ele>108.25</ele><time>2026-04-06T10:05:20Z</time></trkpt><trkpt lat="43.507804753609705" lon="3.311592735081824"><ele>108.5</ele><time>2026-04-06T10:05:22Z</time></trkpt><trkpt lat="43.507699357548724" lon="3.3115146107838167"><ele>108.75</ele><time>2026-04-06T10:05:24Z</time></trkpt><trkpt lat="43.50760029973852" lon="3.3114458063402448"><ele>109.0</ele><time>2026-04-06T10:05:26Z</time></trkpt><trkpt lat="43.507506869590024" lon="3.311372103416146"><ele>109.80000000000001</ele><time>2026-04-06T10:05:28Z</time></trkpt><trkpt lat="43.50741380025628" lon="3.3112971813671006"><ele>110.60000000000001</ele><time>2026-04-06T10:05:30Z</time></trkpt><trkpt lat="43.50731309007825" lon="3.311216765349629"><ele>111.4</ele><time>2026-04-06T10:05:32Z</time></trkpt><trkpt lat="43.507210212404985" lon="3.311154270580874"><ele>112.2</ele><time>2026-04-06T10:05:34Z</time></trkpt><trkpt lat="43.5071166350985" lon="3.311086491748583"><ele>113.0</ele><time>2026-04-06T10:05:36Z</time></trkpt><trkpt lat="43.5070258949145" lon="3.3109989671039535"><ele>113.4</ele><time>2026-04-06T10:05:38Z</time></trkpt><trkpt lat="43.506920358589895" lon="3.310942183782837"><ele>113.80000000000001</ele><time>2026-04-06T10:05:40Z</time></trkpt><trkpt lat="43.50682941701279" lon="3.310870869916331"><ele>114.2</ele><time>2026-04-06T10:05:42Z</time></trkpt><trkpt lat="43.506735332849395" lon="3.3108039128570588"><ele>114.6</ele><time>2026-04-06T10:05:44Z</time></trkpt><trkpt lat="43.5066417951457" lon="3.310722151167873"><ele>115.0</ele><time>2026-04-06T10:05:46Z</time></trkpt><trkpt lat="43.50653380288833" lon="3.310694812729373"><ele>115.0</ele><time>2026-04-06T10:05:48Z</time></trkpt><trkpt lat="43.506424056362654" lon="3.310696879138544"><ele>115.0</ele><time>2026-04-06T10:05:50Z</time></trkpt><trkpt lat="43.50632404470271" lon="3.310721997023096"><ele>115.0</ele><time>2026-04-06T10:05:52Z</time></trkpt><trkpt lat="43.50619767103949" lon="3.3106985287320243"><ele>115.0</ele><time>2026-04-06T10:05:54Z</time></trkpt><trkpt lat="43.50609060927351" lon="3.310694904998035"><ele>115.0</ele><time>2026-04-06T10:05:56Z</time></trkpt><trkpt lat="43.506014669288675" lon="3.310702743127814"><ele>115.4</ele><time>2026-04-06T10:05:57Z</time></trkpt><trkpt lat="43.50591198660114" lon="3.3107162132459145"><ele>115.8</ele><time>2026-04-06T10:05:59Z</time></trkpt><trkpt lat="43.50580210223659" lon="3.31073559820726"><ele>116.19999999999999</ele><time>2026-04-06T10:06:01Z</time></trkpt><trkpt lat="43.50569712709865" lon="3.3107613423115128"><ele>116.6</ele><time>2026-04-06T10:06:03Z</time></trkpt><trkpt lat="43.50560665801241" lon="3.3107666599947803"><ele>117.0</ele><time>2026-04-06T10:06:05Z</time></trkpt><trkpt lat="43.50550492228949" lon="3.310745105298601"><ele>117.0</ele><time>2026-04-06T10:06:07Z</time></trkpt><trkpt lat="43.50543884011883" lon="3.3107185518178546"><ele>117.0</ele><time>2026-04-06T10:06:09Z</time></trkpt><trkpt lat="43.505411108771135" lon="3.310597654084389"><ele>117.0</ele><time>2026-04-06T10:06:11Z</time></trkpt><trkpt lat="43.50535466080828" lon="3.3105191728628163"><ele>117.0</ele><time>2026-04-06T10:06:13Z</time></trkpt><trkpt lat="43.50526976723156" lon="3.310429790928686"><ele>117.0</ele><time>2026-04-06T10:06:15Z</time></trkpt><trkpt lat="43.50519946177766" lon="3.310366393746502"><ele>117.0</ele><time>2026-04-06T10:06:17Z</time></trkpt><trkpt lat="43.50514284420909" lon="3.310319408678966"><ele>118.0</ele><time>2026-04-06T10:06:19Z</time></trkpt><trkpt lat="43.505085196851255" lon="3.3102724464865965"><ele>119.0</ele><time>2026-04-06T10:06:22Z</time></trkpt><trkpt lat="43.50501136281435" lon="3.3101969138857834"><ele>120.0</ele><time>2026-04-06T10:06:28Z</time></trkpt><trkpt lat="43.50507877867137" lon="3.310143916715118"><ele>121.0</ele><time>2026-04-06T10:06:29Z</time></trkpt><trkpt lat="43.50514560184345" lon="3.3100134781990036"><ele>122.0</ele><time>2026-04-06T10:06:31Z</time></trkpt><trkpt lat="43.50518162503821" lon="3.3099383502260387"><ele>123.0</ele><time>2026-04-06T10:06:32Z</time></trkpt><trkpt lat="43.5052469776159" lon="3.3098054805910953"><ele>124.0</ele><time>2026-04-06T10:06:34Z</time></trkpt><trkpt lat="43.50527055422065" lon="3.3096444667596625"><ele>125.0</ele><time>2026-04-06T10:06:36Z</time></trkpt><trkpt lat="43.505294925577715" lon="3.3094878144306477"><ele>126.0</ele><time>2026-04-06T10:06:38Z</time></trkpt><trkpt lat="43.50531960294986" lon="3.309332160776153"><ele>127.0</ele><time>2026-04-06T10:06:40Z</time></trkpt><trkpt lat="43.505344417528015" lon="3.3091799429909075"><ele>127.0</ele><time>2026-04-06T10:06:42Z</time></trkpt><trkpt lat="43.50536958599677" lon="3.3090399801136705"><ele>126.99999999999999</ele><time>2026-04-06T10:06:44Z</time></trkpt><trkpt lat="43.50539651515765" lon="3.3089197075556744"><ele>126.99999999999999</ele><time>2026-04-06T10:06:46Z</time></trkpt><trkpt lat="43.505434170051984" lon="3.3087812203971145"><ele>127.0</ele><time>2026-04-06T10:06:48Z</time></trkpt><trkpt lat="43.50547747593586" lon="3.308658397482532"><ele>127.0</ele><time>2026-04-06T10:06:50Z</time></trkpt><trkpt lat="43.50552001647244" lon="3.3085294527896174"><ele>127.39999999999999</ele><time>2026-04-06T10:06:52Z</time></trkpt><trkpt lat="43.505584278903044" lon="3.30842791702282"><ele>127.79999999999998</ele><time>2026-04-06T10:06:54Z</time></trkpt><trkpt lat="43.50565214087071" lon="3.3083252625872794"><ele>128.2</ele><time>2026-04-06T10:06:56Z</time></trkpt><trkpt lat="43.50572496072041" lon="3.308235425578016"><ele>128.6</ele><time>2026-04-06T10:06:58Z</time></trkpt><trkpt lat="43.50578881293166" lon="3.3081356125538894"><ele>129.0</ele><time>2026-04-06T10:07:00Z</time></trkpt><trkpt lat="43.50586432901627" lon="3.308059028922784"><ele>130.0</ele><time>2026-04-06T10:07:02Z</time></trkpt><trkpt lat="43.50593270296004" lon="3.3079584434150577"><ele>131.0</ele><time>2026-04-06T10:07:04Z</time></trkpt><trkpt lat="43.50599846584225" lon="3.3078610520272362"><ele>132.0</ele><time>2026-04-06T10:07:06Z</time></trkpt><trkpt lat="43.505969660666516" lon="3.307629703334361"><ele>133.0</ele><time>2026-04-06T10:07:08Z</time></trkpt><trkpt lat="43.505905753658695" lon="3.307513463874984"><ele>133.0</ele><time>2026-04-06T10:07:10Z</time></trkpt><trkpt lat="43.50583524386175" lon="3.307388020066626"><ele>133.0</ele><time>2026-04-06T10:07:12Z</time></trkpt><trkpt lat="43.50575562170509" lon="3.3072703387534794"><ele>133.0</ele><time>2026-04-06T10:07:14Z</time></trkpt><trkpt lat="43.505675742628455" lon="3.3071601480208934"><ele>133.0</ele><time>2026-04-06T10:07:16Z</time></trkpt><trkpt lat="43.50561841490223" lon="3.3071190251178226"><ele>133.0</ele><time>2026-04-06T10:07:17Z</time></trkpt><trkpt lat="43.50552824541519" lon="3.307031787458437"><ele>133.0</ele><time>2026-04-06T10:07:19Z</time></trkpt><trkpt lat="43.50543452956544" lon="3.306941458506549"><ele>133.0</ele><time>2026-04-06T10:07:21Z</time></trkpt><trkpt lat="43.505383916583185" lon="3.3068897270243536"><ele>133.0</ele><time>2026-04-06T10:07:22Z</time></trkpt><trkpt lat="43.50528721866583" lon="3.3067931965534956"><ele>133.0</ele><time>2026-04-06T10:07:24Z</time></trkpt><trkpt lat="43.50518795980688" lon="3.3066948425879215"><ele>133.0</ele><time>2026-04-06T10:07:26Z</time></trkpt><trkpt lat="43.50508730829192" lon="3.306595108656576"><ele>133.0</ele><time>2026-04-06T10:07:28Z</time></trkpt><trkpt lat="43.504985604387585" lon="3.3064935143633587"><ele>133.0</ele><time>2026-04-06T10:07:30Z</time></trkpt><trkpt lat="43.50493361273135" lon="3.3064412546056046"><ele>133.0</ele><time>2026-04-06T10:07:31Z</time></trkpt><trkpt lat="43.50487994495169" lon="3.306387310111505"><ele>133.0</ele><time>2026-04-06T10:07:32Z</time></trkpt><trkpt lat="43.50482588711166" lon="3.3063329735039915"><ele>133.0</ele><time>2026-04-06T10:07:33Z</time></trkpt><trkpt lat="43.50477162826928" lon="3.3062784348851615"><ele>133.0</ele><time>2026-04-06T10:07:34Z</time></trkpt><trkpt lat="43.50471764601139" lon="3.306224598568162"><ele>133.0</ele><time>2026-04-06T10:07:35Z</time></trkpt><trkpt lat="43.504660312487246" lon="3.306167677683103"><ele>133.0</ele><time>2026-04-06T10:07:36Z</time></trkpt><trkpt lat="43.50460626508145" lon="3.3061140192028144"><ele>133.0</ele><time>2026-04-06T10:07:37Z</time></trkpt><trkpt lat="43.5045418255416" lon="3.306076540681755"><ele>133.0</ele><time>2026-04-06T10:07:38Z</time></trkpt><trkpt lat="43.504490883228776" lon="3.306014970231209"><ele>133.0</ele><time>2026-04-06T10:07:39Z</time></trkpt><trkpt lat="43.504406965898966" lon="3.305894296129848"><ele>133.0</ele><time>2026-04-06T10:07:41Z</time></trkpt><trkpt lat="43.504390113447165" lon="3.305800377863142"><ele>133.0</ele><time>2026-04-06T10:07:42Z</time></trkpt><trkpt lat="43.504276786470285" lon="3.3057016382123203"><ele>133.0</ele><time>2026-04-06T10:07:44Z</time></trkpt><trkpt lat="43.504207509156394" lon="3.305672434360245"><ele>133.0</ele><time>2026-04-06T10:07:45Z</time></trkpt><trkpt lat="43.50414142377755" lon="3.3056480961071433"><ele>133.0</ele><time>2026-04-06T10:07:46Z</time></trkpt><trkpt lat="43.50407763310883" lon="3.305604385867825"><ele>133.0</ele><time>2026-04-06T10:07:47Z</time></trkpt><trkpt lat="43.504015160118335" lon="3.3055470225283416"><ele>133.0</ele><time>2026-04-06T10:07:48Z</time></trkpt><trkpt lat="43.503953506751536" lon="3.3054798823435636"><ele>132.33333333333334</ele><time>2026-04-06T10:07:49Z</time></trkpt><trkpt lat="43.5038865559681" lon="3.3054192959346507"><ele>131.66666666666669</ele><time>2026-04-06T10:07:50Z</time></trkpt><trkpt lat="43.50382676117362" lon="3.305349087870246"><ele>131.0</ele><time>2026-04-06T10:07:51Z</time></trkpt><trkpt lat="43.503758830596034" lon="3.3052840656627938"><ele>130.33333333333334</ele><time>2026-04-06T10:07:52Z</time></trkpt><trkpt lat="43.50370221452892" lon="3.3052181803593235"><ele>129.66666666666666</ele><time>2026-04-06T10:07:53Z</time></trkpt><trkpt lat="43.50363688400704" lon="3.3051515737504022"><ele>129.0</ele><time>2026-04-06T10:07:54Z</time></trkpt><trkpt lat="43.50356945328639" lon="3.305080882236253"><ele>129.0</ele><time>2026-04-06T10:07:55Z</time></trkpt><trkpt lat="43.503507266653635" lon="3.3050109134367833"><ele>129.0</ele><time>2026-04-06T10:07:56Z</time></trkpt><trkpt lat="43.50343561213889" lon="3.304942958466172"><ele>129.0</ele><time>2026-04-06T10:07:57Z</time></trkpt><trkpt lat="43.50336512166203" lon="3.304870954455153"><ele>129.0</ele><time>2026-04-06T10:07:58Z</time></trkpt><trkpt lat="43.5032967253868" lon="3.304801208319783"><ele>129.0</ele><time>2026-04-06T10:07:59Z</time></trkpt><trkpt lat="43.50322624710949" lon="3.3047374646441776"><ele>129.0</ele><time>2026-04-06T10:08:00Z</time></trkpt><trkpt lat="43.50315410648955" lon="3.304668949364143"><ele>128.0</ele><time>2026-04-06T10:08:01Z</time></trkpt><trkpt lat="43.503080415701874" lon="3.3046037831295507"><ele>127.0</ele><time>2026-04-06T10:08:02Z</time></trkpt><trkpt lat="43.50300825344434" lon="3.304532050749527"><ele>126.0</ele><time>2026-04-06T10:08:03Z</time></trkpt><trkpt lat="43.502929998975176" lon="3.304460618412454"><ele>125.0</ele><time>2026-04-06T10:08:04Z</time></trkpt><trkpt lat="43.502850255054376" lon="3.3043897396802975"><ele>124.0</ele><time>2026-04-06T10:08:05Z</time></trkpt><trkpt lat="43.50276989770973" lon="3.3043228464066847"><ele>124.0</ele><time>2026-04-06T10:08:06Z</time></trkpt><trkpt lat="43.502685103562015" lon="3.3042508390399425"><ele>124.0</ele><time>2026-04-06T10:08:07Z</time></trkpt><trkpt lat="43.502600423582294" lon="3.3041841586003695"><ele>124.0</ele><time>2026-04-06T10:08:08Z</time></trkpt><trkpt lat="43.50251897245745" lon="3.304109821501348"><ele>124.0</ele><time>2026-04-06T10:08:09Z</time></trkpt><trkpt lat="43.50243446474473" lon="3.3040406023201343"><ele>124.0</ele><time>2026-04-06T10:08:10Z</time></trkpt><trkpt lat="43.50234897130854" lon="3.3039633020458052"><ele>123.0</ele><time>2026-04-06T10:08:11Z</time></trkpt><trkpt lat="43.50226008800104" lon="3.3038942711976804"><ele>122.0</ele><time>2026-04-06T10:08:12Z</time></trkpt><trkpt lat="43.502176184207364" lon="3.303816432320169"><ele>121.0</ele><time>2026-04-06T10:08:13Z</time></trkpt><trkpt lat="43.502089456587825" lon="3.303741194509074"><ele>120.0</ele><time>2026-04-06T10:08:14Z</time></trkpt><trkpt lat="43.502002977012914" lon="3.30366505840652"><ele>119.0</ele><time>2026-04-06T10:08:15Z</time></trkpt><trkpt lat="43.50191652573875" lon="3.3035933715858956"><ele>118.80000000000001</ele><time>2026-04-06T10:08:16Z</time></trkpt><trkpt lat="43.501828951340165" lon="3.3035183887429325"><ele>118.60000000000001</ele><time>2026-04-06T10:08:17Z</time></trkpt><trkpt lat="43.50174138024494" lon="3.3034452923605686"><ele>118.4</ele><time>2026-04-06T10:08:18Z</time></trkpt><trkpt lat="43.501654476709284" lon="3.303368247397224"><ele>118.2</ele><time>2026-04-06T10:08:19Z</time></trkpt><trkpt lat="43.50156811995331" lon="3.303298551347271"><ele>118.0</ele><time>2026-04-06T10:08:20Z</time></trkpt><trkpt lat="43.50148093573916" lon="3.303227697738864"><ele>118.0</ele><time>2026-04-06T10:08:21Z</time></trkpt><trkpt lat="43.501397777923955" lon="3.3031554662175484"><ele>118.00000000000001</ele><time>2026-04-06T10:08:21.999Z</time></trkpt><trkpt lat="43.50131352164259" lon="3.303082972916334"><ele>118.00000000000001</ele><time>2026-04-06T10:08:22.999Z</time></trkpt><trkpt lat="43.501229553850656" lon="3.303010661562026"><ele>118.0</ele><time>2026-04-06T10:08:23.999Z</time></trkpt><trkpt lat="43.50114417677466" lon="3.3029383244139523"><ele>118.0</ele><time>2026-04-06T10:08:24.999Z</time></trkpt><trkpt lat="43.50106222202725" lon="3.302869054884484"><ele>118.4</ele><time>2026-04-06T10:08:25.999Z</time></trkpt><trkpt lat="43.500978165041516" lon="3.302793227555758"><ele>118.80000000000001</ele><time>2026-04-06T10:08:26.999Z</time></trkpt><trkpt lat="43.50089417611058" lon="3.3027202054763225"><ele>119.2</ele><time>2026-04-06T10:08:27.999Z</time></trkpt><trkpt lat="43.500809524962" lon="3.302648117129805"><ele>119.6</ele><time>2026-04-06T10:08:28.999Z</time></trkpt><trkpt lat="43.500725265784546" lon="3.302577334615148"><ele>120.0</ele><time>2026-04-06T10:08:29.999Z</time></trkpt><trkpt lat="43.500642125601566" lon="3.302505560275577"><ele>120.0</ele><time>2026-04-06T10:08:30.999Z</time></trkpt><trkpt lat="43.500558808981545" lon="3.30243224616849"><ele>120.0</ele><time>2026-04-06T10:08:31.999Z</time></trkpt><trkpt lat="43.500471074295746" lon="3.3023619789147975"><ele>120.0</ele><time>2026-04-06T10:08:32.999Z</time></trkpt><trkpt lat="43.50038885340104" lon="3.3022904622714733"><ele>120.0</ele><time>2026-04-06T10:08:33.999Z</time></trkpt><trkpt lat="43.500303272650136" lon="3.3022214827560386"><ele>120.0</ele><time>2026-04-06T10:08:34.999Z</time></trkpt><trkpt lat="43.500216031283536" lon="3.3021495309859077"><ele>119.0</ele><time>2026-04-06T10:08:35.999Z</time></trkpt><trkpt lat="43.500135481640235" lon="3.3020699761043337"><ele>118.0</ele><time>2026-04-06T10:08:36.999Z</time></trkpt><trkpt lat="43.500050011585614" lon="3.302003077385256"><ele>117.0</ele><time>2026-04-06T10:08:37.999Z</time></trkpt><trkpt lat="43.49996562516875" lon="3.3019325568531737"><ele>116.0</ele><time>2026-04-06T10:08:38.999Z</time></trkpt><trkpt lat="43.49988044464033" lon="3.3018584803435482"><ele>115.0</ele><time>2026-04-06T10:08:39.999Z</time></trkpt><trkpt lat="43.49979467389679" lon="3.3017903687726364"><ele>115.0</ele><time>2026-04-06T10:08:40.999Z</time></trkpt><trkpt lat="43.49971078108689" lon="3.30171500871822"><ele>115.0</ele><time>2026-04-06T10:08:41.999Z</time></trkpt><trkpt lat="43.49962943076068" lon="3.301637715774356"><ele>115.0</ele><time>2026-04-06T10:08:42.999Z</time></trkpt><trkpt lat="43.49954546973744" lon="3.3015597349631185"><ele>115.0</ele><time>2026-04-06T10:08:44Z</time></trkpt><trkpt lat="43.49946297756917" lon="3.30149008324213"><ele>115.0</ele><time>2026-04-06T10:08:45Z</time></trkpt><trkpt lat="43.49937622924312" lon="3.3014170516056436"><ele>114.6</ele><time>2026-04-06T10:08:46Z</time></trkpt><trkpt lat="43.4992917708138" lon="3.3013530945368563"><ele>114.2</ele><time>2026-04-06T10:08:47Z</time></trkpt><trkpt lat="43.49920652154554" lon="3.301273587605391"><ele>113.80000000000001</ele><time>2026-04-06T10:08:48Z</time></trkpt><trkpt lat="43.49912590122812" lon="3.3012077025013538"><ele>113.4</ele><time>2026-04-06T10:08:49Z</time></trkpt><trkpt lat="43.49904213377087" lon="3.3011346346821995"><ele>113.0</ele><time>2026-04-06T10:08:50Z</time></trkpt><trkpt lat="43.498959045813834" lon="3.301070282545549"><ele>113.0</ele><time>2026-04-06T10:08:51Z</time></trkpt><trkpt lat="43.498875956743646" lon="3.3010025072715234"><ele>113.00000000000001</ele><time>2026-04-06T10:08:52Z</time></trkpt><trkpt lat="43.49879701217762" lon="3.3009324836788534"><ele>113.00000000000001</ele><time>2026-04-06T10:08:53Z</time></trkpt><trkpt lat="43.498721101527494" lon="3.3008660915151196"><ele>113.0</ele><time>2026-04-06T10:08:54Z</time></trkpt><trkpt lat="43.49864217967236" lon="3.3007993447424138"><ele>113.0</ele><time>2026-04-06T10:08:55Z</time></trkpt><trkpt lat="43.498566376896605" lon="3.3007317974251764"><ele>113.16666666666666</ele><time>2026-04-06T10:08:56Z</time></trkpt><trkpt lat="43.498488944015264" lon="3.300665256350976"><ele>113.33333333333333</ele><time>2026-04-06T10:08:57Z</time></trkpt><trkpt lat="43.498410953005795" lon="3.3005991499468057"><ele>113.5</ele><time>2026-04-06T10:08:58Z</time></trkpt><trkpt lat="43.498333994121595" lon="3.3005358757529035"><ele>113.66666666666666</ele><time>2026-04-06T10:08:59Z</time></trkpt><trkpt lat="43.498260690464065" lon="3.300468213065834"><ele>113.83333333333333</ele><time>2026-04-06T10:09:00Z</time></trkpt><trkpt lat="43.4981844820343" lon="3.3004065615038356"><ele>114.0</ele><time>2026-04-06T10:09:01Z</time></trkpt><trkpt lat="43.49810933527619" lon="3.30034151121797"><ele>113.16666666666667</ele><time>2026-04-06T10:09:02Z</time></trkpt><trkpt lat="43.49803782468888" lon="3.3002779874419295"><ele>112.33333333333334</ele><time>2026-04-06T10:09:03Z</time></trkpt><trkpt lat="43.49796729828047" lon="3.3002128136578035"><ele>111.5</ele><time>2026-04-06T10:09:04Z</time></trkpt><trkpt lat="43.497895948829196" lon="3.3001500613625243"><ele>110.66666666666667</ele><time>2026-04-06T10:09:05Z</time></trkpt><trkpt lat="43.4978235945106" lon="3.300084561211122"><ele>109.83333333333334</ele><time>2026-04-06T10:09:06Z</time></trkpt><trkpt lat="43.49775404092903" lon="3.300020785502525"><ele>109.0</ele><time>2026-04-06T10:09:07Z</time></trkpt><trkpt lat="43.49768611146841" lon="3.2999589687854862"><ele>109.00000000000001</ele><time>2026-04-06T10:09:08Z</time></trkpt><trkpt lat="43.49761787247546" lon="3.2998931665284945"><ele>109.0</ele><time>2026-04-06T10:09:09Z</time></trkpt><trkpt lat="43.497550956245625" lon="3.299830402747565"><ele>109.0</ele><time>2026-04-06T10:09:10Z</time></trkpt><trkpt lat="43.497486064908706" lon="3.2997645316216664"><ele>109.0</ele><time>2026-04-06T10:09:11Z</time></trkpt><trkpt lat="43.49741887642534" lon="3.2997036236865425"><ele>109.00000000000001</ele><time>2026-04-06T10:09:12Z</time></trkpt><trkpt lat="43.49735036158319" lon="3.2996396781614505"><ele>109.0</ele><time>2026-04-06T10:09:13Z</time></trkpt><trkpt lat="43.49728507529992" lon="3.2995807067861036"><ele>108.85714285714286</ele><time>2026-04-06T10:09:14Z</time></trkpt><trkpt lat="43.49721900401302" lon="3.2995233124939514"><ele>108.71428571428572</ele><time>2026-04-06T10:09:15Z</time></trkpt><trkpt lat="43.49715677055723" lon="3.2994660658039927"><ele>108.57142857142857</ele><time>2026-04-06T10:09:16Z</time></trkpt><trkpt lat="43.49709573330481" lon="3.299406097989112"><ele>108.42857142857143</ele><time>2026-04-06T10:09:17Z</time></trkpt><trkpt lat="43.497035229880915" lon="3.2993442660582777"><ele>108.28571428571428</ele><time>2026-04-06T10:09:18Z</time></trkpt><trkpt lat="43.496978498124406" lon="3.2992844238839716"><ele>108.14285714285714</ele><time>2026-04-06T10:09:19Z</time></trkpt><trkpt lat="43.49691918675422" lon="3.2992287197222523"><ele>108.0</ele><time>2026-04-06T10:09:20Z</time></trkpt><trkpt lat="43.496862191111695" lon="3.2991785884967255"><ele>108.5</ele><time>2026-04-06T10:09:21Z</time></trkpt><trkpt lat="43.49680702440374" lon="3.2991275940670928"><ele>109.0</ele><time>2026-04-06T10:09:22Z</time></trkpt><trkpt lat="43.49675218412021" lon="3.2990729562343466"><ele>109.5</ele><time>2026-04-06T10:09:23Z</time></trkpt><trkpt lat="43.496697925386904" lon="3.299025156205442"><ele>110.0</ele><time>2026-04-06T10:09:24Z</time></trkpt><trkpt lat="43.496644468354404" lon="3.298976910293285"><ele>110.5</ele><time>2026-04-06T10:09:25Z</time></trkpt><trkpt lat="43.49654723330208" lon="3.2988819566630636"><ele>111.0</ele><time>2026-04-06T10:09:27Z</time></trkpt><trkpt lat="43.49644559001786" lon="3.298786818926223"><ele>111.25</ele><time>2026-04-06T10:09:29Z</time></trkpt><trkpt lat="43.49635103796415" lon="3.2986971466472017"><ele>111.5</ele><time>2026-04-06T10:09:31Z</time></trkpt><trkpt lat="43.496261817291014" lon="3.298610180425079"><ele>111.75</ele><time>2026-04-06T10:09:33Z</time></trkpt><trkpt lat="43.496158947479735" lon="3.2985201986091814"><ele>112.0</ele><time>2026-04-06T10:09:35Z</time></trkpt><trkpt lat="43.496061953857655" lon="3.2984320483981784"><ele>112.75</ele><time>2026-04-06T10:09:37Z</time></trkpt><trkpt lat="43.495965382263485" lon="3.298339068165474"><ele>113.5</ele><time>2026-04-06T10:09:39Z</time></trkpt><trkpt lat="43.49586118729243" lon="3.2982410213236695"><ele>114.25</ele><time>2026-04-06T10:09:41Z</time></trkpt><trkpt lat="43.49575807262101" lon="3.298144957439914"><ele>115.0</ele><time>2026-04-06T10:09:43Z</time></trkpt><trkpt lat="43.495659632735084" lon="3.2980464843335446"><ele>115.00000000000001</ele><time>2026-04-06T10:09:45Z</time></trkpt><trkpt lat="43.49560836691138" lon="3.2979948898336984"><ele>115.0</ele><time>2026-04-06T10:09:46Z</time></trkpt><trkpt lat="43.49555526892741" lon="3.297944854826901"><ele>115.0</ele><time>2026-04-06T10:09:47Z</time></trkpt><trkpt lat="43.49545075370179" lon="3.2978485863697538"><ele>115.0</ele><time>2026-04-06T10:09:49Z</time></trkpt><trkpt lat="43.495397891493816" lon="3.2977963816643148"><ele>115.00000000000001</ele><time>2026-04-06T10:09:50Z</time></trkpt><trkpt lat="43.495298419677134" lon="3.297700031878802"><ele>115.0</ele><time>2026-04-06T10:09:52Z</time></trkpt><trkpt lat="43.495243528897085" lon="3.2976501465581163"><ele>115.25</ele><time>2026-04-06T10:09:53Z</time></trkpt><trkpt lat="43.495139495403286" lon="3.2975535016262727"><ele>115.5</ele><time>2026-04-06T10:09:55Z</time></trkpt><trkpt lat="43.49503656150592" lon="3.2974546182979165"><ele>115.75</ele><time>2026-04-06T10:09:57Z</time></trkpt><trkpt lat="43.49493360081888" lon="3.2973632801367816"><ele>116.0</ele><time>2026-04-06T10:09:59Z</time></trkpt><trkpt lat="43.49483932133642" lon="3.2972714962098344"><ele>116.0</ele><time>2026-04-06T10:10:01Z</time></trkpt><trkpt lat="43.49474477789344" lon="3.297179768075005"><ele>116.0</ele><time>2026-04-06T10:10:03Z</time></trkpt><trkpt lat="43.494647453435206" lon="3.2970901379056174"><ele>116.0</ele><time>2026-04-06T10:10:05Z</time></trkpt><trkpt lat="43.49454553597777" lon="3.2969959034943317"><ele>116.0</ele><time>2026-04-06T10:10:07Z</time></trkpt><trkpt lat="43.49444448146121" lon="3.2968989638154427"><ele>115.5</ele><time>2026-04-06T10:10:09Z</time></trkpt><trkpt lat="43.49434236381459" lon="3.2968058981543664"><ele>115.0</ele><time>2026-04-06T10:10:11Z</time></trkpt><trkpt lat="43.49423944620242" lon="3.2967092675328558"><ele>114.5</ele><time>2026-04-06T10:10:13Z</time></trkpt><trkpt lat="43.49413681535631" lon="3.2966134360159423"><ele>114.0</ele><time>2026-04-06T10:10:15Z</time></trkpt><trkpt lat="43.49403540191644" lon="3.29651343617432"><ele>114.0</ele><time>2026-04-06T10:10:17Z</time></trkpt><trkpt lat="43.49393467334031" lon="3.29641633250933"><ele>114.0</ele><time>2026-04-06T10:10:19Z</time></trkpt><trkpt lat="43.49383342080722" lon="3.296322117677989"><ele>114.0</ele><time>2026-04-06T10:10:21Z</time></trkpt><trkpt lat="43.49372998878562" lon="3.296227893156651"><ele>114.0</ele><time>2026-04-06T10:10:23Z</time></trkpt><trkpt lat="43.493678060824784" lon="3.296176874788684"><ele>114.0</ele><time>2026-04-06T10:10:24Z</time></trkpt><trkpt lat="43.49362600915826" lon="3.296126034853349"><ele>114.0</ele><time>2026-04-06T10:10:25Z</time></trkpt><trkpt lat="43.49357304464766" lon="3.2960746078771828"><ele>113.99999999999999</ele><time>2026-04-06T10:10:26Z</time></trkpt><trkpt lat="43.49351969128911" lon="3.2960234664758414"><ele>114.0</ele><time>2026-04-06T10:10:27Z</time></trkpt><trkpt lat="43.49346535020406" lon="3.2959730262132925"><ele>114.0</ele><time>2026-04-06T10:10:27.999Z</time></trkpt><trkpt lat="43.493410833033764" lon="3.2959217909263074"><ele>113.99999999999999</ele><time>2026-04-06T10:10:28.999Z</time></trkpt><trkpt lat="43.49335629307095" lon="3.295871684586121"><ele>114.0</ele><time>2026-04-06T10:10:29.999Z</time></trkpt><trkpt lat="43.49330350769982" lon="3.295820149207473"><ele>114.0</ele><time>2026-04-06T10:10:30.999Z</time></trkpt><trkpt lat="43.49325118144026" lon="3.2957695232609465"><ele>114.0</ele><time>2026-04-06T10:10:31.999Z</time></trkpt><trkpt lat="43.493195654827986" lon="3.2957189149684147"><ele>113.99999999999999</ele><time>2026-04-06T10:10:32.999Z</time></trkpt><trkpt lat="43.49314081466869" lon="3.2956678307137817"><ele>114.0</ele><time>2026-04-06T10:10:33.999Z</time></trkpt><trkpt lat="43.49308510305749" lon="3.2956153234162606"><ele>114.0</ele><time>2026-04-06T10:10:34.999Z</time></trkpt><trkpt lat="43.49302891084215" lon="3.2955646958223976"><ele>113.99999999999999</ele><time>2026-04-06T10:10:35.999Z</time></trkpt><trkpt lat="43.492972217661794" lon="3.2955131695761666"><ele>114.0</ele><time>2026-04-06T10:10:36.999Z</time></trkpt><trkpt lat="43.49291540668693" lon="3.295457813268435"><ele>114.0</ele><time>2026-04-06T10:10:37.999Z</time></trkpt><trkpt lat="43.49285899680701" lon="3.2953986592154907"><ele>113.66666666666667</ele><time>2026-04-06T10:10:38.999Z</time></trkpt><trkpt lat="43.49279732577155" lon="3.2953411193551974"><ele>113.33333333333334</ele><time>2026-04-06T10:10:39.999Z</time></trkpt><trkpt lat="43.49273620849361" lon="3.2952841480939448"><ele>113.0</ele><time>2026-04-06T10:10:40.999Z</time></trkpt><trkpt lat="43.49267450697233" lon="3.2952260230085697"><ele>112.66666666666667</ele><time>2026-04-06T10:10:41.999Z</time></trkpt><trkpt lat="43.49261263534708" lon="3.2951667167602974"><ele>112.33333333333334</ele><time>2026-04-06T10:10:42.999Z</time></trkpt><trkpt lat="43.49254841235522" lon="3.2951072971930153"><ele>112.0</ele><time>2026-04-06T10:10:43.999Z</time></trkpt><trkpt lat="43.4924838138959" lon="3.2950485308792006"><ele>112.00000000000001</ele><time>2026-04-06T10:10:44.999Z</time></trkpt><trkpt lat="43.49241626269419" lon="3.2949915455686627"><ele>112.0</ele><time>2026-04-06T10:10:45.999Z</time></trkpt><trkpt lat="43.492349524265336" lon="3.2949319264250287"><ele>112.0</ele><time>2026-04-06T10:10:46.999Z</time></trkpt><trkpt lat="43.492281743667135" lon="3.294865915725226"><ele>112.0</ele><time>2026-04-06T10:10:47.999Z</time></trkpt><trkpt lat="43.49221240463306" lon="3.294800445922708"><ele>112.00000000000001</ele><time>2026-04-06T10:10:48.999Z</time></trkpt><trkpt lat="43.49214094617907" lon="3.2947376436915077"><ele>112.0</ele><time>2026-04-06T10:10:49.999Z</time></trkpt><trkpt lat="43.49206908267181" lon="3.294672772972687"><ele>110.83333333333334</ele><time>2026-04-06T10:10:50.999Z</time></trkpt><trkpt lat="43.49199898668182" lon="3.294603547190966"><ele>109.66666666666667</ele><time>2026-04-06T10:10:51.999Z</time></trkpt><trkpt lat="43.49192896718998" lon="3.2945331324589966"><ele>108.5</ele><time>2026-04-06T10:10:53Z</time></trkpt><trkpt lat="43.49185669370831" lon="3.2944656214959043"><ele>107.33333333333334</ele><time>2026-04-06T10:10:54Z</time></trkpt><trkpt lat="43.49178464420427" lon="3.294396549686998"><ele>106.16666666666667</ele><time>2026-04-06T10:10:55Z</time></trkpt><trkpt lat="43.49171414965339" lon="3.2943249564983486"><ele>105.0</ele><time>2026-04-06T10:10:56Z</time></trkpt><trkpt lat="43.4916409018624" lon="3.294258055863085"><ele>105.0</ele><time>2026-04-06T10:10:57Z</time></trkpt><trkpt lat="43.491568703845836" lon="3.294192408257815"><ele>105.0</ele><time>2026-04-06T10:10:58Z</time></trkpt><trkpt lat="43.49149891286363" lon="3.294122439855129"><ele>105.0</ele><time>2026-04-06T10:10:59Z</time></trkpt><trkpt lat="43.491429437674014" lon="3.2940526555453444"><ele>105.0</ele><time>2026-04-06T10:11:00Z</time></trkpt><trkpt lat="43.49135852488324" lon="3.2939834307472173"><ele>105.0</ele><time>2026-04-06T10:11:01Z</time></trkpt><trkpt lat="43.49128737800383" lon="3.2939168974782085"><ele>105.0</ele><time>2026-04-06T10:11:02Z</time></trkpt><trkpt lat="43.491218061903446" lon="3.2938486339505344"><ele>105.16666666666667</ele><time>2026-04-06T10:11:03Z</time></trkpt><trkpt lat="43.49114911934517" lon="3.29377923677947"><ele>105.33333333333334</ele><time>2026-04-06T10:11:04Z</time></trkpt><trkpt lat="43.49107766381352" lon="3.2937129499766775"><ele>105.5</ele><time>2026-04-06T10:11:05Z</time></trkpt><trkpt lat="43.491006745428145" lon="3.2936482822095234"><ele>105.66666666666667</ele><time>2026-04-06T10:11:06Z</time></trkpt><trkpt lat="43.490938320744796" lon="3.293583876389863"><ele>105.83333333333334</ele><time>2026-04-06T10:11:07Z</time></trkpt><trkpt lat="43.49086852104204" lon="3.2935181005722804"><ele>106.0</ele><time>2026-04-06T10:11:08Z</time></trkpt><trkpt lat="43.49079964497044" lon="3.2934538438364056"><ele>106.00000000000001</ele><time>2026-04-06T10:11:09Z</time></trkpt><trkpt lat="43.490733023191886" lon="3.293390700073399"><ele>106.0</ele><time>2026-04-06T10:11:10Z</time></trkpt><trkpt lat="43.4906668873576" lon="3.2933317625316527"><ele>106.0</ele><time>2026-04-06T10:11:11Z</time></trkpt><trkpt lat="43.490603304726754" lon="3.29327555327131"><ele>106.0</ele><time>2026-04-06T10:11:12Z</time></trkpt><trkpt lat="43.49053920087231" lon="3.2932230069412554"><ele>106.00000000000001</ele><time>2026-04-06T10:11:13Z</time></trkpt><trkpt lat="43.49047401146442" lon="3.293169250214382"><ele>106.0</ele><time>2026-04-06T10:11:14Z</time></trkpt><trkpt lat="43.49040981438508" lon="3.2931234898631154"><ele>105.42857142857143</ele><time>2026-04-06T10:11:15Z</time></trkpt><trkpt lat="43.49034590005943" lon="3.29308211602224"><ele>104.85714285714285</ele><time>2026-04-06T10:11:16Z</time></trkpt><trkpt lat="43.49028004447447" lon="3.2930451504393137"><ele>104.28571428571428</ele><time>2026-04-06T10:11:17Z</time></trkpt><trkpt lat="43.49021533008511" lon="3.2930157294398277"><ele>103.71428571428572</ele><time>2026-04-06T10:11:18Z</time></trkpt><trkpt lat="43.4901501019165" lon="3.2929924551615892"><ele>103.14285714285714</ele><time>2026-04-06T10:11:19Z</time></trkpt><trkpt lat="43.490087453581225" lon="3.292968203502751"><ele>102.57142857142857</ele><time>2026-04-06T10:11:20Z</time></trkpt><trkpt lat="43.49002505996182" lon="3.2929539710331954"><ele>102.0</ele><time>2026-04-06T10:11:21Z</time></trkpt><trkpt lat="43.48996148415117" lon="3.292936868700375"><ele>102.0</ele><time>2026-04-06T10:11:22Z</time></trkpt><trkpt lat="43.489896990861546" lon="3.2929235488400304"><ele>102.0</ele><time>2026-04-06T10:11:23Z</time></trkpt><trkpt lat="43.48983250359147" lon="3.2929090988084218"><ele>102.0</ele><time>2026-04-06T10:11:24Z</time></trkpt><trkpt lat="43.4897676546973" lon="3.292894179715425"><ele>102.0</ele><time>2026-04-06T10:11:25Z</time></trkpt><trkpt lat="43.48970395850611" lon="3.2928805163552783"><ele>102.0</ele><time>2026-04-06T10:11:26Z</time></trkpt><trkpt lat="43.48963757458298" lon="3.2928645742857334"><ele>102.0</ele><time>2026-04-06T10:11:27Z</time></trkpt><trkpt lat="43.48957178153476" lon="3.2928518263634907"><ele>102.0</ele><time>2026-04-06T10:11:28Z</time></trkpt><trkpt lat="43.489506033032605" lon="3.2928369971178237"><ele>101.71428571428572</ele><time>2026-04-06T10:11:29Z</time></trkpt><trkpt lat="43.48943922097436" lon="3.292820728226044"><ele>101.42857142857143</ele><time>2026-04-06T10:11:30Z</time></trkpt><trkpt lat="43.48937207342698" lon="3.2928062575882575"><ele>101.14285714285714</ele><time>2026-04-06T10:11:31Z</time></trkpt><trkpt lat="43.489307498602294" lon="3.292793699483465"><ele>100.85714285714286</ele><time>2026-04-06T10:11:32Z</time></trkpt><trkpt lat="43.4892414352581" lon="3.2927793924050395"><ele>100.57142857142857</ele><time>2026-04-06T10:11:33Z</time></trkpt><trkpt lat="43.48917563167791" lon="3.2927640139406016"><ele>100.28571428571429</ele><time>2026-04-06T10:11:34Z</time></trkpt><trkpt lat="43.48910824547934" lon="3.2927511537163396"><ele>100.0</ele><time>2026-04-06T10:11:35Z</time></trkpt><trkpt lat="43.48904312118726" lon="3.292738854404571"><ele>100.00000000000001</ele><time>2026-04-06T10:11:36Z</time></trkpt><trkpt lat="43.48897566542804" lon="3.29272465972443"><ele>100.0</ele><time>2026-04-06T10:11:37Z</time></trkpt><trkpt lat="43.48890914979399" lon="3.292709704137274"><ele>100.0</ele><time>2026-04-06T10:11:38Z</time></trkpt><trkpt lat="43.48884126805208" lon="3.292693674120934"><ele>100.0</ele><time>2026-04-06T10:11:39Z</time></trkpt><trkpt lat="43.48877261792723" lon="3.2926806191589706"><ele>100.0</ele><time>2026-04-06T10:11:40Z</time></trkpt><trkpt lat="43.488702387662144" lon="3.292667973415532"><ele>100.00000000000001</ele><time>2026-04-06T10:11:41Z</time></trkpt><trkpt lat="43.48863144105595" lon="3.2926535268031074"><ele>100.0</ele><time>2026-04-06T10:11:42Z</time></trkpt><trkpt lat="43.4885593998324" lon="3.292636461412802"><ele>100.00000000000001</ele><time>2026-04-06T10:11:43Z</time></trkpt><trkpt lat="43.48848813102026" lon="3.2926219540966195"><ele>100.0</ele><time>2026-04-06T10:11:44Z</time></trkpt><trkpt lat="43.488413013021855" lon="3.2926081157718463"><ele>100.0</ele><time>2026-04-06T10:11:45Z</time></trkpt><trkpt lat="43.488339441707936" lon="3.2925886062606984"><ele>100.0</ele><time>2026-04-06T10:11:46Z</time></trkpt><trkpt lat="43.48826287210798" lon="3.29257291237043"><ele>100.00000000000001</ele><time>2026-04-06T10:11:47Z</time></trkpt><trkpt lat="43.48818696160409" lon="3.292556365428339"><ele>100.0</ele><time>2026-04-06T10:11:48Z</time></trkpt><trkpt lat="43.48811063958776" lon="3.2925418377105893"><ele>100.00000000000001</ele><time>2026-04-06T10:11:49Z</time></trkpt><trkpt lat="43.48803234164801" lon="3.292526208022371"><ele>100.0</ele><time>2026-04-06T10:11:50Z</time></trkpt><trkpt lat="43.487952739973764" lon="3.292512728522776"><ele>100.0</ele><time>2026-04-06T10:11:51Z</time></trkpt><trkpt lat="43.4878738259064" lon="3.292496332714307"><ele>100.0</ele><time>2026-04-06T10:11:52Z</time></trkpt><trkpt lat="43.48779332482214" lon="3.292481719847363"><ele>100.00000000000001</ele><time>2026-04-06T10:11:53Z</time></trkpt><trkpt lat="43.487714209300584" lon="3.2924656487244848"><ele>100.0</ele><time>2026-04-06T10:11:54Z</time></trkpt><trkpt lat="43.48763357116827" lon="3.2924475117449723"><ele>99.50000000000001</ele><time>2026-04-06T10:11:55Z</time></trkpt><trkpt lat="43.48755284439757" lon="3.2924319557472033"><ele>99.0</ele><time>2026-04-06T10:11:56Z</time></trkpt><trkpt lat="43.487470335942945" lon="3.2924167444585044"><ele>98.5</ele><time>2026-04-06T10:11:57Z</time></trkpt><trkpt lat="43.48738638370324" lon="3.2923999924441527"><ele>98.0</ele><time>2026-04-06T10:11:58Z</time></trkpt><trkpt lat="43.487300050605526" lon="3.292381340910134"><ele>97.50000000000001</ele><time>2026-04-06T10:11:59Z</time></trkpt><trkpt lat="43.48721486165387" lon="3.292362584368896"><ele>97.0</ele><time>2026-04-06T10:12:00Z</time></trkpt><trkpt lat="43.48712925475267" lon="3.2923464398987186"><ele>96.66666666666667</ele><time>2026-04-06T10:12:01Z</time></trkpt><trkpt lat="43.48704414642538" lon="3.2923249468259277"><ele>96.33333333333334</ele><time>2026-04-06T10:12:02Z</time></trkpt><trkpt lat="43.48696067642762" lon="3.292306841236825"><ele>96.0</ele><time>2026-04-06T10:12:03Z</time></trkpt><trkpt lat="43.48687627342112" lon="3.292291268366324"><ele>95.66666666666667</ele><time>2026-04-06T10:12:04Z</time></trkpt><trkpt lat="43.48679220663416" lon="3.292272601052375"><ele>95.33333333333334</ele><time>2026-04-06T10:12:05Z</time></trkpt><trkpt lat="43.48671002240832" lon="3.292254895429759"><ele>95.0</ele><time>2026-04-06T10:12:06Z</time></trkpt><trkpt lat="43.48662735508868" lon="3.292239704036519"><ele>95.0</ele><time>2026-04-06T10:12:07Z</time></trkpt><trkpt lat="43.48654568987199" lon="3.292222055923625"><ele>95.0</ele><time>2026-04-06T10:12:08Z</time></trkpt><trkpt lat="43.48646541292799" lon="3.292205028563494"><ele>95.0</ele><time>2026-04-06T10:12:09Z</time></trkpt><trkpt lat="43.48638515367118" lon="3.292193013054545"><ele>95.0</ele><time>2026-04-06T10:12:10Z</time></trkpt><trkpt lat="43.48630631616136" lon="3.2921763069754246"><ele>95.0</ele><time>2026-04-06T10:12:11Z</time></trkpt><trkpt lat="43.48622933782883" lon="3.292160999202134"><ele>95.0</ele><time>2026-04-06T10:12:12Z</time></trkpt><trkpt lat="43.48615106958274" lon="3.2921381328372057"><ele>95.0</ele><time>2026-04-06T10:12:13Z</time></trkpt><trkpt lat="43.486075218834536" lon="3.2921166354111007"><ele>95.0</ele><time>2026-04-06T10:12:14Z</time></trkpt><trkpt lat="43.48599741535332" lon="3.2921020529979104"><ele>95.0</ele><time>2026-04-06T10:12:15Z</time></trkpt><trkpt lat="43.48591958518448" lon="3.2920884493979212"><ele>95.0</ele><time>2026-04-06T10:12:16Z</time></trkpt><trkpt lat="43.485842807563216" lon="3.2920734708298167"><ele>95.0</ele><time>2026-04-06T10:12:17Z</time></trkpt><trkpt lat="43.485765648006165" lon="3.2920568064482754"><ele>95.0</ele><time>2026-04-06T10:12:18Z</time></trkpt><trkpt lat="43.48568896341758" lon="3.2920398723097737"><ele>95.0</ele><time>2026-04-06T10:12:19Z</time></trkpt><trkpt lat="43.485611527650555" lon="3.2920221396356415"><ele>95.0</ele><time>2026-04-06T10:12:20Z</time></trkpt><trkpt lat="43.48553713469901" lon="3.2920088924781234"><ele>95.0</ele><time>2026-04-06T10:12:21Z</time></trkpt><trkpt lat="43.48546278904028" lon="3.2919986085615975"><ele>95.0</ele><time>2026-04-06T10:12:22Z</time></trkpt><trkpt lat="43.4853405835726" lon="3.291978005345904"><ele>95.0</ele><time>2026-04-06T10:12:24Z</time></trkpt><trkpt lat="43.485274744330106" lon="3.291959349105642"><ele>95.0</ele><time>2026-04-06T10:12:25Z</time></trkpt><trkpt lat="43.48520782937088" lon="3.2919398558313255"><ele>95.0</ele><time>2026-04-06T10:12:26Z</time></trkpt><trkpt lat="43.48513868012161" lon="3.2919222908009935"><ele>95.0</ele><time>2026-04-06T10:12:27Z</time></trkpt><trkpt lat="43.48507078434143" lon="3.2919075695541746"><ele>95.0</ele><time>2026-04-06T10:12:28Z</time></trkpt><trkpt lat="43.48500090296088" lon="3.291893658440258"><ele>95.0</ele><time>2026-04-06T10:12:29Z</time></trkpt><trkpt lat="43.48493162877379" lon="3.2918780853458594"><ele>95.0</ele><time>2026-04-06T10:12:30Z</time></trkpt><trkpt lat="43.4848605612016" lon="3.291863058602811"><ele>95.0</ele><time>2026-04-06T10:12:31Z</time></trkpt><trkpt lat="43.484790574247974" lon="3.291848918134451"><ele>95.0</ele><time>2026-04-06T10:12:32Z</time></trkpt><trkpt lat="43.48471850774506" lon="3.2918356455260946"><ele>95.0</ele><time>2026-04-06T10:12:33Z</time></trkpt><trkpt lat="43.48464707909139" lon="3.291823739915009"><ele>95.0</ele><time>2026-04-06T10:12:33.999Z</time></trkpt><trkpt lat="43.4845755597381" lon="3.291804695008454"><ele>95.0</ele><time>2026-04-06T10:12:34.999Z</time></trkpt><trkpt lat="43.48450452414" lon="3.2917916071816156"><ele>95.0</ele><time>2026-04-06T10:12:35.999Z</time></trkpt><trkpt lat="43.48443487408724" lon="3.291777156688365"><ele>95.0</ele><time>2026-04-06T10:12:36.999Z</time></trkpt><trkpt lat="43.48436464822404" lon="3.291763747661339"><ele>95.0</ele><time>2026-04-06T10:12:37.999Z</time></trkpt><trkpt lat="43.48429452953377" lon="3.291749842178184"><ele>95.0</ele><time>2026-04-06T10:12:38.999Z</time></trkpt><trkpt lat="43.484223764218534" lon="3.2917358810142288"><ele>94.5</ele><time>2026-04-06T10:12:39.999Z</time></trkpt><trkpt lat="43.48415411503069" lon="3.291724223364168"><ele>94.0</ele><time>2026-04-06T10:12:40.999Z</time></trkpt><trkpt lat="43.4840856486095" lon="3.2917042067452407"><ele>93.5</ele><time>2026-04-06T10:12:41.999Z</time></trkpt><trkpt lat="43.48401794592511" lon="3.2916907515526477"><ele>93.0</ele><time>2026-04-06T10:12:42.999Z</time></trkpt><trkpt lat="43.48395112210911" lon="3.291679017665108"><ele>92.5</ele><time>2026-04-06T10:12:43.999Z</time></trkpt><trkpt lat="43.48388533331242" lon="3.2916655376675856"><ele>92.0</ele><time>2026-04-06T10:12:44.999Z</time></trkpt><trkpt lat="43.483763546355966" lon="3.291620107607842"><ele>91.8</ele><time>2026-04-06T10:12:46.999Z</time></trkpt><trkpt lat="43.483643219397095" lon="3.2915661771552824"><ele>91.6</ele><time>2026-04-06T10:12:48.999Z</time></trkpt><trkpt lat="43.48352829093853" lon="3.291495541902813"><ele>91.39999999999999</ele><time>2026-04-06T10:12:50.999Z</time></trkpt><trkpt lat="43.48347184287997" lon="3.29145476269106"><ele>91.19999999999999</ele><time>2026-04-06T10:12:51.999Z</time></trkpt><trkpt lat="43.483414112250344" lon="3.2914132824083984"><ele>91.0</ele><time>2026-04-06T10:12:52.999Z</time></trkpt><trkpt lat="43.483353887510376" lon="3.291365909444103"><ele>90.66666666666666</ele><time>2026-04-06T10:12:53.999Z</time></trkpt><trkpt lat="43.483294329544876" lon="3.291312776585558"><ele>90.33333333333333</ele><time>2026-04-06T10:12:54.999Z</time></trkpt><trkpt lat="43.4832296762176" lon="3.2912609022542334"><ele>90.0</ele><time>2026-04-06T10:12:55.999Z</time></trkpt><trkpt lat="43.48316654816218" lon="3.2912059968502057"><ele>89.66666666666667</ele><time>2026-04-06T10:12:56.999Z</time></trkpt><trkpt lat="43.48310509880722" lon="3.2911406791514204"><ele>89.33333333333334</ele><time>2026-04-06T10:12:57.999Z</time></trkpt><trkpt lat="43.483041766416044" lon="3.291074030401477"><ele>89.0</ele><time>2026-04-06T10:12:58.999Z</time></trkpt><trkpt lat="43.48297838286922" lon="3.291000869518852"><ele>88.66666666666667</ele><time>2026-04-06T10:12:59.999Z</time></trkpt><trkpt lat="43.482917448707205" lon="3.2909227907851015"><ele>88.33333333333334</ele><time>2026-04-06T10:13:00.999Z</time></trkpt><trkpt lat="43.482858392367945" lon="3.2908344552674156"><ele>88.0</ele><time>2026-04-06T10:13:01.999Z</time></trkpt><trkpt lat="43.48280465651681" lon="3.29073793539337"><ele>87.66666666666667</ele><time>2026-04-06T10:13:02.999Z</time></trkpt><trkpt lat="43.482753680806574" lon="3.2906354609029185"><ele>87.33333333333333</ele><time>2026-04-06T10:13:03.999Z</time></trkpt><trkpt lat="43.482705258457585" lon="3.290529748728413"><ele>87.0</ele><time>2026-04-06T10:13:04.999Z</time></trkpt><trkpt lat="43.482658598437105" lon="3.2904216617766595"><ele>86.6</ele><time>2026-04-06T10:13:06Z</time></trkpt><trkpt lat="43.4826192113931" lon="3.2903075577623926"><ele>86.19999999999999</ele><time>2026-04-06T10:13:07Z</time></trkpt><trkpt lat="43.48258190999326" lon="3.2901905654961636"><ele>85.8</ele><time>2026-04-06T10:13:08Z</time></trkpt><trkpt lat="43.48254759732322" lon="3.290072375186819"><ele>85.4</ele><time>2026-04-06T10:13:09Z</time></trkpt><trkpt lat="43.48251663627971" lon="3.2899530706610243"><ele>85.0</ele><time>2026-04-06T10:13:10Z</time></trkpt><trkpt lat="43.48248934997501" lon="3.2898303688146076"><ele>84.6</ele><time>2026-04-06T10:13:11Z</time></trkpt><trkpt lat="43.48246669373944" lon="3.2897035295897528"><ele>84.2</ele><time>2026-04-06T10:13:12Z</time></trkpt><trkpt lat="43.48244994598543" lon="3.2895742903644796"><ele>83.80000000000001</ele><time>2026-04-06T10:13:13Z</time></trkpt><trkpt lat="43.482431770627926" lon="3.289443136430909"><ele>83.4</ele><time>2026-04-06T10:13:14Z</time></trkpt><trkpt lat="43.48241529657291" lon="3.289311480895794"><ele>83.0</ele><time>2026-04-06T10:13:15Z</time></trkpt><trkpt lat="43.48239756604672" lon="3.289176930378223"><ele>83.0</ele><time>2026-04-06T10:13:16Z</time></trkpt><trkpt lat="43.48238136865614" lon="3.2890418472277614"><ele>83.0</ele><time>2026-04-06T10:13:17Z</time></trkpt><trkpt lat="43.48236403181806" lon="3.2889005657956996"><ele>83.0</ele><time>2026-04-06T10:13:18Z</time></trkpt><trkpt lat="43.4823511111542" lon="3.288758802746201"><ele>83.0</ele><time>2026-04-06T10:13:19Z</time></trkpt><trkpt lat="43.48233611496853" lon="3.288616970044047"><ele>83.0</ele><time>2026-04-06T10:13:20Z</time></trkpt><trkpt lat="43.482320521968234" lon="3.2884727503056714"><ele>82.60000000000001</ele><time>2026-04-06T10:13:21Z</time></trkpt><trkpt lat="43.482303918138875" lon="3.2883320946342947"><ele>82.2</ele><time>2026-04-06T10:13:22Z</time></trkpt><trkpt lat="43.48228777427859" lon="3.2881914374486816"><ele>81.8</ele><time>2026-04-06T10:13:23Z</time></trkpt><trkpt lat="43.48227119669836" lon="3.2880510488175076"><ele>81.4</ele><time>2026-04-06T10:13:24Z</time></trkpt><trkpt lat="43.482253539943024" lon="3.2879140929233803"><ele>81.0</ele><time>2026-04-06T10:13:25Z</time></trkpt><trkpt lat="43.48223845220086" lon="3.2877806603202173"><ele>80.8</ele><time>2026-04-06T10:13:26Z</time></trkpt><trkpt lat="43.48222496928528" lon="3.2876444389924524"><ele>80.6</ele><time>2026-04-06T10:13:27Z</time></trkpt><trkpt lat="43.48220515678884" lon="3.2875159981183746"><ele>80.4</ele><time>2026-04-06T10:13:28Z</time></trkpt><trkpt lat="43.48218660827924" lon="3.2873859665786385"><ele>80.2</ele><time>2026-04-06T10:13:29Z</time></trkpt><trkpt lat="43.48217227329735" lon="3.2872604096046105"><ele>80.0</ele><time>2026-04-06T10:13:30Z</time></trkpt><trkpt lat="43.48215723655185" lon="3.287134788966857"><ele>79.6</ele><time>2026-04-06T10:13:31Z</time></trkpt><trkpt lat="43.482144382448574" lon="3.2870050346786055"><ele>79.2</ele><time>2026-04-06T10:13:32Z</time></trkpt><trkpt lat="43.48212914335255" lon="3.286880869580968"><ele>78.8</ele><time>2026-04-06T10:13:33Z</time></trkpt><trkpt lat="43.48211199069972" lon="3.2867491156803594"><ele>78.4</ele><time>2026-04-06T10:13:34Z</time></trkpt><trkpt lat="43.48209641229967" lon="3.2866281362715832"><ele>78.0</ele><time>2026-04-06T10:13:35Z</time></trkpt><trkpt lat="43.48208248279354" lon="3.2864999835589197"><ele>78.0</ele><time>2026-04-06T10:13:36Z</time></trkpt><trkpt lat="43.48206855083932" lon="3.286377960083812"><ele>78.0</ele><time>2026-04-06T10:13:37Z</time></trkpt><trkpt lat="43.48206402427279" lon="3.2862543049345265"><ele>78.0</ele><time>2026-04-06T10:13:38Z</time></trkpt><trkpt lat="43.48207108398661" lon="3.2861258253116437"><ele>78.0</ele><time>2026-04-06T10:13:39Z</time></trkpt><trkpt lat="43.48210127442791" lon="3.2860042484920267"><ele>78.0</ele><time>2026-04-06T10:13:40Z</time></trkpt><trkpt lat="43.48208404224835" lon="3.2858771962926903"><ele>78.0</ele><time>2026-04-06T10:13:41Z</time></trkpt><trkpt lat="43.48202046920239" lon="3.285762720973601"><ele>78.0</ele><time>2026-04-06T10:13:42Z</time></trkpt><trkpt lat="43.481985062262886" lon="3.2856496998047944"><ele>78.0</ele><time>2026-04-06T10:13:43Z</time></trkpt><trkpt lat="43.48197398520657" lon="3.2855260190405042"><ele>78.0</ele><time>2026-04-06T10:13:44Z</time></trkpt><trkpt lat="43.48196606431593" lon="3.2854014928080275"><ele>78.0</ele><time>2026-04-06T10:13:45Z</time></trkpt><trkpt lat="43.481950650045015" lon="3.285281717733336"><ele>77.66666666666667</ele><time>2026-04-06T10:13:46Z</time></trkpt><trkpt lat="43.48193966526114" lon="3.285165565236841"><ele>77.33333333333333</ele><time>2026-04-06T10:13:47Z</time></trkpt><trkpt lat="43.48192788896706" lon="3.285049190561837"><ele>77.0</ele><time>2026-04-06T10:13:48Z</time></trkpt><trkpt lat="43.48191089431589" lon="3.284937514135026"><ele>76.66666666666666</ele><time>2026-04-06T10:13:49Z</time></trkpt><trkpt lat="43.48189565759394" lon="3.2848246757849244"><ele>76.33333333333333</ele><time>2026-04-06T10:13:50Z</time></trkpt><trkpt lat="43.481882489293795" lon="3.2847143918355157"><ele>76.0</ele><time>2026-04-06T10:13:51Z</time></trkpt><trkpt lat="43.48187014458776" lon="3.284602520555528"><ele>76.0</ele><time>2026-04-06T10:13:52Z</time></trkpt><trkpt lat="43.481857708573635" lon="3.2844911153659013"><ele>76.0</ele><time>2026-04-06T10:13:53Z</time></trkpt><trkpt lat="43.48184556426561" lon="3.2843796666769265"><ele>76.0</ele><time>2026-04-06T10:13:54Z</time></trkpt><trkpt lat="43.481831868643226" lon="3.28426892456239"><ele>76.0</ele><time>2026-04-06T10:13:55Z</time></trkpt><trkpt lat="43.48181771369535" lon="3.284158134228986"><ele>76.0</ele><time>2026-04-06T10:13:56Z</time></trkpt><trkpt lat="43.481802481191984" lon="3.284052487170261"><ele>76.0</ele><time>2026-04-06T10:13:57Z</time></trkpt><trkpt lat="43.481791663601534" lon="3.283946592366619"><ele>76.33333333333333</ele><time>2026-04-06T10:13:58Z</time></trkpt><trkpt lat="43.48177893066623" lon="3.283839267062606"><ele>76.66666666666666</ele><time>2026-04-06T10:13:59Z</time></trkpt><trkpt lat="43.481765315958604" lon="3.28373673347113"><ele>77.0</ele><time>2026-04-06T10:14:00Z</time></trkpt><trkpt lat="43.481749831482844" lon="3.283630966214095"><ele>77.33333333333333</ele><time>2026-04-06T10:14:01Z</time></trkpt><trkpt lat="43.48173399223123" lon="3.283541447550414"><ele>77.66666666666667</ele><time>2026-04-06T10:14:02Z</time></trkpt><trkpt lat="43.48170337935943" lon="3.283385658467119"><ele>78.0</ele><time>2026-04-06T10:14:04Z</time></trkpt><trkpt lat="43.48166504523476" lon="3.283272074156395"><ele>78.0</ele><time>2026-04-06T10:14:06Z</time></trkpt><trkpt lat="43.48162655788876" lon="3.283153122244396"><ele>78.0</ele><time>2026-04-06T10:14:08Z</time></trkpt><trkpt lat="43.48156660058652" lon="3.2829991205311604"><ele>78.0</ele><time>2026-04-06T10:14:10Z</time></trkpt><trkpt lat="43.48153479980583" lon="3.282919553290808"><ele>78.0</ele><time>2026-04-06T10:14:11Z</time></trkpt><trkpt lat="43.48149928380473" lon="3.2828448291742554"><ele>78.0</ele><time>2026-04-06T10:14:12Z</time></trkpt><trkpt lat="43.48146072673103" lon="3.2827743300031993"><ele>78.0</ele><time>2026-04-06T10:14:13Z</time></trkpt><trkpt lat="43.481420491523245" lon="3.282706120874491"><ele>77.71428571428572</ele><time>2026-04-06T10:14:14Z</time></trkpt><trkpt lat="43.48137647971721" lon="3.282642226239321"><ele>77.42857142857142</ele><time>2026-04-06T10:14:15Z</time></trkpt><trkpt lat="43.481329950235775" lon="3.282580855671481"><ele>77.14285714285714</ele><time>2026-04-06T10:14:16Z</time></trkpt><trkpt lat="43.4812802161106" lon="3.2825236517172036"><ele>76.85714285714286</ele><time>2026-04-06T10:14:17Z</time></trkpt><trkpt lat="43.48122863038303" lon="3.2824679543988093"><ele>76.57142857142858</ele><time>2026-04-06T10:14:18Z</time></trkpt><trkpt lat="43.481176642144604" lon="3.2824139182576237"><ele>76.28571428571428</ele><time>2026-04-06T10:14:19Z</time></trkpt><trkpt lat="43.4811213078708" lon="3.282363635114055"><ele>76.0</ele><time>2026-04-06T10:14:20Z</time></trkpt><trkpt lat="43.48106448945084" lon="3.282318332181846"><ele>75.28571428571428</ele><time>2026-04-06T10:14:21Z</time></trkpt><trkpt lat="43.48100765297268" lon="3.282274619691867"><ele>74.57142857142858</ele><time>2026-04-06T10:14:22Z</time></trkpt><trkpt lat="43.480948041866476" lon="3.2822313587525245"><ele>73.85714285714286</ele><time>2026-04-06T10:14:23Z</time></trkpt><trkpt lat="43.48088889056293" lon="3.28218617272653"><ele>73.14285714285714</ele><time>2026-04-06T10:14:24Z</time></trkpt><trkpt lat="43.480829094538215" lon="3.2821434414445747"><ele>72.42857142857142</ele><time>2026-04-06T10:14:25Z</time></trkpt><trkpt lat="43.48076805623184" lon="3.2820978082801573"><ele>71.71428571428571</ele><time>2026-04-06T10:14:26Z</time></trkpt><trkpt lat="43.48070518228048" lon="3.282052519123244"><ele>71.0</ele><time>2026-04-06T10:14:27Z</time></trkpt><trkpt lat="43.48064103589409" lon="3.2820063709368568"><ele>70.85714285714286</ele><time>2026-04-06T10:14:28Z</time></trkpt><trkpt lat="43.48057705324631" lon="3.2819587911538783"><ele>70.71428571428571</ele><time>2026-04-06T10:14:29Z</time></trkpt><trkpt lat="43.48051276723078" lon="3.281910679830243"><ele>70.57142857142857</ele><time>2026-04-06T10:14:30Z</time></trkpt><trkpt lat="43.480448047230524" lon="3.2818640363467004"><ele>70.42857142857143</ele><time>2026-04-06T10:14:31Z</time></trkpt><trkpt lat="43.4803823398466" lon="3.28181897690572"><ele>70.28571428571428</ele><time>2026-04-06T10:14:32Z</time></trkpt><trkpt lat="43.48031808565569" lon="3.2817690893737193"><ele>70.14285714285714</ele><time>2026-04-06T10:14:33Z</time></trkpt><trkpt lat="43.48025322984229" lon="3.281719621810138"><ele>70.0</ele><time>2026-04-06T10:14:34Z</time></trkpt><trkpt lat="43.48018829461048" lon="3.281672140985496"><ele>70.71428571428571</ele><time>2026-04-06T10:14:35Z</time></trkpt><trkpt lat="43.480122244057796" lon="3.28162114311592"><ele>71.42857142857143</ele><time>2026-04-06T10:14:36Z</time></trkpt><trkpt lat="43.48005995155164" lon="3.281562593064692"><ele>72.14285714285714</ele><time>2026-04-06T10:14:37Z</time></trkpt><trkpt lat="43.48000391139121" lon="3.2814911774470725"><ele>72.85714285714286</ele><time>2026-04-06T10:14:38Z</time></trkpt><trkpt lat="43.47995569459862" lon="3.2814162355740533"><ele>73.57142857142857</ele><time>2026-04-06T10:14:39Z</time></trkpt><trkpt lat="43.47991617552458" lon="3.2813321089526077"><ele>74.28571428571428</ele><time>2026-04-06T10:14:39.999Z</time></trkpt><trkpt lat="43.47987729267986" lon="3.2812483435933673"><ele>75.0</ele><time>2026-04-06T10:14:40.999Z</time></trkpt><trkpt lat="43.479848058700135" lon="3.28116595575127"><ele>75.42857142857142</ele><time>2026-04-06T10:14:41.999Z</time></trkpt><trkpt lat="43.47975733122208" lon="3.2811689725564634"><ele>75.85714285714286</ele><time>2026-04-06T10:14:42.999Z</time></trkpt><trkpt lat="43.479690905138035" lon="3.281182306701704"><ele>76.28571428571428</ele><time>2026-04-06T10:14:43.999Z</time></trkpt><trkpt lat="43.479627676115726" lon="3.281217121326197"><ele>76.71428571428571</ele><time>2026-04-06T10:14:44.999Z</time></trkpt><trkpt lat="43.47956161970562" lon="3.2812441587482493"><ele>77.14285714285714</ele><time>2026-04-06T10:14:45.999Z</time></trkpt><trkpt lat="43.47949168955757" lon="3.281242324962688"><ele>77.57142857142857</ele><time>2026-04-06T10:14:46.999Z</time></trkpt><trkpt lat="43.479423925468204" lon="3.281220930471057"><ele>78.0</ele><time>2026-04-06T10:14:47.999Z</time></trkpt><trkpt lat="43.47935700843864" lon="3.28119623510137"><ele>78.14285714285715</ele><time>2026-04-06T10:14:48.999Z</time></trkpt><trkpt lat="43.47929008452118" lon="3.2811781252157584"><ele>78.28571428571428</ele><time>2026-04-06T10:14:49.999Z</time></trkpt><trkpt lat="43.479224689346104" lon="3.281161320779474"><ele>78.42857142857143</ele><time>2026-04-06T10:14:50.999Z</time></trkpt><trkpt lat="43.47915917364912" lon="3.2811445503490337"><ele>78.57142857142858</ele><time>2026-04-06T10:14:51.999Z</time></trkpt><trkpt lat="43.47909537236181" lon="3.2811298224795005"><ele>78.71428571428572</ele><time>2026-04-06T10:14:52.999Z</time></trkpt><trkpt lat="43.47903199918129" lon="3.2811148593836292"><ele>78.85714285714286</ele><time>2026-04-06T10:14:53.999Z</time></trkpt><trkpt lat="43.478968896255545" lon="3.2811029279833317"><ele>79.0</ele><time>2026-04-06T10:14:54.999Z</time></trkpt><trkpt lat="43.47890598703678" lon="3.2810907785219032"><ele>79.0</ele><time>2026-04-06T10:14:55.999Z</time></trkpt><trkpt lat="43.478784211215775" lon="3.2810629492651344"><ele>79.0</ele><time>2026-04-06T10:14:57.999Z</time></trkpt><trkpt lat="43.478721400090585" lon="3.2810519094526156"><ele>79.0</ele><time>2026-04-06T10:14:58.999Z</time></trkpt><trkpt lat="43.478655628061" lon="3.281038889330494"><ele>79.0</ele><time>2026-04-06T10:14:59.999Z</time></trkpt><trkpt lat="43.47858881254056" lon="3.2810313654200933"><ele>79.0</ele><time>2026-04-06T10:15:00.999Z</time></trkpt><trkpt lat="43.47852250165665" lon="3.2810172235916304"><ele>79.0</ele><time>2026-04-06T10:15:01.999Z</time></trkpt><trkpt lat="43.47845633315341" lon="3.281004663164087"><ele>78.85714285714286</ele><time>2026-04-06T10:15:02.999Z</time></trkpt><trkpt lat="43.4783906579037" lon="3.2809906726962934"><ele>78.71428571428572</ele><time>2026-04-06T10:15:03.999Z</time></trkpt><trkpt lat="43.47832674893319" lon="3.2809759621451553"><ele>78.57142857142858</ele><time>2026-04-06T10:15:04.999Z</time></trkpt><trkpt lat="43.4782604177397" lon="3.2809614022578426"><ele>78.42857142857143</ele><time>2026-04-06T10:15:05.999Z</time></trkpt><trkpt lat="43.47819582111866" lon="3.280946325318031"><ele>78.28571428571428</ele><time>2026-04-06T10:15:06.999Z</time></trkpt><trkpt lat="43.47813159522971" lon="3.28093211359525"><ele>78.14285714285715</ele><time>2026-04-06T10:15:07.999Z</time></trkpt><trkpt lat="43.47806842321834" lon="3.2809191859215945"><ele>78.0</ele><time>2026-04-06T10:15:08.999Z</time></trkpt><trkpt lat="43.47800519013704" lon="3.280903459785688"><ele>78.0</ele><time>2026-04-06T10:15:09.999Z</time></trkpt><trkpt lat="43.47794211303138" lon="3.2808918974197674"><ele>78.0</ele><time>2026-04-06T10:15:10.999Z</time></trkpt><trkpt lat="43.477879395505425" lon="3.280876807884176"><ele>78.0</ele><time>2026-04-06T10:15:11.999Z</time></trkpt><trkpt lat="43.47775559168815" lon="3.280860795971696"><ele>78.0</ele><time>2026-04-06T10:15:13.999Z</time></trkpt><trkpt lat="43.477692061208174" lon="3.2808603118776816"><ele>78.0</ele><time>2026-04-06T10:15:14.999Z</time></trkpt><trkpt lat="43.47762886897518" lon="3.2808660499615256"><ele>78.0</ele><time>2026-04-06T10:15:15.999Z</time></trkpt><trkpt lat="43.477509168227314" lon="3.2808901434427806"><ele>78.0</ele><time>2026-04-06T10:15:17.999Z</time></trkpt><trkpt lat="43.47739144565185" lon="3.2809105907153904"><ele>78.0</ele><time>2026-04-06T10:15:19.999Z</time></trkpt><trkpt lat="43.47726681237462" lon="3.2809215034812356"><ele>78.0</ele><time>2026-04-06T10:15:21.999Z</time></trkpt><trkpt lat="43.47715134210157" lon="3.2809305662538164"><ele>78.0</ele><time>2026-04-06T10:15:23.999Z</time></trkpt><trkpt lat="43.47703276204346" lon="3.2809435838793926"><ele>78.0</ele><time>2026-04-06T10:15:25.999Z</time></trkpt><trkpt lat="43.476913803904345" lon="3.280958510440343"><ele>78.0</ele><time>2026-04-06T10:15:28Z</time></trkpt><trkpt lat="43.47679720433342" lon="3.280974053047216"><ele>78.0</ele><time>2026-04-06T10:15:30Z</time></trkpt><trkpt lat="43.47667862924918" lon="3.2809845967730755"><ele>78.0</ele><time>2026-04-06T10:15:32Z</time></trkpt><trkpt lat="43.4765595142344" lon="3.280996581779336"><ele>78.0</ele><time>2026-04-06T10:15:34Z</time></trkpt><trkpt lat="43.47644018982278" lon="3.2810200452708234"><ele>78.0</ele><time>2026-04-06T10:15:36Z</time></trkpt><trkpt lat="43.47633174135686" lon="3.28101266357775"><ele>78.0</ele><time>2026-04-06T10:15:38Z</time></trkpt><trkpt lat="43.476305852304144" lon="3.2811889892254174"><ele>78.0</ele><time>2026-04-06T10:15:39Z</time></trkpt><trkpt lat="43.47626404509229" lon="3.2813487052729293"><ele>78.25</ele><time>2026-04-06T10:15:41Z</time></trkpt><trkpt lat="43.47622244842808" lon="3.2814979036319483"><ele>78.5</ele><time>2026-04-06T10:15:43Z</time></trkpt><trkpt lat="43.476174177255444" lon="3.2816367040961927"><ele>78.75</ele><time>2026-04-06T10:15:45Z</time></trkpt><trkpt lat="43.47611268955398" lon="3.281769138831864"><ele>79.0</ele><time>2026-04-06T10:15:47Z</time></trkpt><trkpt lat="43.47604952387612" lon="3.2818991017739743"><ele>79.0</ele><time>2026-04-06T10:15:49Z</time></trkpt><trkpt lat="43.475992126297534" lon="3.282034024660923"><ele>79.0</ele><time>2026-04-06T10:15:51Z</time></trkpt><trkpt lat="43.4759312190351" lon="3.282166173294806"><ele>79.0</ele><time>2026-04-06T10:15:53Z</time></trkpt><trkpt lat="43.47586741102775" lon="3.2823014840719544"><ele>79.0</ele><time>2026-04-06T10:15:55Z</time></trkpt><trkpt lat="43.475802115696226" lon="3.282432991774588"><ele>78.8</ele><time>2026-04-06T10:15:57Z</time></trkpt><trkpt lat="43.47573776428561" lon="3.282565095390949"><ele>78.60000000000001</ele><time>2026-04-06T10:15:59Z</time></trkpt><trkpt lat="43.47567576431493" lon="3.2826913107592732"><ele>78.4</ele><time>2026-04-06T10:16:01Z</time></trkpt><trkpt lat="43.47561755348429" lon="3.2828219327698154"><ele>78.2</ele><time>2026-04-06T10:16:03Z</time></trkpt><trkpt lat="43.47555410239885" lon="3.2829465371960964"><ele>78.0</ele><time>2026-04-06T10:16:05Z</time></trkpt><trkpt lat="43.475483935380616" lon="3.2830670384456035"><ele>77.8</ele><time>2026-04-06T10:16:07Z</time></trkpt><trkpt lat="43.47540881826535" lon="3.283180060018893"><ele>77.6</ele><time>2026-04-06T10:16:09Z</time></trkpt><trkpt lat="43.47533302959992" lon="3.2832834423644695"><ele>77.4</ele><time>2026-04-06T10:16:11Z</time></trkpt><trkpt lat="43.475257244554015" lon="3.28338418188578"><ele>77.2</ele><time>2026-04-06T10:16:13Z</time></trkpt><trkpt lat="43.4751756619543" lon="3.2834808023500117"><ele>77.0</ele><time>2026-04-06T10:16:15Z</time></trkpt><trkpt lat="43.47509658826704" lon="3.283580203648258"><ele>77.0</ele><time>2026-04-06T10:16:17Z</time></trkpt><trkpt lat="43.475022469099876" lon="3.2836782162786835"><ele>77.0</ele><time>2026-04-06T10:16:19Z</time></trkpt><trkpt lat="43.474945499155325" lon="3.283777407665761"><ele>77.0</ele><time>2026-04-06T10:16:21Z</time></trkpt><trkpt lat="43.47486877267753" lon="3.283877070254655"><ele>77.0</ele><time>2026-04-06T10:16:23Z</time></trkpt><trkpt lat="43.47479015834057" lon="3.283972818851735"><ele>77.0</ele><time>2026-04-06T10:16:25Z</time></trkpt><trkpt lat="43.474712804304815" lon="3.2840734789100043"><ele>77.2</ele><time>2026-04-06T10:16:27Z</time></trkpt><trkpt lat="43.474634122170656" lon="3.284175929473216"><ele>77.4</ele><time>2026-04-06T10:16:29Z</time></trkpt><trkpt lat="43.47455546373522" lon="3.284279339099762"><ele>77.6</ele><time>2026-04-06T10:16:31Z</time></trkpt><trkpt lat="43.474476747592995" lon="3.2843841735870845"><ele>77.8</ele><time>2026-04-06T10:16:33Z</time></trkpt><trkpt lat="43.47439864256261" lon="3.284482616775349"><ele>78.0</ele><time>2026-04-06T10:16:35Z</time></trkpt><trkpt lat="43.47432088658059" lon="3.2845809698538355"><ele>77.6</ele><time>2026-04-06T10:16:37Z</time></trkpt><trkpt lat="43.47424126759293" lon="3.2846793334946773"><ele>77.19999999999999</ele><time>2026-04-06T10:16:39Z</time></trkpt><trkpt lat="43.47416491121564" lon="3.2847808599002613"><ele>76.8</ele><time>2026-04-06T10:16:41Z</time></trkpt><trkpt lat="43.474089313178844" lon="3.284883558619328"><ele>76.39999999999999</ele><time>2026-04-06T10:16:43Z</time></trkpt><trkpt lat="43.47401083338598" lon="3.284982792105339"><ele>76.0</ele><time>2026-04-06T10:16:45Z</time></trkpt><trkpt lat="43.473938321728944" lon="3.285086856922124"><ele>76.0</ele><time>2026-04-06T10:16:46.999Z</time></trkpt><trkpt lat="43.47385480393423" lon="3.285181814023858"><ele>76.0</ele><time>2026-04-06T10:16:48.999Z</time></trkpt><trkpt lat="43.47378393630084" lon="3.285275602701051"><ele>76.0</ele><time>2026-04-06T10:16:50.999Z</time></trkpt><trkpt lat="43.473705866099664" lon="3.2853820385406376"><ele>76.0</ele><time>2026-04-06T10:16:52.999Z</time></trkpt><trkpt lat="43.47362525988842" lon="3.2854868299050906"><ele>76.0</ele><time>2026-04-06T10:16:54.999Z</time></trkpt><trkpt lat="43.47354103136016" lon="3.2855946619597365"><ele>75.8</ele><time>2026-04-06T10:16:56.999Z</time></trkpt><trkpt lat="43.473450088737664" lon="3.2856838717594465"><ele>75.6</ele><time>2026-04-06T10:16:58.999Z</time></trkpt><trkpt lat="43.47335312643119" lon="3.2857627196188326"><ele>75.4</ele><time>2026-04-06T10:17:00.999Z</time></trkpt><trkpt lat="43.47325610563244" lon="3.2858429314840416"><ele>75.2</ele><time>2026-04-06T10:17:02.999Z</time></trkpt><trkpt lat="43.473159652450875" lon="3.2859201000587563"><ele>75.0</ele><time>2026-04-06T10:17:04.999Z</time></trkpt><trkpt lat="43.473061538410896" lon="3.2859903060795457"><ele>75.0</ele><time>2026-04-06T10:17:06.999Z</time></trkpt><trkpt lat="43.47296132806197" lon="3.286065568864475"><ele>75.0</ele><time>2026-04-06T10:17:08.999Z</time></trkpt><trkpt lat="43.47285904890238" lon="3.2861421922006855"><ele>75.0</ele><time>2026-04-06T10:17:10.999Z</time></trkpt><trkpt lat="43.472758559692316" lon="3.2862155493064833"><ele>75.0</ele><time>2026-04-06T10:17:12.999Z</time></trkpt><trkpt lat="43.47265877265093" lon="3.2862933674272257"><ele>75.0</ele><time>2026-04-06T10:17:14.999Z</time></trkpt><trkpt lat="43.47255762746581" lon="3.286367471546676"><ele>75.0</ele><time>2026-04-06T10:17:16.999Z</time></trkpt><trkpt lat="43.47245552661989" lon="3.286445870200024"><ele>75.0</ele><time>2026-04-06T10:17:18.999Z</time></trkpt><trkpt lat="43.47234928526478" lon="3.2865226750011516"><ele>75.0</ele><time>2026-04-06T10:17:20.999Z</time></trkpt><trkpt lat="43.472242090421794" lon="3.2865989107869664"><ele>74.75</ele><time>2026-04-06T10:17:22.999Z</time></trkpt><trkpt lat="43.472136307780026" lon="3.286674636372589"><ele>74.5</ele><time>2026-04-06T10:17:24.999Z</time></trkpt><trkpt lat="43.4720290575014" lon="3.286753179795757"><ele>74.25</ele><time>2026-04-06T10:17:26.999Z</time></trkpt><trkpt lat="43.47192344780626" lon="3.286832719248031"><ele>74.0</ele><time>2026-04-06T10:17:28.999Z</time></trkpt><trkpt lat="43.47181601307176" lon="3.286910684532691"><ele>73.75</ele><time>2026-04-06T10:17:30.999Z</time></trkpt><trkpt lat="43.4717092015942" lon="3.2869914575554446"><ele>73.5</ele><time>2026-04-06T10:17:32.999Z</time></trkpt><trkpt lat="43.471604475162344" lon="3.2870715886397743"><ele>73.25</ele><time>2026-04-06T10:17:35Z</time></trkpt><trkpt lat="43.47149349895017" lon="3.2871414768709455"><ele>73.0</ele><time>2026-04-06T10:17:37Z</time></trkpt><trkpt lat="43.471386922101374" lon="3.287231393986361"><ele>72.83333333333333</ele><time>2026-04-06T10:17:39Z</time></trkpt><trkpt lat="43.47133214804701" lon="3.287279530536561"><ele>72.66666666666666</ele><time>2026-04-06T10:17:40Z</time></trkpt><trkpt lat="43.47122290782306" lon="3.2873698761344796"><ele>72.5</ele><time>2026-04-06T10:17:42Z</time></trkpt><trkpt lat="43.47116699305949" lon="3.2874156853347243"><ele>72.33333333333333</ele><time>2026-04-06T10:17:43Z</time></trkpt><trkpt lat="43.47111360537315" lon="3.287464508053505"><ele>72.16666666666667</ele><time>2026-04-06T10:17:44Z</time></trkpt><trkpt lat="43.47105956895728" lon="3.2875109473359183"><ele>72.0</ele><time>2026-04-06T10:17:45Z</time></trkpt><trkpt lat="43.47095444247653" lon="3.2876066056659514"><ele>72.0</ele><time>2026-04-06T10:17:47Z</time></trkpt><trkpt lat="43.47090004449862" lon="3.287654178253775"><ele>72.0</ele><time>2026-04-06T10:17:48Z</time></trkpt><trkpt lat="43.470843490051585" lon="3.2877015763893787"><ele>72.0</ele><time>2026-04-06T10:17:49Z</time></trkpt><trkpt lat="43.47073440558562" lon="3.287793888427963"><ele>72.0</ele><time>2026-04-06T10:17:51Z</time></trkpt><trkpt lat="43.47067917218212" lon="3.2878404895251596"><ele>72.0</ele><time>2026-04-06T10:17:52Z</time></trkpt><trkpt lat="43.47062584815872" lon="3.2878885271524956"><ele>72.0</ele><time>2026-04-06T10:17:53Z</time></trkpt><trkpt lat="43.470571981395466" lon="3.2879404109014625"><ele>72.00000000000001</ele><time>2026-04-06T10:17:54Z</time></trkpt><trkpt lat="43.47051859407987" lon="3.2879920172732926"><ele>72.0</ele><time>2026-04-06T10:17:55Z</time></trkpt><trkpt lat="43.47046374492514" lon="3.2880386276794766"><ele>72.0</ele><time>2026-04-06T10:17:56Z</time></trkpt><trkpt lat="43.47040772830274" lon="3.288088426784577"><ele>72.0</ele><time>2026-04-06T10:17:57Z</time></trkpt><trkpt lat="43.470355192412974" lon="3.288137596958535"><ele>72.0</ele><time>2026-04-06T10:17:58Z</time></trkpt><trkpt lat="43.4703028083469" lon="3.2881878929272332"><ele>72.00000000000001</ele><time>2026-04-06T10:17:59Z</time></trkpt><trkpt lat="43.4702494088911" lon="3.2882379164475903"><ele>72.0</ele><time>2026-04-06T10:18:00Z</time></trkpt><trkpt lat="43.47015222656064" lon="3.2883434719257556"><ele>72.25</ele><time>2026-04-06T10:18:02Z</time></trkpt><trkpt lat="43.47005759834962" lon="3.2884488849995983"><ele>72.5</ele><time>2026-04-06T10:18:04.001Z</time></trkpt><trkpt lat="43.469967733418976" lon="3.288559659093308"><ele>72.75</ele><time>2026-04-06T10:18:06.001Z</time></trkpt><trkpt lat="43.46987897499169" lon="3.288671280595688"><ele>73.0</ele><time>2026-04-06T10:18:08.001Z</time></trkpt><trkpt lat="43.469787506931986" lon="3.2887784289862516"><ele>73.0</ele><time>2026-04-06T10:18:10.001Z</time></trkpt><trkpt lat="43.46969165405129" lon="3.2888895434931174"><ele>73.0</ele><time>2026-04-06T10:18:12.001Z</time></trkpt><trkpt lat="43.469641639447374" lon="3.2889436989056855"><ele>73.0</ele><time>2026-04-06T10:18:13.001Z</time></trkpt><trkpt lat="43.46959048395521" lon="3.288998199678671"><ele>73.0</ele><time>2026-04-06T10:18:14.001Z</time></trkpt><trkpt lat="43.4695391009335" lon="3.2890496288228253"><ele>73.0</ele><time>2026-04-06T10:18:15.001Z</time></trkpt><trkpt lat="43.469487067083634" lon="3.2890996435777926"><ele>73.0</ele><time>2026-04-06T10:18:16.001Z</time></trkpt><trkpt lat="43.469434186900564" lon="3.2891477229732957"><ele>73.0</ele><time>2026-04-06T10:18:17.001Z</time></trkpt><trkpt lat="43.46938080476523" lon="3.289197117625472"><ele>72.4</ele><time>2026-04-06T10:18:18.001Z</time></trkpt><trkpt lat="43.46932569278285" lon="3.2892458846013395"><ele>71.8</ele><time>2026-04-06T10:18:19.001Z</time></trkpt><trkpt lat="43.469220029416924" lon="3.289332895802954"><ele>71.2</ele><time>2026-04-06T10:18:21.001Z</time></trkpt><trkpt lat="43.469113148720545" lon="3.289404164976042"><ele>70.6</ele><time>2026-04-06T10:18:23.001Z</time></trkpt><trkpt lat="43.469009146483046" lon="3.2894652925547985"><ele>70.0</ele><time>2026-04-06T10:18:25.001Z</time></trkpt><trkpt lat="43.46890894942669" lon="3.289521224808928"><ele>70.0</ele><time>2026-04-06T10:18:27.001Z</time></trkpt><trkpt lat="43.46881025898794" lon="3.2895760944118004"><ele>70.0</ele><time>2026-04-06T10:18:29.001Z</time></trkpt><trkpt lat="43.46871506019823" lon="3.289633506531161"><ele>70.0</ele><time>2026-04-06T10:18:31.001Z</time></trkpt><trkpt lat="43.46861877263966" lon="3.2896884207135817"><ele>70.0</ele><time>2026-04-06T10:18:33.001Z</time></trkpt><trkpt lat="43.46851208769363" lon="3.289746421530362"><ele>70.0</ele><time>2026-04-06T10:18:35.001Z</time></trkpt><trkpt lat="43.46840199870672" lon="3.289803344165203"><ele>70.0</ele><time>2026-04-06T10:18:37.001Z</time></trkpt><trkpt lat="43.46828981071592" lon="3.2898686486080453"><ele>70.0</ele><time>2026-04-06T10:18:39.001Z</time></trkpt><trkpt lat="43.46816994172329" lon="3.2899306912634594"><ele>70.0</ele><time>2026-04-06T10:18:41.001Z</time></trkpt><trkpt lat="43.468108460899956" lon="3.2899576988966546"><ele>70.0</ele><time>2026-04-06T10:18:42.001Z</time></trkpt><trkpt lat="43.468047081372724" lon="3.2899905284694237"><ele>70.0</ele><time>2026-04-06T10:18:43.001Z</time></trkpt><trkpt lat="43.46798504732347" lon="3.2900221441953352"><ele>70.0</ele><time>2026-04-06T10:18:44.001Z</time></trkpt><trkpt lat="43.46791937456572" lon="3.290050362514781"><ele>69.71428571428571</ele><time>2026-04-06T10:18:45.001Z</time></trkpt><trkpt lat="43.46785255281243" lon="3.2900793785054825"><ele>69.42857142857143</ele><time>2026-04-06T10:18:46.001Z</time></trkpt><trkpt lat="43.46778401964955" lon="3.2901107730032035"><ele>69.14285714285714</ele><time>2026-04-06T10:18:47.001Z</time></trkpt><trkpt lat="43.46771463872482" lon="3.2901415116916173"><ele>68.85714285714286</ele><time>2026-04-06T10:18:48.001Z</time></trkpt><trkpt lat="43.46764451412966" lon="3.2901699682624863"><ele>68.57142857142857</ele><time>2026-04-06T10:18:49.001Z</time></trkpt><trkpt lat="43.46757171276237" lon="3.29020035689993"><ele>68.28571428571428</ele><time>2026-04-06T10:18:50.001Z</time></trkpt><trkpt lat="43.46749916711489" lon="3.290232010011129"><ele>68.0</ele><time>2026-04-06T10:18:51.001Z</time></trkpt><trkpt lat="43.46742561792438" lon="3.290266569304637"><ele>68.0</ele><time>2026-04-06T10:18:52Z</time></trkpt><trkpt lat="43.46735284030183" lon="3.2903012052159397"><ele>68.0</ele><time>2026-04-06T10:18:53Z</time></trkpt><trkpt lat="43.46728001930597" lon="3.2903341146466114"><ele>68.0</ele><time>2026-04-06T10:18:54Z</time></trkpt><trkpt lat="43.467208410043284" lon="3.290368339816159"><ele>68.0</ele><time>2026-04-06T10:18:55Z</time></trkpt><trkpt lat="43.467136725967734" lon="3.2904007645095543"><ele>68.0</ele><time>2026-04-06T10:18:56Z</time></trkpt><trkpt lat="43.467064105903646" lon="3.2904322058887314"><ele>68.0</ele><time>2026-04-06T10:18:57Z</time></trkpt><trkpt lat="43.46699353365195" lon="3.2904619721915016"><ele>68.33333333333334</ele><time>2026-04-06T10:18:58Z</time></trkpt><trkpt lat="43.4669231246265" lon="3.2904849889878585"><ele>68.66666666666667</ele><time>2026-04-06T10:18:59Z</time></trkpt><trkpt lat="43.46685340281367" lon="3.2905015285441523"><ele>69.0</ele><time>2026-04-06T10:19:00Z</time></trkpt><trkpt lat="43.466784330354265" lon="3.290510237228931"><ele>69.33333333333333</ele><time>2026-04-06T10:19:01Z</time></trkpt><trkpt lat="43.466717089291876" lon="3.2905206590729383"><ele>69.66666666666666</ele><time>2026-04-06T10:19:02Z</time></trkpt><trkpt lat="43.46665369974795" lon="3.2905345082721986"><ele>70.0</ele><time>2026-04-06T10:19:03Z</time></trkpt><trkpt lat="43.46653377594676" lon="3.290556597846567"><ele>70.0</ele><time>2026-04-06T10:19:05Z</time></trkpt><trkpt lat="43.466413765791984" lon="3.290571595064267"><ele>70.0</ele><time>2026-04-06T10:19:07Z</time></trkpt><trkpt lat="43.46629478430088" lon="3.2905831148143365"><ele>70.0</ele><time>2026-04-06T10:19:09Z</time></trkpt><trkpt lat="43.46617684671665" lon="3.2905958925904937"><ele>70.0</ele><time>2026-04-06T10:19:11Z</time></trkpt><trkpt lat="43.46606190513255" lon="3.2906062266917737"><ele>70.0</ele><time>2026-04-06T10:19:13Z</time></trkpt><trkpt lat="43.465947494434694" lon="3.290625034056129"><ele>70.0</ele><time>2026-04-06T10:19:15Z</time></trkpt><trkpt lat="43.4658338848789" lon="3.290653622491429"><ele>70.0</ele><time>2026-04-06T10:19:17Z</time></trkpt><trkpt lat="43.46571782736716" lon="3.2906907959968343"><ele>70.0</ele><time>2026-04-06T10:19:19Z</time></trkpt><trkpt lat="43.46560177000613" lon="3.2907385832860623"><ele>70.0</ele><time>2026-04-06T10:19:21.001Z</time></trkpt><trkpt lat="43.46548357761505" lon="3.2907931978528255"><ele>70.0</ele><time>2026-04-06T10:19:23.001Z</time></trkpt><trkpt lat="43.46537180139103" lon="3.2908569713790454"><ele>70.0</ele><time>2026-04-06T10:19:25.001Z</time></trkpt><trkpt lat="43.465261497305384" lon="3.29092228540927"><ele>70.0</ele><time>2026-04-06T10:19:27.001Z</time></trkpt><trkpt lat="43.465152973730845" lon="3.290983750117462"><ele>70.5</ele><time>2026-04-06T10:19:29.001Z</time></trkpt><trkpt lat="43.46504235319464" lon="3.2910431884166553"><ele>71.0</ele><time>2026-04-06T10:19:31.001Z</time></trkpt><trkpt lat="43.46493323987386" lon="3.2910975456323746"><ele>71.5</ele><time>2026-04-06T10:19:33.001Z</time></trkpt><trkpt lat="43.464823422488635" lon="3.2911493557906932"><ele>72.0</ele><time>2026-04-06T10:19:35.001Z</time></trkpt><trkpt lat="43.464715008522795" lon="3.2911956758397576"><ele>72.0</ele><time>2026-04-06T10:19:37.001Z</time></trkpt><trkpt lat="43.464605794019285" lon="3.2912400479060757"><ele>72.0</ele><time>2026-04-06T10:19:39.001Z</time></trkpt><trkpt lat="43.464495698196004" lon="3.2912764664129077"><ele>72.0</ele><time>2026-04-06T10:19:41.001Z</time></trkpt><trkpt lat="43.46439005925246" lon="3.2913177739684207"><ele>72.0</ele><time>2026-04-06T10:19:43.001Z</time></trkpt><trkpt lat="43.46429391147066" lon="3.2913602309796133"><ele>72.0</ele><time>2026-04-06T10:19:45.001Z</time></trkpt><trkpt lat="43.46420645375801" lon="3.2913999469312083"><ele>71.8</ele><time>2026-04-06T10:19:47.001Z</time></trkpt><trkpt lat="43.46412710221093" lon="3.291431097536669"><ele>71.6</ele><time>2026-04-06T10:19:49.001Z</time></trkpt><trkpt lat="43.464044891612545" lon="3.2914664493901267"><ele>71.39999999999999</ele><time>2026-04-06T10:19:51.001Z</time></trkpt><trkpt lat="43.46395699782944" lon="3.291504010734701"><ele>71.2</ele><time>2026-04-06T10:19:53.001Z</time></trkpt><trkpt lat="43.463865679315155" lon="3.2915514668749815"><ele>71.0</ele><time>2026-04-06T10:19:55.001Z</time></trkpt><trkpt lat="43.463772749624304" lon="3.2915995921791823"><ele>71.0</ele><time>2026-04-06T10:19:57.001Z</time></trkpt><trkpt lat="43.46368113138239" lon="3.291640142221006"><ele>71.0</ele><time>2026-04-06T10:19:59.001Z</time></trkpt><trkpt lat="43.4635873635042" lon="3.2916817622046977"><ele>71.0</ele><time>2026-04-06T10:20:01.001Z</time></trkpt><trkpt lat="43.4634949681194" lon="3.291725329461338"><ele>71.0</ele><time>2026-04-06T10:20:03.001Z</time></trkpt><trkpt lat="43.46340191897375" lon="3.2917698121736017"><ele>71.0</ele><time>2026-04-06T10:20:05.001Z</time></trkpt><trkpt lat="43.463306861408626" lon="3.291821351156495"><ele>71.0</ele><time>2026-04-06T10:20:07.001Z</time></trkpt><trkpt lat="43.46321268068811" lon="3.291868825766589"><ele>71.0</ele><time>2026-04-06T10:20:09.001Z</time></trkpt><trkpt lat="43.463111578074674" lon="3.291901995847889"><ele>71.0</ele><time>2026-04-06T10:20:11.001Z</time></trkpt><trkpt lat="43.463009171786304" lon="3.2919270451429017"><ele>71.0</ele><time>2026-04-06T10:20:13.001Z</time></trkpt><trkpt lat="43.462903789593526" lon="3.2919482549337533"><ele>71.0</ele><time>2026-04-06T10:20:15.001Z</time></trkpt><trkpt lat="43.46280079729893" lon="3.2919721350950186"><ele>71.8</ele><time>2026-04-06T10:20:17.001Z</time></trkpt><trkpt lat="43.4626961502011" lon="3.2919929185550036"><ele>72.6</ele><time>2026-04-06T10:20:19.001Z</time></trkpt><trkpt lat="43.46259371284131" lon="3.29201634721578"><ele>73.4</ele><time>2026-04-06T10:20:21.001Z</time></trkpt><trkpt lat="43.46249500803721" lon="3.2920425763284276"><ele>74.2</ele><time>2026-04-06T10:20:23.001Z</time></trkpt><trkpt lat="43.46239475850713" lon="3.2920571824067273"><ele>75.0</ele><time>2026-04-06T10:20:25.001Z</time></trkpt><trkpt lat="43.46229433091123" lon="3.292073594634215"><ele>75.0</ele><time>2026-04-06T10:20:27.001Z</time></trkpt><trkpt lat="43.46219604785964" lon="3.292088304707307"><ele>75.0</ele><time>2026-04-06T10:20:29.001Z</time></trkpt><trkpt lat="43.46209679683391" lon="3.2921077327536374"><ele>75.0</ele><time>2026-04-06T10:20:31.001Z</time></trkpt><trkpt lat="43.461992647199985" lon="3.292120146694779"><ele>75.0</ele><time>2026-04-06T10:20:33.001Z</time></trkpt><trkpt lat="43.46188667060612" lon="3.292131760468123"><ele>75.0</ele><time>2026-04-06T10:20:35.001Z</time></trkpt><trkpt lat="43.46177710561623" lon="3.2921453647702887"><ele>75.8</ele><time>2026-04-06T10:20:37.001Z</time></trkpt><trkpt lat="43.46167066439163" lon="3.292157489890826"><ele>76.6</ele><time>2026-04-06T10:20:39.001Z</time></trkpt><trkpt lat="43.461564704370005" lon="3.2921690187003674"><ele>77.4</ele><time>2026-04-06T10:20:41.001Z</time></trkpt><trkpt lat="43.46145972788385" lon="3.2921847051779967"><ele>78.2</ele><time>2026-04-06T10:20:43.001Z</time></trkpt><trkpt lat="43.46135648181257" lon="3.292193313337127"><ele>79.0</ele><time>2026-04-06T10:20:45.001Z</time></trkpt><trkpt lat="43.46125622991694" lon="3.2922074896927414"><ele>79.4</ele><time>2026-04-06T10:20:47.001Z</time></trkpt><trkpt lat="43.46115690755127" lon="3.292216782032548"><ele>79.80000000000001</ele><time>2026-04-06T10:20:49.001Z</time></trkpt><trkpt lat="43.46106392568992" lon="3.2922297927505646"><ele>80.19999999999999</ele><time>2026-04-06T10:20:51.001Z</time></trkpt><trkpt lat="43.460970683205865" lon="3.2922372414054646"><ele>80.6</ele><time>2026-04-06T10:20:53.001Z</time></trkpt><trkpt lat="43.46087731713587" lon="3.2922453947492905"><ele>81.0</ele><time>2026-04-06T10:20:55.001Z</time></trkpt><trkpt lat="43.46078301470452" lon="3.2922429757848004"><ele>81.0</ele><time>2026-04-06T10:20:57.001Z</time></trkpt><trkpt lat="43.46068761599786" lon="3.292235094827068"><ele>81.0</ele><time>2026-04-06T10:20:59.001Z</time></trkpt><trkpt lat="43.46059033701644" lon="3.2922107833144794"><ele>81.0</ele><time>2026-04-06T10:21:01.001Z</time></trkpt><trkpt lat="43.46049420883397" lon="3.2921861189509447"><ele>81.0</ele><time>2026-04-06T10:21:03.001Z</time></trkpt><trkpt lat="43.46040043708323" lon="3.292159515715227"><ele>81.0</ele><time>2026-04-06T10:21:05.001Z</time></trkpt><trkpt lat="43.46030500296697" lon="3.292128838443402"><ele>80.8</ele><time>2026-04-06T10:21:07.001Z</time></trkpt><trkpt lat="43.4602076213424" lon="3.2920998645345585"><ele>80.6</ele><time>2026-04-06T10:21:09.001Z</time></trkpt><trkpt lat="43.46010807771477" lon="3.292068153462812"><ele>80.4</ele><time>2026-04-06T10:21:11.001Z</time></trkpt><trkpt lat="43.46001083894901" lon="3.2920395628825125"><ele>80.2</ele><time>2026-04-06T10:21:13.001Z</time></trkpt><trkpt lat="43.45991464573025" lon="3.2920158555814933"><ele>80.0</ele><time>2026-04-06T10:21:15.001Z</time></trkpt><trkpt lat="43.45981871187282" lon="3.291989964349704"><ele>80.0</ele><time>2026-04-06T10:21:17.001Z</time></trkpt><trkpt lat="43.45972238475343" lon="3.2919656640923445"><ele>80.0</ele><time>2026-04-06T10:21:19.001Z</time></trkpt><trkpt lat="43.45962467153675" lon="3.291943363906756"><ele>80.0</ele><time>2026-04-06T10:21:21.001Z</time></trkpt><trkpt lat="43.45952860572989" lon="3.2919141205162354"><ele>80.0</ele><time>2026-04-06T10:21:23.001Z</time></trkpt><trkpt lat="43.45943113265581" lon="3.2918968820753376"><ele>80.0</ele><time>2026-04-06T10:21:25.001Z</time></trkpt><trkpt lat="43.459336457238805" lon="3.291875706095449"><ele>80.4</ele><time>2026-04-06T10:21:27.001Z</time></trkpt><trkpt lat="43.459242462318294" lon="3.2918609690056915"><ele>80.8</ele><time>2026-04-06T10:21:29.001Z</time></trkpt><trkpt lat="43.45914697947301" lon="3.2918458148156735"><ele>81.19999999999999</ele><time>2026-04-06T10:21:31.001Z</time></trkpt><trkpt lat="43.45905135541846" lon="3.2918358143776105"><ele>81.6</ele><time>2026-04-06T10:21:33.001Z</time></trkpt><trkpt lat="43.45895045116509" lon="3.2918417044060755"><ele>82.0</ele><time>2026-04-06T10:21:35.001Z</time></trkpt><trkpt lat="43.4588455807435" lon="3.2918669190084486"><ele>81.5</ele><time>2026-04-06T10:21:37.001Z</time></trkpt><trkpt lat="43.458740611109455" lon="3.2919234767128556"><ele>81.0</ele><time>2026-04-06T10:21:39.001Z</time></trkpt><trkpt lat="43.458638229716286" lon="3.291988020160697"><ele>80.5</ele><time>2026-04-06T10:21:41.001Z</time></trkpt><trkpt lat="43.45853843976842" lon="3.292068328756502"><ele>80.0</ele><time>2026-04-06T10:21:43.001Z</time></trkpt><trkpt lat="43.45843870979573" lon="3.2921455542499394"><ele>80.0</ele><time>2026-04-06T10:21:45.001Z</time></trkpt><trkpt lat="43.45834107668194" lon="3.2922252176102362"><ele>80.0</ele><time>2026-04-06T10:21:47.001Z</time></trkpt><trkpt lat="43.45824197552572" lon="3.2923017882138352"><ele>80.0</ele><time>2026-04-06T10:21:49.001Z</time></trkpt><trkpt lat="43.458143268614386" lon="3.292374722166495"><ele>80.0</ele><time>2026-04-06T10:21:51.001Z</time></trkpt><trkpt lat="43.45804844278484" lon="3.29245373811255"><ele>79.4</ele><time>2026-04-06T10:21:53.001Z</time></trkpt><trkpt lat="43.45795124063128" lon="3.292526849295417"><ele>78.8</ele><time>2026-04-06T10:21:55.001Z</time></trkpt><trkpt lat="43.457856278121746" lon="3.292603121707299"><ele>78.2</ele><time>2026-04-06T10:21:57.001Z</time></trkpt><trkpt lat="43.45775758351569" lon="3.2926725548505074"><ele>77.6</ele><time>2026-04-06T10:21:59.001Z</time></trkpt><trkpt lat="43.45765942888193" lon="3.2927511158990748"><ele>77.0</ele><time>2026-04-06T10:22:01.001Z</time></trkpt><trkpt lat="43.457557489305756" lon="3.2928307101332095"><ele>77.0</ele><time>2026-04-06T10:22:03.001Z</time></trkpt><trkpt lat="43.45745164103092" lon="3.292909375333656"><ele>77.0</ele><time>2026-04-06T10:22:05.001Z</time></trkpt><trkpt lat="43.457340511479025" lon="3.292994209299453"><ele>77.0</ele><time>2026-04-06T10:22:07.001Z</time></trkpt><trkpt lat="43.457283090481155" lon="3.293039433152408"><ele>77.0</ele><time>2026-04-06T10:22:08.001Z</time></trkpt><trkpt lat="43.45722788279337" lon="3.293088948217086"><ele>77.0</ele><time>2026-04-06T10:22:09.001Z</time></trkpt><trkpt lat="43.45717139890072" lon="3.293135252287312"><ele>77.0</ele><time>2026-04-06T10:22:10.001Z</time></trkpt><trkpt lat="43.4571121911578" lon="3.2931773009787184"><ele>76.57142857142857</ele><time>2026-04-06T10:22:11.001Z</time></trkpt><trkpt lat="43.457052490271934" lon="3.2932215459664484"><ele>76.14285714285714</ele><time>2026-04-06T10:22:12.001Z</time></trkpt><trkpt lat="43.45699251493847" lon="3.293267718383816"><ele>75.71428571428572</ele><time>2026-04-06T10:22:13.001Z</time></trkpt><trkpt lat="43.456931898107484" lon="3.2933181313642477"><ele>75.28571428571428</ele><time>2026-04-06T10:22:14.001Z</time></trkpt><trkpt lat="43.45686753196215" lon="3.293367931028731"><ele>74.85714285714286</ele><time>2026-04-06T10:22:15.001Z</time></trkpt><trkpt lat="43.456803589633175" lon="3.2934135045868547"><ele>74.42857142857143</ele><time>2026-04-06T10:22:16.001Z</time></trkpt><trkpt lat="43.45674101988713" lon="3.293463845839244"><ele>74.0</ele><time>2026-04-06T10:22:17.001Z</time></trkpt><trkpt lat="43.456679822663105" lon="3.2935151260575206"><ele>74.0</ele><time>2026-04-06T10:22:18.001Z</time></trkpt><trkpt lat="43.45661809480283" lon="3.2935647706351934"><ele>74.0</ele><time>2026-04-06T10:22:19.001Z</time></trkpt><trkpt lat="43.45655688047141" lon="3.293612642885515"><ele>74.0</ele><time>2026-04-06T10:22:20.001Z</time></trkpt><trkpt lat="43.45649339855214" lon="3.293657321423822"><ele>74.0</ele><time>2026-04-06T10:22:21.001Z</time></trkpt><trkpt lat="43.456432862824215" lon="3.2937093252591394"><ele>74.0</ele><time>2026-04-06T10:22:22.001Z</time></trkpt><trkpt lat="43.45637418493916" lon="3.2937618526852313"><ele>74.0</ele><time>2026-04-06T10:22:23.001Z</time></trkpt><trkpt lat="43.45631405809166" lon="3.2938081453700603"><ele>74.0</ele><time>2026-04-06T10:22:24.001Z</time></trkpt><trkpt lat="43.45625376322956" lon="3.293854056986377"><ele>73.66666666666667</ele><time>2026-04-06T10:22:25.001Z</time></trkpt><trkpt lat="43.456194121668446" lon="3.2938995964742492"><ele>73.33333333333334</ele><time>2026-04-06T10:22:26.001Z</time></trkpt><trkpt lat="43.45613746737774" lon="3.2939467230009134"><ele>73.0</ele><time>2026-04-06T10:22:27.001Z</time></trkpt><trkpt lat="43.45607913946802" lon="3.2939877279764174"><ele>72.66666666666667</ele><time>2026-04-06T10:22:28.001Z</time></trkpt><trkpt lat="43.45601858849938" lon="3.2940270236936033"><ele>72.33333333333333</ele><time>2026-04-06T10:22:29.001Z</time></trkpt><trkpt lat="43.4559648289981" lon="3.294074277821735"><ele>72.0</ele><time>2026-04-06T10:22:30.001Z</time></trkpt><trkpt lat="43.45586538414987" lon="3.294168724998651"><ele>72.0</ele><time>2026-04-06T10:22:32.001Z</time></trkpt><trkpt lat="43.455748836140266" lon="3.2942061411836834"><ele>72.0</ele><time>2026-04-06T10:22:34.001Z</time></trkpt><trkpt lat="43.45562693403137" lon="3.2942132691657093"><ele>72.0</ele><time>2026-04-06T10:22:36.001Z</time></trkpt><trkpt lat="43.455506454097765" lon="3.2942205623360246"><ele>72.0</ele><time>2026-04-06T10:22:38.001Z</time></trkpt><trkpt lat="43.455386995357756" lon="3.2942311425413173"><ele>72.0</ele><time>2026-04-06T10:22:40.001Z</time></trkpt><trkpt lat="43.455270219152645" lon="3.2942403125277404"><ele>72.0</ele><time>2026-04-06T10:22:42.001Z</time></trkpt><trkpt lat="43.455145904037074" lon="3.29424958842377"><ele>72.0</ele><time>2026-04-06T10:22:44.001Z</time></trkpt><trkpt lat="43.45502801644035" lon="3.294255224234845"><ele>72.0</ele><time>2026-04-06T10:22:46.001Z</time></trkpt><trkpt lat="43.45490865073523" lon="3.2942708834390224"><ele>72.0</ele><time>2026-04-06T10:22:48.001Z</time></trkpt><trkpt lat="43.454798149115895" lon="3.294282299984472"><ele>72.0</ele><time>2026-04-06T10:22:50.001Z</time></trkpt><trkpt lat="43.45469065821148" lon="3.294288436841228"><ele>72.0</ele><time>2026-04-06T10:22:52.001Z</time></trkpt><trkpt lat="43.45458293644793" lon="3.29429290856206"><ele>72.0</ele><time>2026-04-06T10:22:54.001Z</time></trkpt><trkpt lat="43.454478024302226" lon="3.2942983587315093"><ele>72.0</ele><time>2026-04-06T10:22:56.001Z</time></trkpt><trkpt lat="43.454377224646564" lon="3.2943136635508363"><ele>71.83333333333333</ele><time>2026-04-06T10:22:58.001Z</time></trkpt><trkpt lat="43.45428576397543" lon="3.2943244047146063"><ele>71.66666666666667</ele><time>2026-04-06T10:23:00.001Z</time></trkpt><trkpt lat="43.45419879100259" lon="3.294343480320395"><ele>71.5</ele><time>2026-04-06T10:23:02.001Z</time></trkpt><trkpt lat="43.4541257804157" lon="3.2943645318707464"><ele>71.33333333333334</ele><time>2026-04-06T10:23:04.001Z</time></trkpt><trkpt lat="43.45407338161657" lon="3.2943113919083933"><ele>71.16666666666667</ele><time>2026-04-06T10:23:05.001Z</time></trkpt><trkpt lat="43.45400218341528" lon="3.2942289941750453"><ele>71.0</ele><time>2026-04-06T10:23:07.001Z</time></trkpt><trkpt lat="43.45392768326477" lon="3.2941415838122063"><ele>71.0</ele><time>2026-04-06T10:23:09.001Z</time></trkpt><trkpt lat="43.45384998317001" lon="3.2940556321608208"><ele>71.0</ele><time>2026-04-06T10:23:11.001Z</time></trkpt><trkpt lat="43.453759471317504" lon="3.2939560919063897"><ele>71.0</ele><time>2026-04-06T10:23:13.001Z</time></trkpt><trkpt lat="43.45367561758801" lon="3.293865314809243"><ele>71.0</ele><time>2026-04-06T10:23:15.001Z</time></trkpt><trkpt lat="43.453588332964856" lon="3.2937803083404087"><ele>71.0</ele><time>2026-04-06T10:23:17.001Z</time></trkpt><trkpt lat="43.45349419355635" lon="3.293706835721744"><ele>70.75</ele><time>2026-04-06T10:23:19.001Z</time></trkpt><trkpt lat="43.45338384558024" lon="3.2936927449538875"><ele>70.5</ele><time>2026-04-06T10:23:21.001Z</time></trkpt><trkpt lat="43.45326697124304" lon="3.2937084365737976"><ele>70.25</ele><time>2026-04-06T10:23:23.001Z</time></trkpt><trkpt lat="43.45315109207114" lon="3.293721119814643"><ele>70.0</ele><time>2026-04-06T10:23:25.001Z</time></trkpt><trkpt lat="43.4530338359326" lon="3.293728322904383"><ele>69.75</ele><time>2026-04-06T10:23:27.001Z</time></trkpt><trkpt lat="43.4529123849164" lon="3.2937370489473907"><ele>69.5</ele><time>2026-04-06T10:23:29.001Z</time></trkpt><trkpt lat="43.45279794044971" lon="3.2937378534076256"><ele>69.25</ele><time>2026-04-06T10:23:31.001Z</time></trkpt><trkpt lat="43.452677253231464" lon="3.2937315865640673"><ele>69.0</ele><time>2026-04-06T10:23:33.001Z</time></trkpt><trkpt lat="43.45255718111555" lon="3.293715963759818"><ele>69.0</ele><time>2026-04-06T10:23:35.001Z</time></trkpt><trkpt lat="43.45244144951881" lon="3.293698924256006"><ele>69.0</ele><time>2026-04-06T10:23:37.001Z</time></trkpt><trkpt lat="43.45232951394662" lon="3.293682739605846"><ele>69.0</ele><time>2026-04-06T10:23:39.001Z</time></trkpt><trkpt lat="43.45221652806481" lon="3.293668645326121"><ele>69.0</ele><time>2026-04-06T10:23:41.001Z</time></trkpt><trkpt lat="43.4521078116614" lon="3.293649213605638"><ele>70.2</ele><time>2026-04-06T10:23:43.001Z</time></trkpt><trkpt lat="43.45200526706043" lon="3.293626277378576"><ele>71.4</ele><time>2026-04-06T10:23:45.001Z</time></trkpt><trkpt lat="43.45189980769893" lon="3.2935977798312592"><ele>72.6</ele><time>2026-04-06T10:23:47.001Z</time></trkpt><trkpt lat="43.451797133767975" lon="3.293558433810646"><ele>73.8</ele><time>2026-04-06T10:23:49.001Z</time></trkpt><trkpt lat="43.45169615954417" lon="3.2935349644075016"><ele>75.0</ele><time>2026-04-06T10:23:51.001Z</time></trkpt><trkpt lat="43.45160320047517" lon="3.293512562918118"><ele>75.0</ele><time>2026-04-06T10:23:53.001Z</time></trkpt><trkpt lat="43.45150445166791" lon="3.2935028861666447"><ele>75.0</ele><time>2026-04-06T10:23:55.001Z</time></trkpt><trkpt lat="43.45139433338612" lon="3.2935227263233835"><ele>75.0</ele><time>2026-04-06T10:23:57.001Z</time></trkpt><trkpt lat="43.45128781278612" lon="3.293586896794855"><ele>75.0</ele><time>2026-04-06T10:23:59.001Z</time></trkpt><trkpt lat="43.451194772900536" lon="3.2936733003455556"><ele>75.0</ele><time>2026-04-06T10:24:01.001Z</time></trkpt><trkpt lat="43.451093601649795" lon="3.293734732032858"><ele>75.8</ele><time>2026-04-06T10:24:03.001Z</time></trkpt><trkpt lat="43.45098787005931" lon="3.2937763871763295"><ele>76.6</ele><time>2026-04-06T10:24:05.001Z</time></trkpt><trkpt lat="43.45088841376264" lon="3.2938359982782623"><ele>77.4</ele><time>2026-04-06T10:24:07.001Z</time></trkpt><trkpt lat="43.45078678366248" lon="3.2938938439038585"><ele>78.2</ele><time>2026-04-06T10:24:09.001Z</time></trkpt><trkpt lat="43.45069587298928" lon="3.2939455898263117"><ele>79.0</ele><time>2026-04-06T10:24:11.001Z</time></trkpt><trkpt lat="43.4505986000836" lon="3.2939999507081694"><ele>79.6</ele><time>2026-04-06T10:24:13.001Z</time></trkpt><trkpt lat="43.45051934887965" lon="3.294029946728873"><ele>80.2</ele><time>2026-04-06T10:24:15.001Z</time></trkpt><trkpt lat="43.45040709839542" lon="3.2940362704521586"><ele>80.8</ele><time>2026-04-06T10:24:17.001Z</time></trkpt><trkpt lat="43.450297708600935" lon="3.29406143552588"><ele>81.39999999999999</ele><time>2026-04-06T10:24:19.001Z</time></trkpt><trkpt lat="43.450198503218324" lon="3.2940952093449702"><ele>82.0</ele><time>2026-04-06T10:24:21.001Z</time></trkpt><trkpt lat="43.45010040636744" lon="3.2941227472455656"><ele>83.19999999999999</ele><time>2026-04-06T10:24:23.001Z</time></trkpt><trkpt lat="43.45000025214303" lon="3.2941462561486863"><ele>84.4</ele><time>2026-04-06T10:24:25.001Z</time></trkpt><trkpt lat="43.44989417479017" lon="3.2941646211732922"><ele>85.6</ele><time>2026-04-06T10:24:27.001Z</time></trkpt><trkpt lat="43.44978128815818" lon="3.2941843981978582"><ele>86.80000000000001</ele><time>2026-04-06T10:24:29.001Z</time></trkpt><trkpt lat="43.449686355310426" lon="3.294200237562573"><ele>88.0</ele><time>2026-04-06T10:24:31.001Z</time></trkpt><trkpt lat="43.4495704511642" lon="3.2942198443459265"><ele>88.0</ele><time>2026-04-06T10:24:33.001Z</time></trkpt><trkpt lat="43.4494670883337" lon="3.2942391263757664"><ele>88.0</ele><time>2026-04-06T10:24:35.001Z</time></trkpt><trkpt lat="43.44937042914052" lon="3.294257157880047"><ele>88.0</ele><time>2026-04-06T10:24:37.001Z</time></trkpt><trkpt lat="43.449260907242675" lon="3.2942822295787995"><ele>88.0</ele><time>2026-04-06T10:24:39.001Z</time></trkpt><trkpt lat="43.44917028908663" lon="3.2943112840323043"><ele>88.0</ele><time>2026-04-06T10:24:41.001Z</time></trkpt><trkpt lat="43.449088741984816" lon="3.2943368085832567"><ele>88.0</ele><time>2026-04-06T10:24:43.001Z</time></trkpt><trkpt lat="43.44901985096365" lon="3.2943610225774718"><ele>88.0</ele><time>2026-04-06T10:24:45.001Z</time></trkpt><trkpt lat="43.44894154637196" lon="3.294391078112141"><ele>88.0</ele><time>2026-04-06T10:24:47.001Z</time></trkpt><trkpt lat="43.44884125785243" lon="3.2944327011015946"><ele>88.0</ele><time>2026-04-06T10:24:49.001Z</time></trkpt><trkpt lat="43.44874833300988" lon="3.2944756027630264"><ele>88.0</ele><time>2026-04-06T10:24:51.001Z</time></trkpt><trkpt lat="43.44863965532283" lon="3.2945279752192125"><ele>87.60000000000001</ele><time>2026-04-06T10:24:53.001Z</time></trkpt><trkpt lat="43.448534970657086" lon="3.2945786765437894"><ele>87.2</ele><time>2026-04-06T10:24:55.001Z</time></trkpt><trkpt lat="43.4484304353609" lon="3.294623776785187"><ele>86.8</ele><time>2026-04-06T10:24:57.001Z</time></trkpt><trkpt lat="43.44832951494955" lon="3.294666329928694"><ele>86.4</ele><time>2026-04-06T10:24:59.001Z</time></trkpt><trkpt lat="43.448226275796394" lon="3.2947152138363918"><ele>86.0</ele><time>2026-04-06T10:25:01.001Z</time></trkpt><trkpt lat="43.44812415932075" lon="3.294763306170216"><ele>87.19999999999999</ele><time>2026-04-06T10:25:03.001Z</time></trkpt><trkpt lat="43.44801954972733" lon="3.2948073799137334"><ele>88.39999999999999</ele><time>2026-04-06T10:25:05.001Z</time></trkpt><trkpt lat="43.44791942128503" lon="3.2948470669467884"><ele>89.6</ele><time>2026-04-06T10:25:07.001Z</time></trkpt><trkpt lat="43.44782041354349" lon="3.294886309878666"><ele>90.8</ele><time>2026-04-06T10:25:09.001Z</time></trkpt><trkpt lat="43.447734980848566" lon="3.294920023459486"><ele>92.0</ele><time>2026-04-06T10:25:11.001Z</time></trkpt><trkpt lat="43.447647737620954" lon="3.294953660305418"><ele>92.0</ele><time>2026-04-06T10:25:13.001Z</time></trkpt><trkpt lat="43.44755219843099" lon="3.2949904956919798"><ele>92.0</ele><time>2026-04-06T10:25:15.001Z</time></trkpt><trkpt lat="43.44746357427467" lon="3.2950241396312054"><ele>92.0</ele><time>2026-04-06T10:25:17.001Z</time></trkpt><trkpt lat="43.44734928602571" lon="3.2950671214512206"><ele>92.0</ele><time>2026-04-06T10:25:19.001Z</time></trkpt><trkpt lat="43.447243222044875" lon="3.295106154669103"><ele>92.0</ele><time>2026-04-06T10:25:21.001Z</time></trkpt><trkpt lat="43.447135043817404" lon="3.2951440771933345"><ele>92.19999999999999</ele><time>2026-04-06T10:25:23.001Z</time></trkpt><trkpt lat="43.447031149090904" lon="3.295177493060531"><ele>92.4</ele><time>2026-04-06T10:25:25.001Z</time></trkpt><trkpt lat="43.44692965994987" lon="3.295208689083512"><ele>92.6</ele><time>2026-04-06T10:25:27.001Z</time></trkpt><trkpt lat="43.44683757193111" lon="3.29523302642361"><ele>92.80000000000001</ele><time>2026-04-06T10:25:29.001Z</time></trkpt><trkpt lat="43.44675049825739" lon="3.295250844466912"><ele>93.0</ele><time>2026-04-06T10:25:31.001Z</time></trkpt><trkpt lat="43.44665443930402" lon="3.295258959971753"><ele>93.0</ele><time>2026-04-06T10:25:33.001Z</time></trkpt><trkpt lat="43.44656504229297" lon="3.2952139148587336"><ele>93.0</ele><time>2026-04-06T10:25:35.001Z</time></trkpt><trkpt lat="43.44646678068613" lon="3.295157606626676"><ele>93.0</ele><time>2026-04-06T10:25:37.001Z</time></trkpt><trkpt lat="43.446365364562155" lon="3.2951232426469876"><ele>93.0</ele><time>2026-04-06T10:25:39.001Z</time></trkpt><trkpt lat="43.44626689526792" lon="3.2950606601187644"><ele>93.0</ele><time>2026-04-06T10:25:41.001Z</time></trkpt><trkpt lat="43.44615856588741" lon="3.2949967392973574"><ele>92.5</ele><time>2026-04-06T10:25:43.001Z</time></trkpt><trkpt lat="43.44605629736988" lon="3.294930971240511"><ele>92.0</ele><time>2026-04-06T10:25:45.001Z</time></trkpt><trkpt lat="43.445951693274715" lon="3.294875239357196"><ele>91.5</ele><time>2026-04-06T10:25:47.001Z</time></trkpt><trkpt lat="43.44584783387216" lon="3.294818956029439"><ele>91.0</ele><time>2026-04-06T10:25:49.001Z</time></trkpt><trkpt lat="43.44574045497025" lon="3.2947622553629476"><ele>91.75</ele><time>2026-04-06T10:25:51.001Z</time></trkpt><trkpt lat="43.44563420136243" lon="3.2947105609046763"><ele>92.5</ele><time>2026-04-06T10:25:53.001Z</time></trkpt><trkpt lat="43.44552368086127" lon="3.294651947563259"><ele>93.25</ele><time>2026-04-06T10:25:55.001Z</time></trkpt><trkpt lat="43.445420066355524" lon="3.294582580843061"><ele>94.0</ele><time>2026-04-06T10:25:57.001Z</time></trkpt><trkpt lat="43.44532726894718" lon="3.294495162628625"><ele>94.0</ele><time>2026-04-06T10:25:59.001Z</time></trkpt><trkpt lat="43.44523856478381" lon="3.294383567038069"><ele>94.0</ele><time>2026-04-06T10:26:01.001Z</time></trkpt><trkpt lat="43.445153274406934" lon="3.2942647206243656"><ele>94.0</ele><time>2026-04-06T10:26:03.001Z</time></trkpt><trkpt lat="43.44507116007717" lon="3.294144641548068"><ele>94.0</ele><time>2026-04-06T10:26:05.001Z</time></trkpt><trkpt lat="43.444987900638154" lon="3.294030741320607"><ele>94.0</ele><time>2026-04-06T10:26:07.001Z</time></trkpt><trkpt lat="43.4449118789249" lon="3.2939229450191783"><ele>94.0</ele><time>2026-04-06T10:26:09.001Z</time></trkpt><trkpt lat="43.44484027806638" lon="3.2938245938060815"><ele>94.0</ele><time>2026-04-06T10:26:11.001Z</time></trkpt><trkpt lat="43.444749693030566" lon="3.2937417383677974"><ele>94.0</ele><time>2026-04-06T10:26:13.001Z</time></trkpt><trkpt lat="43.4446420036531" lon="3.2936859204732913"><ele>94.0</ele><time>2026-04-06T10:26:15.001Z</time></trkpt><trkpt lat="43.44452683553582" lon="3.2936445544436377"><ele>94.0</ele><time>2026-04-06T10:26:17.001Z</time></trkpt><trkpt lat="43.44440630512189" lon="3.293626385128459"><ele>94.0</ele><time>2026-04-06T10:26:19.001Z</time></trkpt><trkpt lat="43.444287781366796" lon="3.2936234044457695"><ele>94.0</ele><time>2026-04-06T10:26:21.001Z</time></trkpt><trkpt lat="43.44417420761551" lon="3.293613327978561"><ele>94.0</ele><time>2026-04-06T10:26:23.001Z</time></trkpt><trkpt lat="43.44405653264638" lon="3.293588154229586"><ele>94.0</ele><time>2026-04-06T10:26:25.001Z</time></trkpt><trkpt lat="43.44399179113129" lon="3.293570973821837"><ele>94.0</ele><time>2026-04-06T10:26:26.001Z</time></trkpt><trkpt lat="43.44392486485849" lon="3.2935614578502186"><ele>94.0</ele><time>2026-04-06T10:26:27.001Z</time></trkpt><trkpt lat="43.4438569673043" lon="3.293544850740262"><ele>94.0</ele><time>2026-04-06T10:26:28.001Z</time></trkpt><trkpt lat="43.44378692503155" lon="3.293524298834714"><ele>94.0</ele><time>2026-04-06T10:26:29.001Z</time></trkpt><trkpt lat="43.443718604263054" lon="3.2935009494317513"><ele>94.0</ele><time>2026-04-06T10:26:30.001Z</time></trkpt><trkpt lat="43.443650379853274" lon="3.293479380621347"><ele>94.0</ele><time>2026-04-06T10:26:31.001Z</time></trkpt><trkpt lat="43.44357912947664" lon="3.2934552557629946"><ele>93.28571428571428</ele><time>2026-04-06T10:26:32.001Z</time></trkpt><trkpt lat="43.44351059391962" lon="3.2934253739139323"><ele>92.57142857142857</ele><time>2026-04-06T10:26:33.001Z</time></trkpt><trkpt lat="43.44343911085542" lon="3.293397157536731"><ele>91.85714285714286</ele><time>2026-04-06T10:26:34.001Z</time></trkpt><trkpt lat="43.44336906305079" lon="3.293366249531688"><ele>91.14285714285714</ele><time>2026-04-06T10:26:35.001Z</time></trkpt><trkpt lat="43.44329775652957" lon="3.293332452949837"><ele>90.42857142857143</ele><time>2026-04-06T10:26:36.001Z</time></trkpt><trkpt lat="43.443227694025296" lon="3.293297008135906"><ele>89.71428571428571</ele><time>2026-04-06T10:26:37.001Z</time></trkpt><trkpt lat="43.44315648888665" lon="3.293260881461424"><ele>89.0</ele><time>2026-04-06T10:26:38.001Z</time></trkpt><trkpt lat="43.443082610345535" lon="3.29322528261496"><ele>88.99999999999999</ele><time>2026-04-06T10:26:39.001Z</time></trkpt><trkpt lat="43.44301110616839" lon="3.2931971756586247"><ele>89.0</ele><time>2026-04-06T10:26:40.001Z</time></trkpt><trkpt lat="43.442944272318144" lon="3.293172837118217"><ele>89.0</ele><time>2026-04-06T10:26:41.001Z</time></trkpt><trkpt lat="43.44287876435127" lon="3.2931575311538586"><ele>89.0</ele><time>2026-04-06T10:26:42.001Z</time></trkpt><trkpt lat="43.442811444911165" lon="3.293149442060912"><ele>89.0</ele><time>2026-04-06T10:26:43.001Z</time></trkpt><trkpt lat="43.44274212679599" lon="3.2931418777265087"><ele>88.99999999999999</ele><time>2026-04-06T10:26:44.001Z</time></trkpt><trkpt lat="43.44267181502577" lon="3.2931385097019468"><ele>89.0</ele><time>2026-04-06T10:26:45.001Z</time></trkpt><trkpt lat="43.44259991328964" lon="3.2931376277229543"><ele>88.42857142857142</ele><time>2026-04-06T10:26:46.001Z</time></trkpt><trkpt lat="43.44252772137004" lon="3.2931446663694115"><ele>87.85714285714286</ele><time>2026-04-06T10:26:47.001Z</time></trkpt><trkpt lat="43.44245765728608" lon="3.2931576352601635"><ele>87.28571428571428</ele><time>2026-04-06T10:26:48.001Z</time></trkpt><trkpt lat="43.44238554216101" lon="3.293169959506243"><ele>86.71428571428571</ele><time>2026-04-06T10:26:49.001Z</time></trkpt><trkpt lat="43.442314846394304" lon="3.2931864979059298"><ele>86.14285714285714</ele><time>2026-04-06T10:26:50.001Z</time></trkpt><trkpt lat="43.442247511826686" lon="3.2932072501438556"><ele>85.57142857142857</ele><time>2026-04-06T10:26:51.001Z</time></trkpt><trkpt lat="43.442182782994294" lon="3.293241764379033"><ele>85.0</ele><time>2026-04-06T10:26:52.001Z</time></trkpt><trkpt lat="43.442122251931536" lon="3.2932792358465974"><ele>84.85714285714286</ele><time>2026-04-06T10:26:53.001Z</time></trkpt><trkpt lat="43.44206223008215" lon="3.2933235305737973"><ele>84.71428571428571</ele><time>2026-04-06T10:26:54.001Z</time></trkpt><trkpt lat="43.44200385134248" lon="3.293357936929026"><ele>84.57142857142857</ele><time>2026-04-06T10:26:55.001Z</time></trkpt><trkpt lat="43.44194543320294" lon="3.2933932441657383"><ele>84.42857142857143</ele><time>2026-04-06T10:26:56.001Z</time></trkpt><trkpt lat="43.44188725363971" lon="3.2934350739301004"><ele>84.28571428571428</ele><time>2026-04-06T10:26:57.001Z</time></trkpt><trkpt lat="43.44182764476808" lon="3.293476491714772"><ele>84.14285714285714</ele><time>2026-04-06T10:26:58.001Z</time></trkpt><trkpt lat="43.44176960505898" lon="3.2935193441632586"><ele>84.0</ele><time>2026-04-06T10:26:59.001Z</time></trkpt><trkpt lat="43.441711869558404" lon="3.2935625971149047"><ele>84.0</ele><time>2026-04-06T10:27:00.001Z</time></trkpt><trkpt lat="43.441651048849984" lon="3.293605337093101"><ele>84.0</ele><time>2026-04-06T10:27:01.001Z</time></trkpt><trkpt lat="43.441588466313775" lon="3.2936424304844945"><ele>84.0</ele><time>2026-04-06T10:27:02.001Z</time></trkpt><trkpt lat="43.44152756939772" lon="3.2936851086918644"><ele>84.0</ele><time>2026-04-06T10:27:03.001Z</time></trkpt><trkpt lat="43.44146808187921" lon="3.2937286831956"><ele>84.0</ele><time>2026-04-06T10:27:04.001Z</time></trkpt><trkpt lat="43.44140813612934" lon="3.293771906334823"><ele>84.0</ele><time>2026-04-06T10:27:05.001Z</time></trkpt><trkpt lat="43.44134665757036" lon="3.2938116090047695"><ele>84.0</ele><time>2026-04-06T10:27:06.001Z</time></trkpt><trkpt lat="43.44128624238853" lon="3.293851285685213"><ele>84.0</ele><time>2026-04-06T10:27:07.001Z</time></trkpt><trkpt lat="43.441225155191916" lon="3.293891641871404"><ele>84.0</ele><time>2026-04-06T10:27:08.001Z</time></trkpt><trkpt lat="43.44116414094092" lon="3.2939354542082913"><ele>84.0</ele><time>2026-04-06T10:27:09.001Z</time></trkpt><trkpt lat="43.44110325568731" lon="3.2939781739621696"><ele>84.0</ele><time>2026-04-06T10:27:10.001Z</time></trkpt><trkpt lat="43.44104156051888" lon="3.2940189371138273"><ele>84.0</ele><time>2026-04-06T10:27:11.001Z</time></trkpt><trkpt lat="43.44097893819896" lon="3.2940598654769686"><ele>84.0</ele><time>2026-04-06T10:27:12.001Z</time></trkpt><trkpt lat="43.440918308600644" lon="3.294103264554564"><ele>84.0</ele><time>2026-04-06T10:27:13.001Z</time></trkpt><trkpt lat="43.44085737912776" lon="3.294145980295191"><ele>83.71428571428571</ele><time>2026-04-06T10:27:14.001Z</time></trkpt><trkpt lat="43.44079528164771" lon="3.294187052156883"><ele>83.42857142857143</ele><time>2026-04-06T10:27:15.001Z</time></trkpt><trkpt lat="43.44073369392193" lon="3.2942287291885126"><ele>83.14285714285714</ele><time>2026-04-06T10:27:16.001Z</time></trkpt><trkpt lat="43.44067129561634" lon="3.294271529126974"><ele>82.85714285714286</ele><time>2026-04-06T10:27:17.001Z</time></trkpt><trkpt lat="43.440608430571494" lon="3.294311995275123"><ele>82.57142857142857</ele><time>2026-04-06T10:27:18.001Z</time></trkpt><trkpt lat="43.4405457934558" lon="3.294352292051652"><ele>82.28571428571428</ele><time>2026-04-06T10:27:19.001Z</time></trkpt><trkpt lat="43.44048211334407" lon="3.2943952542749693"><ele>82.0</ele><time>2026-04-06T10:27:20.001Z</time></trkpt><trkpt lat="43.440417580813524" lon="3.294439062531798"><ele>81.99999999999999</ele><time>2026-04-06T10:27:21.001Z</time></trkpt><trkpt lat="43.44035324185785" lon="3.2944830398847875"><ele>82.0</ele><time>2026-04-06T10:27:22.001Z</time></trkpt><trkpt lat="43.440288032924016" lon="3.2945276589796877"><ele>82.0</ele><time>2026-04-06T10:27:23.001Z</time></trkpt><trkpt lat="43.4402202722778" lon="3.2945709258925753"><ele>82.0</ele><time>2026-04-06T10:27:24.001Z</time></trkpt><trkpt lat="43.440153892801945" lon="3.294616592946381"><ele>82.0</ele><time>2026-04-06T10:27:25.001Z</time></trkpt><trkpt lat="43.44008708001243" lon="3.2946620810058316"><ele>81.99999999999999</ele><time>2026-04-06T10:27:26.001Z</time></trkpt><trkpt lat="43.440019851591245" lon="3.29470634392639"><ele>82.0</ele><time>2026-04-06T10:27:27.001Z</time></trkpt><trkpt lat="43.43995181673246" lon="3.29474860604297"><ele>81.99999999999999</ele><time>2026-04-06T10:27:28.001Z</time></trkpt><trkpt lat="43.43988155600701" lon="3.2947829348559865"><ele>82.0</ele><time>2026-04-06T10:27:29.001Z</time></trkpt><trkpt lat="43.43980893704075" lon="3.294812508799349"><ele>82.0</ele><time>2026-04-06T10:27:30.001Z</time></trkpt><trkpt lat="43.43973847188889" lon="3.2948440366206473"><ele>82.0</ele><time>2026-04-06T10:27:31.001Z</time></trkpt><trkpt lat="43.43966906439154" lon="3.2948743428899543"><ele>82.0</ele><time>2026-04-06T10:27:32.001Z</time></trkpt><trkpt lat="43.43960184330021" lon="3.2949007178108274"><ele>81.99999999999999</ele><time>2026-04-06T10:27:33.001Z</time></trkpt><trkpt lat="43.43953561367619" lon="3.294925624454641"><ele>82.0</ele><time>2026-04-06T10:27:34.001Z</time></trkpt><trkpt lat="43.43947089217137" lon="3.294948858096443"><ele>82.0</ele><time>2026-04-06T10:27:35.001Z</time></trkpt><trkpt lat="43.439406903557106" lon="3.2949708541392386"><ele>82.0</ele><time>2026-04-06T10:27:36.001Z</time></trkpt><trkpt lat="43.439343748821074" lon="3.2949916238717893"><ele>82.0</ele><time>2026-04-06T10:27:37.001Z</time></trkpt><trkpt lat="43.43922319699517" lon="3.2950291947553327"><ele>82.0</ele><time>2026-04-06T10:27:39.001Z</time></trkpt><trkpt lat="43.43910209874387" lon="3.2950627650858006"><ele>82.0</ele><time>2026-04-06T10:27:41.001Z</time></trkpt><trkpt lat="43.43897806395075" lon="3.2950908522746563"><ele>82.0</ele><time>2026-04-06T10:27:43.001Z</time></trkpt><trkpt lat="43.43885499893044" lon="3.295121712260684"><ele>82.0</ele><time>2026-04-06T10:27:45.001Z</time></trkpt><trkpt lat="43.438792549737954" lon="3.2951368071629803"><ele>82.0</ele><time>2026-04-06T10:27:46.001Z</time></trkpt><trkpt lat="43.43866994403608" lon="3.295171667779865"><ele>82.0</ele><time>2026-04-06T10:27:48.001Z</time></trkpt><trkpt lat="43.43860823566458" lon="3.295190393483038"><ele>82.0</ele><time>2026-04-06T10:27:49.001Z</time></trkpt><trkpt lat="43.43854724138775" lon="3.295215877675385"><ele>82.0</ele><time>2026-04-06T10:27:50.001Z</time></trkpt><trkpt lat="43.43848811941989" lon="3.2952479545147697"><ele>81.85714285714285</ele><time>2026-04-06T10:27:51.001Z</time></trkpt><trkpt lat="43.43842904560528" lon="3.2952839934320974"><ele>81.71428571428571</ele><time>2026-04-06T10:27:52.001Z</time></trkpt><trkpt lat="43.43837081110845" lon="3.2953230774599986"><ele>81.57142857142857</ele><time>2026-04-06T10:27:53.001Z</time></trkpt><trkpt lat="43.43831470525507" lon="3.295368082344548"><ele>81.42857142857142</ele><time>2026-04-06T10:27:54.001Z</time></trkpt><trkpt lat="43.43825999052575" lon="3.2954154787701446"><ele>81.28571428571428</ele><time>2026-04-06T10:27:55.001Z</time></trkpt><trkpt lat="43.43820590898542" lon="3.2954635800001304"><ele>81.14285714285714</ele><time>2026-04-06T10:27:56.001Z</time></trkpt><trkpt lat="43.4381528269902" lon="3.2955186982539337"><ele>81.0</ele><time>2026-04-06T10:27:57.001Z</time></trkpt><trkpt lat="43.438102749038045" lon="3.29557233660508"><ele>81.0</ele><time>2026-04-06T10:27:58.001Z</time></trkpt><trkpt lat="43.4380551815565" lon="3.2956302879037174"><ele>81.0</ele><time>2026-04-06T10:27:59.001Z</time></trkpt><trkpt lat="43.43800932088228" lon="3.2956917271804436"><ele>81.0</ele><time>2026-04-06T10:28:00.001Z</time></trkpt><trkpt lat="43.43796617735806" lon="3.2957557635268033"><ele>81.0</ele><time>2026-04-06T10:28:01.001Z</time></trkpt><trkpt lat="43.43792448173474" lon="3.2958209544258668"><ele>81.0</ele><time>2026-04-06T10:28:02.001Z</time></trkpt><trkpt lat="43.43787952362035" lon="3.295884716137283"><ele>81.0</ele><time>2026-04-06T10:28:03.001Z</time></trkpt><trkpt lat="43.43783286034902" lon="3.2959481298659745"><ele>81.0</ele><time>2026-04-06T10:28:04.001Z</time></trkpt><trkpt lat="43.437789610697976" lon="3.2960175316965756"><ele>80.85714285714286</ele><time>2026-04-06T10:28:05.001Z</time></trkpt><trkpt lat="43.437747583466724" lon="3.296087736373575"><ele>80.71428571428571</ele><time>2026-04-06T10:28:06.001Z</time></trkpt><trkpt lat="43.437703089911956" lon="3.2961575856382495"><ele>80.57142857142857</ele><time>2026-04-06T10:28:07.001Z</time></trkpt><trkpt lat="43.437660179405114" lon="3.2962321200858615"><ele>80.42857142857143</ele><time>2026-04-06T10:28:08.001Z</time></trkpt><trkpt lat="43.43761362673897" lon="3.296302954566989"><ele>80.28571428571429</ele><time>2026-04-06T10:28:09.001Z</time></trkpt><trkpt lat="43.437566812803894" lon="3.2963753675226752"><ele>80.14285714285714</ele><time>2026-04-06T10:28:10.001Z</time></trkpt><trkpt lat="43.43752156594125" lon="3.296448983450659"><ele>80.0</ele><time>2026-04-06T10:28:11.001Z</time></trkpt><trkpt lat="43.437477078562594" lon="3.296519891443526"><ele>80.0</ele><time>2026-04-06T10:28:12.001Z</time></trkpt><trkpt lat="43.43743001120006" lon="3.2965885786145264"><ele>80.0</ele><time>2026-04-06T10:28:13.001Z</time></trkpt><trkpt lat="43.43738374573053" lon="3.2966558165557918"><ele>80.0</ele><time>2026-04-06T10:28:14.001Z</time></trkpt><trkpt lat="43.437340107330634" lon="3.2967206986738757"><ele>80.0</ele><time>2026-04-06T10:28:15.001Z</time></trkpt><trkpt lat="43.437294471383076" lon="3.2967848406208033"><ele>80.0</ele><time>2026-04-06T10:28:16.001Z</time></trkpt><trkpt lat="43.43724772572624" lon="3.2968504506060956"><ele>80.0</ele><time>2026-04-06T10:28:17.001Z</time></trkpt><trkpt lat="43.437204636897874" lon="3.2969170028379744"><ele>80.0</ele><time>2026-04-06T10:28:18.001Z</time></trkpt><trkpt lat="43.4371615263712" lon="3.296981592654258"><ele>79.4</ele><time>2026-04-06T10:28:19.001Z</time></trkpt><trkpt lat="43.43711580093564" lon="3.297041753257722"><ele>78.8</ele><time>2026-04-06T10:28:20.001Z</time></trkpt><trkpt lat="43.43707053056422" lon="3.297102686682732"><ele>78.2</ele><time>2026-04-06T10:28:21.001Z</time></trkpt><trkpt lat="43.43698599250918" lon="3.297225737023142"><ele>77.6</ele><time>2026-04-06T10:28:23.001Z</time></trkpt><trkpt lat="43.43690086295273" lon="3.2973520179232327"><ele>77.0</ele><time>2026-04-06T10:28:25.001Z</time></trkpt><trkpt lat="43.436812069287626" lon="3.2974730785251674"><ele>77.0</ele><time>2026-04-06T10:28:27.001Z</time></trkpt><trkpt lat="43.436734963948666" lon="3.297603328752008"><ele>77.0</ele><time>2026-04-06T10:28:29.001Z</time></trkpt><trkpt lat="43.43666058254261" lon="3.297736450013334"><ele>77.0</ele><time>2026-04-06T10:28:31.001Z</time></trkpt><trkpt lat="43.43659265224015" lon="3.2978722776804186"><ele>77.0</ele><time>2026-04-06T10:28:33.001Z</time></trkpt><trkpt lat="43.43652521581251" lon="3.2980051771921706"><ele>77.25</ele><time>2026-04-06T10:28:35.001Z</time></trkpt><trkpt lat="43.43645968630829" lon="3.298146094902916"><ele>77.5</ele><time>2026-04-06T10:28:37.001Z</time></trkpt><trkpt lat="43.436392952229646" lon="3.2982898820030395"><ele>77.75</ele><time>2026-04-06T10:28:39.001Z</time></trkpt><trkpt lat="43.43632640897401" lon="3.298435317570358"><ele>78.0</ele><time>2026-04-06T10:28:41.001Z</time></trkpt><trkpt lat="43.4362585926807" lon="3.2985792919868464"><ele>79.0</ele><time>2026-04-06T10:28:43.001Z</time></trkpt><trkpt lat="43.43619116951265" lon="3.29872401676484"><ele>80.0</ele><time>2026-04-06T10:28:45.001Z</time></trkpt><trkpt lat="43.43612621647911" lon="3.298865135297009"><ele>81.0</ele><time>2026-04-06T10:28:47.001Z</time></trkpt><trkpt lat="43.43605971216179" lon="3.2990031932535504"><ele>82.0</ele><time>2026-04-06T10:28:49.001Z</time></trkpt><trkpt lat="43.43599416181324" lon="3.299145774290278"><ele>82.0</ele><time>2026-04-06T10:28:51.001Z</time></trkpt><trkpt lat="43.43592940551668" lon="3.299291337954168"><ele>82.0</ele><time>2026-04-06T10:28:53.001Z</time></trkpt><trkpt lat="43.435863822152825" lon="3.2994401515563796"><ele>82.0</ele><time>2026-04-06T10:28:55.001Z</time></trkpt><trkpt lat="43.43583037366641" lon="3.299513958107004"><ele>82.0</ele><time>2026-04-06T10:28:56.001Z</time></trkpt><trkpt lat="43.43579521621381" lon="3.2995869213076574"><ele>82.0</ele><time>2026-04-06T10:28:57.001Z</time></trkpt><trkpt lat="43.43575937302998" lon="3.299659952280362"><ele>82.0</ele><time>2026-04-06T10:28:58.001Z</time></trkpt><trkpt lat="43.43572500376308" lon="3.2997334344034326"><ele>81.625</ele><time>2026-04-06T10:28:59.001Z</time></trkpt><trkpt lat="43.43569159859128" lon="3.299809257684059"><ele>81.25</ele><time>2026-04-06T10:29:00.001Z</time></trkpt><trkpt lat="43.435660450206804" lon="3.2998859915240613"><ele>80.875</ele><time>2026-04-06T10:29:01.001Z</time></trkpt><trkpt lat="43.43562692828957" lon="3.2999609786057404"><ele>80.5</ele><time>2026-04-06T10:29:02.001Z</time></trkpt><trkpt lat="43.43559261136153" lon="3.3000354931225813"><ele>80.125</ele><time>2026-04-06T10:29:03.001Z</time></trkpt><trkpt lat="43.43555862988063" lon="3.3001104599173146"><ele>79.75</ele><time>2026-04-06T10:29:04.001Z</time></trkpt><trkpt lat="43.43552669402626" lon="3.3001861813591638"><ele>79.375</ele><time>2026-04-06T10:29:05.001Z</time></trkpt><trkpt lat="43.43549084275505" lon="3.300259598360619"><ele>79.0</ele><time>2026-04-06T10:29:06.001Z</time></trkpt><trkpt lat="43.43545762128149" lon="3.300336856153712"><ele>79.00000000000001</ele><time>2026-04-06T10:29:07.001Z</time></trkpt><trkpt lat="43.435424641534375" lon="3.3004155826018846"><ele>79.0</ele><time>2026-04-06T10:29:08.001Z</time></trkpt><trkpt lat="43.43539102924084" lon="3.3004956145936033"><ele>79.0</ele><time>2026-04-06T10:29:09.001Z</time></trkpt><trkpt lat="43.43535846202694" lon="3.300576046263072"><ele>79.0</ele><time>2026-04-06T10:29:10.001Z</time></trkpt><trkpt lat="43.43532576264949" lon="3.3006556385619747"><ele>79.0</ele><time>2026-04-06T10:29:11.001Z</time></trkpt><trkpt lat="43.43529213803593" lon="3.3007366859279603"><ele>79.00000000000001</ele><time>2026-04-06T10:29:12.001Z</time></trkpt><trkpt lat="43.43525921782412" lon="3.3008178270057584"><ele>79.0</ele><time>2026-04-06T10:29:13.001Z</time></trkpt><trkpt lat="43.435226981751505" lon="3.30089943453211"><ele>78.28571428571429</ele><time>2026-04-06T10:29:14.001Z</time></trkpt><trkpt lat="43.43519457155667" lon="3.3009819230301742"><ele>77.57142857142857</ele><time>2026-04-06T10:29:15.001Z</time></trkpt><trkpt lat="43.43516252274861" lon="3.3010684229217193"><ele>76.85714285714286</ele><time>2026-04-06T10:29:16.001Z</time></trkpt><trkpt lat="43.43512745438564" lon="3.301154069648641"><ele>76.14285714285714</ele><time>2026-04-06T10:29:17.001Z</time></trkpt><trkpt lat="43.43508841437264" lon="3.301238176218022"><ele>75.42857142857143</ele><time>2026-04-06T10:29:18.001Z</time></trkpt><trkpt lat="43.43505024607747" lon="3.3013255214982196"><ele>74.71428571428572</ele><time>2026-04-06T10:29:19.001Z</time></trkpt><trkpt lat="43.43501449225352" lon="3.301415613600334"><ele>74.0</ele><time>2026-04-06T10:29:20.001Z</time></trkpt><trkpt lat="43.43497855088598" lon="3.301505752373602"><ele>73.66666666666667</ele><time>2026-04-06T10:29:21.001Z</time></trkpt><trkpt lat="43.43494174816678" lon="3.301597516007549"><ele>73.33333333333334</ele><time>2026-04-06T10:29:22.001Z</time></trkpt><trkpt lat="43.434904096195496" lon="3.3016886284991087"><ele>73.0</ele><time>2026-04-06T10:29:23.001Z</time></trkpt><trkpt lat="43.434862395243634" lon="3.3017801280441583"><ele>72.66666666666667</ele><time>2026-04-06T10:29:24.001Z</time></trkpt><trkpt lat="43.434817840489316" lon="3.3018706173534076"><ele>72.33333333333333</ele><time>2026-04-06T10:29:25.001Z</time></trkpt><trkpt lat="43.43477185229617" lon="3.3019589449991975"><ele>72.0</ele><time>2026-04-06T10:29:26Z</time></trkpt><trkpt lat="43.434722004822326" lon="3.3020425510293068"><ele>72.0</ele><time>2026-04-06T10:29:27Z</time></trkpt><trkpt lat="43.43466859661276" lon="3.302121895732243"><ele>72.0</ele><time>2026-04-06T10:29:28Z</time></trkpt><trkpt lat="43.43461049070913" lon="3.302190070257154"><ele>72.0</ele><time>2026-04-06T10:29:29Z</time></trkpt><trkpt lat="43.434551238798676" lon="3.302257477913611"><ele>72.0</ele><time>2026-04-06T10:29:30Z</time></trkpt><trkpt lat="43.43448919958937" lon="3.3023216752895137"><ele>72.0</ele><time>2026-04-06T10:29:31Z</time></trkpt><trkpt lat="43.434424101500376" lon="3.302382595471742"><ele>72.0</ele><time>2026-04-06T10:29:32Z</time></trkpt><trkpt lat="43.434358494531956" lon="3.302435527430194"><ele>72.0</ele><time>2026-04-06T10:29:33Z</time></trkpt><trkpt lat="43.43428974616992" lon="3.3024788520023156"><ele>72.0</ele><time>2026-04-06T10:29:34Z</time></trkpt><trkpt lat="43.43422034896689" lon="3.3025202772660425"><ele>72.0</ele><time>2026-04-06T10:29:35Z</time></trkpt><trkpt lat="43.43414811497806" lon="3.3025561706846385"><ele>72.0</ele><time>2026-04-06T10:29:36Z</time></trkpt><trkpt lat="43.43407537784413" lon="3.302590941750313"><ele>72.0</ele><time>2026-04-06T10:29:37Z</time></trkpt><trkpt lat="43.434004918459046" lon="3.302623926984754"><ele>72.0</ele><time>2026-04-06T10:29:38.001Z</time></trkpt><trkpt lat="43.43393443970309" lon="3.3026536949908922"><ele>72.0</ele><time>2026-04-06T10:29:39.001Z</time></trkpt><trkpt lat="43.43386419714664" lon="3.302678043662354"><ele>72.0</ele><time>2026-04-06T10:29:40.001Z</time></trkpt><trkpt lat="43.43379833120464" lon="3.3027065864130245"><ele>72.0</ele><time>2026-04-06T10:29:41.001Z</time></trkpt><trkpt lat="43.43373771089425" lon="3.302736161621522"><ele>72.0</ele><time>2026-04-06T10:29:42.001Z</time></trkpt><trkpt lat="43.433628814761946" lon="3.3027904649247954"><ele>72.0</ele><time>2026-04-06T10:29:44.001Z</time></trkpt><trkpt lat="43.43352430548098" lon="3.3028330695299197"><ele>72.0</ele><time>2026-04-06T10:29:46.001Z</time></trkpt><trkpt lat="43.433422095625076" lon="3.3028771219124726"><ele>72.2</ele><time>2026-04-06T10:29:48.001Z</time></trkpt><trkpt lat="43.433319932433164" lon="3.3029056411149065"><ele>72.4</ele><time>2026-04-06T10:29:50.001Z</time></trkpt><trkpt lat="43.433221825439695" lon="3.302938936582092"><ele>72.6</ele><time>2026-04-06T10:29:52.001Z</time></trkpt><trkpt lat="43.43312319741535" lon="3.302971962207692"><ele>72.8</ele><time>2026-04-06T10:29:54.001Z</time></trkpt><trkpt lat="43.43302521893218" lon="3.3030155070981984"><ele>73.0</ele><time>2026-04-06T10:29:56.001Z</time></trkpt><trkpt lat="43.43292366440499" lon="3.303054429736528"><ele>73.6</ele><time>2026-04-06T10:29:58.001Z</time></trkpt><trkpt lat="43.43282698400621" lon="3.3031011176117864"><ele>74.19999999999999</ele><time>2026-04-06T10:30:00.001Z</time></trkpt><trkpt lat="43.432728450938654" lon="3.3031590353032043"><ele>74.8</ele><time>2026-04-06T10:30:02.001Z</time></trkpt><trkpt lat="43.43262723789094" lon="3.3032145879259045"><ele>75.39999999999999</ele><time>2026-04-06T10:30:04.001Z</time></trkpt><trkpt lat="43.43252980246635" lon="3.3032735842864684"><ele>76.0</ele><time>2026-04-06T10:30:06.001Z</time></trkpt><trkpt lat="43.43243094466088" lon="3.3033407572493196"><ele>76.0</ele><time>2026-04-06T10:30:08.001Z</time></trkpt><trkpt lat="43.43232812238681" lon="3.303399144642829"><ele>76.0</ele><time>2026-04-06T10:30:10.001Z</time></trkpt><trkpt lat="43.43223021252415" lon="3.3034633384494816"><ele>76.0</ele><time>2026-04-06T10:30:12.001Z</time></trkpt><trkpt lat="43.432130464231165" lon="3.303521871259729"><ele>76.0</ele><time>2026-04-06T10:30:14.001Z</time></trkpt><trkpt lat="43.43203164528418" lon="3.303581855969097"><ele>76.0</ele><time>2026-04-06T10:30:16.001Z</time></trkpt><trkpt lat="43.431928996878064" lon="3.303645293596089"><ele>75.0</ele><time>2026-04-06T10:30:18.001Z</time></trkpt><trkpt lat="43.431826600781505" lon="3.3037112082793274"><ele>74.0</ele><time>2026-04-06T10:30:20.001Z</time></trkpt><trkpt lat="43.431721464842674" lon="3.303776310078164"><ele>73.0</ele><time>2026-04-06T10:30:22.001Z</time></trkpt><trkpt lat="43.43161686814256" lon="3.303839329519052"><ele>72.0</ele><time>2026-04-06T10:30:24.001Z</time></trkpt><trkpt lat="43.4315114588212" lon="3.303897865316441"><ele>72.6</ele><time>2026-04-06T10:30:26.001Z</time></trkpt><trkpt lat="43.431430317879425" lon="3.303952553923563"><ele>73.2</ele><time>2026-04-06T10:30:28.001Z</time></trkpt><trkpt lat="43.43136095503861" lon="3.3039970147069306"><ele>73.8</ele><time>2026-04-06T10:30:30.001Z</time></trkpt><trkpt lat="43.43127790847058" lon="3.304043991727501"><ele>74.4</ele><time>2026-04-06T10:30:32.001Z</time></trkpt><trkpt lat="43.43118294979926" lon="3.3041008269285386"><ele>75.0</ele><time>2026-04-06T10:30:34.001Z</time></trkpt><trkpt lat="43.43108894874823" lon="3.304164239120017"><ele>75.4</ele><time>2026-04-06T10:30:36.001Z</time></trkpt><trkpt lat="43.43099066798128" lon="3.30422832781507"><ele>75.8</ele><time>2026-04-06T10:30:38.001Z</time></trkpt><trkpt lat="43.43088915886935" lon="3.304290994732578"><ele>76.2</ele><time>2026-04-06T10:30:40.001Z</time></trkpt><trkpt lat="43.430784564677374" lon="3.304339882358976"><ele>76.6</ele><time>2026-04-06T10:30:42.001Z</time></trkpt><trkpt lat="43.43067137456582" lon="3.304375294138093"><ele>77.0</ele><time>2026-04-06T10:30:44.001Z</time></trkpt><trkpt lat="43.43054906235293" lon="3.3043839540241744"><ele>76.75</ele><time>2026-04-06T10:30:46.001Z</time></trkpt><trkpt lat="43.43043033203516" lon="3.304368269250626"><ele>76.5</ele><time>2026-04-06T10:30:48.001Z</time></trkpt><trkpt lat="43.43030807976699" lon="3.3043470822109433"><ele>76.25</ele><time>2026-04-06T10:30:50.001Z</time></trkpt><trkpt lat="43.430187215906265" lon="3.3043182031190357"><ele>76.0</ele><time>2026-04-06T10:30:52.001Z</time></trkpt><trkpt lat="43.43006673450413" lon="3.3042805384413456"><ele>76.0</ele><time>2026-04-06T10:30:54.001Z</time></trkpt><trkpt lat="43.43000176184773" lon="3.304265146645311"><ele>76.0</ele><time>2026-04-06T10:30:55.001Z</time></trkpt><trkpt lat="43.42987859077396" lon="3.3042355167327186"><ele>76.0</ele><time>2026-04-06T10:30:57.001Z</time></trkpt><trkpt lat="43.42981627526613" lon="3.304220114228841"><ele>76.0</ele><time>2026-04-06T10:30:58.001Z</time></trkpt><trkpt lat="43.429748670309074" lon="3.3042035943927193"><ele>76.0</ele><time>2026-04-06T10:30:59.001Z</time></trkpt><trkpt lat="43.429685278677056" lon="3.304192818811912"><ele>76.0</ele><time>2026-04-06T10:31:00.001Z</time></trkpt><trkpt lat="43.42962242508181" lon="3.30415459182708"><ele>75.57142857142857</ele><time>2026-04-06T10:31:01.001Z</time></trkpt><trkpt lat="43.429551704357635" lon="3.3041560380602766"><ele>75.14285714285715</ele><time>2026-04-06T10:31:02.001Z</time></trkpt><trkpt lat="43.4294854313769" lon="3.3041267718657"><ele>74.71428571428572</ele><time>2026-04-06T10:31:03.001Z</time></trkpt><trkpt lat="43.42942458826952" lon="3.3040981471719957"><ele>74.28571428571428</ele><time>2026-04-06T10:31:04.001Z</time></trkpt><trkpt lat="43.429358031333805" lon="3.3040664817062817"><ele>73.85714285714286</ele><time>2026-04-06T10:31:05.001Z</time></trkpt><trkpt lat="43.42929045223762" lon="3.3040336221828004"><ele>73.42857142857143</ele><time>2026-04-06T10:31:06.001Z</time></trkpt><trkpt lat="43.42922139736486" lon="3.303995808433287"><ele>73.0</ele><time>2026-04-06T10:31:07.001Z</time></trkpt><trkpt lat="43.429149524200994" lon="3.303968049789783"><ele>73.0</ele><time>2026-04-06T10:31:08.001Z</time></trkpt><trkpt lat="43.4290724581352" lon="3.3039564763683527"><ele>73.0</ele><time>2026-04-06T10:31:09.001Z</time></trkpt><trkpt lat="43.42899580995153" lon="3.3039377051654792"><ele>73.0</ele><time>2026-04-06T10:31:10.001Z</time></trkpt><trkpt lat="43.42892048044314" lon="3.3039148786932797"><ele>73.0</ele><time>2026-04-06T10:31:11.001Z</time></trkpt><trkpt lat="43.42884588299675" lon="3.303899219417297"><ele>73.0</ele><time>2026-04-06T10:31:12.001Z</time></trkpt><trkpt lat="43.42876986462389" lon="3.3038930581738573"><ele>73.0</ele><time>2026-04-06T10:31:13.001Z</time></trkpt><trkpt lat="43.428693208497315" lon="3.303885809444218"><ele>72.71428571428571</ele><time>2026-04-06T10:31:14.001Z</time></trkpt><trkpt lat="43.4286187588267" lon="3.303845039427987"><ele>72.42857142857143</ele><time>2026-04-06T10:31:15.001Z</time></trkpt><trkpt lat="43.42855592315772" lon="3.3037926090768033"><ele>72.14285714285714</ele><time>2026-04-06T10:31:16.001Z</time></trkpt><trkpt lat="43.42848860779919" lon="3.3037505745844467"><ele>71.85714285714286</ele><time>2026-04-06T10:31:17.001Z</time></trkpt><trkpt lat="43.42842422606615" lon="3.3037096579873992"><ele>71.57142857142857</ele><time>2026-04-06T10:31:18.001Z</time></trkpt><trkpt lat="43.42836013464229" lon="3.303663421318151"><ele>71.28571428571428</ele><time>2026-04-06T10:31:19.001Z</time></trkpt><trkpt lat="43.428311592587264" lon="3.303592220460316"><ele>71.0</ele><time>2026-04-06T10:31:20.001Z</time></trkpt><trkpt lat="43.42826394176941" lon="3.3035193011412205"><ele>71.0</ele><time>2026-04-06T10:31:21.001Z</time></trkpt><trkpt lat="43.42821542084958" lon="3.303459416443349"><ele>71.0</ele><time>2026-04-06T10:31:22.001Z</time></trkpt><trkpt lat="43.4281679848745" lon="3.303398845234169"><ele>71.0</ele><time>2026-04-06T10:31:23.001Z</time></trkpt><trkpt lat="43.42807671361205" lon="3.3032898798966963"><ele>71.0</ele><time>2026-04-06T10:31:25.001Z</time></trkpt><trkpt lat="43.42799446438501" lon="3.3031924228057012"><ele>71.0</ele><time>2026-04-06T10:31:27.001Z</time></trkpt><trkpt lat="43.427929262317086" lon="3.3030713023962655"><ele>70.8</ele><time>2026-04-06T10:31:29.001Z</time></trkpt><trkpt lat="43.427867286146196" lon="3.302943905081492"><ele>70.6</ele><time>2026-04-06T10:31:31.001Z</time></trkpt><trkpt lat="43.42778949812065" lon="3.302856418076648"><ele>70.4</ele><time>2026-04-06T10:31:33.001Z</time></trkpt><trkpt lat="43.42772840850496" lon="3.3027318941181396"><ele>70.2</ele><time>2026-04-06T10:31:35.001Z</time></trkpt><trkpt lat="43.42771793796545" lon="3.3025662900134947"><ele>70.0</ele><time>2026-04-06T10:31:37.001Z</time></trkpt><trkpt lat="43.42774005733275" lon="3.302471881126056"><ele>70.0</ele><time>2026-04-06T10:31:38.001Z</time></trkpt><trkpt lat="43.42776156844736" lon="3.3023858189109982"><ele>70.0</ele><time>2026-04-06T10:31:39.001Z</time></trkpt><trkpt lat="43.427785193152715" lon="3.3022925695000875"><ele>70.0</ele><time>2026-04-06T10:31:40.001Z</time></trkpt><trkpt lat="43.42781876443396" lon="3.3021991150271828"><ele>70.0</ele><time>2026-04-06T10:31:41.001Z</time></trkpt><trkpt lat="43.427838876918656" lon="3.302101864832425"><ele>70.0</ele><time>2026-04-06T10:31:42.001Z</time></trkpt><trkpt lat="43.42785081259183" lon="3.30201180197758"><ele>70.0</ele><time>2026-04-06T10:31:43.001Z</time></trkpt><trkpt lat="43.427893676506" lon="3.3018958002483245"><ele>70.0</ele><time>2026-04-06T10:31:44.001Z</time></trkpt><trkpt lat="43.427939509118005" lon="3.301795370733013"><ele>69.66666666666666</ele><time>2026-04-06T10:31:45.001Z</time></trkpt><trkpt lat="43.42798584957313" lon="3.301695421938472"><ele>69.33333333333333</ele><time>2026-04-06T10:31:46.001Z</time></trkpt><trkpt lat="43.428043252999565" lon="3.3016123679126568"><ele>69.0</ele><time>2026-04-06T10:31:47.001Z</time></trkpt><trkpt lat="43.42808171247415" lon="3.301511281872018"><ele>68.66666666666667</ele><time>2026-04-06T10:31:48.001Z</time></trkpt><trkpt lat="43.42811588483433" lon="3.3014219781758327"><ele>68.33333333333334</ele><time>2026-04-06T10:31:49.001Z</time></trkpt><trkpt lat="43.42815030123551" lon="3.3013372261582608"><ele>68.0</ele><time>2026-04-06T10:31:50.001Z</time></trkpt><trkpt lat="43.42818813785416" lon="3.3012523406073786"><ele>67.33333333333334</ele><time>2026-04-06T10:31:51.001Z</time></trkpt><trkpt lat="43.42822270815131" lon="3.301168917546067"><ele>66.66666666666667</ele><time>2026-04-06T10:31:52.001Z</time></trkpt><trkpt lat="43.42826715781503" lon="3.30107355038276"><ele>66.0</ele><time>2026-04-06T10:31:53.001Z</time></trkpt><trkpt lat="43.42830020895398" lon="3.300990199463186"><ele>65.33333333333333</ele><time>2026-04-06T10:31:54.001Z</time></trkpt><trkpt lat="43.42833038685941" lon="3.300910641599189"><ele>64.66666666666666</ele><time>2026-04-06T10:31:55.001Z</time></trkpt><trkpt lat="43.428388020470926" lon="3.300776582458474"><ele>64.0</ele><time>2026-04-06T10:31:57.001Z</time></trkpt><trkpt lat="43.42842177559019" lon="3.3006947269337386"><ele>63.99999999999999</ele><time>2026-04-06T10:31:58.001Z</time></trkpt><trkpt lat="43.428462475942986" lon="3.300610034707723"><ele>64.0</ele><time>2026-04-06T10:31:59.001Z</time></trkpt><trkpt lat="43.42849819139789" lon="3.3005178900597962"><ele>64.0</ele><time>2026-04-06T10:32:00.001Z</time></trkpt><trkpt lat="43.42853767089471" lon="3.300428433164352"><ele>64.0</ele><time>2026-04-06T10:32:01.001Z</time></trkpt><trkpt lat="43.42857784969119" lon="3.3003383562399176"><ele>63.99999999999999</ele><time>2026-04-06T10:32:02.001Z</time></trkpt><trkpt lat="43.42862010017467" lon="3.3002425842195904"><ele>64.0</ele><time>2026-04-06T10:32:03.001Z</time></trkpt><trkpt lat="43.42866236147833" lon="3.3001492934785976"><ele>63.666666666666664</ele><time>2026-04-06T10:32:04.001Z</time></trkpt><trkpt lat="43.428707416776916" lon="3.3000535493170213"><ele>63.33333333333333</ele><time>2026-04-06T10:32:05.001Z</time></trkpt><trkpt lat="43.428758902621574" lon="3.2999578980503994"><ele>63.0</ele><time>2026-04-06T10:32:06.001Z</time></trkpt><trkpt lat="43.4288204425313" lon="3.299897982981849"><ele>62.66666666666667</ele><time>2026-04-06T10:32:07.001Z</time></trkpt><trkpt lat="43.428882351235394" lon="3.2998538685658745"><ele>62.333333333333336</ele><time>2026-04-06T10:32:08.001Z</time></trkpt><trkpt lat="43.42899229296223" lon="3.299763057662546"><ele>62.0</ele><time>2026-04-06T10:32:10.001Z</time></trkpt><trkpt lat="43.42904354732418" lon="3.299708576897466"><ele>60.833333333333336</ele><time>2026-04-06T10:32:11.001Z</time></trkpt><trkpt lat="43.429098124828535" lon="3.2996472884111094"><ele>59.66666666666667</ele><time>2026-04-06T10:32:12.001Z</time></trkpt><trkpt lat="43.429155721942514" lon="3.2995820754239737"><ele>58.5</ele><time>2026-04-06T10:32:13.001Z</time></trkpt><trkpt lat="43.429208043875555" lon="3.2995113529222735"><ele>57.33333333333333</ele><time>2026-04-06T10:32:14.001Z</time></trkpt><trkpt lat="43.42926237813852" lon="3.2994479178942577"><ele>56.166666666666664</ele><time>2026-04-06T10:32:15.001Z</time></trkpt><trkpt lat="43.42934143303955" lon="3.2993452230915095"><ele>55.0</ele><time>2026-04-06T10:32:17.001Z</time></trkpt><trkpt lat="43.42938497511064" lon="3.2992638007121493"><ele>54.99999999999999</ele><time>2026-04-06T10:32:19.001Z</time></trkpt><trkpt lat="43.4293685803817" lon="3.299158984782357"><ele>55.0</ele><time>2026-04-06T10:32:21.001Z</time></trkpt><trkpt lat="43.42943414081432" lon="3.299078975042495"><ele>55.0</ele><time>2026-04-06T10:32:24.001Z</time></trkpt><trkpt lat="43.42949225936165" lon="3.2990444496738407"><ele>55.0</ele><time>2026-04-06T10:32:25.001Z</time></trkpt><trkpt lat="43.42957790391342" lon="3.2989889485231414"><ele>54.99999999999999</ele><time>2026-04-06T10:32:27.001Z</time></trkpt><trkpt lat="43.42966828317138" lon="3.29891661865372"><ele>55.0</ele><time>2026-04-06T10:32:29.001Z</time></trkpt><trkpt lat="43.42975536542813" lon="3.298834793959605"><ele>54.0</ele><time>2026-04-06T10:32:31.001Z</time></trkpt><trkpt lat="43.42985344151635" lon="3.2987564928971627"><ele>53.0</ele><time>2026-04-06T10:32:33.001Z</time></trkpt><trkpt lat="43.42994137355595" lon="3.298684809494898"><ele>52.0</ele><time>2026-04-06T10:32:35.001Z</time></trkpt><trkpt lat="43.430014889623784" lon="3.2986059127333283"><ele>51.0</ele><time>2026-04-06T10:32:37.001Z</time></trkpt><trkpt lat="43.43009482670379" lon="3.298529282312678"><ele>50.0</ele><time>2026-04-06T10:32:39.001Z</time></trkpt><trkpt lat="43.43018202760366" lon="3.298457295607985"><ele>50.0</ele><time>2026-04-06T10:32:41.001Z</time></trkpt><trkpt lat="43.43027219794159" lon="3.2983734645922667"><ele>50.0</ele><time>2026-04-06T10:32:43.001Z</time></trkpt><trkpt lat="43.43035940042219" lon="3.2982725321245323"><ele>50.0</ele><time>2026-04-06T10:32:45.001Z</time></trkpt><trkpt lat="43.43044922212893" lon="3.2981752298939258"><ele>50.0</ele><time>2026-04-06T10:32:47.001Z</time></trkpt><trkpt lat="43.430542121993874" lon="3.298065735927019"><ele>49.75</ele><time>2026-04-06T10:32:49.001Z</time></trkpt><trkpt lat="43.43063476769653" lon="3.2979535448790664"><ele>49.5</ele><time>2026-04-06T10:32:51.001Z</time></trkpt><trkpt lat="43.43071406536227" lon="3.297839152271903"><ele>49.25</ele><time>2026-04-06T10:32:53.001Z</time></trkpt><trkpt lat="43.43079643358935" lon="3.2977221556948564"><ele>49.0</ele><time>2026-04-06T10:32:55.001Z</time></trkpt><trkpt lat="43.430863630567615" lon="3.297611915644863"><ele>49.0</ele><time>2026-04-06T10:32:57.001Z</time></trkpt><trkpt lat="43.430940626418526" lon="3.297505278502416"><ele>49.0</ele><time>2026-04-06T10:32:59.001Z</time></trkpt><trkpt lat="43.431027587145955" lon="3.2974456119114937"><ele>49.0</ele><time>2026-04-06T10:33:01.001Z</time></trkpt><trkpt lat="43.431105206643934" lon="3.297394080520402"><ele>49.0</ele><time>2026-04-06T10:33:03.001Z</time></trkpt><trkpt lat="43.43115886148055" lon="3.297262623010699"><ele>49.0</ele><time>2026-04-06T10:33:05.001Z</time></trkpt><trkpt lat="43.43124312815748" lon="3.2972162800691422"><ele>49.800000000000004</ele><time>2026-04-06T10:33:07.001Z</time></trkpt><trkpt lat="43.4313298063937" lon="3.2971703052534376"><ele>50.6</ele><time>2026-04-06T10:33:09.001Z</time></trkpt><trkpt lat="43.43142923585379" lon="3.2971208467265716"><ele>51.4</ele><time>2026-04-06T10:33:11.001Z</time></trkpt><trkpt lat="43.43153056126856" lon="3.2970852234521497"><ele>52.2</ele><time>2026-04-06T10:33:13.001Z</time></trkpt><trkpt lat="43.43163174723461" lon="3.297043576009941"><ele>53.0</ele><time>2026-04-06T10:33:15.001Z</time></trkpt><trkpt lat="43.43173262278498" lon="3.297004429922767"><ele>53.0</ele><time>2026-04-06T10:33:17.001Z</time></trkpt><trkpt lat="43.431835100534926" lon="3.296944624086862"><ele>53.0</ele><time>2026-04-06T10:33:19.001Z</time></trkpt><trkpt lat="43.431922276642304" lon="3.29686222163756"><ele>53.0</ele><time>2026-04-06T10:33:21.001Z</time></trkpt><trkpt lat="43.432023160184656" lon="3.2967783830972106"><ele>53.0</ele><time>2026-04-06T10:33:23.001Z</time></trkpt><trkpt lat="43.43208891771901" lon="3.296661125776455"><ele>53.0</ele><time>2026-04-06T10:33:25.001Z</time></trkpt><trkpt lat="43.43209213446915" lon="3.296554786897146"><ele>53.0</ele><time>2026-04-06T10:33:27.001Z</time></trkpt><trkpt lat="43.43207147446287" lon="3.2964204652455074"><ele>53.0</ele><time>2026-04-06T10:33:29.001Z</time></trkpt><trkpt lat="43.4320142986086" lon="3.2962847857593296"><ele>53.0</ele><time>2026-04-06T10:33:31.001Z</time></trkpt><trkpt lat="43.431964038945864" lon="3.2961819281355016"><ele>53.0</ele><time>2026-04-06T10:33:33.001Z</time></trkpt><trkpt lat="43.431892611980594" lon="3.296071714812051"><ele>53.0</ele><time>2026-04-06T10:33:35Z</time></trkpt><trkpt lat="43.43181504762222" lon="3.2959705642345853"><ele>52.0</ele><time>2026-04-06T10:33:37Z</time></trkpt><trkpt lat="43.431737412993776" lon="3.295872416515428"><ele>51.0</ele><time>2026-04-06T10:33:39Z</time></trkpt><trkpt lat="43.43166082145282" lon="3.295760793618773"><ele>50.0</ele><time>2026-04-06T10:33:41Z</time></trkpt><trkpt lat="43.43158159844802" lon="3.2956344405167974"><ele>49.0</ele><time>2026-04-06T10:33:43Z</time></trkpt><trkpt lat="43.431511788240016" lon="3.2954963124958514"><ele>48.75</ele><time>2026-04-06T10:33:45Z</time></trkpt><trkpt lat="43.43145559388097" lon="3.29534701061368"><ele>48.5</ele><time>2026-04-06T10:33:47Z</time></trkpt><trkpt lat="43.43139569783684" lon="3.295204272671078"><ele>48.25</ele><time>2026-04-06T10:33:49Z</time></trkpt><trkpt lat="43.43130983388077" lon="3.2950535726978387"><ele>48.0</ele><time>2026-04-06T10:33:51Z</time></trkpt><trkpt lat="43.43125183704761" lon="3.294938058036117"><ele>48.0</ele><time>2026-04-06T10:33:53Z</time></trkpt><trkpt lat="43.4311550509299" lon="3.294821528462721"><ele>48.0</ele><time>2026-04-06T10:33:55Z</time></trkpt><trkpt lat="43.43107822331963" lon="3.294699614730372"><ele>48.0</ele><time>2026-04-06T10:33:57Z</time></trkpt><trkpt lat="43.43099361245595" lon="3.2945890710939074"><ele>48.0</ele><time>2026-04-06T10:33:59Z</time></trkpt><trkpt lat="43.43091568331112" lon="3.294466152741887"><ele>48.25</ele><time>2026-04-06T10:34:01Z</time></trkpt><trkpt lat="43.43083195319609" lon="3.2943508606262046"><ele>48.5</ele><time>2026-04-06T10:34:03Z</time></trkpt><trkpt lat="43.43075711309254" lon="3.29423310638087"><ele>48.75</ele><time>2026-04-06T10:34:05Z</time></trkpt><trkpt lat="43.430680469965104" lon="3.2941157245109345"><ele>49.0</ele><time>2026-04-06T10:34:07Z</time></trkpt><trkpt lat="43.430607206448514" lon="3.2940046108919243"><ele>50.0</ele><time>2026-04-06T10:34:09Z</time></trkpt><trkpt lat="43.430536420508616" lon="3.2938885676556846"><ele>51.0</ele><time>2026-04-06T10:34:11Z</time></trkpt><trkpt lat="43.43046297578096" lon="3.2937756203572865"><ele>52.00000000000001</ele><time>2026-04-06T10:34:13.001Z</time></trkpt><trkpt lat="43.43039511691479" lon="3.293658688689171"><ele>53.0</ele><time>2026-04-06T10:34:15.001Z</time></trkpt><trkpt lat="43.43031904469582" lon="3.2935513221545567"><ele>54.0</ele><time>2026-04-06T10:34:17.001Z</time></trkpt><trkpt lat="43.430246901757" lon="3.2934479453727348"><ele>54.6</ele><time>2026-04-06T10:34:19.001Z</time></trkpt><trkpt lat="43.43016906302931" lon="3.293349614260809"><ele>55.2</ele><time>2026-04-06T10:34:21.001Z</time></trkpt><trkpt lat="43.430093065679856" lon="3.293253500282635"><ele>55.800000000000004</ele><time>2026-04-06T10:34:23.001Z</time></trkpt><trkpt lat="43.43002195069302" lon="3.293159408149252"><ele>56.400000000000006</ele><time>2026-04-06T10:34:25.001Z</time></trkpt><trkpt lat="43.429940399106876" lon="3.293078496824278"><ele>57.0</ele><time>2026-04-06T10:34:27.001Z</time></trkpt><trkpt lat="43.42986184062312" lon="3.293002920419316"><ele>57.2</ele><time>2026-04-06T10:34:29.001Z</time></trkpt><trkpt lat="43.42977563722108" lon="3.2929343826326933"><ele>57.400000000000006</ele><time>2026-04-06T10:34:31.001Z</time></trkpt><trkpt lat="43.42968581891488" lon="3.2928697994622382"><ele>57.599999999999994</ele><time>2026-04-06T10:34:33.001Z</time></trkpt><trkpt lat="43.4295977019226" lon="3.2927988755830553"><ele>57.8</ele><time>2026-04-06T10:34:35.001Z</time></trkpt><trkpt lat="43.429505458445206" lon="3.292728404671409"><ele>58.0</ele><time>2026-04-06T10:34:37.001Z</time></trkpt><trkpt lat="43.42941257267244" lon="3.2926498553649224"><ele>58.4</ele><time>2026-04-06T10:34:39.001Z</time></trkpt><trkpt lat="43.42932577397116" lon="3.2925758432652565"><ele>58.8</ele><time>2026-04-06T10:34:41.001Z</time></trkpt><trkpt lat="43.42924006938824" lon="3.2924948333063235"><ele>59.2</ele><time>2026-04-06T10:34:43.001Z</time></trkpt><trkpt lat="43.42916497287617" lon="3.292404590231212"><ele>59.6</ele><time>2026-04-06T10:34:45.001Z</time></trkpt><trkpt lat="43.42907621497245" lon="3.292337051881196"><ele>60.0</ele><time>2026-04-06T10:34:47.001Z</time></trkpt><trkpt lat="43.42899712830194" lon="3.2922559975840437"><ele>60.6</ele><time>2026-04-06T10:34:49.001Z</time></trkpt><trkpt lat="43.42891798184719" lon="3.2921818527961086"><ele>61.2</ele><time>2026-04-06T10:34:51.001Z</time></trkpt><trkpt lat="43.42883680070931" lon="3.2921059044706174"><ele>61.8</ele><time>2026-04-06T10:34:53.001Z</time></trkpt><trkpt lat="43.42875180874596" lon="3.292022590962082"><ele>62.4</ele><time>2026-04-06T10:34:55.001Z</time></trkpt><trkpt lat="43.428666447226284" lon="3.291941224851592"><ele>63.0</ele><time>2026-04-06T10:34:57.001Z</time></trkpt><trkpt lat="43.42857917924244" lon="3.2918635192645813"><ele>63.0</ele><time>2026-04-06T10:34:59.001Z</time></trkpt><trkpt lat="43.4284875352915" lon="3.2917865384358818"><ele>63.0</ele><time>2026-04-06T10:35:01.001Z</time></trkpt><trkpt lat="43.428390417090945" lon="3.291709290063657"><ele>63.0</ele><time>2026-04-06T10:35:03.001Z</time></trkpt><trkpt lat="43.42829891952223" lon="3.2916182913015333"><ele>63.0</ele><time>2026-04-06T10:35:05.001Z</time></trkpt><trkpt lat="43.42820695602487" lon="3.2915357348556147"><ele>63.0</ele><time>2026-04-06T10:35:07.001Z</time></trkpt><trkpt lat="43.42811603551195" lon="3.291454233490025"><ele>63.4</ele><time>2026-04-06T10:35:09.001Z</time></trkpt><trkpt lat="43.42803178441163" lon="3.291371116531329"><ele>63.8</ele><time>2026-04-06T10:35:11.001Z</time></trkpt><trkpt lat="43.42794156709226" lon="3.291295660879415"><ele>64.2</ele><time>2026-04-06T10:35:13.001Z</time></trkpt><trkpt lat="43.42785028141172" lon="3.2912213240848565"><ele>64.6</ele><time>2026-04-06T10:35:15.001Z</time></trkpt><trkpt lat="43.42776759719997" lon="3.291120602317992"><ele>65.0</ele><time>2026-04-06T10:35:17.001Z</time></trkpt><trkpt lat="43.42767748335575" lon="3.2910393269987224"><ele>65.2</ele><time>2026-04-06T10:35:19.001Z</time></trkpt><trkpt lat="43.42758172742438" lon="3.290973694177329"><ele>65.4</ele><time>2026-04-06T10:35:21.001Z</time></trkpt><trkpt lat="43.42749197806351" lon="3.290898139921515"><ele>65.6</ele><time>2026-04-06T10:35:23.001Z</time></trkpt><trkpt lat="43.42740180530508" lon="3.2908192413833732"><ele>65.8</ele><time>2026-04-06T10:35:25.001Z</time></trkpt><trkpt lat="43.427307344481065" lon="3.2907450179923963"><ele>66.0</ele><time>2026-04-06T10:35:27.001Z</time></trkpt><trkpt lat="43.4272151285451" lon="3.2906680362981917"><ele>66.0</ele><time>2026-04-06T10:35:29.001Z</time></trkpt><trkpt lat="43.427127140576054" lon="3.290587726627808"><ele>66.0</ele><time>2026-04-06T10:35:31.001Z</time></trkpt><trkpt lat="43.42704448013607" lon="3.2905098537590254"><ele>66.0</ele><time>2026-04-06T10:35:33.001Z</time></trkpt><trkpt lat="43.426963574354176" lon="3.2904329015142983"><ele>66.0</ele><time>2026-04-06T10:35:35.001Z</time></trkpt><trkpt lat="43.4268749327539" lon="3.2903486314827592"><ele>66.0</ele><time>2026-04-06T10:35:37.001Z</time></trkpt><trkpt lat="43.42676957210052" lon="3.2902491815794552"><ele>66.0</ele><time>2026-04-06T10:35:39.001Z</time></trkpt><trkpt lat="43.42666563391963" lon="3.2901628597426407"><ele>66.0</ele><time>2026-04-06T10:35:41Z</time></trkpt><trkpt lat="43.426582047843425" lon="3.2900863409351957"><ele>66.0</ele><time>2026-04-06T10:35:43Z</time></trkpt><trkpt lat="43.42651836573571" lon="3.290032798918664"><ele>66.0</ele><time>2026-04-06T10:35:45Z</time></trkpt><trkpt lat="43.42645448872728" lon="3.290022952967052"><ele>66.0</ele><time>2026-04-06T10:35:48Z</time></trkpt><trkpt lat="43.42638775734293" lon="3.2900281869293515"><ele>66.0</ele><time>2026-04-06T10:35:51Z</time></trkpt><trkpt lat="43.42639335719473" lon="3.290203657533699"><ele>66.0</ele><time>2026-04-06T10:35:52Z</time></trkpt><trkpt lat="43.42639074079697" lon="3.2903380987953494"><ele>66.0</ele><time>2026-04-06T10:35:54Z</time></trkpt><trkpt lat="43.42629487379841" lon="3.2904420392478095"><ele>66.0</ele><time>2026-04-06T10:35:56Z</time></trkpt><trkpt lat="43.426231363706165" lon="3.290385431859051"><ele>66.0</ele><time>2026-04-06T10:35:57Z</time></trkpt><trkpt lat="43.42620432239334" lon="3.2902786903829395"><ele>66.0</ele><time>2026-04-06T10:35:58Z</time></trkpt><trkpt lat="43.42617342708501" lon="3.2901132881157733"><ele>65.33333333333333</ele><time>2026-04-06T10:36:00Z</time></trkpt><trkpt lat="43.426134374531415" lon="3.2899466769262937"><ele>64.66666666666667</ele><time>2026-04-06T10:36:02Z</time></trkpt><trkpt lat="43.42610454226176" lon="3.2898605733404174"><ele>64.0</ele><time>2026-04-06T10:36:03Z</time></trkpt><trkpt lat="43.42606522897173" lon="3.2897725798160886"><ele>63.333333333333336</ele><time>2026-04-06T10:36:04Z</time></trkpt><trkpt lat="43.42601271158121" lon="3.289685081301588"><ele>62.66666666666667</ele><time>2026-04-06T10:36:05Z</time></trkpt><trkpt lat="43.42595999978251" lon="3.289596515391849"><ele>62.0</ele><time>2026-04-06T10:36:06Z</time></trkpt><trkpt lat="43.42590226370606" lon="3.2895076335180153"><ele>61.8</ele><time>2026-04-06T10:36:07Z</time></trkpt><trkpt lat="43.42583132047985" lon="3.289425240877283"><ele>61.6</ele><time>2026-04-06T10:36:08Z</time></trkpt><trkpt lat="43.425757965396855" lon="3.2893414411618984"><ele>61.39999999999999</ele><time>2026-04-06T10:36:09Z</time></trkpt><trkpt lat="43.42567945244713" lon="3.289258716967594"><ele>61.199999999999996</ele><time>2026-04-06T10:36:10Z</time></trkpt><trkpt lat="43.425601617777836" lon="3.289175287662187"><ele>61.0</ele><time>2026-04-06T10:36:11Z</time></trkpt><trkpt lat="43.42552086002651" lon="3.289091267298735"><ele>59.8</ele><time>2026-04-06T10:36:12Z</time></trkpt><trkpt lat="43.42543792458052" lon="3.2890073236378004"><ele>58.599999999999994</ele><time>2026-04-06T10:36:13Z</time></trkpt><trkpt lat="43.42535354407319" lon="3.2889212986156218"><ele>57.4</ele><time>2026-04-06T10:36:14Z</time></trkpt><trkpt lat="43.42526751885288" lon="3.2888367436565136"><ele>56.2</ele><time>2026-04-06T10:36:15Z</time></trkpt><trkpt lat="43.42517750800345" lon="3.2887559366374424"><ele>55.0</ele><time>2026-04-06T10:36:16Z</time></trkpt><trkpt lat="43.42509061411684" lon="3.2886667528801077"><ele>55.0</ele><time>2026-04-06T10:36:17Z</time></trkpt><trkpt lat="43.42500439373127" lon="3.288576960989841"><ele>55.0</ele><time>2026-04-06T10:36:18Z</time></trkpt><trkpt lat="43.424920244535556" lon="3.288484975579758"><ele>55.0</ele><time>2026-04-06T10:36:19Z</time></trkpt><trkpt lat="43.4248383043321" lon="3.2883916347400506"><ele>55.0</ele><time>2026-04-06T10:36:20Z</time></trkpt><trkpt lat="43.42475854269376" lon="3.2882940830036516"><ele>55.0</ele><time>2026-04-06T10:36:21Z</time></trkpt><trkpt lat="43.42468724597269" lon="3.2881895963903913"><ele>54.2</ele><time>2026-04-06T10:36:22Z</time></trkpt><trkpt lat="43.42461710985769" lon="3.2880817978844306"><ele>53.4</ele><time>2026-04-06T10:36:23Z</time></trkpt><trkpt lat="43.42455718179385" lon="3.287966838155585"><ele>52.599999999999994</ele><time>2026-04-06T10:36:24Z</time></trkpt><trkpt lat="43.42450042010712" lon="3.287851370536901"><ele>51.8</ele><time>2026-04-06T10:36:25Z</time></trkpt><trkpt lat="43.42444990503318" lon="3.2877310508943847"><ele>51.0</ele><time>2026-04-06T10:36:26Z</time></trkpt><trkpt lat="43.4244041982247" lon="3.28761870097637"><ele>51.0</ele><time>2026-04-06T10:36:27.001Z</time></trkpt><trkpt lat="43.42436090011983" lon="3.2875078850617228"><ele>51.0</ele><time>2026-04-06T10:36:28.001Z</time></trkpt><trkpt lat="43.4243213422862" lon="3.2873994398787425"><ele>51.0</ele><time>2026-04-06T10:36:29.001Z</time></trkpt><trkpt lat="43.424278159906926" lon="3.2872983038026926"><ele>51.0</ele><time>2026-04-06T10:36:30.001Z</time></trkpt><trkpt lat="43.424224446081865" lon="3.287201339368284"><ele>51.0</ele><time>2026-04-06T10:36:31.001Z</time></trkpt><trkpt lat="43.42417379730933" lon="3.2871104300533682"><ele>51.0</ele><time>2026-04-06T10:36:32.001Z</time></trkpt><trkpt lat="43.42412152566472" lon="3.2870276415659405"><ele>51.166666666666664</ele><time>2026-04-06T10:36:33.001Z</time></trkpt><trkpt lat="43.424070431767646" lon="3.2869436327820534"><ele>51.33333333333333</ele><time>2026-04-06T10:36:34.001Z</time></trkpt><trkpt lat="43.42401903919829" lon="3.2868589710580802"><ele>51.5</ele><time>2026-04-06T10:36:35.001Z</time></trkpt><trkpt lat="43.42396665788713" lon="3.2867798642258093"><ele>51.666666666666664</ele><time>2026-04-06T10:36:36.001Z</time></trkpt><trkpt lat="43.42391496863621" lon="3.286700821343773"><ele>51.83333333333333</ele><time>2026-04-06T10:36:37.001Z</time></trkpt><trkpt lat="43.42386659856152" lon="3.2866216581730123"><ele>52.0</ele><time>2026-04-06T10:36:38.001Z</time></trkpt><trkpt lat="43.42381653176641" lon="3.2865422205425907"><ele>52.0</ele><time>2026-04-06T10:36:39.001Z</time></trkpt><trkpt lat="43.423766942681176" lon="3.286465653169409"><ele>52.0</ele><time>2026-04-06T10:36:40.001Z</time></trkpt><trkpt lat="43.42371408788152" lon="3.2863915319214843"><ele>52.0</ele><time>2026-04-06T10:36:41.001Z</time></trkpt><trkpt lat="43.423666773604644" lon="3.2863113681311686"><ele>52.0</ele><time>2026-04-06T10:36:42.001Z</time></trkpt><trkpt lat="43.42361722762168" lon="3.286234344985664"><ele>52.0</ele><time>2026-04-06T10:36:43.001Z</time></trkpt><trkpt lat="43.42356904505742" lon="3.2861651013021795"><ele>52.0</ele><time>2026-04-06T10:36:44.001Z</time></trkpt><trkpt lat="43.42352407168012" lon="3.2860944539308905"><ele>52.0</ele><time>2026-04-06T10:36:45.001Z</time></trkpt><trkpt lat="43.42348054985105" lon="3.286024649657405"><ele>52.2</ele><time>2026-04-06T10:36:46.001Z</time></trkpt><trkpt lat="43.42344189815314" lon="3.2859542205603507"><ele>52.400000000000006</ele><time>2026-04-06T10:36:47.001Z</time></trkpt><trkpt lat="43.423362712443286" lon="3.285824606642576"><ele>52.599999999999994</ele><time>2026-04-06T10:36:49.001Z</time></trkpt><trkpt lat="43.42328486626105" lon="3.285702256732251"><ele>52.8</ele><time>2026-04-06T10:36:51.001Z</time></trkpt><trkpt lat="43.42321231135056" lon="3.28558546282436"><ele>53.0</ele><time>2026-04-06T10:36:53.001Z</time></trkpt><trkpt lat="43.42313545019053" lon="3.2854681115784197"><ele>53.0</ele><time>2026-04-06T10:36:55.001Z</time></trkpt><trkpt lat="43.42305988976853" lon="3.2853528929982394"><ele>53.0</ele><time>2026-04-06T10:36:57.001Z</time></trkpt><trkpt lat="43.422982202833374" lon="3.285235996630189"><ele>53.0</ele><time>2026-04-06T10:36:59.001Z</time></trkpt><trkpt lat="43.42291035086192" lon="3.2851163630496454"><ele>53.0</ele><time>2026-04-06T10:37:01.001Z</time></trkpt><trkpt lat="43.422832299700154" lon="3.2850010941542984"><ele>53.5</ele><time>2026-04-06T10:37:03.001Z</time></trkpt><trkpt lat="43.422761263779854" lon="3.2848800849509168"><ele>54.0</ele><time>2026-04-06T10:37:05.001Z</time></trkpt><trkpt lat="43.422688970771354" lon="3.2847619934017254"><ele>54.5</ele><time>2026-04-06T10:37:07.001Z</time></trkpt><trkpt lat="43.422615194362464" lon="3.284642944396601"><ele>55.0</ele><time>2026-04-06T10:37:09.001Z</time></trkpt><trkpt lat="43.42253742754436" lon="3.2845185554921623"><ele>55.25</ele><time>2026-04-06T10:37:11.001Z</time></trkpt><trkpt lat="43.42246142131863" lon="3.2843915194024387"><ele>55.5</ele><time>2026-04-06T10:37:13.001Z</time></trkpt><trkpt lat="43.422383156186676" lon="3.2842711641918565"><ele>55.75</ele><time>2026-04-06T10:37:15.001Z</time></trkpt><trkpt lat="43.422312879670656" lon="3.284148638244832"><ele>56.0</ele><time>2026-04-06T10:37:17.001Z</time></trkpt><trkpt lat="43.42223692467442" lon="3.284022612432912"><ele>56.5</ele><time>2026-04-06T10:37:19.001Z</time></trkpt><trkpt lat="43.42215951660429" lon="3.283898204203575"><ele>57.0</ele><time>2026-04-06T10:37:21.001Z</time></trkpt><trkpt lat="43.422083106936334" lon="3.283768567323595"><ele>57.5</ele><time>2026-04-06T10:37:23.001Z</time></trkpt><trkpt lat="43.42200285481321" lon="3.283639412769695"><ele>58.0</ele><time>2026-04-06T10:37:25.001Z</time></trkpt><trkpt lat="43.42192300676286" lon="3.283514031554494"><ele>58.0</ele><time>2026-04-06T10:37:27.001Z</time></trkpt><trkpt lat="43.42184064771939" lon="3.2833869447458475"><ele>58.0</ele><time>2026-04-06T10:37:29.001Z</time></trkpt><trkpt lat="43.42176753653708" lon="3.2832690197587895"><ele>58.0</ele><time>2026-04-06T10:37:31.001Z</time></trkpt><trkpt lat="43.421697746440344" lon="3.2831568132861055"><ele>58.0</ele><time>2026-04-06T10:37:33.001Z</time></trkpt><trkpt lat="43.42161946531515" lon="3.283044740745971"><ele>58.0</ele><time>2026-04-06T10:37:35.001Z</time></trkpt><trkpt lat="43.42154466731292" lon="3.2829196880790725"><ele>58.0</ele><time>2026-04-06T10:37:37.001Z</time></trkpt><trkpt lat="43.42150408474398" lon="3.282851506052444"><ele>58.0</ele><time>2026-04-06T10:37:38.001Z</time></trkpt><trkpt lat="43.42141646912984" lon="3.2827297476188244"><ele>58.0</ele><time>2026-04-06T10:37:40.001Z</time></trkpt><trkpt lat="43.42133360598771" lon="3.28260499105523"><ele>58.0</ele><time>2026-04-06T10:37:42.001Z</time></trkpt><trkpt lat="43.42125547100425" lon="3.282479025749327"><ele>58.0</ele><time>2026-04-06T10:37:44.001Z</time></trkpt><trkpt lat="43.42117183836173" lon="3.2823571412266808"><ele>58.0</ele><time>2026-04-06T10:37:46Z</time></trkpt><trkpt lat="43.42109533002847" lon="3.28222508861976"><ele>58.0</ele><time>2026-04-06T10:37:48Z</time></trkpt><trkpt lat="43.42102082805101" lon="3.282089113031399"><ele>58.0</ele><time>2026-04-06T10:37:50Z</time></trkpt><trkpt lat="43.42095028724001" lon="3.281950975574735"><ele>58.33333333333333</ele><time>2026-04-06T10:37:52Z</time></trkpt><trkpt lat="43.42091705712152" lon="3.2818764642073184"><ele>58.666666666666664</ele><time>2026-04-06T10:37:53Z</time></trkpt><trkpt lat="43.420885440542094" lon="3.281801193596284"><ele>59.0</ele><time>2026-04-06T10:37:54Z</time></trkpt><trkpt lat="43.42085557141855" lon="3.2817248251849382"><ele>59.33333333333333</ele><time>2026-04-06T10:37:55Z</time></trkpt><trkpt lat="43.4207959329287" lon="3.281572151096135"><ele>59.666666666666664</ele><time>2026-04-06T10:37:57Z</time></trkpt><trkpt lat="43.420762063998374" lon="3.2814963985094807"><ele>60.0</ele><time>2026-04-06T10:37:58Z</time></trkpt><trkpt lat="43.42070074741415" lon="3.2813474520510026"><ele>60.333333333333336</ele><time>2026-04-06T10:38:00Z</time></trkpt><trkpt lat="43.4206692129874" lon="3.281271809855857"><ele>60.66666666666667</ele><time>2026-04-06T10:38:01Z</time></trkpt><trkpt lat="43.4206073937181" lon="3.281120927021138"><ele>61.0</ele><time>2026-04-06T10:38:03Z</time></trkpt><trkpt lat="43.42057310793018" lon="3.281048226371807"><ele>61.333333333333336</ele><time>2026-04-06T10:38:04Z</time></trkpt><trkpt lat="43.420536144150674" lon="3.2809779927531055"><ele>61.66666666666667</ele><time>2026-04-06T10:38:05Z</time></trkpt><trkpt lat="43.42045871561933" lon="3.280842963252449"><ele>62.0</ele><time>2026-04-06T10:38:07Z</time></trkpt><trkpt lat="43.42042115406939" lon="3.2807711486445252"><ele>62.142857142857146</ele><time>2026-04-06T10:38:08Z</time></trkpt><trkpt lat="43.42038091309169" lon="3.2807005642556084"><ele>62.28571428571429</ele><time>2026-04-06T10:38:09Z</time></trkpt><trkpt lat="43.42034010941998" lon="3.2806344959810643"><ele>62.42857142857143</ele><time>2026-04-06T10:38:10Z</time></trkpt><trkpt lat="43.420294604025024" lon="3.2805704381128074"><ele>62.57142857142857</ele><time>2026-04-06T10:38:11Z</time></trkpt><trkpt lat="43.42024894575447" lon="3.280506005621809"><ele>62.714285714285715</ele><time>2026-04-06T10:38:12Z</time></trkpt><trkpt lat="43.42020563450087" lon="3.2804424161684542"><ele>62.85714285714286</ele><time>2026-04-06T10:38:13Z</time></trkpt><trkpt lat="43.420160021183996" lon="3.280378989643957"><ele>63.0</ele><time>2026-04-06T10:38:14Z</time></trkpt><trkpt lat="43.420116277712374" lon="3.2803118676724003"><ele>63.4</ele><time>2026-04-06T10:38:15Z</time></trkpt><trkpt lat="43.42007300897628" lon="3.2802488239383614"><ele>63.8</ele><time>2026-04-06T10:38:16Z</time></trkpt><trkpt lat="43.42002835291905" lon="3.2801861969931267"><ele>64.2</ele><time>2026-04-06T10:38:17Z</time></trkpt><trkpt lat="43.41993882904678" lon="3.280064104406804"><ele>64.6</ele><time>2026-04-06T10:38:19Z</time></trkpt><trkpt lat="43.41985106899024" lon="3.2799413554656973"><ele>65.0</ele><time>2026-04-06T10:38:21Z</time></trkpt><trkpt lat="43.41976659173124" lon="3.279817032515845"><ele>65.25</ele><time>2026-04-06T10:38:23Z</time></trkpt><trkpt lat="43.41968456019693" lon="3.2796912642872527"><ele>65.5</ele><time>2026-04-06T10:38:25Z</time></trkpt><trkpt lat="43.41960551186159" lon="3.2795634496431383"><ele>65.75</ele><time>2026-04-06T10:38:27Z</time></trkpt><trkpt lat="43.41952932796968" lon="3.2794330962714873"><ele>66.0</ele><time>2026-04-06T10:38:29Z</time></trkpt><trkpt lat="43.419456641112454" lon="3.279296654048613"><ele>66.0</ele><time>2026-04-06T10:38:31Z</time></trkpt><trkpt lat="43.41938337267372" lon="3.279159776386698"><ele>66.0</ele><time>2026-04-06T10:38:33Z</time></trkpt><trkpt lat="43.419314249635214" lon="3.2790220134274652"><ele>66.0</ele><time>2026-04-06T10:38:35Z</time></trkpt><trkpt lat="43.41924729798226" lon="3.278882025791082"><ele>66.0</ele><time>2026-04-06T10:38:37Z</time></trkpt><trkpt lat="43.41918509076988" lon="3.2787412214049967"><ele>66.2</ele><time>2026-04-06T10:38:39Z</time></trkpt><trkpt lat="43.41912186984159" lon="3.278597483498769"><ele>66.39999999999999</ele><time>2026-04-06T10:38:41Z</time></trkpt><trkpt lat="43.419065324509226" lon="3.278443195617896"><ele>66.6</ele><time>2026-04-06T10:38:43Z</time></trkpt><trkpt lat="43.41903768178246" lon="3.2783647916922587"><ele>66.8</ele><time>2026-04-06T10:38:44Z</time></trkpt><trkpt lat="43.41901228489396" lon="3.2782854542013466"><ele>67.0</ele><time>2026-04-06T10:38:45Z</time></trkpt><trkpt lat="43.418957468536675" lon="3.278130922151386"><ele>67.0</ele><time>2026-04-06T10:38:47Z</time></trkpt><trkpt lat="43.41890542671644" lon="3.277973881196065"><ele>67.0</ele><time>2026-04-06T10:38:49Z</time></trkpt><trkpt lat="43.41885788686632" lon="3.2778240571809696"><ele>67.0</ele><time>2026-04-06T10:38:51.001Z</time></trkpt><trkpt lat="43.418813399550004" lon="3.2776803528903278"><ele>67.0</ele><time>2026-04-06T10:38:53.001Z</time></trkpt><trkpt lat="43.41877383577941" lon="3.2775359873677"><ele>67.4</ele><time>2026-04-06T10:38:55.001Z</time></trkpt><trkpt lat="43.41873493220859" lon="3.2773960617638664"><ele>67.80000000000001</ele><time>2026-04-06T10:38:57.001Z</time></trkpt><trkpt lat="43.41869252511332" lon="3.2772585219019352"><ele>68.2</ele><time>2026-04-06T10:38:59.001Z</time></trkpt><trkpt lat="43.41865304451686" lon="3.277123368134478"><ele>68.60000000000001</ele><time>2026-04-06T10:39:01.001Z</time></trkpt><trkpt lat="43.41861596242744" lon="3.2769906002043876"><ele>69.0</ele><time>2026-04-06T10:39:03.001Z</time></trkpt><trkpt lat="43.41857582172718" lon="3.276863169424206"><ele>69.0</ele><time>2026-04-06T10:39:05.001Z</time></trkpt><trkpt lat="43.41854374599124" lon="3.276741133060816"><ele>69.0</ele><time>2026-04-06T10:39:07.001Z</time></trkpt><trkpt lat="43.41851136715444" lon="3.276625590367265"><ele>69.0</ele><time>2026-04-06T10:39:09.001Z</time></trkpt><trkpt lat="43.418485708588506" lon="3.276518211965359"><ele>69.0</ele><time>2026-04-06T10:39:11.001Z</time></trkpt><trkpt lat="43.4184647130067" lon="3.276412697119996"><ele>69.0</ele><time>2026-04-06T10:39:13.001Z</time></trkpt><trkpt lat="43.418436172018964" lon="3.276317300366637"><ele>69.0</ele><time>2026-04-06T10:39:15.001Z</time></trkpt><trkpt lat="43.41840286973132" lon="3.2761940959017193"><ele>69.0</ele><time>2026-04-06T10:39:17.001Z</time></trkpt><trkpt lat="43.4183587241511" lon="3.2760592041144836"><ele>69.0</ele><time>2026-04-06T10:39:19.001Z</time></trkpt><trkpt lat="43.4183081562427" lon="3.2759174457352183"><ele>69.0</ele><time>2026-04-06T10:39:21.001Z</time></trkpt><trkpt lat="43.41825886980406" lon="3.275776720774805"><ele>69.0</ele><time>2026-04-06T10:39:23.001Z</time></trkpt><trkpt lat="43.41820928388753" lon="3.275639730506198"><ele>69.0</ele><time>2026-04-06T10:39:25.001Z</time></trkpt><trkpt lat="43.41815992424759" lon="3.2755047630200904"><ele>69.2</ele><time>2026-04-06T10:39:27.001Z</time></trkpt><trkpt lat="43.418115898703455" lon="3.275362957968321"><ele>69.4</ele><time>2026-04-06T10:39:29.001Z</time></trkpt><trkpt lat="43.418077160816274" lon="3.2752314448874174"><ele>69.6</ele><time>2026-04-06T10:39:31.001Z</time></trkpt><trkpt lat="43.41805050857406" lon="3.2751014508076914"><ele>69.8</ele><time>2026-04-06T10:39:33.001Z</time></trkpt><trkpt lat="43.41802114479049" lon="3.274983561237066"><ele>70.0</ele><time>2026-04-06T10:39:35.001Z</time></trkpt><trkpt lat="43.41800428025475" lon="3.274868576197049"><ele>70.0</ele><time>2026-04-06T10:39:37.001Z</time></trkpt><trkpt lat="43.41797500670835" lon="3.274740465568104"><ele>70.0</ele><time>2026-04-06T10:39:39.001Z</time></trkpt><trkpt lat="43.41794110932477" lon="3.2746026951032956"><ele>70.0</ele><time>2026-04-06T10:39:41.001Z</time></trkpt><trkpt lat="43.41790748595489" lon="3.274472240265564"><ele>70.0</ele><time>2026-04-06T10:39:43.001Z</time></trkpt><trkpt lat="43.417862100316164" lon="3.2743415472105917"><ele>70.0</ele><time>2026-04-06T10:39:45.001Z</time></trkpt><trkpt lat="43.41781001538504" lon="3.2742047930370832"><ele>70.0</ele><time>2026-04-06T10:39:47.001Z</time></trkpt><trkpt lat="43.41774860274548" lon="3.274077422903007"><ele>70.0</ele><time>2026-04-06T10:39:49.001Z</time></trkpt><trkpt lat="43.41768017067018" lon="3.273955918200888"><ele>70.0</ele><time>2026-04-06T10:39:51.001Z</time></trkpt><trkpt lat="43.4176075790028" lon="3.2738360697345303"><ele>70.0</ele><time>2026-04-06T10:39:53Z</time></trkpt><trkpt lat="43.41753095063942" lon="3.2737214508792625"><ele>70.0</ele><time>2026-04-06T10:39:55Z</time></trkpt><trkpt lat="43.41745205776258" lon="3.2736122162431944"><ele>70.0</ele><time>2026-04-06T10:39:57Z</time></trkpt><trkpt lat="43.41736880956201" lon="3.273499462175762"><ele>70.0</ele><time>2026-04-06T10:39:59Z</time></trkpt><trkpt lat="43.41728088453406" lon="3.2733886117125004"><ele>70.0</ele><time>2026-04-06T10:40:01Z</time></trkpt><trkpt lat="43.417193482704725" lon="3.2732735934718358"><ele>70.0</ele><time>2026-04-06T10:40:03Z</time></trkpt><trkpt lat="43.417098969901566" lon="3.2731652515772995"><ele>70.75</ele><time>2026-04-06T10:40:05Z</time></trkpt><trkpt lat="43.417007267721075" lon="3.273057963141789"><ele>71.5</ele><time>2026-04-06T10:40:07Z</time></trkpt><trkpt lat="43.416910345260696" lon="3.2729532490258637"><ele>72.25</ele><time>2026-04-06T10:40:09Z</time></trkpt><trkpt lat="43.41682163177685" lon="3.2728404619374967"><ele>73.0</ele><time>2026-04-06T10:40:11Z</time></trkpt><trkpt lat="43.41674159824959" lon="3.2727216070443905"><ele>73.0</ele><time>2026-04-06T10:40:13Z</time></trkpt><trkpt lat="43.41666671438587" lon="3.2725892334373254"><ele>73.0</ele><time>2026-04-06T10:40:15Z</time></trkpt><trkpt lat="43.41659323053707" lon="3.2724518906830316"><ele>73.0</ele><time>2026-04-06T10:40:17Z</time></trkpt><trkpt lat="43.416522793817954" lon="3.27230917446595"><ele>73.0</ele><time>2026-04-06T10:40:19Z</time></trkpt><trkpt lat="43.41648955563238" lon="3.2722327258563793"><ele>73.0</ele><time>2026-04-06T10:40:20Z</time></trkpt><trkpt lat="43.41645568762857" lon="3.272154283869197"><ele>72.85714285714286</ele><time>2026-04-06T10:40:21Z</time></trkpt><trkpt lat="43.41642071349036" lon="3.2720759655253047"><ele>72.71428571428572</ele><time>2026-04-06T10:40:22Z</time></trkpt><trkpt lat="43.416384841796386" lon="3.2719956433509956"><ele>72.57142857142858</ele><time>2026-04-06T10:40:23Z</time></trkpt><trkpt lat="43.41634543607132" lon="3.27191804762472"><ele>72.42857142857143</ele><time>2026-04-06T10:40:24Z</time></trkpt><trkpt lat="43.416301972126405" lon="3.2718411844951167"><ele>72.28571428571429</ele><time>2026-04-06T10:40:25Z</time></trkpt><trkpt lat="43.41625583883526" lon="3.271764354218724"><ele>72.14285714285715</ele><time>2026-04-06T10:40:26Z</time></trkpt><trkpt lat="43.41620465849149" lon="3.2716913576724598"><ele>72.0</ele><time>2026-04-06T10:40:27Z</time></trkpt><trkpt lat="43.41615324285398" lon="3.271619345678728"><ele>72.0</ele><time>2026-04-06T10:40:28Z</time></trkpt><trkpt lat="43.4161014809136" lon="3.271542409602139"><ele>72.0</ele><time>2026-04-06T10:40:29Z</time></trkpt><trkpt lat="43.416046743366806" lon="3.271471429885115"><ele>72.0</ele><time>2026-04-06T10:40:30Z</time></trkpt><trkpt lat="43.415991638553464" lon="3.2713968552214183"><ele>72.0</ele><time>2026-04-06T10:40:31Z</time></trkpt><trkpt lat="43.41593537997794" lon="3.2713255486585417"><ele>72.0</ele><time>2026-04-06T10:40:32Z</time></trkpt><trkpt lat="43.41587940573946" lon="3.271255178271292"><ele>72.0</ele><time>2026-04-06T10:40:33Z</time></trkpt><trkpt lat="43.415824797810394" lon="3.271183557494252"><ele>71.66666666666667</ele><time>2026-04-06T10:40:34Z</time></trkpt><trkpt lat="43.4157686120327" lon="3.271111901796701"><ele>71.33333333333333</ele><time>2026-04-06T10:40:35Z</time></trkpt><trkpt lat="43.41571397455311" lon="3.2710371255893502"><ele>71.0</ele><time>2026-04-06T10:40:36Z</time></trkpt><trkpt lat="43.415661060497136" lon="3.2709607779911964"><ele>70.66666666666666</ele><time>2026-04-06T10:40:37Z</time></trkpt><trkpt lat="43.41560605567577" lon="3.2708847984321534"><ele>70.33333333333333</ele><time>2026-04-06T10:40:38Z</time></trkpt><trkpt lat="43.415553341403786" lon="3.2708045148336575"><ele>70.0</ele><time>2026-04-06T10:40:39Z</time></trkpt><trkpt lat="43.41550340179899" lon="3.2707236148173378"><ele>70.0</ele><time>2026-04-06T10:40:40Z</time></trkpt><trkpt lat="43.41545770364814" lon="3.2706430331582297"><ele>70.0</ele><time>2026-04-06T10:40:41Z</time></trkpt><trkpt lat="43.415411468726624" lon="3.270565875621175"><ele>70.0</ele><time>2026-04-06T10:40:42Z</time></trkpt><trkpt lat="43.41537053366147" lon="3.270494554301035"><ele>70.0</ele><time>2026-04-06T10:40:43Z</time></trkpt><trkpt lat="43.41532629384975" lon="3.2704283622004313"><ele>70.0</ele><time>2026-04-06T10:40:44Z</time></trkpt><trkpt lat="43.41525070705599" lon="3.27030800323194"><ele>70.0</ele><time>2026-04-06T10:40:46Z</time></trkpt><trkpt lat="43.415180350362114" lon="3.2701837758635115"><ele>70.4</ele><time>2026-04-06T10:40:48Z</time></trkpt><trkpt lat="43.41510462854143" lon="3.2700683890727276"><ele>70.8</ele><time>2026-04-06T10:40:50Z</time></trkpt><trkpt lat="43.415032129108866" lon="3.269950214034097"><ele>71.2</ele><time>2026-04-06T10:40:52Z</time></trkpt><trkpt lat="43.41496194929895" lon="3.2698306171065137"><ele>71.6</ele><time>2026-04-06T10:40:54Z</time></trkpt><trkpt lat="43.41489269298753" lon="3.269713477958568"><ele>72.0</ele><time>2026-04-06T10:40:56Z</time></trkpt><trkpt lat="43.41481978967877" lon="3.26959926739685"><ele>72.5</ele><time>2026-04-06T10:40:58Z</time></trkpt><trkpt lat="43.41474614391016" lon="3.269483595934587"><ele>73.0</ele><time>2026-04-06T10:41:00Z</time></trkpt><trkpt lat="43.4146764354522" lon="3.2693593600113684"><ele>73.5</ele><time>2026-04-06T10:41:02Z</time></trkpt><trkpt lat="43.41460189460115" lon="3.269236974651054"><ele>74.0</ele><time>2026-04-06T10:41:04Z</time></trkpt><trkpt lat="43.4145235554332" lon="3.269112634354307"><ele>74.0</ele><time>2026-04-06T10:41:06Z</time></trkpt><trkpt lat="43.41444608673764" lon="3.2689888635037962"><ele>74.0</ele><time>2026-04-06T10:41:08Z</time></trkpt><trkpt lat="43.41436715237889" lon="3.268863423926992"><ele>74.0</ele><time>2026-04-06T10:41:10Z</time></trkpt><trkpt lat="43.41428964427782" lon="3.268735356768409"><ele>74.0</ele><time>2026-04-06T10:41:12Z</time></trkpt><trkpt lat="43.41420776153467" lon="3.26860621840032"><ele>74.14285714285714</ele><time>2026-04-06T10:41:14Z</time></trkpt><trkpt lat="43.414129171621646" lon="3.2684732340223674"><ele>74.28571428571428</ele><time>2026-04-06T10:41:16.001Z</time></trkpt><trkpt lat="43.41408839253521" lon="3.268407162331604"><ele>74.42857142857142</ele><time>2026-04-06T10:41:17.001Z</time></trkpt><trkpt lat="43.41404786155315" lon="3.268340550626776"><ele>74.57142857142857</ele><time>2026-04-06T10:41:18.001Z</time></trkpt><trkpt lat="43.414007643173655" lon="3.268271057889323"><ele>74.71428571428571</ele><time>2026-04-06T10:41:19.001Z</time></trkpt><trkpt lat="43.41396626167638" lon="3.2682024784067"><ele>74.85714285714285</ele><time>2026-04-06T10:41:20.001Z</time></trkpt><trkpt lat="43.413922813522206" lon="3.2681319638004163"><ele>75.0</ele><time>2026-04-06T10:41:21.001Z</time></trkpt><trkpt lat="43.41387971380046" lon="3.2680628036187978"><ele>74.99999999999999</ele><time>2026-04-06T10:41:22.001Z</time></trkpt><trkpt lat="43.41383685628914" lon="3.267994163517868"><ele>75.0</ele><time>2026-04-06T10:41:23.001Z</time></trkpt><trkpt lat="43.41379505384384" lon="3.2679218502406795"><ele>75.0</ele><time>2026-04-06T10:41:24.001Z</time></trkpt><trkpt lat="43.413755077568595" lon="3.2678488052650763"><ele>75.0</ele><time>2026-04-06T10:41:25.001Z</time></trkpt><trkpt lat="43.41371233602375" lon="3.267775724357191"><ele>75.0</ele><time>2026-04-06T10:41:26.001Z</time></trkpt><trkpt lat="43.41366988368369" lon="3.2677015118404866"><ele>74.99999999999999</ele><time>2026-04-06T10:41:27.001Z</time></trkpt><trkpt lat="43.41362966281524" lon="3.2676255057765813"><ele>75.0</ele><time>2026-04-06T10:41:28.001Z</time></trkpt><trkpt lat="43.41359093203362" lon="3.2675464401483127"><ele>74.99999999999999</ele><time>2026-04-06T10:41:29.001Z</time></trkpt><trkpt lat="43.413555091183895" lon="3.2674653702794116"><ele>75.0</ele><time>2026-04-06T10:41:30.001Z</time></trkpt><trkpt lat="43.41351867507649" lon="3.2673860325734423"><ele>75.0</ele><time>2026-04-06T10:41:31.001Z</time></trkpt><trkpt lat="43.41348365086657" lon="3.2673064400050547"><ele>75.0</ele><time>2026-04-06T10:41:32.001Z</time></trkpt><trkpt lat="43.4134512053326" lon="3.2672285167390798"><ele>75.0</ele><time>2026-04-06T10:41:33.001Z</time></trkpt><trkpt lat="43.41341923006266" lon="3.2671490592112082"><ele>74.99999999999999</ele><time>2026-04-06T10:41:34.001Z</time></trkpt><trkpt lat="43.4133862215773" lon="3.267072023192988"><ele>75.0</ele><time>2026-04-06T10:41:35.001Z</time></trkpt><trkpt lat="43.41332449348464" lon="3.266923191990031"><ele>75.0</ele><time>2026-04-06T10:41:37.001Z</time></trkpt><trkpt lat="43.413268874781664" lon="3.2667681150957857"><ele>75.0</ele><time>2026-04-06T10:41:39.001Z</time></trkpt><trkpt lat="43.41323840417722" lon="3.266690733113473"><ele>75.0</ele><time>2026-04-06T10:41:40.001Z</time></trkpt><trkpt lat="43.4131770922681" lon="3.266544222636186"><ele>75.0</ele><time>2026-04-06T10:41:42.001Z</time></trkpt><trkpt lat="43.41312022376426" lon="3.2663978969328062"><ele>75.0</ele><time>2026-04-06T10:41:44.001Z</time></trkpt><trkpt lat="43.413063645347684" lon="3.266256779628061"><ele>75.25</ele><time>2026-04-06T10:41:46.001Z</time></trkpt><trkpt lat="43.41300743013282" lon="3.266118957157413"><ele>75.5</ele><time>2026-04-06T10:41:48.001Z</time></trkpt><trkpt lat="43.412954836193585" lon="3.2659826930083913"><ele>75.75</ele><time>2026-04-06T10:41:50.001Z</time></trkpt><trkpt lat="43.41289980846259" lon="3.265845754568892"><ele>76.0</ele><time>2026-04-06T10:41:52.001Z</time></trkpt><trkpt lat="43.41284382553366" lon="3.2657125944119323"><ele>76.6</ele><time>2026-04-06T10:41:54.001Z</time></trkpt><trkpt lat="43.41278977167051" lon="3.265579590772612"><ele>77.19999999999999</ele><time>2026-04-06T10:41:56.001Z</time></trkpt><trkpt lat="43.41273845978397" lon="3.2654465641149644"><ele>77.80000000000001</ele><time>2026-04-06T10:41:57.999Z</time></trkpt><trkpt lat="43.412687048892145" lon="3.2653129734676125"><ele>78.4</ele><time>2026-04-06T10:41:59.999Z</time></trkpt><trkpt lat="43.41263201108785" lon="3.2651840015094518"><ele>79.0</ele><time>2026-04-06T10:42:01.999Z</time></trkpt><trkpt lat="43.41257674891129" lon="3.26505505951707"><ele>79.0</ele><time>2026-04-06T10:42:03.999Z</time></trkpt><trkpt lat="43.41252529208548" lon="3.2649256800750623"><ele>79.0</ele><time>2026-04-06T10:42:05.999Z</time></trkpt><trkpt lat="43.41247420521155" lon="3.2648029975950768"><ele>79.0</ele><time>2026-04-06T10:42:07.999Z</time></trkpt><trkpt lat="43.412421409789566" lon="3.26468749907886"><ele>79.0</ele><time>2026-04-06T10:42:09.999Z</time></trkpt><trkpt lat="43.41236958844419" lon="3.264585854541351"><ele>79.0</ele><time>2026-04-06T10:42:12Z</time></trkpt><trkpt lat="43.41231421547141" lon="3.2644721140625577"><ele>79.0</ele><time>2026-04-06T10:42:14Z</time></trkpt><trkpt lat="43.412251739468516" lon="3.264349454530239"><ele>79.0</ele><time>2026-04-06T10:42:16Z</time></trkpt><trkpt lat="43.41218455694204" lon="3.264225283242474"><ele>79.0</ele><time>2026-04-06T10:42:18Z</time></trkpt><trkpt lat="43.412108114736704" lon="3.2641045542139984"><ele>79.0</ele><time>2026-04-06T10:42:20Z</time></trkpt><trkpt lat="43.41203880208652" lon="3.2639807268232794"><ele>79.4</ele><time>2026-04-06T10:42:22Z</time></trkpt><trkpt lat="43.41196859377017" lon="3.2638605198909323"><ele>79.80000000000001</ele><time>2026-04-06T10:42:24Z</time></trkpt><trkpt lat="43.41191302857494" lon="3.263742200240946"><ele>80.19999999999999</ele><time>2026-04-06T10:42:26Z</time></trkpt><trkpt lat="43.41185258927482" lon="3.263616340485476"><ele>80.6</ele><time>2026-04-06T10:42:28Z</time></trkpt><trkpt lat="43.41179452771534" lon="3.2634946213719718"><ele>81.0</ele><time>2026-04-06T10:42:30Z</time></trkpt><trkpt lat="43.41173964283425" lon="3.2633686800432917"><ele>81.0</ele><time>2026-04-06T10:42:32Z</time></trkpt><trkpt lat="43.41168386393046" lon="3.2632480918841513"><ele>81.0</ele><time>2026-04-06T10:42:34Z</time></trkpt><trkpt lat="43.41162760502347" lon="3.2631309058781346"><ele>81.0</ele><time>2026-04-06T10:42:36Z</time></trkpt><trkpt lat="43.41157728469963" lon="3.263008271202953"><ele>81.0</ele><time>2026-04-06T10:42:38Z</time></trkpt><trkpt lat="43.411530549284976" lon="3.2628824608569724"><ele>81.0</ele><time>2026-04-06T10:42:40Z</time></trkpt><trkpt lat="43.411486663648944" lon="3.2627530156458517"><ele>81.19999999999999</ele><time>2026-04-06T10:42:42Z</time></trkpt><trkpt lat="43.41145063111169" lon="3.2626212755807966"><ele>81.39999999999999</ele><time>2026-04-06T10:42:44Z</time></trkpt><trkpt lat="43.41141694792873" lon="3.2624856108314666"><ele>81.6</ele><time>2026-04-06T10:42:46Z</time></trkpt><trkpt lat="43.41139204807445" lon="3.2623475126761776"><ele>81.8</ele><time>2026-04-06T10:42:48Z</time></trkpt><trkpt lat="43.41136916857168" lon="3.2622122186063085"><ele>82.0</ele><time>2026-04-06T10:42:50Z</time></trkpt><trkpt lat="43.41134137403235" lon="3.2620829998066476"><ele>82.6</ele><time>2026-04-06T10:42:52Z</time></trkpt><trkpt lat="43.41132300010825" lon="3.2619529459144303"><ele>83.19999999999999</ele><time>2026-04-06T10:42:54Z</time></trkpt><trkpt lat="43.41130084094405" lon="3.2618249739057212"><ele>83.8</ele><time>2026-04-06T10:42:56Z</time></trkpt><trkpt lat="43.411273006645835" lon="3.2616916044105766"><ele>84.4</ele><time>2026-04-06T10:42:58Z</time></trkpt><trkpt lat="43.41124722827096" lon="3.2615547481330984"><ele>85.0</ele><time>2026-04-06T10:43:00Z</time></trkpt><trkpt lat="43.41122347132304" lon="3.261412276781695"><ele>85.25</ele><time>2026-04-06T10:43:02Z</time></trkpt><trkpt lat="43.41120197330293" lon="3.26126200671582"><ele>85.5</ele><time>2026-04-06T10:43:04Z</time></trkpt><trkpt lat="43.41117368348174" lon="3.2611117673707786"><ele>85.75</ele><time>2026-04-06T10:43:06Z</time></trkpt><trkpt lat="43.41114655795023" lon="3.2609539144275943"><ele>86.0</ele><time>2026-04-06T10:43:08Z</time></trkpt><trkpt lat="43.41112200077212" lon="3.2607922202800586"><ele>86.0</ele><time>2026-04-06T10:43:10Z</time></trkpt><trkpt lat="43.411093246516" lon="3.2606284042642986"><ele>86.0</ele><time>2026-04-06T10:43:12Z</time></trkpt><trkpt lat="43.41106876174539" lon="3.260463347432369"><ele>86.0</ele><time>2026-04-06T10:43:14Z</time></trkpt><trkpt lat="43.41104424328506" lon="3.2603030576355434"><ele>86.0</ele><time>2026-04-06T10:43:16Z</time></trkpt><trkpt lat="43.41103122091741" lon="3.260141822421471"><ele>85.6</ele><time>2026-04-06T10:43:18.001Z</time></trkpt><trkpt lat="43.411032469148665" lon="3.259969719655321"><ele>85.19999999999999</ele><time>2026-04-06T10:43:20.001Z</time></trkpt><trkpt lat="43.41103010953179" lon="3.259881770013231"><ele>84.80000000000001</ele><time>2026-04-06T10:43:21.001Z</time></trkpt><trkpt lat="43.41103298542245" lon="3.2597108026686876"><ele>84.4</ele><time>2026-04-06T10:43:23.001Z</time></trkpt><trkpt lat="43.41104051120772" lon="3.2595563239172716"><ele>84.0</ele><time>2026-04-06T10:43:25.001Z</time></trkpt><trkpt lat="43.41105343235267" lon="3.259398348498014"><ele>84.0</ele><time>2026-04-06T10:43:27.001Z</time></trkpt><trkpt lat="43.411066943283" lon="3.2592542116554712"><ele>84.0</ele><time>2026-04-06T10:43:29.001Z</time></trkpt><trkpt lat="43.41108734917193" lon="3.259100598496522"><ele>84.0</ele><time>2026-04-06T10:43:31.001Z</time></trkpt><trkpt lat="43.411102670245896" lon="3.2589281923337237"><ele>84.0</ele><time>2026-04-06T10:43:33.001Z</time></trkpt><trkpt lat="43.411123620671894" lon="3.2587654816047795"><ele>84.75</ele><time>2026-04-06T10:43:35.001Z</time></trkpt><trkpt lat="43.411141600794835" lon="3.2586052178050307"><ele>85.5</ele><time>2026-04-06T10:43:37.001Z</time></trkpt><trkpt lat="43.41116127371983" lon="3.258449568525634"><ele>86.25</ele><time>2026-04-06T10:43:39.001Z</time></trkpt><trkpt lat="43.41117899356874" lon="3.258296762134139"><ele>87.0</ele><time>2026-04-06T10:43:41.001Z</time></trkpt><trkpt lat="43.41119586535242" lon="3.258148054851702"><ele>86.8</ele><time>2026-04-06T10:43:43.001Z</time></trkpt><trkpt lat="43.41122858588579" lon="3.2580011719262743"><ele>86.6</ele><time>2026-04-06T10:43:45.001Z</time></trkpt><trkpt lat="43.41122437242335" lon="3.2578487794921482"><ele>86.39999999999999</ele><time>2026-04-06T10:43:47.001Z</time></trkpt><trkpt lat="43.41122925055423" lon="3.2576995131644657"><ele>86.19999999999999</ele><time>2026-04-06T10:43:49.001Z</time></trkpt><trkpt lat="43.41121354098737" lon="3.257539825061013"><ele>86.0</ele><time>2026-04-06T10:43:51.001Z</time></trkpt><trkpt lat="43.411198698917566" lon="3.2573868897566407"><ele>85.8</ele><time>2026-04-06T10:43:53.001Z</time></trkpt><trkpt lat="43.41117241229918" lon="3.2572344827397153"><ele>85.6</ele><time>2026-04-06T10:43:55.001Z</time></trkpt><trkpt lat="43.4111505004722" lon="3.2570849185762865"><ele>85.4</ele><time>2026-04-06T10:43:57.001Z</time></trkpt><trkpt lat="43.41112598722298" lon="3.256931804553346"><ele>85.2</ele><time>2026-04-06T10:43:59.001Z</time></trkpt><trkpt lat="43.41112575642049" lon="3.2567798794810465"><ele>85.0</ele><time>2026-04-06T10:44:01.001Z</time></trkpt><trkpt lat="43.41107811234469" lon="3.2566289776848394"><ele>85.0</ele><time>2026-04-06T10:44:03.001Z</time></trkpt><trkpt lat="43.41106486723565" lon="3.2565395721449013"><ele>85.0</ele><time>2026-04-06T10:44:03.999Z</time></trkpt><trkpt lat="43.41103807777561" lon="3.256378734916553"><ele>85.0</ele><time>2026-04-06T10:44:05.999Z</time></trkpt><trkpt lat="43.41101198932017" lon="3.2562169328270807"><ele>85.0</ele><time>2026-04-06T10:44:07.999Z</time></trkpt><trkpt lat="43.410988926151056" lon="3.2560597646419613"><ele>85.0</ele><time>2026-04-06T10:44:09.999Z</time></trkpt><trkpt lat="43.41096994382724" lon="3.255890647412988"><ele>85.14285714285715</ele><time>2026-04-06T10:44:11.999Z</time></trkpt><trkpt lat="43.410964584532714" lon="3.255801177834345"><ele>85.28571428571428</ele><time>2026-04-06T10:44:12.999Z</time></trkpt><trkpt lat="43.41096068170598" lon="3.2557119711287528"><ele>85.42857142857143</ele><time>2026-04-06T10:44:13.999Z</time></trkpt><trkpt lat="43.4109669138837" lon="3.255622037690471"><ele>85.57142857142858</ele><time>2026-04-06T10:44:14.999Z</time></trkpt><trkpt lat="43.41098353509379" lon="3.25553312208828"><ele>85.71428571428572</ele><time>2026-04-06T10:44:15.999Z</time></trkpt><trkpt lat="43.411002134139906" lon="3.2554451940787184"><ele>85.85714285714286</ele><time>2026-04-06T10:44:16.999Z</time></trkpt><trkpt lat="43.41102111856218" lon="3.255359648956339"><ele>86.0</ele><time>2026-04-06T10:44:17.999Z</time></trkpt><trkpt lat="43.41103505294949" lon="3.2552748273808656"><ele>86.0</ele><time>2026-04-06T10:44:18.999Z</time></trkpt><trkpt lat="43.41105836669172" lon="3.2551156067502243"><ele>86.0</ele><time>2026-04-06T10:44:20.999Z</time></trkpt><trkpt lat="43.41108343445923" lon="3.2549639794456815"><ele>86.0</ele><time>2026-04-06T10:44:23Z</time></trkpt><trkpt lat="43.41113567692402" lon="3.254831073549185"><ele>86.0</ele><time>2026-04-06T10:44:25Z</time></trkpt><trkpt lat="43.41121945481313" lon="3.254716888502144"><ele>86.5</ele><time>2026-04-06T10:44:27Z</time></trkpt><trkpt lat="43.41130008821294" lon="3.254594427664979"><ele>87.0</ele><time>2026-04-06T10:44:29Z</time></trkpt><trkpt lat="43.411350001910414" lon="3.2544529196804857"><ele>87.5</ele><time>2026-04-06T10:44:31Z</time></trkpt><trkpt lat="43.411375064108306" lon="3.254303328588348"><ele>88.0</ele><time>2026-04-06T10:44:33Z</time></trkpt><trkpt lat="43.411428658155515" lon="3.254177429349793"><ele>88.2</ele><time>2026-04-06T10:44:35Z</time></trkpt><trkpt lat="43.41146870863735" lon="3.254031718847094"><ele>88.4</ele><time>2026-04-06T10:44:37Z</time></trkpt><trkpt lat="43.411507181403245" lon="3.2538943971064183"><ele>88.60000000000001</ele><time>2026-04-06T10:44:39Z</time></trkpt><trkpt lat="43.41153891764216" lon="3.2537501671600353"><ele>88.80000000000001</ele><time>2026-04-06T10:44:41Z</time></trkpt><trkpt lat="43.411609562706694" lon="3.2537757588324236"><ele>89.0</ele><time>2026-04-06T10:44:42Z</time></trkpt><trkpt lat="43.41167820322674" lon="3.253748838420216"><ele>89.25</ele><time>2026-04-06T10:44:44Z</time></trkpt><trkpt lat="43.41178903348095" lon="3.253588720103474"><ele>89.5</ele><time>2026-04-06T10:44:46Z</time></trkpt><trkpt lat="43.41186896711052" lon="3.253507634214987"><ele>89.75</ele><time>2026-04-06T10:44:48Z</time></trkpt><trkpt lat="43.41196123427024" lon="3.2534281411727064"><ele>90.0</ele><time>2026-04-06T10:44:50Z</time></trkpt><trkpt lat="43.412033756706066" lon="3.2533332347487716"><ele>90.0</ele><time>2026-04-06T10:44:52Z</time></trkpt><trkpt lat="43.41210668011747" lon="3.2532331392850162"><ele>90.0</ele><time>2026-04-06T10:44:54Z</time></trkpt><trkpt lat="43.412188235874204" lon="3.2531388778728325"><ele>90.0</ele><time>2026-04-06T10:44:56Z</time></trkpt><trkpt lat="43.41228411832312" lon="3.2530849165889433"><ele>90.0</ele><time>2026-04-06T10:44:58Z</time></trkpt><trkpt lat="43.41237969096813" lon="3.2530443580723007"><ele>90.0</ele><time>2026-04-06T10:45:00Z</time></trkpt><trkpt lat="43.412419938474144" lon="3.252965797281344"><ele>90.2</ele><time>2026-04-06T10:45:01Z</time></trkpt><trkpt lat="43.41249257255311" lon="3.2528485709873127"><ele>90.4</ele><time>2026-04-06T10:45:03Z</time></trkpt><trkpt lat="43.41256930872533" lon="3.252724724421921"><ele>90.6</ele><time>2026-04-06T10:45:05Z</time></trkpt><trkpt lat="43.4126359110717" lon="3.252617233003218"><ele>90.8</ele><time>2026-04-06T10:45:07Z</time></trkpt><trkpt lat="43.412704537952905" lon="3.2525064743521703"><ele>91.0</ele><time>2026-04-06T10:45:09Z</time></trkpt><trkpt lat="43.41277462874348" lon="3.2524076606951327"><ele>91.0</ele><time>2026-04-06T10:45:11Z</time></trkpt><trkpt lat="43.412859543292804" lon="3.252328561972909"><ele>91.0</ele><time>2026-04-06T10:45:13Z</time></trkpt><trkpt lat="43.41294692374843" lon="3.2522465880053892"><ele>91.0</ele><time>2026-04-06T10:45:15Z</time></trkpt><trkpt lat="43.413034474565976" lon="3.252164454049105"><ele>91.0</ele><time>2026-04-06T10:45:17Z</time></trkpt><trkpt lat="43.41312350458755" lon="3.252083256710707"><ele>91.0</ele><time>2026-04-06T10:45:19Z</time></trkpt><trkpt lat="43.413208863788746" lon="3.2520040531021057"><ele>91.19999999999999</ele><time>2026-04-06T10:45:21.001Z</time></trkpt><trkpt lat="43.413290807082774" lon="3.2519233595636003"><ele>91.39999999999999</ele><time>2026-04-06T10:45:23.001Z</time></trkpt><trkpt lat="43.41336763327163" lon="3.2518423996389725"><ele>91.6</ele><time>2026-04-06T10:45:25.001Z</time></trkpt><trkpt lat="43.41343849800658" lon="3.2517571192613697"><ele>91.8</ele><time>2026-04-06T10:45:27.001Z</time></trkpt><trkpt lat="43.41351305115624" lon="3.2516579929900873"><ele>92.0</ele><time>2026-04-06T10:45:29.001Z</time></trkpt><trkpt lat="43.41358771346079" lon="3.2515506375664613"><ele>92.0</ele><time>2026-04-06T10:45:31.001Z</time></trkpt><trkpt lat="43.4136488952408" lon="3.2514287631156096"><ele>92.0</ele><time>2026-04-06T10:45:33.001Z</time></trkpt><trkpt lat="43.41373628196661" lon="3.2513324494236473"><ele>92.0</ele><time>2026-04-06T10:45:35.001Z</time></trkpt><trkpt lat="43.413809115559786" lon="3.2512227292913622"><ele>92.0</ele><time>2026-04-06T10:45:37.001Z</time></trkpt><trkpt lat="43.41386974623112" lon="3.2510975927455323"><ele>92.0</ele><time>2026-04-06T10:45:39.001Z</time></trkpt><trkpt lat="43.413953423939724" lon="3.2510053348124246"><ele>92.0</ele><time>2026-04-06T10:45:41.001Z</time></trkpt><trkpt lat="43.414026250359534" lon="3.250895624950244"><ele>92.0</ele><time>2026-04-06T10:45:43.001Z</time></trkpt><trkpt lat="43.41409964009151" lon="3.250785066423458"><ele>92.0</ele><time>2026-04-06T10:45:45.001Z</time></trkpt><trkpt lat="43.414171747227" lon="3.2506763065834514"><ele>92.0</ele><time>2026-04-06T10:45:47.001Z</time></trkpt><trkpt lat="43.41424549512386" lon="3.250569566552683"><ele>92.0</ele><time>2026-04-06T10:45:49.001Z</time></trkpt><trkpt lat="43.414324661945514" lon="3.2504666107087616"><ele>91.8</ele><time>2026-04-06T10:45:51.001Z</time></trkpt><trkpt lat="43.414408669492765" lon="3.2503769871932526"><ele>91.6</ele><time>2026-04-06T10:45:53.001Z</time></trkpt><trkpt lat="43.41449109401862" lon="3.250290888689587"><ele>91.39999999999999</ele><time>2026-04-06T10:45:55.001Z</time></trkpt><trkpt lat="43.4145611815228" lon="3.2501829680283905"><ele>91.19999999999999</ele><time>2026-04-06T10:45:57.001Z</time></trkpt><trkpt lat="43.414577703433885" lon="3.250025573186701"><ele>91.0</ele><time>2026-04-06T10:45:59.001Z</time></trkpt><trkpt lat="43.41459473519366" lon="3.2498944963942993"><ele>91.6</ele><time>2026-04-06T10:46:01.001Z</time></trkpt><trkpt lat="43.41465998186447" lon="3.2497965835644598"><ele>92.19999999999999</ele><time>2026-04-06T10:46:03.001Z</time></trkpt><trkpt lat="43.41471690115018" lon="3.2496844512974703"><ele>92.80000000000001</ele><time>2026-04-06T10:46:05.001Z</time></trkpt><trkpt lat="43.41477252873506" lon="3.249574312676246"><ele>93.4</ele><time>2026-04-06T10:46:07.001Z</time></trkpt><trkpt lat="43.41482561381011" lon="3.2494632770152996"><ele>94.0</ele><time>2026-04-06T10:46:09.001Z</time></trkpt><trkpt lat="43.414868838778304" lon="3.249345912478093"><ele>93.80000000000001</ele><time>2026-04-06T10:46:10.999Z</time></trkpt><trkpt lat="43.41491959143795" lon="3.249237488513697"><ele>93.60000000000001</ele><time>2026-04-06T10:46:12.999Z</time></trkpt><trkpt lat="43.41496590551933" lon="3.2491234467002905"><ele>93.4</ele><time>2026-04-06T10:46:14.999Z</time></trkpt><trkpt lat="43.41501771597577" lon="3.249010747291738"><ele>93.2</ele><time>2026-04-06T10:46:16.999Z</time></trkpt><trkpt lat="43.41506604062073" lon="3.2488891442894348"><ele>93.0</ele><time>2026-04-06T10:46:18.999Z</time></trkpt><trkpt lat="43.415113148071484" lon="3.248771277397498"><ele>93.0</ele><time>2026-04-06T10:46:20.999Z</time></trkpt><trkpt lat="43.415169880783104" lon="3.248690487625647"><ele>93.0</ele><time>2026-04-06T10:46:22.999Z</time></trkpt><trkpt lat="43.415208471504364" lon="3.2485804496838204"><ele>93.0</ele><time>2026-04-06T10:46:25.999Z</time></trkpt><trkpt lat="43.41527000565821" lon="3.24849996694341"><ele>93.0</ele><time>2026-04-06T10:46:29Z</time></trkpt><trkpt lat="43.41522003383537" lon="3.2485622967685477"><ele>93.0</ele><time>2026-04-06T10:46:58Z</time></trkpt><trkpt lat="43.415275180031834" lon="3.248490168740785"><ele>93.0</ele><time>2026-04-06T10:47:15Z</time></trkpt><trkpt lat="43.41533052864665" lon="3.2483853604419495"><ele>93.0</ele><time>2026-04-06T10:47:18Z</time></trkpt><trkpt lat="43.41543345255083" lon="3.248330989375229"><ele>93.0</ele><time>2026-04-06T10:47:20.001Z</time></trkpt><trkpt lat="43.41550778553381" lon="3.2482521154417316"><ele>93.0</ele><time>2026-04-06T10:47:22.001Z</time></trkpt><trkpt lat="43.41557367720927" lon="3.248185020469057"><ele>93.0</ele><time>2026-04-06T10:47:24.001Z</time></trkpt><trkpt lat="43.41563518906039" lon="3.2481157941754395"><ele>93.0</ele><time>2026-04-06T10:47:26.001Z</time></trkpt><trkpt lat="43.415699436816126" lon="3.248054649556712"><ele>93.0</ele><time>2026-04-06T10:47:28.001Z</time></trkpt><trkpt lat="43.415762718656254" lon="3.2479919058221105"><ele>92.83333333333333</ele><time>2026-04-06T10:47:30.001Z</time></trkpt><trkpt lat="43.41582320832273" lon="3.2479320498840183"><ele>92.66666666666667</ele><time>2026-04-06T10:47:32.001Z</time></trkpt><trkpt lat="43.41589096742232" lon="3.2478712234327265"><ele>92.5</ele><time>2026-04-06T10:47:34.001Z</time></trkpt><trkpt lat="43.4159646946818" lon="3.247796711852713"><ele>92.33333333333334</ele><time>2026-04-06T10:47:36.001Z</time></trkpt><trkpt lat="43.4160415468506" lon="3.2477194035938046"><ele>92.16666666666667</ele><time>2026-04-06T10:47:38.001Z</time></trkpt><trkpt lat="43.41612434711824" lon="3.247645121294835"><ele>92.0</ele><time>2026-04-06T10:47:40.001Z</time></trkpt><trkpt lat="43.416206536632316" lon="3.247584657287037"><ele>92.0</ele><time>2026-04-06T10:47:42.001Z</time></trkpt><trkpt lat="43.416286715713746" lon="3.2475071671279214"><ele>92.0</ele><time>2026-04-06T10:47:44.001Z</time></trkpt><trkpt lat="43.4163623086699" lon="3.2474687805217495"><ele>92.0</ele><time>2026-04-06T10:47:46.001Z</time></trkpt><trkpt lat="43.41643171336065" lon="3.2475136449484223"><ele>92.0</ele><time>2026-04-06T10:47:48.001Z</time></trkpt><trkpt lat="43.416474272269454" lon="3.2476210338479135"><ele>92.0</ele><time>2026-04-06T10:47:50.001Z</time></trkpt><trkpt lat="43.416541014972026" lon="3.2477410571566576"><ele>93.0</ele><time>2026-04-06T10:47:52.001Z</time></trkpt><trkpt lat="43.4166009653835" lon="3.247858242046933"><ele>94.0</ele><time>2026-04-06T10:47:54.001Z</time></trkpt><trkpt lat="43.41666019030416" lon="3.2479677843478227"><ele>95.0</ele><time>2026-04-06T10:47:56.001Z</time></trkpt><trkpt lat="43.41671929511516" lon="3.2480716597080512"><ele>96.0</ele><time>2026-04-06T10:47:58.001Z</time></trkpt><trkpt lat="43.41678773521208" lon="3.2481722113140723"><ele>97.0</ele><time>2026-04-06T10:48:00.001Z</time></trkpt><trkpt lat="43.416865017039676" lon="3.2482676173087346"><ele>97.0</ele><time>2026-04-06T10:48:02.001Z</time></trkpt><trkpt lat="43.416934690366226" lon="3.2483821593138047"><ele>97.0</ele><time>2026-04-06T10:48:04.001Z</time></trkpt><trkpt lat="43.41699414155214" lon="3.248507310394066"><ele>97.0</ele><time>2026-04-06T10:48:06.001Z</time></trkpt><trkpt lat="43.41705849126041" lon="3.2486201818647666"><ele>97.0</ele><time>2026-04-06T10:48:08.001Z</time></trkpt><trkpt lat="43.41710265881512" lon="3.248740923486858"><ele>97.0</ele><time>2026-04-06T10:48:10.001Z</time></trkpt><trkpt lat="43.41714814965037" lon="3.248848538402025"><ele>96.66666666666667</ele><time>2026-04-06T10:48:12.001Z</time></trkpt><trkpt lat="43.417198913175014" lon="3.248940776080126"><ele>96.33333333333334</ele><time>2026-04-06T10:48:14.001Z</time></trkpt><trkpt lat="43.41724394759452" lon="3.2490452532959933"><ele>96.0</ele><time>2026-04-06T10:48:16Z</time></trkpt><trkpt lat="43.4172896712039" lon="3.249138372484819"><ele>95.66666666666667</ele><time>2026-04-06T10:48:18Z</time></trkpt><trkpt lat="43.41736832686035" lon="3.249168824693217"><ele>95.33333333333334</ele><time>2026-04-06T10:48:21Z</time></trkpt><trkpt lat="43.41742546340317" lon="3.2491141903178176"><ele>95.0</ele><time>2026-04-06T10:48:23Z</time></trkpt><trkpt lat="43.41751186292469" lon="3.2490543099843037"><ele>95.0</ele><time>2026-04-06T10:48:25Z</time></trkpt><trkpt lat="43.41759888248669" lon="3.24896313566019"><ele>95.0</ele><time>2026-04-06T10:48:27Z</time></trkpt><trkpt lat="43.41769249612784" lon="3.248863823790257"><ele>95.0</ele><time>2026-04-06T10:48:29Z</time></trkpt><trkpt lat="43.41773131894029" lon="3.2487938076719836"><ele>95.0</ele><time>2026-04-06T10:48:30Z</time></trkpt><trkpt lat="43.417838818869434" lon="3.2487021604062005"><ele>95.0</ele><time>2026-04-06T10:48:32Z</time></trkpt><trkpt lat="43.4178836500184" lon="3.2486327881128463"><ele>94.85714285714286</ele><time>2026-04-06T10:48:33Z</time></trkpt><trkpt lat="43.417930845417494" lon="3.2485696651481164"><ele>94.71428571428572</ele><time>2026-04-06T10:48:34Z</time></trkpt><trkpt lat="43.417993642119825" lon="3.2485268538341585"><ele>94.57142857142857</ele><time>2026-04-06T10:48:35Z</time></trkpt><trkpt lat="43.418036618428815" lon="3.2484481659612725"><ele>94.42857142857143</ele><time>2026-04-06T10:48:36Z</time></trkpt><trkpt lat="43.41808986389293" lon="3.2483915102791605"><ele>94.28571428571428</ele><time>2026-04-06T10:48:37Z</time></trkpt><trkpt lat="43.41814045157912" lon="3.2483307855067434"><ele>94.14285714285714</ele><time>2026-04-06T10:48:38Z</time></trkpt><trkpt lat="43.4181912699429" lon="3.248271585414947"><ele>94.0</ele><time>2026-04-06T10:48:39Z</time></trkpt><trkpt lat="43.41823963012997" lon="3.2482120227245543"><ele>94.0</ele><time>2026-04-06T10:48:40Z</time></trkpt><trkpt lat="43.418290155534216" lon="3.2481509732877556"><ele>94.0</ele><time>2026-04-06T10:48:41Z</time></trkpt><trkpt lat="43.418336075793135" lon="3.2480913000867155"><ele>94.0</ele><time>2026-04-06T10:48:42Z</time></trkpt><trkpt lat="43.418380466571875" lon="3.248026836974555"><ele>94.0</ele><time>2026-04-06T10:48:43Z</time></trkpt><trkpt lat="43.41842570329676" lon="3.2479603757821605"><ele>94.0</ele><time>2026-04-06T10:48:44Z</time></trkpt><trkpt lat="43.41846771895432" lon="3.247893279741508"><ele>94.0</ele><time>2026-04-06T10:48:45Z</time></trkpt><trkpt lat="43.418510458308965" lon="3.2478238931763252"><ele>94.0</ele><time>2026-04-06T10:48:46Z</time></trkpt><trkpt lat="43.41855074473195" lon="3.247751376589113"><ele>93.85714285714286</ele><time>2026-04-06T10:48:47Z</time></trkpt><trkpt lat="43.41859225761476" lon="3.2476786011362986"><ele>93.71428571428571</ele><time>2026-04-06T10:48:48Z</time></trkpt><trkpt lat="43.4186270143578" lon="3.2476052430158906"><ele>93.57142857142858</ele><time>2026-04-06T10:48:49Z</time></trkpt><trkpt lat="43.418669205685006" lon="3.2475325896061005"><ele>93.42857142857143</ele><time>2026-04-06T10:48:50Z</time></trkpt><trkpt lat="43.418708185993516" lon="3.2474551459490093"><ele>93.28571428571429</ele><time>2026-04-06T10:48:51Z</time></trkpt><trkpt lat="43.41874149646976" lon="3.247377487485522"><ele>93.14285714285715</ele><time>2026-04-06T10:48:52Z</time></trkpt><trkpt lat="43.41877650919557" lon="3.247300722082537"><ele>93.0</ele><time>2026-04-06T10:48:53Z</time></trkpt><trkpt lat="43.418810775464706" lon="3.247222933959574"><ele>92.57142857142858</ele><time>2026-04-06T10:48:54Z</time></trkpt><trkpt lat="43.41884384955247" lon="3.2471447921523207"><ele>92.14285714285714</ele><time>2026-04-06T10:48:55Z</time></trkpt><trkpt lat="43.418874275238444" lon="3.2470633005730765"><ele>91.71428571428572</ele><time>2026-04-06T10:48:56Z</time></trkpt><trkpt lat="43.418902508734654" lon="3.2469819391706256"><ele>91.28571428571429</ele><time>2026-04-06T10:48:57Z</time></trkpt><trkpt lat="43.418932556242176" lon="3.24690043892573"><ele>90.85714285714286</ele><time>2026-04-06T10:48:58Z</time></trkpt><trkpt lat="43.41896093128851" lon="3.2468168633120147"><ele>90.42857142857143</ele><time>2026-04-06T10:48:59Z</time></trkpt><trkpt lat="43.41898577624138" lon="3.2467344842469736"><ele>90.0</ele><time>2026-04-06T10:49:00Z</time></trkpt><trkpt lat="43.41901360240789" lon="3.246648027639298"><ele>90.0</ele><time>2026-04-06T10:49:01Z</time></trkpt><trkpt lat="43.41904104016775" lon="3.246563820326641"><ele>90.0</ele><time>2026-04-06T10:49:02Z</time></trkpt><trkpt lat="43.41906976614704" lon="3.2464772827485504"><ele>90.0</ele><time>2026-04-06T10:49:03Z</time></trkpt><trkpt lat="43.4190974142231" lon="3.2463914874050346"><ele>90.0</ele><time>2026-04-06T10:49:04Z</time></trkpt><trkpt lat="43.41913069667503" lon="3.246305887835511"><ele>90.0</ele><time>2026-04-06T10:49:05.001Z</time></trkpt><trkpt lat="43.41916031066946" lon="3.2462203372616636"><ele>90.0</ele><time>2026-04-06T10:49:06.001Z</time></trkpt><trkpt lat="43.41919947658501" lon="3.246140740822535"><ele>90.0</ele><time>2026-04-06T10:49:07.001Z</time></trkpt><trkpt lat="43.41923446986082" lon="3.2460608193965466"><ele>89.57142857142857</ele><time>2026-04-06T10:49:08.001Z</time></trkpt><trkpt lat="43.419270529265475" lon="3.245980186069621"><ele>89.14285714285715</ele><time>2026-04-06T10:49:09.001Z</time></trkpt><trkpt lat="43.419302392455535" lon="3.2459028732548316"><ele>88.71428571428572</ele><time>2026-04-06T10:49:10.001Z</time></trkpt><trkpt lat="43.41935105022739" lon="3.245838653076308"><ele>88.28571428571428</ele><time>2026-04-06T10:49:11.001Z</time></trkpt><trkpt lat="43.41938982008052" lon="3.2457615074610713"><ele>87.85714285714286</ele><time>2026-04-06T10:49:12.001Z</time></trkpt><trkpt lat="43.41941693722213" lon="3.245674597810789"><ele>87.42857142857143</ele><time>2026-04-06T10:49:13.001Z</time></trkpt><trkpt lat="43.419463825163085" lon="3.245607485154589"><ele>87.0</ele><time>2026-04-06T10:49:14.001Z</time></trkpt><trkpt lat="43.419487412256636" lon="3.245514374215929"><ele>86.0</ele><time>2026-04-06T10:49:15.001Z</time></trkpt><trkpt lat="43.41952939214392" lon="3.2454325089147993"><ele>85.0</ele><time>2026-04-06T10:49:16.001Z</time></trkpt><trkpt lat="43.41958195803263" lon="3.245353692926922"><ele>84.0</ele><time>2026-04-06T10:49:17.001Z</time></trkpt><trkpt lat="43.419606982121714" lon="3.2452455020052224"><ele>83.0</ele><time>2026-04-06T10:49:18.001Z</time></trkpt><trkpt lat="43.41963543693738" lon="3.2451338182619747"><ele>82.0</ele><time>2026-04-06T10:49:19.001Z</time></trkpt><trkpt lat="43.4196619070715" lon="3.245017094060669"><ele>81.0</ele><time>2026-04-06T10:49:20.001Z</time></trkpt><trkpt lat="43.419683345522415" lon="3.2449211636092956"><ele>81.0</ele><time>2026-04-06T10:49:21.001Z</time></trkpt><trkpt lat="43.419739275079074" lon="3.244789585214313"><ele>81.0</ele><time>2026-04-06T10:49:23.001Z</time></trkpt><trkpt lat="43.419796935446854" lon="3.244744728744012"><ele>81.0</ele><time>2026-04-06T10:49:25.001Z</time></trkpt><trkpt lat="43.41986577832545" lon="3.2447805976251174"><ele>81.0</ele><time>2026-04-06T10:49:27.001Z</time></trkpt><trkpt lat="43.4199582697128" lon="3.244781594609957"><ele>81.0</ele><time>2026-04-06T10:49:29.001Z</time></trkpt><trkpt lat="43.42006749491211" lon="3.2447523657033206"><ele>81.0</ele><time>2026-04-06T10:49:31.001Z</time></trkpt><trkpt lat="43.42018724524374" lon="3.244705824948104"><ele>81.0</ele><time>2026-04-06T10:49:33.001Z</time></trkpt><trkpt lat="43.42031107278479" lon="3.244654476323174"><ele>81.0</ele><time>2026-04-06T10:49:35.001Z</time></trkpt><trkpt lat="43.42037159990329" lon="3.2446284888510135"><ele>81.0</ele><time>2026-04-06T10:49:36.001Z</time></trkpt><trkpt lat="43.420434252512614" lon="3.2446015888479547"><ele>81.0</ele><time>2026-04-06T10:49:37.001Z</time></trkpt><trkpt lat="43.42049516539636" lon="3.2445754357803396"><ele>81.0</ele><time>2026-04-06T10:49:38.001Z</time></trkpt><trkpt lat="43.42055241729361" lon="3.244530405459247"><ele>80.57142857142857</ele><time>2026-04-06T10:49:39.001Z</time></trkpt><trkpt lat="43.420615364087844" lon="3.2444968664759397"><ele>80.14285714285714</ele><time>2026-04-06T10:49:40.001Z</time></trkpt><trkpt lat="43.42068243585704" lon="3.2444588323493995"><ele>79.71428571428572</ele><time>2026-04-06T10:49:41.001Z</time></trkpt><trkpt lat="43.42074883106611" lon="3.2444429058512805"><ele>79.28571428571428</ele><time>2026-04-06T10:49:42.001Z</time></trkpt><trkpt lat="43.42081180841075" lon="3.2444040068276907"><ele>78.85714285714285</ele><time>2026-04-06T10:49:43.001Z</time></trkpt><trkpt lat="43.4208696235386" lon="3.2443436335838265"><ele>78.42857142857143</ele><time>2026-04-06T10:49:44.001Z</time></trkpt><trkpt lat="43.4209438848307" lon="3.2443185003976307"><ele>78.0</ele><time>2026-04-06T10:49:45.001Z</time></trkpt><trkpt lat="43.42100863896363" lon="3.2442785290963605"><ele>78.0</ele><time>2026-04-06T10:49:46.001Z</time></trkpt><trkpt lat="43.421073164248774" lon="3.2442139109300228"><ele>78.0</ele><time>2026-04-06T10:49:47.001Z</time></trkpt><trkpt lat="43.42114435169924" lon="3.2441857967825314"><ele>78.0</ele><time>2026-04-06T10:49:48.001Z</time></trkpt><trkpt lat="43.42121046511629" lon="3.2441406211653763"><ele>78.0</ele><time>2026-04-06T10:49:49.001Z</time></trkpt><trkpt lat="43.421276770784274" lon="3.2440953144391873"><ele>78.0</ele><time>2026-04-06T10:49:50.001Z</time></trkpt><trkpt lat="43.42134021658954" lon="3.2440519615746246"><ele>78.0</ele><time>2026-04-06T10:49:51.001Z</time></trkpt><trkpt lat="43.42140247001542" lon="3.2440094235513093"><ele>78.0</ele><time>2026-04-06T10:49:52.001Z</time></trkpt><trkpt lat="43.421462933393045" lon="3.2439706526276075"><ele>77.5</ele><time>2026-04-06T10:49:53.001Z</time></trkpt><trkpt lat="43.42151723522076" lon="3.243917690943812"><ele>77.0</ele><time>2026-04-06T10:49:54.001Z</time></trkpt><trkpt lat="43.42158092073018" lon="3.243894506043307"><ele>76.5</ele><time>2026-04-06T10:49:55.001Z</time></trkpt><trkpt lat="43.42164752862236" lon="3.243873030831696"><ele>76.0</ele><time>2026-04-06T10:49:56.001Z</time></trkpt><trkpt lat="43.4217149104871" lon="3.2438551557237205"><ele>75.5</ele><time>2026-04-06T10:49:57.001Z</time></trkpt><trkpt lat="43.42178318477214" lon="3.243866546409136"><ele>75.0</ele><time>2026-04-06T10:49:58.001Z</time></trkpt><trkpt lat="43.42190025216315" lon="3.2438317300170043"><ele>75.0</ele><time>2026-04-06T10:50:00.001Z</time></trkpt><trkpt lat="43.42199900295041" lon="3.243807971082529"><ele>75.0</ele><time>2026-04-06T10:50:02.001Z</time></trkpt><trkpt lat="43.42207452533187" lon="3.2437853496733395"><ele>75.0</ele><time>2026-04-06T10:50:04.001Z</time></trkpt><trkpt lat="43.42207746214104" lon="3.2436437499096678"><ele>75.0</ele><time>2026-04-06T10:50:07.001Z</time></trkpt><trkpt lat="43.42203329238018" lon="3.2435254356066676"><ele>75.0</ele><time>2026-04-06T10:50:09.001Z</time></trkpt><trkpt lat="43.422000889453614" lon="3.243380208392031"><ele>75.0</ele><time>2026-04-06T10:50:11.001Z</time></trkpt><trkpt lat="43.421969148458" lon="3.243218699472827"><ele>75.0</ele><time>2026-04-06T10:50:13.002Z</time></trkpt><trkpt lat="43.421946423292475" lon="3.2431357469230626"><ele>75.0</ele><time>2026-04-06T10:50:14.002Z</time></trkpt><trkpt lat="43.421910927259574" lon="3.242977199704461"><ele>75.0</ele><time>2026-04-06T10:50:16.002Z</time></trkpt><trkpt lat="43.42186434946911" lon="3.2428270163926496"><ele>75.0</ele><time>2026-04-06T10:50:18.002Z</time></trkpt><trkpt lat="43.421824684256656" lon="3.2426946576002043"><ele>74.5</ele><time>2026-04-06T10:50:20.002Z</time></trkpt><trkpt lat="43.421783581798664" lon="3.242600177884058"><ele>74.0</ele><time>2026-04-06T10:50:22Z</time></trkpt><trkpt lat="43.42175965042325" lon="3.2424992163417845"><ele>73.5</ele><time>2026-04-06T10:50:25Z</time></trkpt><trkpt lat="43.421783976710124" lon="3.242407970324067"><ele>73.0</ele><time>2026-04-06T10:50:36Z</time></trkpt><trkpt lat="43.421738977095536" lon="3.242336846890581"><ele>72.5</ele><time>2026-04-06T10:50:37Z</time></trkpt><trkpt lat="43.421655470567885" lon="3.2422612450608055"><ele>72.0</ele><time>2026-04-06T10:50:39Z</time></trkpt><trkpt lat="43.4215762126072" lon="3.2422018584943992"><ele>71.6</ele><time>2026-04-06T10:50:41Z</time></trkpt><trkpt lat="43.421490046219084" lon="3.242115337183336"><ele>71.2</ele><time>2026-04-06T10:50:43Z</time></trkpt><trkpt lat="43.421387406117255" lon="3.242040320847982"><ele>70.8</ele><time>2026-04-06T10:50:45Z</time></trkpt><trkpt lat="43.4212809825215" lon="3.2419723472773287"><ele>70.4</ele><time>2026-04-06T10:50:47Z</time></trkpt><trkpt lat="43.42121276432589" lon="3.2418697008870416"><ele>70.0</ele><time>2026-04-06T10:50:49Z</time></trkpt><trkpt lat="43.42125044653102" lon="3.2416774510882425"><ele>70.0</ele><time>2026-04-06T10:50:51Z</time></trkpt><trkpt lat="43.4213110976241" lon="3.2416240282541064"><ele>70.0</ele><time>2026-04-06T10:50:52.001Z</time></trkpt><trkpt lat="43.421355851315994" lon="3.241539624847807"><ele>70.0</ele><time>2026-04-06T10:50:53.001Z</time></trkpt><trkpt lat="43.42139359174172" lon="3.2414468168922483"><ele>70.0</ele><time>2026-04-06T10:50:54.001Z</time></trkpt><trkpt lat="43.421442303251425" lon="3.2413630135540483"><ele>70.0</ele><time>2026-04-06T10:50:55.001Z</time></trkpt><trkpt lat="43.42150023639441" lon="3.241293444799262"><ele>70.0</ele><time>2026-04-06T10:50:56.001Z</time></trkpt><trkpt lat="43.42155141588705" lon="3.241214297217229"><ele>69.57142857142857</ele><time>2026-04-06T10:50:57.001Z</time></trkpt><trkpt lat="43.42160062976824" lon="3.2411334296449947"><ele>69.14285714285714</ele><time>2026-04-06T10:50:58.001Z</time></trkpt><trkpt lat="43.42165118351879" lon="3.2410574765309628"><ele>68.71428571428572</ele><time>2026-04-06T10:50:59.001Z</time></trkpt><trkpt lat="43.42170893284884" lon="3.2409975032512044"><ele>68.28571428571428</ele><time>2026-04-06T10:51:00.001Z</time></trkpt><trkpt lat="43.42177071084343" lon="3.2409445622099162"><ele>67.85714285714286</ele><time>2026-04-06T10:51:01.001Z</time></trkpt><trkpt lat="43.42183097816124" lon="3.240890540800066"><ele>67.42857142857143</ele><time>2026-04-06T10:51:02.001Z</time></trkpt><trkpt lat="43.42189607639554" lon="3.240842900402538"><ele>67.0</ele><time>2026-04-06T10:51:03.001Z</time></trkpt><trkpt lat="43.42196081178447" lon="3.240812848201038"><ele>67.0</ele><time>2026-04-06T10:51:04.001Z</time></trkpt><trkpt lat="43.42202905736012" lon="3.2407918058008187"><ele>67.0</ele><time>2026-04-06T10:51:05.001Z</time></trkpt><trkpt lat="43.4220962284549" lon="3.2407899924157424"><ele>67.0</ele><time>2026-04-06T10:51:06.001Z</time></trkpt><trkpt lat="43.42216719677764" lon="3.2407849242073468"><ele>67.0</ele><time>2026-04-06T10:51:07.001Z</time></trkpt><trkpt lat="43.4222353994596" lon="3.2407788314306742"><ele>67.0</ele><time>2026-04-06T10:51:08.001Z</time></trkpt><trkpt lat="43.422304586578754" lon="3.2407718221933672"><ele>67.0</ele><time>2026-04-06T10:51:09.001Z</time></trkpt><trkpt lat="43.422374269313394" lon="3.2407592577393602"><ele>67.0</ele><time>2026-04-06T10:51:10.001Z</time></trkpt><trkpt lat="43.422440097993906" lon="3.240739039096671"><ele>67.0</ele><time>2026-04-06T10:51:11.001Z</time></trkpt><trkpt lat="43.422504371368554" lon="3.2407151899919424"><ele>67.0</ele><time>2026-04-06T10:51:12.001Z</time></trkpt><trkpt lat="43.422569954558504" lon="3.2406813422238203"><ele>67.0</ele><time>2026-04-06T10:51:13.001Z</time></trkpt><trkpt lat="43.42263228575914" lon="3.2406347021602095"><ele>67.0</ele><time>2026-04-06T10:51:14.001Z</time></trkpt><trkpt lat="43.42268764345452" lon="3.2405862342817957"><ele>67.0</ele><time>2026-04-06T10:51:15.001Z</time></trkpt><trkpt lat="43.4227380169604" lon="3.2405296474991565"><ele>67.0</ele><time>2026-04-06T10:51:16.001Z</time></trkpt><trkpt lat="43.422784960874175" lon="3.240470463962066"><ele>67.0</ele><time>2026-04-06T10:51:17.001Z</time></trkpt><trkpt lat="43.42282893103107" lon="3.24040634928954"><ele>67.0</ele><time>2026-04-06T10:51:18.001Z</time></trkpt><trkpt lat="43.42287118076129" lon="3.2403380431513575"><ele>67.0</ele><time>2026-04-06T10:51:19.001Z</time></trkpt><trkpt lat="43.422910075896176" lon="3.2402688312681494"><ele>67.0</ele><time>2026-04-06T10:51:20.001Z</time></trkpt><trkpt lat="43.42294686331953" lon="3.2401961523019094"><ele>67.0</ele><time>2026-04-06T10:51:21.001Z</time></trkpt><trkpt lat="43.42297039638093" lon="3.240110633436289"><ele>67.0</ele><time>2026-04-06T10:51:22.001Z</time></trkpt><trkpt lat="43.423007814146736" lon="3.2400399639252866"><ele>67.0</ele><time>2026-04-06T10:51:23.001Z</time></trkpt><trkpt lat="43.42304499727488" lon="3.2399696184100932"><ele>67.0</ele><time>2026-04-06T10:51:24.001Z</time></trkpt><trkpt lat="43.42308180658619" lon="3.2398979720168537"><ele>67.0</ele><time>2026-04-06T10:51:25.001Z</time></trkpt><trkpt lat="43.42312141858624" lon="3.2398289285224333"><ele>67.0</ele><time>2026-04-06T10:51:26.001Z</time></trkpt><trkpt lat="43.42315789258305" lon="3.2397550378331528"><ele>67.0</ele><time>2026-04-06T10:51:27.001Z</time></trkpt><trkpt lat="43.42319598869374" lon="3.2396822945828156"><ele>67.0</ele><time>2026-04-06T10:51:28.001Z</time></trkpt><trkpt lat="43.42323398662555" lon="3.2396109975916576"><ele>67.0</ele><time>2026-04-06T10:51:29.001Z</time></trkpt><trkpt lat="43.4232721293331" lon="3.239540347519887"><ele>67.0</ele><time>2026-04-06T10:51:30.001Z</time></trkpt><trkpt lat="43.42330918277406" lon="3.2394698793567236"><ele>67.0</ele><time>2026-04-06T10:51:31.001Z</time></trkpt><trkpt lat="43.42334655375535" lon="3.2393999341240822"><ele>67.0</ele><time>2026-04-06T10:51:32.001Z</time></trkpt><trkpt lat="43.423418304780924" lon="3.2392607133839713"><ele>66.8</ele><time>2026-04-06T10:51:34.001Z</time></trkpt><trkpt lat="43.423487594891746" lon="3.2391286170530664"><ele>66.6</ele><time>2026-04-06T10:51:36.001Z</time></trkpt><trkpt lat="43.42356864267326" lon="3.2390343066272447"><ele>66.39999999999999</ele><time>2026-04-06T10:51:38.001Z</time></trkpt><trkpt lat="43.423672048560654" lon="3.239086369551362"><ele>66.2</ele><time>2026-04-06T10:51:40.001Z</time></trkpt><trkpt lat="43.4237815908401" lon="3.2390963466610194"><ele>66.0</ele><time>2026-04-06T10:51:42.001Z</time></trkpt><trkpt lat="43.423898527671504" lon="3.239083260807035"><ele>66.75</ele><time>2026-04-06T10:51:44.001Z</time></trkpt><trkpt lat="43.424014252465184" lon="3.239047150538246"><ele>67.5</ele><time>2026-04-06T10:51:46.001Z</time></trkpt><trkpt lat="43.4241241446325" lon="3.2390206453128316"><ele>68.25</ele><time>2026-04-06T10:51:48.001Z</time></trkpt><trkpt lat="43.42424087686496" lon="3.2390107659683585"><ele>69.0</ele><time>2026-04-06T10:51:50.001Z</time></trkpt><trkpt lat="43.42435383374312" lon="3.23900977694885"><ele>69.0</ele><time>2026-04-06T10:51:52.001Z</time></trkpt><trkpt lat="43.42446559261545" lon="3.2390164957889738"><ele>69.0</ele><time>2026-04-06T10:51:54.001Z</time></trkpt><trkpt lat="43.424579387929604" lon="3.239023337052287"><ele>69.0</ele><time>2026-04-06T10:51:56.001Z</time></trkpt><trkpt lat="43.42469241316168" lon="3.239029705341618"><ele>69.0</ele><time>2026-04-06T10:51:58.002Z</time></trkpt><trkpt lat="43.424806730697775" lon="3.2390337881850595"><ele>69.0</ele><time>2026-04-06T10:52:00.002Z</time></trkpt><trkpt lat="43.424921523326454" lon="3.239025335627513"><ele>69.0</ele><time>2026-04-06T10:52:02.002Z</time></trkpt><trkpt lat="43.42503738268997" lon="3.2390072913778774"><ele>69.0</ele><time>2026-04-06T10:52:04.002Z</time></trkpt><trkpt lat="43.42515381966171" lon="3.2389877943163197"><ele>69.0</ele><time>2026-04-06T10:52:06.002Z</time></trkpt><trkpt lat="43.42527359030152" lon="3.238968076248959"><ele>69.0</ele><time>2026-04-06T10:52:08.002Z</time></trkpt><trkpt lat="43.425388793709566" lon="3.238949304335615"><ele>69.0</ele><time>2026-04-06T10:52:10.002Z</time></trkpt><trkpt lat="43.42550354501667" lon="3.238931848651067"><ele>69.0</ele><time>2026-04-06T10:52:12.002Z</time></trkpt><trkpt lat="43.42561527952823" lon="3.2389164336707372"><ele>69.0</ele><time>2026-04-06T10:52:14.002Z</time></trkpt><trkpt lat="43.42572484230958" lon="3.2389013183366795"><ele>69.0</ele><time>2026-04-06T10:52:16.002Z</time></trkpt><trkpt lat="43.42583369473542" lon="3.238886300984099"><ele>69.0</ele><time>2026-04-06T10:52:18.002Z</time></trkpt><trkpt lat="43.425940607131764" lon="3.238871551283479"><ele>69.0</ele><time>2026-04-06T10:52:20.002Z</time></trkpt><trkpt lat="43.42604869089285" lon="3.2388567669808586"><ele>69.0</ele><time>2026-04-06T10:52:22.002Z</time></trkpt><trkpt lat="43.42615959907417" lon="3.238842681330121"><ele>69.0</ele><time>2026-04-06T10:52:24.002Z</time></trkpt><trkpt lat="43.42626850066587" lon="3.2388301746953836"><ele>69.0</ele><time>2026-04-06T10:52:26.002Z</time></trkpt><trkpt lat="43.42637835001258" lon="3.2388185298213674"><ele>69.0</ele><time>2026-04-06T10:52:28Z</time></trkpt><trkpt lat="43.42648791738651" lon="3.238806914074299"><ele>69.0</ele><time>2026-04-06T10:52:30Z</time></trkpt><trkpt lat="43.426599233201316" lon="3.2387938328193635"><ele>69.0</ele><time>2026-04-06T10:52:32Z</time></trkpt><trkpt lat="43.42670999941582" lon="3.2387798960435865"><ele>69.0</ele><time>2026-04-06T10:52:34Z</time></trkpt><trkpt lat="43.42682234468002" lon="3.238765760569162"><ele>69.0</ele><time>2026-04-06T10:52:36Z</time></trkpt><trkpt lat="43.426932874902135" lon="3.2387508563184926"><ele>69.0</ele><time>2026-04-06T10:52:38Z</time></trkpt><trkpt lat="43.42703716565891" lon="3.23871922189571"><ele>69.0</ele><time>2026-04-06T10:52:40Z</time></trkpt><trkpt lat="43.4271464128369" lon="3.238710533862847"><ele>69.0</ele><time>2026-04-06T10:52:42Z</time></trkpt><trkpt lat="43.4272570915332" lon="3.2387342595551525"><ele>69.0</ele><time>2026-04-06T10:52:44Z</time></trkpt><trkpt lat="43.42736653904059" lon="3.238718021892966"><ele>69.4</ele><time>2026-04-06T10:52:46Z</time></trkpt><trkpt lat="43.42747379972268" lon="3.2387469815696335"><ele>69.80000000000001</ele><time>2026-04-06T10:52:48Z</time></trkpt><trkpt lat="43.427580802128595" lon="3.2387622362593635"><ele>70.19999999999999</ele><time>2026-04-06T10:52:50Z</time></trkpt><trkpt lat="43.42768445034653" lon="3.238776019730259"><ele>70.6</ele><time>2026-04-06T10:52:52Z</time></trkpt><trkpt lat="43.427793212674416" lon="3.23879048332104"><ele>71.0</ele><time>2026-04-06T10:52:54.001Z</time></trkpt><trkpt lat="43.42790490811999" lon="3.2387977214337975"><ele>71.39999999999999</ele><time>2026-04-06T10:52:56.001Z</time></trkpt><trkpt lat="43.42801438342776" lon="3.2388013305019934"><ele>71.8</ele><time>2026-04-06T10:52:58.001Z</time></trkpt><trkpt lat="43.428121979979736" lon="3.238802980893325"><ele>72.19999999999999</ele><time>2026-04-06T10:53:00.001Z</time></trkpt><trkpt lat="43.42823023659911" lon="3.238801492607221"><ele>72.6</ele><time>2026-04-06T10:53:02.001Z</time></trkpt><trkpt lat="43.42833951585814" lon="3.238798789944856"><ele>73.0</ele><time>2026-04-06T10:53:04.001Z</time></trkpt><trkpt lat="43.42844508961514" lon="3.238797658728514"><ele>73.0</ele><time>2026-04-06T10:53:06.001Z</time></trkpt><trkpt lat="43.428552782691845" lon="3.238797105848202"><ele>73.0</ele><time>2026-04-06T10:53:08.001Z</time></trkpt><trkpt lat="43.42865895415115" lon="3.2387962225740163"><ele>73.0</ele><time>2026-04-06T10:53:10.001Z</time></trkpt><trkpt lat="43.428767149633515" lon="3.238793076381644"><ele>73.0</ele><time>2026-04-06T10:53:12.001Z</time></trkpt><trkpt lat="43.42887279002682" lon="3.23878748152073"><ele>73.0</ele><time>2026-04-06T10:53:14.001Z</time></trkpt><trkpt lat="43.42898315393838" lon="3.2387733702677886"><ele>73.4</ele><time>2026-04-06T10:53:16.001Z</time></trkpt><trkpt lat="43.4290853231388" lon="3.2387579631087697"><ele>73.8</ele><time>2026-04-06T10:53:18.001Z</time></trkpt><trkpt lat="43.42918914854605" lon="3.238742273446997"><ele>74.2</ele><time>2026-04-06T10:53:20.001Z</time></trkpt><trkpt lat="43.42929362362046" lon="3.2387264856244076"><ele>74.6</ele><time>2026-04-06T10:53:22.001Z</time></trkpt><trkpt lat="43.42939586420633" lon="3.2387110354299398"><ele>75.0</ele><time>2026-04-06T10:53:24.001Z</time></trkpt><trkpt lat="43.42949488014791" lon="3.238696072728719"><ele>75.0</ele><time>2026-04-06T10:53:26.001Z</time></trkpt><trkpt lat="43.42958392660652" lon="3.2386435111052156"><ele>75.0</ele><time>2026-04-06T10:53:28.001Z</time></trkpt><trkpt lat="43.42967569784842" lon="3.2386149180016326"><ele>75.0</ele><time>2026-04-06T10:53:30.001Z</time></trkpt><trkpt lat="43.42976923639744" lon="3.2386063578651614"><ele>75.0</ele><time>2026-04-06T10:53:32.001Z</time></trkpt><trkpt lat="43.429868534882786" lon="3.2385924062710676"><ele>75.0</ele><time>2026-04-06T10:53:34.001Z</time></trkpt><trkpt lat="43.42997210444994" lon="3.2385729159624375"><ele>75.8</ele><time>2026-04-06T10:53:36.001Z</time></trkpt><trkpt lat="43.43007401378102" lon="3.2386014188788366"><ele>76.6</ele><time>2026-04-06T10:53:38.001Z</time></trkpt><trkpt lat="43.430175840182685" lon="3.238584039890161"><ele>77.4</ele><time>2026-04-06T10:53:40.001Z</time></trkpt><trkpt lat="43.43027711758928" lon="3.2385606465846335"><ele>78.2</ele><time>2026-04-06T10:53:42.001Z</time></trkpt><trkpt lat="43.430378831588335" lon="3.2385335533183555"><ele>79.0</ele><time>2026-04-06T10:53:44.001Z</time></trkpt><trkpt lat="43.43047951378105" lon="3.238505542490657"><ele>79.4</ele><time>2026-04-06T10:53:46.001Z</time></trkpt><trkpt lat="43.430580981664036" lon="3.23847699966958"><ele>79.80000000000001</ele><time>2026-04-06T10:53:48.001Z</time></trkpt><trkpt lat="43.43068544208598" lon="3.238442955613679"><ele>80.19999999999999</ele><time>2026-04-06T10:53:50.001Z</time></trkpt><trkpt lat="43.43078259647525" lon="3.2384126330691667"><ele>80.6</ele><time>2026-04-06T10:53:52.001Z</time></trkpt><trkpt lat="43.43087647128469" lon="3.238383390398167"><ele>81.0</ele><time>2026-04-06T10:53:54.001Z</time></trkpt><trkpt lat="43.430970849648325" lon="3.2383529330798604"><ele>81.0</ele><time>2026-04-06T10:53:56.001Z</time></trkpt><trkpt lat="43.431053510134916" lon="3.2383235583902215"><ele>81.0</ele><time>2026-04-06T10:53:58.001Z</time></trkpt><trkpt lat="43.43113725538256" lon="3.238291087603"><ele>81.0</ele><time>2026-04-06T10:54:00.001Z</time></trkpt><trkpt lat="43.43122086823479" lon="3.2382494180710246"><ele>81.0</ele><time>2026-04-06T10:54:02.001Z</time></trkpt><trkpt lat="43.43130373515537" lon="3.2382063529724183"><ele>81.0</ele><time>2026-04-06T10:54:04.001Z</time></trkpt><trkpt lat="43.431379287551266" lon="3.2381670890805814"><ele>81.0</ele><time>2026-04-06T10:54:06.002Z</time></trkpt><trkpt lat="43.43145839944459" lon="3.23812597544858"><ele>81.66666666666667</ele><time>2026-04-06T10:54:08.002Z</time></trkpt><trkpt lat="43.431534070638264" lon="3.238085892860378"><ele>82.33333333333333</ele><time>2026-04-06T10:54:10.002Z</time></trkpt><trkpt lat="43.43161039529677" lon="3.2380452194987117"><ele>83.0</ele><time>2026-04-06T10:54:12.002Z</time></trkpt><trkpt lat="43.43168610096925" lon="3.238002392514817"><ele>83.66666666666666</ele><time>2026-04-06T10:54:14.002Z</time></trkpt><trkpt lat="43.43176399220507" lon="3.2379572418906846"><ele>84.33333333333333</ele><time>2026-04-06T10:54:16.002Z</time></trkpt><trkpt lat="43.43184153191734" lon="3.2379105968005817"><ele>85.0</ele><time>2026-04-06T10:54:18.002Z</time></trkpt><trkpt lat="43.43191608971903" lon="3.2378626119220373"><ele>85.0</ele><time>2026-04-06T10:54:20.002Z</time></trkpt><trkpt lat="43.431993867372114" lon="3.2378116055821193"><ele>85.0</ele><time>2026-04-06T10:54:22.002Z</time></trkpt><trkpt lat="43.43207109172282" lon="3.2377609996055163"><ele>85.0</ele><time>2026-04-06T10:54:24.002Z</time></trkpt><trkpt lat="43.4321530498178" lon="3.237704537792434"><ele>85.0</ele><time>2026-04-06T10:54:26.002Z</time></trkpt><trkpt lat="43.432235807096184" lon="3.2376559783412286"><ele>85.0</ele><time>2026-04-06T10:54:28.002Z</time></trkpt><trkpt lat="43.432319526988614" lon="3.2375970240027505"><ele>85.0</ele><time>2026-04-06T10:54:30.002Z</time></trkpt><trkpt lat="43.432404710416634" lon="3.237564879360314"><ele>85.83333333333333</ele><time>2026-04-06T10:54:32.002Z</time></trkpt><trkpt lat="43.43248737171316" lon="3.2375321260567285"><ele>86.66666666666666</ele><time>2026-04-06T10:54:34Z</time></trkpt><trkpt lat="43.43256933283319" lon="3.237502147829184"><ele>87.5</ele><time>2026-04-06T10:54:36Z</time></trkpt><trkpt lat="43.43265093351358" lon="3.237474406229735"><ele>88.33333333333333</ele><time>2026-04-06T10:54:38Z</time></trkpt><trkpt lat="43.432730411024714" lon="3.237434845908623"><ele>89.16666666666667</ele><time>2026-04-06T10:54:40Z</time></trkpt><trkpt lat="43.43281288062403" lon="3.2373985270950696"><ele>90.0</ele><time>2026-04-06T10:54:42Z</time></trkpt><trkpt lat="43.432895495899125" lon="3.237373731794741"><ele>90.66666666666667</ele><time>2026-04-06T10:54:44Z</time></trkpt><trkpt lat="43.43297936718219" lon="3.237358140253593"><ele>91.33333333333333</ele><time>2026-04-06T10:54:46Z</time></trkpt><trkpt lat="43.433065430540154" lon="3.2373505380735166"><ele>92.0</ele><time>2026-04-06T10:54:48Z</time></trkpt><trkpt lat="43.43315313093846" lon="3.237368880999949"><ele>92.66666666666666</ele><time>2026-04-06T10:54:50Z</time></trkpt><trkpt lat="43.43323949265431" lon="3.2373773517879023"><ele>93.33333333333333</ele><time>2026-04-06T10:54:52Z</time></trkpt><trkpt lat="43.43332594785786" lon="3.2373880479161166"><ele>94.0</ele><time>2026-04-06T10:54:54Z</time></trkpt><trkpt lat="43.43341461338901" lon="3.23739978248632"><ele>94.0</ele><time>2026-04-06T10:54:56Z</time></trkpt><trkpt lat="43.43350102352754" lon="3.237412673795671"><ele>94.0</ele><time>2026-04-06T10:54:58Z</time></trkpt><trkpt lat="43.43358865206951" lon="3.237423625514834"><ele>94.0</ele><time>2026-04-06T10:55:00Z</time></trkpt><trkpt lat="43.43367303601802" lon="3.237409638856965"><ele>94.0</ele><time>2026-04-06T10:55:02.001Z</time></trkpt><trkpt lat="43.43375869707441" lon="3.2374305759981907"><ele>94.0</ele><time>2026-04-06T10:55:04.001Z</time></trkpt><trkpt lat="43.43384162568896" lon="3.237419337734728"><ele>94.0</ele><time>2026-04-06T10:55:06.001Z</time></trkpt><trkpt lat="43.43392008206168" lon="3.237402576506444"><ele>94.33333333333333</ele><time>2026-04-06T10:55:08.001Z</time></trkpt><trkpt lat="43.43399866663595" lon="3.23738170549268"><ele>94.66666666666666</ele><time>2026-04-06T10:55:10.001Z</time></trkpt><trkpt lat="43.43408161630182" lon="3.237357735097804"><ele>95.0</ele><time>2026-04-06T10:55:12.001Z</time></trkpt><trkpt lat="43.4341657161264" lon="3.237331556290873"><ele>95.33333333333333</ele><time>2026-04-06T10:55:14.001Z</time></trkpt><trkpt lat="43.43425004219147" lon="3.237305307014757"><ele>95.66666666666667</ele><time>2026-04-06T10:55:16.001Z</time></trkpt><trkpt lat="43.434335565649135" lon="3.2372786850006627"><ele>96.0</ele><time>2026-04-06T10:55:18.001Z</time></trkpt><trkpt lat="43.43442405696784" lon="3.237251139204548"><ele>96.16666666666667</ele><time>2026-04-06T10:55:20.001Z</time></trkpt><trkpt lat="43.43451223227078" lon="3.237224235804024"><ele>96.33333333333334</ele><time>2026-04-06T10:55:22.001Z</time></trkpt><trkpt lat="43.43459956548626" lon="3.237197768353705"><ele>96.5</ele><time>2026-04-06T10:55:24.001Z</time></trkpt><trkpt lat="43.434685430119956" lon="3.2371727990852195"><ele>96.66666666666667</ele><time>2026-04-06T10:55:26.001Z</time></trkpt><trkpt lat="43.434773577119046" lon="3.2371478216930387"><ele>96.83333333333334</ele><time>2026-04-06T10:55:28.001Z</time></trkpt><trkpt lat="43.43485933684213" lon="3.2371235207574904"><ele>97.0</ele><time>2026-04-06T10:55:30.001Z</time></trkpt><trkpt lat="43.434946861919364" lon="3.237098719572948"><ele>97.8</ele><time>2026-04-06T10:55:32.001Z</time></trkpt><trkpt lat="43.43503729118613" lon="3.237071806625876"><ele>98.6</ele><time>2026-04-06T10:55:34.001Z</time></trkpt><trkpt lat="43.43512773730029" lon="3.237040321173409"><ele>99.39999999999999</ele><time>2026-04-06T10:55:36.001Z</time></trkpt><trkpt lat="43.435216708535215" lon="3.2369966149480156"><ele>100.19999999999999</ele><time>2026-04-06T10:55:38.001Z</time></trkpt><trkpt lat="43.435303782586374" lon="3.236947476981363"><ele>101.0</ele><time>2026-04-06T10:55:40.001Z</time></trkpt><trkpt lat="43.435388702842204" lon="3.236895137048136"><ele>101.4</ele><time>2026-04-06T10:55:42.001Z</time></trkpt><trkpt lat="43.43547210836377" lon="3.236839618783422"><ele>101.8</ele><time>2026-04-06T10:55:44.001Z</time></trkpt><trkpt lat="43.43555679417899" lon="3.236782025041523"><ele>102.2</ele><time>2026-04-06T10:55:46.001Z</time></trkpt><trkpt lat="43.43563883174173" lon="3.236724839937793"><ele>102.60000000000001</ele><time>2026-04-06T10:55:48.001Z</time></trkpt><trkpt lat="43.43571652896764" lon="3.2366706802883476"><ele>103.0</ele><time>2026-04-06T10:55:50.001Z</time></trkpt><trkpt lat="43.4357918447288" lon="3.2366182143713367"><ele>103.00000000000001</ele><time>2026-04-06T10:55:52.001Z</time></trkpt><trkpt lat="43.43587087089001" lon="3.236569694527547"><ele>103.0</ele><time>2026-04-06T10:55:54.001Z</time></trkpt><trkpt lat="43.435949927327954" lon="3.2365290718986963"><ele>103.0</ele><time>2026-04-06T10:55:56.001Z</time></trkpt><trkpt lat="43.436029262049445" lon="3.2364995510960757"><ele>103.0</ele><time>2026-04-06T10:55:58.001Z</time></trkpt><trkpt lat="43.43611354227052" lon="3.236475856259862"><ele>103.00000000000001</ele><time>2026-04-06T10:56:00.001Z</time></trkpt><trkpt lat="43.43619504366756" lon="3.2364605987079456"><ele>103.0</ele><time>2026-04-06T10:56:02.001Z</time></trkpt><trkpt lat="43.436281937257505" lon="3.2364475711127096"><ele>103.4</ele><time>2026-04-06T10:56:04.001Z</time></trkpt><trkpt lat="43.436367232257446" lon="3.236434783210824"><ele>103.80000000000001</ele><time>2026-04-06T10:56:06.001Z</time></trkpt><trkpt lat="43.436455424211566" lon="3.2364215610018463"><ele>104.2</ele><time>2026-04-06T10:56:08.001Z</time></trkpt><trkpt lat="43.43654596171093" lon="3.236409134904916"><ele>104.6</ele><time>2026-04-06T10:56:10.002Z</time></trkpt><trkpt lat="43.4366408207498" lon="3.236396155566437"><ele>105.0</ele><time>2026-04-06T10:56:12.002Z</time></trkpt><trkpt lat="43.43673563168695" lon="3.2363831827849237"><ele>105.0</ele><time>2026-04-06T10:56:14.002Z</time></trkpt><trkpt lat="43.436828505205106" lon="3.2363704751434326"><ele>105.0</ele><time>2026-04-06T10:56:16.002Z</time></trkpt><trkpt lat="43.43691950942733" lon="3.2363580232416513"><ele>105.0</ele><time>2026-04-06T10:56:18.002Z</time></trkpt><trkpt lat="43.43700848377118" lon="3.2363452763803666"><ele>105.0</ele><time>2026-04-06T10:56:20.002Z</time></trkpt><trkpt lat="43.437103341320054" lon="3.2363313566934098"><ele>105.0</ele><time>2026-04-06T10:56:22.002Z</time></trkpt><trkpt lat="43.43718337320274" lon="3.2363103551154806"><ele>105.0</ele><time>2026-04-06T10:56:24.002Z</time></trkpt><trkpt lat="43.43729004705278" lon="3.23629917408943"><ele>105.0</ele><time>2026-04-06T10:56:26.002Z</time></trkpt><trkpt lat="43.43737370093929" lon="3.236291457512871"><ele>105.0</ele><time>2026-04-06T10:56:28.002Z</time></trkpt><trkpt lat="43.43747308304805" lon="3.236313252552517"><ele>105.0</ele><time>2026-04-06T10:56:30.002Z</time></trkpt><trkpt lat="43.437567855384266" lon="3.23631264873607"><ele>105.0</ele><time>2026-04-06T10:56:32.002Z</time></trkpt><trkpt lat="43.43766610750901" lon="3.2363126505298236"><ele>105.0</ele><time>2026-04-06T10:56:34.002Z</time></trkpt><trkpt lat="43.43776952668897" lon="3.2363142056985135"><ele>105.0</ele><time>2026-04-06T10:56:36.002Z</time></trkpt><trkpt lat="43.4378792855533" lon="3.2363171644992574"><ele>105.0</ele><time>2026-04-06T10:56:38.002Z</time></trkpt><trkpt lat="43.43798453988376" lon="3.236320001872926"><ele>105.0</ele><time>2026-04-06T10:56:40Z</time></trkpt><trkpt lat="43.4380856764972" lon="3.236323286514738"><ele>105.0</ele><time>2026-04-06T10:56:42Z</time></trkpt><trkpt lat="43.4381868255254" lon="3.2363282332173653"><ele>105.4</ele><time>2026-04-06T10:56:44Z</time></trkpt><trkpt lat="43.43828592454349" lon="3.236333079665312"><ele>105.8</ele><time>2026-04-06T10:56:46Z</time></trkpt><trkpt lat="43.438374696291746" lon="3.2363374210560116"><ele>106.19999999999999</ele><time>2026-04-06T10:56:48Z</time></trkpt><trkpt lat="43.43846348076352" lon="3.2363415816971743"><ele>106.6</ele><time>2026-04-06T10:56:50Z</time></trkpt><trkpt lat="43.43854937366794" lon="3.2363478649299053"><ele>107.0</ele><time>2026-04-06T10:56:52Z</time></trkpt><trkpt lat="43.43863957222735" lon="3.236356199202563"><ele>107.0</ele><time>2026-04-06T10:56:54Z</time></trkpt><trkpt lat="43.438734264982706" lon="3.2363671835547048"><ele>106.99999999999999</ele><time>2026-04-06T10:56:56Z</time></trkpt><trkpt lat="43.43882905113686" lon="3.236382525295626"><ele>106.99999999999999</ele><time>2026-04-06T10:56:58Z</time></trkpt><trkpt lat="43.43892552358644" lon="3.236398920121813"><ele>107.0</ele><time>2026-04-06T10:57:00Z</time></trkpt><trkpt lat="43.43902309215181" lon="3.236416855905981"><ele>107.0</ele><time>2026-04-06T10:57:02Z</time></trkpt><trkpt lat="43.43911638883849" lon="3.2364375564197685"><ele>107.39999999999999</ele><time>2026-04-06T10:57:04Z</time></trkpt><trkpt lat="43.43920378056946" lon="3.2364580915428345"><ele>107.79999999999998</ele><time>2026-04-06T10:57:06.001Z</time></trkpt><trkpt lat="43.43927438461692" lon="3.2364759755878336"><ele>108.2</ele><time>2026-04-06T10:57:08.001Z</time></trkpt><trkpt lat="43.43932113514024" lon="3.2362668979150904"><ele>108.6</ele><time>2026-04-06T10:57:11.001Z</time></trkpt><trkpt lat="43.43934276889054" lon="3.2361436057682402"><ele>109.0</ele><time>2026-04-06T10:57:13.001Z</time></trkpt><trkpt lat="43.43935211823329" lon="3.2360156323852065"><ele>109.0</ele><time>2026-04-06T10:57:15.001Z</time></trkpt><trkpt lat="43.43936216593786" lon="3.2358797699020627"><ele>109.0</ele><time>2026-04-06T10:57:17.001Z</time></trkpt><trkpt lat="43.43937265694861" lon="3.235740919109397"><ele>109.0</ele><time>2026-04-06T10:57:19.001Z</time></trkpt><trkpt lat="43.43938396869372" lon="3.235598942207448"><ele>109.0</ele><time>2026-04-06T10:57:21.001Z</time></trkpt><trkpt lat="43.43937972398254" lon="3.23545400615306"><ele>109.0</ele><time>2026-04-06T10:57:23.001Z</time></trkpt><trkpt lat="43.43940679678062" lon="3.2353315490525287"><ele>109.00000000000001</ele><time>2026-04-06T10:57:25.001Z</time></trkpt><trkpt lat="43.43941681271044" lon="3.2352095506306724"><ele>109.0</ele><time>2026-04-06T10:57:27.001Z</time></trkpt><trkpt lat="43.4394238962929" lon="3.235089505610764"><ele>109.0</ele><time>2026-04-06T10:57:29.001Z</time></trkpt><trkpt lat="43.43942411476819" lon="3.234953345567402"><ele>109.0</ele><time>2026-04-06T10:57:31.001Z</time></trkpt><trkpt lat="43.43940114792378" lon="3.2348701489776457"><ele>109.00000000000001</ele><time>2026-04-06T10:57:32.001Z</time></trkpt><trkpt lat="43.43931956199342" lon="3.234836764641459"><ele>109.0</ele><time>2026-04-06T10:57:33.001Z</time></trkpt><trkpt lat="43.43922876294932" lon="3.234768009208001"><ele>108.83333333333334</ele><time>2026-04-06T10:57:35.001Z</time></trkpt><trkpt lat="43.43922710578509" lon="3.2346430195167692"><ele>108.66666666666667</ele><time>2026-04-06T10:57:37.001Z</time></trkpt><trkpt lat="43.439249467950205" lon="3.2345297216758677"><ele>108.5</ele><time>2026-04-06T10:57:39.001Z</time></trkpt><trkpt lat="43.439260736591784" lon="3.23438698564234"><ele>108.33333333333334</ele><time>2026-04-06T10:57:41.001Z</time></trkpt><trkpt lat="43.439267557775544" lon="3.2342999084088393"><ele>108.16666666666667</ele><time>2026-04-06T10:57:42.001Z</time></trkpt><trkpt lat="43.439272895082986" lon="3.2342124486807897"><ele>108.0</ele><time>2026-04-06T10:57:43.001Z</time></trkpt><trkpt lat="43.43927846167193" lon="3.2341212319179036"><ele>108.0</ele><time>2026-04-06T10:57:44.001Z</time></trkpt><trkpt lat="43.43928421223782" lon="3.2340270001381866"><ele>108.0</ele><time>2026-04-06T10:57:45.001Z</time></trkpt><trkpt lat="43.439290040245545" lon="3.2339314997415114"><ele>108.0</ele><time>2026-04-06T10:57:46.001Z</time></trkpt><trkpt lat="43.4392958457493" lon="3.2338363680181046"><ele>108.0</ele><time>2026-04-06T10:57:47.001Z</time></trkpt><trkpt lat="43.43930162870337" lon="3.2337416056567725"><ele>108.0</ele><time>2026-04-06T10:57:48.001Z</time></trkpt><trkpt lat="43.43930704136582" lon="3.233645028628844"><ele>108.0</ele><time>2026-04-06T10:57:49.001Z</time></trkpt><trkpt lat="43.4393119993365" lon="3.233548977665515"><ele>108.0</ele><time>2026-04-06T10:57:50.001Z</time></trkpt><trkpt lat="43.439317035773634" lon="3.23345140685214"><ele>107.83333333333333</ele><time>2026-04-06T10:57:51.001Z</time></trkpt><trkpt lat="43.439306773919554" lon="3.233349088110786"><ele>107.66666666666666</ele><time>2026-04-06T10:57:52.001Z</time></trkpt><trkpt lat="43.439315061979364" lon="3.2332476831964696"><ele>107.5</ele><time>2026-04-06T10:57:53.001Z</time></trkpt><trkpt lat="43.43931681041284" lon="3.233143516404561"><ele>107.33333333333333</ele><time>2026-04-06T10:57:54.001Z</time></trkpt><trkpt lat="43.43932260402198" lon="3.2330361568804906"><ele>107.16666666666666</ele><time>2026-04-06T10:57:55.001Z</time></trkpt><trkpt lat="43.43933077642841" lon="3.2329321023074074"><ele>107.0</ele><time>2026-04-06T10:57:56.001Z</time></trkpt><trkpt lat="43.43933322409036" lon="3.232827256937621"><ele>106.16666666666666</ele><time>2026-04-06T10:57:57.001Z</time></trkpt><trkpt lat="43.43934075257317" lon="3.232721670066264"><ele>105.33333333333333</ele><time>2026-04-06T10:57:58.001Z</time></trkpt><trkpt lat="43.43936474188407" lon="3.2326208593650847"><ele>104.5</ele><time>2026-04-06T10:57:59.001Z</time></trkpt><trkpt lat="43.43935785213929" lon="3.23251140855305"><ele>103.66666666666666</ele><time>2026-04-06T10:58:00.001Z</time></trkpt><trkpt lat="43.43938109796068" lon="3.2324104842801047"><ele>102.83333333333333</ele><time>2026-04-06T10:58:01.001Z</time></trkpt><trkpt lat="43.43938904555922" lon="3.232308260954509"><ele>102.0</ele><time>2026-04-06T10:58:02.001Z</time></trkpt><trkpt lat="43.439384418741916" lon="3.232208691363213"><ele>101.85714285714286</ele><time>2026-04-06T10:58:03.001Z</time></trkpt><trkpt lat="43.43939799876915" lon="3.2321098928141754"><ele>101.71428571428572</ele><time>2026-04-06T10:58:04.001Z</time></trkpt><trkpt lat="43.43941360669297" lon="3.232005917244033"><ele>101.57142857142857</ele><time>2026-04-06T10:58:05.001Z</time></trkpt><trkpt lat="43.43942333700819" lon="3.231913859213223"><ele>101.42857142857143</ele><time>2026-04-06T10:58:06.001Z</time></trkpt><trkpt lat="43.4394213951967" lon="3.2318138666871734"><ele>101.28571428571428</ele><time>2026-04-06T10:58:07.001Z</time></trkpt><trkpt lat="43.439410518191835" lon="3.2317202134501466"><ele>101.14285714285714</ele><time>2026-04-06T10:58:08.001Z</time></trkpt><trkpt lat="43.43939639906441" lon="3.2316311581360697"><ele>101.0</ele><time>2026-04-06T10:58:09.001Z</time></trkpt><trkpt lat="43.43937870293629" lon="3.2315467629655186"><ele>100.8</ele><time>2026-04-06T10:58:10.001Z</time></trkpt><trkpt lat="43.43937469951435" lon="3.2313852439519843"><ele>100.6</ele><time>2026-04-06T10:58:12.001Z</time></trkpt><trkpt lat="43.439429295943626" lon="3.2312446974671656"><ele>100.4</ele><time>2026-04-06T10:58:14.001Z</time></trkpt><trkpt lat="43.439445550648884" lon="3.2310816716781514"><ele>100.2</ele><time>2026-04-06T10:58:16.001Z</time></trkpt><trkpt lat="43.439451016779046" lon="3.2309939670579055"><ele>100.0</ele><time>2026-04-06T10:58:17.002Z</time></trkpt><trkpt lat="43.439453944552895" lon="3.230903665443725"><ele>100.00000000000001</ele><time>2026-04-06T10:58:18.002Z</time></trkpt><trkpt lat="43.43945838650952" lon="3.230808666299319"><ele>100.0</ele><time>2026-04-06T10:58:19.002Z</time></trkpt><trkpt lat="43.439462888633024" lon="3.2307095045187784"><ele>100.0</ele><time>2026-04-06T10:58:20.002Z</time></trkpt><trkpt lat="43.439464542119175" lon="3.230607099302922"><ele>100.0</ele><time>2026-04-06T10:58:21.002Z</time></trkpt><trkpt lat="43.43947075636947" lon="3.230497236637923"><ele>100.00000000000001</ele><time>2026-04-06T10:58:22.002Z</time></trkpt><trkpt lat="43.439475215659094" lon="3.2303849837700302"><ele>100.0</ele><time>2026-04-06T10:58:23.002Z</time></trkpt><trkpt lat="43.439480964483415" lon="3.2302672015905434"><ele>99.66666666666667</ele><time>2026-04-06T10:58:24.002Z</time></trkpt><trkpt lat="43.439484936581266" lon="3.230143936510609"><ele>99.33333333333334</ele><time>2026-04-06T10:58:25.002Z</time></trkpt><trkpt lat="43.43949420307962" lon="3.230019904384041"><ele>99.0</ele><time>2026-04-06T10:58:26.002Z</time></trkpt><trkpt lat="43.43949766021482" lon="3.2298984386827887"><ele>98.66666666666666</ele><time>2026-04-06T10:58:27.002Z</time></trkpt><trkpt lat="43.43949944197051" lon="3.2297769444681124"><ele>98.33333333333333</ele><time>2026-04-06T10:58:28.002Z</time></trkpt><trkpt lat="43.43950606868501" lon="3.229656965209154"><ele>98.0</ele><time>2026-04-06T10:58:29.002Z</time></trkpt><trkpt lat="43.43952958444579" lon="3.229545989364737"><ele>97.33333333333333</ele><time>2026-04-06T10:58:30.002Z</time></trkpt><trkpt lat="43.439537040356875" lon="3.229441837245843"><ele>96.66666666666666</ele><time>2026-04-06T10:58:31.002Z</time></trkpt><trkpt lat="43.43956612586215" lon="3.2293026427782334"><ele>96.0</ele><time>2026-04-06T10:58:33.002Z</time></trkpt><trkpt lat="43.439654032039236" lon="3.229301854553145"><ele>95.33333333333333</ele><time>2026-04-06T10:58:36.002Z</time></trkpt><trkpt lat="43.43973462913101" lon="3.229299430720224"><ele>94.66666666666666</ele><time>2026-04-06T10:58:38.002Z</time></trkpt><trkpt lat="43.4398326939355" lon="3.2293045445757325"><ele>94.0</ele><time>2026-04-06T10:58:40.002Z</time></trkpt><trkpt lat="43.43993876120382" lon="3.229316805476265"><ele>94.0</ele><time>2026-04-06T10:58:42.002Z</time></trkpt><trkpt lat="43.44005574866141" lon="3.2293285956596596"><ele>94.0</ele><time>2026-04-06T10:58:44.002Z</time></trkpt><trkpt lat="43.44017118566246" lon="3.229334222813219"><ele>94.0</ele><time>2026-04-06T10:58:46Z</time></trkpt><trkpt lat="43.44028866748353" lon="3.2293383817669326"><ele>94.0</ele><time>2026-04-06T10:58:48Z</time></trkpt><trkpt lat="43.4404171243704" lon="3.2293429292483014"><ele>94.28571428571428</ele><time>2026-04-06T10:58:50Z</time></trkpt><trkpt lat="43.44048145008845" lon="3.229345217165893"><ele>94.57142857142857</ele><time>2026-04-06T10:58:51Z</time></trkpt><trkpt lat="43.440545753032104" lon="3.229349341189982"><ele>94.85714285714286</ele><time>2026-04-06T10:58:52Z</time></trkpt><trkpt lat="43.440614366319004" lon="3.2293548275431108"><ele>95.14285714285714</ele><time>2026-04-06T10:58:53Z</time></trkpt><trkpt lat="43.44068158381062" lon="3.2293644762944984"><ele>95.42857142857143</ele><time>2026-04-06T10:58:54Z</time></trkpt><trkpt lat="43.44074650897255" lon="3.2293841277634416"><ele>95.71428571428571</ele><time>2026-04-06T10:58:55Z</time></trkpt><trkpt lat="43.44081206783493" lon="3.2294190647751364"><ele>96.0</ele><time>2026-04-06T10:58:56Z</time></trkpt><trkpt lat="43.44087979948941" lon="3.2294480949808477"><ele>95.99999999999999</ele><time>2026-04-06T10:58:57Z</time></trkpt><trkpt lat="43.440940968018985" lon="3.229498061995713"><ele>96.0</ele><time>2026-04-06T10:58:58Z</time></trkpt><trkpt lat="43.44100384272294" lon="3.2295506694229728"><ele>96.0</ele><time>2026-04-06T10:58:59Z</time></trkpt><trkpt lat="43.44106594900745" lon="3.229611261235814"><ele>96.0</ele><time>2026-04-06T10:59:00Z</time></trkpt><trkpt lat="43.44111424188811" lon="3.229679353763434"><ele>96.0</ele><time>2026-04-06T10:59:01Z</time></trkpt><trkpt lat="43.44114965756909" lon="3.229751829643613"><ele>95.99999999999999</ele><time>2026-04-06T10:59:02Z</time></trkpt><trkpt lat="43.44122303008899" lon="3.2298275622825487"><ele>96.0</ele><time>2026-04-06T10:59:04Z</time></trkpt><trkpt lat="43.44131310450135" lon="3.2298662342391777"><ele>96.4</ele><time>2026-04-06T10:59:06Z</time></trkpt><trkpt lat="43.441410253590206" lon="3.229845330254542"><ele>96.8</ele><time>2026-04-06T10:59:08Z</time></trkpt><trkpt lat="43.44149206123088" lon="3.2298100468664193"><ele>97.2</ele><time>2026-04-06T10:59:10Z</time></trkpt><trkpt lat="43.44158647842432" lon="3.2297427408490256"><ele>97.60000000000001</ele><time>2026-04-06T10:59:12Z</time></trkpt><trkpt lat="43.441658039268795" lon="3.2296601189027325"><ele>98.0</ele><time>2026-04-06T10:59:14Z</time></trkpt><trkpt lat="43.441716525088815" lon="3.2295734083054017"><ele>98.0</ele><time>2026-04-06T10:59:16Z</time></trkpt><trkpt lat="43.44175844318807" lon="3.229475933779981"><ele>98.0</ele><time>2026-04-06T10:59:18Z</time></trkpt><trkpt lat="43.441793293632735" lon="3.2294010398872857"><ele>98.0</ele><time>2026-04-06T10:59:20Z</time></trkpt><trkpt lat="43.441831477793194" lon="3.229327407726283"><ele>98.0</ele><time>2026-04-06T10:59:22Z</time></trkpt><trkpt lat="43.44187581193551" lon="3.2292419162871293"><ele>98.0</ele><time>2026-04-06T10:59:24.001Z</time></trkpt><trkpt lat="43.44192078047902" lon="3.2291552015007534"><ele>98.0</ele><time>2026-04-06T10:59:26.001Z</time></trkpt><trkpt lat="43.44196473018022" lon="3.229070451386837"><ele>98.0</ele><time>2026-04-06T10:59:28.001Z</time></trkpt><trkpt lat="43.44199633984211" lon="3.2289698672296314"><ele>97.83333333333333</ele><time>2026-04-06T10:59:30.001Z</time></trkpt><trkpt lat="43.44204963953954" lon="3.2289097801860924"><ele>97.66666666666666</ele><time>2026-04-06T10:59:32.001Z</time></trkpt><trkpt lat="43.4421055165609" lon="3.2288068955196243"><ele>97.5</ele><time>2026-04-06T10:59:35.001Z</time></trkpt><trkpt lat="43.442178325174744" lon="3.228836001555965"><ele>97.33333333333334</ele><time>2026-04-06T10:59:39.001Z</time></trkpt><trkpt lat="43.44223517674055" lon="3.2288738141486486"><ele>97.16666666666667</ele><time>2026-04-06T10:59:41.001Z</time></trkpt><trkpt lat="43.44229621253876" lon="3.2289141924209996"><ele>97.0</ele><time>2026-04-06T10:59:43.001Z</time></trkpt><trkpt lat="43.44237807315531" lon="3.2289678955870853"><ele>98.0</ele><time>2026-04-06T10:59:46.001Z</time></trkpt><trkpt lat="43.44243808637295" lon="3.2290038153391944"><ele>99.0</ele><time>2026-04-06T10:59:48.001Z</time></trkpt><trkpt lat="43.44250162831161" lon="3.2290405266625792"><ele>100.0</ele><time>2026-04-06T10:59:50.001Z</time></trkpt><trkpt lat="43.44257061873334" lon="3.229077275969017"><ele>101.0</ele><time>2026-04-06T10:59:52.001Z</time></trkpt><trkpt lat="43.44264071246334" lon="3.2291098929152255"><ele>102.0</ele><time>2026-04-06T10:59:54.001Z</time></trkpt><trkpt lat="43.44271105676374" lon="3.229139964432696"><ele>103.0</ele><time>2026-04-06T10:59:56.001Z</time></trkpt><trkpt lat="43.442778209947484" lon="3.2291687443677883"><ele>104.0</ele><time>2026-04-06T10:59:58.001Z</time></trkpt><trkpt lat="43.442853836440406" lon="3.2292016285593426"><ele>103.99999999999999</ele><time>2026-04-06T11:00:00.001Z</time></trkpt><trkpt lat="43.442928778475924" lon="3.2292345851162283"><ele>104.0</ele><time>2026-04-06T11:00:02.001Z</time></trkpt><trkpt lat="43.4430025574428" lon="3.2292684363125557"><ele>104.0</ele><time>2026-04-06T11:00:04.001Z</time></trkpt><trkpt lat="43.44307351604856" lon="3.2293009934728087"><ele>104.0</ele><time>2026-04-06T11:00:06.001Z</time></trkpt><trkpt lat="43.44314587272424" lon="3.2293341920949206"><ele>103.99999999999999</ele><time>2026-04-06T11:00:08.001Z</time></trkpt><trkpt lat="43.443223189011825" lon="3.2293714333236667"><ele>104.0</ele><time>2026-04-06T11:00:10.001Z</time></trkpt><trkpt lat="43.443294928030255" lon="3.2294073325475647"><ele>105.16666666666666</ele><time>2026-04-06T11:00:12.001Z</time></trkpt><trkpt lat="43.44336132632579" lon="3.2294465960230205"><ele>106.33333333333333</ele><time>2026-04-06T11:00:14.001Z</time></trkpt><trkpt lat="43.44342370359065" lon="3.229501549500668"><ele>107.5</ele><time>2026-04-06T11:00:16.001Z</time></trkpt><trkpt lat="43.44348938568939" lon="3.229552534207064"><ele>108.66666666666666</ele><time>2026-04-06T11:00:18.001Z</time></trkpt><trkpt lat="43.44355869065228" lon="3.2296063311046743"><ele>109.83333333333333</ele><time>2026-04-06T11:00:20.001Z</time></trkpt><trkpt lat="43.44363215006695" lon="3.2296589408769596"><ele>111.0</ele><time>2026-04-06T11:00:22.001Z</time></trkpt><trkpt lat="43.44370930477243" lon="3.22970426926139"><ele>111.0</ele><time>2026-04-06T11:00:24.001Z</time></trkpt><trkpt lat="43.44378626350036" lon="3.2297369970399017"><ele>111.0</ele><time>2026-04-06T11:00:26.001Z</time></trkpt><trkpt lat="43.44386772691144" lon="3.229765093044782"><ele>111.0</ele><time>2026-04-06T11:00:28.001Z</time></trkpt><trkpt lat="43.44395087438517" lon="3.229790070242061"><ele>111.0</ele><time>2026-04-06T11:00:30.002Z</time></trkpt><trkpt lat="43.44403778055405" lon="3.2298091485338176"><ele>111.0</ele><time>2026-04-06T11:00:32.002Z</time></trkpt><trkpt lat="43.44412523454176" lon="3.22981586543627"><ele>111.0</ele><time>2026-04-06T11:00:34.002Z</time></trkpt><trkpt lat="43.444214267303835" lon="3.229793485542657"><ele>112.33333333333333</ele><time>2026-04-06T11:00:36.002Z</time></trkpt><trkpt lat="43.44429360192867" lon="3.2297389087032458"><ele>113.66666666666666</ele><time>2026-04-06T11:00:38.002Z</time></trkpt><trkpt lat="43.444368391035944" lon="3.2297092240120837"><ele>115.0</ele><time>2026-04-06T11:00:40.002Z</time></trkpt><trkpt lat="43.4444389537193" lon="3.2296950810466725"><ele>116.33333333333333</ele><time>2026-04-06T11:00:42.002Z</time></trkpt><trkpt lat="43.444497233863835" lon="3.229742993385728"><ele>117.66666666666666</ele><time>2026-04-06T11:00:44.002Z</time></trkpt><trkpt lat="43.444561944248925" lon="3.22980111846686"><ele>119.0</ele><time>2026-04-06T11:00:46.002Z</time></trkpt><trkpt lat="43.44465247827939" lon="3.229875483658782"><ele>119.71428571428572</ele><time>2026-04-06T11:00:48.002Z</time></trkpt><trkpt lat="43.44470744744513" lon="3.229920151599996"><ele>120.42857142857143</ele><time>2026-04-06T11:00:49.002Z</time></trkpt><trkpt lat="43.44476898119299" lon="3.2299670502865103"><ele>121.14285714285714</ele><time>2026-04-06T11:00:50.002Z</time></trkpt><trkpt lat="43.44483802715407" lon="3.230012823457553"><ele>121.85714285714286</ele><time>2026-04-06T11:00:51Z</time></trkpt><trkpt lat="43.44491395113447" lon="3.2300453927973085"><ele>122.57142857142858</ele><time>2026-04-06T11:00:52Z</time></trkpt><trkpt lat="43.44497883763273" lon="3.2300772654349825"><ele>123.28571428571429</ele><time>2026-04-06T11:00:53Z</time></trkpt><trkpt lat="43.44503449392348" lon="3.230119661402935"><ele>124.0</ele><time>2026-04-06T11:00:54Z</time></trkpt><trkpt lat="43.44508482532926" lon="3.2301749793046297"><ele>124.0</ele><time>2026-04-06T11:00:55Z</time></trkpt><trkpt lat="43.44517127261686" lon="3.2302920531001713"><ele>124.0</ele><time>2026-04-06T11:00:57Z</time></trkpt><trkpt lat="43.44525131964962" lon="3.2303862777389756"><ele>124.0</ele><time>2026-04-06T11:00:59Z</time></trkpt><trkpt lat="43.44531615054814" lon="3.2304574880084074"><ele>124.0</ele><time>2026-04-06T11:01:01Z</time></trkpt><trkpt lat="43.445382827451866" lon="3.2305253555647115"><ele>124.0</ele><time>2026-04-06T11:01:04Z</time></trkpt><trkpt lat="43.44545683215334" lon="3.2305949787047337"><ele>124.85714285714286</ele><time>2026-04-06T11:01:07Z</time></trkpt><trkpt lat="43.44553061008657" lon="3.230659711847399"><ele>125.71428571428572</ele><time>2026-04-06T11:01:10Z</time></trkpt><trkpt lat="43.44558975270377" lon="3.230703678824962"><ele>126.57142857142858</ele><time>2026-04-06T11:01:12Z</time></trkpt><trkpt lat="43.44565140800942" lon="3.2307359374172524"><ele>127.42857142857144</ele><time>2026-04-06T11:01:14Z</time></trkpt><trkpt lat="43.445712073994365" lon="3.2307643199084555"><ele>128.28571428571428</ele><time>2026-04-06T11:01:16Z</time></trkpt><trkpt lat="43.44577860339879" lon="3.2307939267568035"><ele>129.14285714285717</ele><time>2026-04-06T11:01:18Z</time></trkpt><trkpt lat="43.44584358104773" lon="3.2308175921317908"><ele>130.0</ele><time>2026-04-06T11:01:20Z</time></trkpt><trkpt lat="43.44591263894216" lon="3.2308399430374553"><ele>130.0</ele><time>2026-04-06T11:01:22Z</time></trkpt><trkpt lat="43.44598876170445" lon="3.2308624860709"><ele>130.0</ele><time>2026-04-06T11:01:24Z</time></trkpt><trkpt lat="43.446059213846425" lon="3.2308818891404125"><ele>130.0</ele><time>2026-04-06T11:01:26Z</time></trkpt><trkpt lat="43.44613190019729" lon="3.2309019075516385"><ele>130.0</ele><time>2026-04-06T11:01:28Z</time></trkpt><trkpt lat="43.4462140914084" lon="3.2309213683425586"><ele>130.0</ele><time>2026-04-06T11:01:30Z</time></trkpt><trkpt lat="43.44630926560176" lon="3.2309402618566825"><ele>130.0</ele><time>2026-04-06T11:01:32Z</time></trkpt><trkpt lat="43.446412268355736" lon="3.2309368879499907"><ele>129.2</ele><time>2026-04-06T11:01:34Z</time></trkpt><trkpt lat="43.44650643710506" lon="3.23093642602388"><ele>128.4</ele><time>2026-04-06T11:01:36Z</time></trkpt><trkpt lat="43.44660559038044" lon="3.230933101186244"><ele>127.6</ele><time>2026-04-06T11:01:38Z</time></trkpt><trkpt lat="43.44668896845126" lon="3.230914112659267"><ele>126.8</ele><time>2026-04-06T11:01:40Z</time></trkpt><trkpt lat="43.44675237259582" lon="3.230789409132131"><ele>126.0</ele><time>2026-04-06T11:01:42Z</time></trkpt><trkpt lat="43.44678075767117" lon="3.2307042299016318"><ele>126.0</ele><time>2026-04-06T11:01:43Z</time></trkpt><trkpt lat="43.44682669296596" lon="3.230634502430685"><ele>126.0</ele><time>2026-04-06T11:01:44Z</time></trkpt><trkpt lat="43.446884401336646" lon="3.2305280282325666"><ele>126.0</ele><time>2026-04-06T11:01:46Z</time></trkpt><trkpt lat="43.44695418393307" lon="3.230527638700979"><ele>126.0</ele><time>2026-04-06T11:01:49.001Z</time></trkpt><trkpt lat="43.446944376959635" lon="3.2306479288383265"><ele>126.0</ele><time>2026-04-06T11:01:52.001Z</time></trkpt><trkpt lat="43.44695769953498" lon="3.230790381704624"><ele>126.0</ele><time>2026-04-06T11:01:54.001Z</time></trkpt><trkpt lat="43.44694429671147" lon="3.2309298461861045"><ele>126.0</ele><time>2026-04-06T11:01:56.001Z</time></trkpt><trkpt lat="43.44697637457937" lon="3.2310561570573726"><ele>126.0</ele><time>2026-04-06T11:01:58.001Z</time></trkpt><trkpt lat="43.447031108152764" lon="3.2311079215396306"><ele>126.0</ele><time>2026-04-06T11:01:59.001Z</time></trkpt><trkpt lat="43.44711642632723" lon="3.231118072545393"><ele>126.0</ele><time>2026-04-06T11:02:00.001Z</time></trkpt><trkpt lat="43.44718563746016" lon="3.2311359589613917"><ele>126.0</ele><time>2026-04-06T11:02:01.001Z</time></trkpt><trkpt lat="43.4472628989488" lon="3.231121733267224"><ele>126.0</ele><time>2026-04-06T11:02:02.001Z</time></trkpt><trkpt lat="43.44733911962785" lon="3.231124906216355"><ele>124.14285714285714</ele><time>2026-04-06T11:02:03.001Z</time></trkpt><trkpt lat="43.44741434958873" lon="3.231128828715639"><ele>122.28571428571428</ele><time>2026-04-06T11:02:04.001Z</time></trkpt><trkpt lat="43.4474924024667" lon="3.231131354081497"><ele>120.42857142857143</ele><time>2026-04-06T11:02:05.001Z</time></trkpt><trkpt lat="43.44756998571811" lon="3.231129978918953"><ele>118.57142857142857</ele><time>2026-04-06T11:02:06.001Z</time></trkpt><trkpt lat="43.44764068409253" lon="3.2311241882034714"><ele>116.71428571428571</ele><time>2026-04-06T11:02:07.001Z</time></trkpt><trkpt lat="43.44771320719787" lon="3.2311109746801168"><ele>114.85714285714286</ele><time>2026-04-06T11:02:08.001Z</time></trkpt><trkpt lat="43.44778227947019" lon="3.2310918289572363"><ele>113.0</ele><time>2026-04-06T11:02:09.001Z</time></trkpt><trkpt lat="43.44784930996955" lon="3.231069153997729"><ele>112.99999999999999</ele><time>2026-04-06T11:02:10.001Z</time></trkpt><trkpt lat="43.44791346580802" lon="3.231047114969398"><ele>113.0</ele><time>2026-04-06T11:02:11.001Z</time></trkpt><trkpt lat="43.447975713257044" lon="3.2310242993035616"><ele>113.0</ele><time>2026-04-06T11:02:12.001Z</time></trkpt><trkpt lat="43.4480375942404" lon="3.231001617936621"><ele>113.0</ele><time>2026-04-06T11:02:13.001Z</time></trkpt><trkpt lat="43.44815672628652" lon="3.2309579522268748"><ele>112.99999999999999</ele><time>2026-04-06T11:02:15.001Z</time></trkpt><trkpt lat="43.44821782410055" lon="3.2309355579400822"><ele>113.0</ele><time>2026-04-06T11:02:16.001Z</time></trkpt><trkpt lat="43.44833709960755" lon="3.230892461761697"><ele>112.75</ele><time>2026-04-06T11:02:18.001Z</time></trkpt><trkpt lat="43.44845318938897" lon="3.2308535274565786"><ele>112.5</ele><time>2026-04-06T11:02:20.001Z</time></trkpt><trkpt lat="43.448573668417296" lon="3.230816648455144"><ele>112.25</ele><time>2026-04-06T11:02:22.001Z</time></trkpt><trkpt lat="43.44869683874144" lon="3.2307836040351603"><ele>112.0</ele><time>2026-04-06T11:02:24.001Z</time></trkpt><trkpt lat="43.448814420349755" lon="3.2307509091239894"><ele>113.0</ele><time>2026-04-06T11:02:26.001Z</time></trkpt><trkpt lat="43.44892926554508" lon="3.230718975118899"><ele>113.99999999999999</ele><time>2026-04-06T11:02:28.001Z</time></trkpt><trkpt lat="43.44903115399979" lon="3.2306913597678"><ele>114.99999999999999</ele><time>2026-04-06T11:02:30.001Z</time></trkpt><trkpt lat="43.44912566482905" lon="3.2306719874866987"><ele>116.0</ele><time>2026-04-06T11:02:32.001Z</time></trkpt><trkpt lat="43.449211226367055" lon="3.230672652751021"><ele>117.0</ele><time>2026-04-06T11:02:34.001Z</time></trkpt><trkpt lat="43.44930885183044" lon="3.2306778066092954"><ele>117.0</ele><time>2026-04-06T11:02:36.001Z</time></trkpt><trkpt lat="43.44943575302645" lon="3.230682055948588"><ele>117.0</ele><time>2026-04-06T11:02:38.001Z</time></trkpt><trkpt lat="43.4495099765106" lon="3.2306863029622335"><ele>117.0</ele><time>2026-04-06T11:02:39.001Z</time></trkpt><trkpt lat="43.44958669484914" lon="3.2306906927313226"><ele>117.0</ele><time>2026-04-06T11:02:40.001Z</time></trkpt><trkpt lat="43.44965856642951" lon="3.230700200603968"><ele>117.0</ele><time>2026-04-06T11:02:41.001Z</time></trkpt><trkpt lat="43.44971691721974" lon="3.2307448837578967"><ele>117.0</ele><time>2026-04-06T11:02:42.001Z</time></trkpt><trkpt lat="43.44977504429858" lon="3.230805813570806"><ele>116.33333333333333</ele><time>2026-04-06T11:02:43.001Z</time></trkpt><trkpt lat="43.449843724152394" lon="3.2308542697726343"><ele>115.66666666666666</ele><time>2026-04-06T11:02:44.001Z</time></trkpt><trkpt lat="43.44992637863144" lon="3.230861114030121"><ele>115.0</ele><time>2026-04-06T11:02:45.001Z</time></trkpt><trkpt lat="43.44998920155128" lon="3.2309067923838075"><ele>114.33333333333333</ele><time>2026-04-06T11:02:46.001Z</time></trkpt><trkpt lat="43.45005574440416" lon="3.2309354201727505"><ele>113.66666666666666</ele><time>2026-04-06T11:02:47.001Z</time></trkpt><trkpt lat="43.45014135963115" lon="3.231047836963564"><ele>113.0</ele><time>2026-04-06T11:02:49.001Z</time></trkpt><trkpt lat="43.45015052816662" lon="3.2311416294014013"><ele>112.99999999999999</ele><time>2026-04-06T11:02:50.001Z</time></trkpt><trkpt lat="43.450149110242826" lon="3.2312487548735334"><ele>113.0</ele><time>2026-04-06T11:02:51.002Z</time></trkpt><trkpt lat="43.450166091658566" lon="3.2313636887920794"><ele>113.0</ele><time>2026-04-06T11:02:52.002Z</time></trkpt><trkpt lat="43.45019965849934" lon="3.23147835901894"><ele>113.0</ele><time>2026-04-06T11:02:53.002Z</time></trkpt><trkpt lat="43.45024479396141" lon="3.2315838720965613"><ele>112.99999999999999</ele><time>2026-04-06T11:02:54.002Z</time></trkpt><trkpt lat="43.450289663816896" lon="3.2316792238782464"><ele>113.0</ele><time>2026-04-06T11:02:55.002Z</time></trkpt><trkpt lat="43.45033894683536" lon="3.2317696330354284"><ele>112.16666666666666</ele><time>2026-04-06T11:02:56.002Z</time></trkpt><trkpt lat="43.45039205499333" lon="3.2318572814820135"><ele>111.33333333333333</ele><time>2026-04-06T11:02:56.999Z</time></trkpt><trkpt lat="43.450447043472025" lon="3.2319367238595484"><ele>110.5</ele><time>2026-04-06T11:02:57.999Z</time></trkpt><trkpt lat="43.45050351099838" lon="3.2320083130486577"><ele>109.66666666666666</ele><time>2026-04-06T11:02:58.999Z</time></trkpt><trkpt lat="43.45056089141004" lon="3.2320760623289373"><ele>108.83333333333333</ele><time>2026-04-06T11:02:59.999Z</time></trkpt><trkpt lat="43.450617484075664" lon="3.2321388171564087"><ele>108.0</ele><time>2026-04-06T11:03:00.999Z</time></trkpt><trkpt lat="43.45067575724394" lon="3.232201084782365"><ele>107.14285714285714</ele><time>2026-04-06T11:03:01.999Z</time></trkpt><trkpt lat="43.45073282314638" lon="3.2322610748405616"><ele>106.28571428571428</ele><time>2026-04-06T11:03:02.999Z</time></trkpt><trkpt lat="43.450790017960244" lon="3.232319218438567"><ele>105.42857142857143</ele><time>2026-04-06T11:03:03.999Z</time></trkpt><trkpt lat="43.450848886164394" lon="3.232378796907356"><ele>104.57142857142857</ele><time>2026-04-06T11:03:04.999Z</time></trkpt><trkpt lat="43.45090488671871" lon="3.2324332223349255"><ele>103.71428571428572</ele><time>2026-04-06T11:03:05.999Z</time></trkpt><trkpt lat="43.450960643473536" lon="3.232487410489066"><ele>102.85714285714286</ele><time>2026-04-06T11:03:06.999Z</time></trkpt><trkpt lat="43.45101811287732" lon="3.232541627747874"><ele>102.0</ele><time>2026-04-06T11:03:07.999Z</time></trkpt><trkpt lat="43.45107570984302" lon="3.2325947207093244"><ele>102.0</ele><time>2026-04-06T11:03:08.999Z</time></trkpt><trkpt lat="43.451132838029075" lon="3.2326465186771522"><ele>102.0</ele><time>2026-04-06T11:03:10Z</time></trkpt><trkpt lat="43.45118968356354" lon="3.23269526471798"><ele>102.0</ele><time>2026-04-06T11:03:11Z</time></trkpt><trkpt lat="43.45124936086336" lon="3.2327426440678653"><ele>102.0</ele><time>2026-04-06T11:03:12Z</time></trkpt><trkpt lat="43.45130800598681" lon="3.232786216585552"><ele>102.0</ele><time>2026-04-06T11:03:13Z</time></trkpt><trkpt lat="43.451366523845984" lon="3.2328291425730122"><ele>102.0</ele><time>2026-04-06T11:03:14Z</time></trkpt><trkpt lat="43.45142542968512" lon="3.2328694144255596"><ele>102.0</ele><time>2026-04-06T11:03:15Z</time></trkpt><trkpt lat="43.451485005041036" lon="3.2329101439335886"><ele>102.0</ele><time>2026-04-06T11:03:16Z</time></trkpt><trkpt lat="43.45154782943138" lon="3.2329512180864683"><ele>102.0</ele><time>2026-04-06T11:03:17Z</time></trkpt><trkpt lat="43.451607006750834" lon="3.232989652532453"><ele>102.0</ele><time>2026-04-06T11:03:18Z</time></trkpt><trkpt lat="43.45166774120438" lon="3.233029098358077"><ele>102.0</ele><time>2026-04-06T11:03:19Z</time></trkpt><trkpt lat="43.45172735595248" lon="3.2330676266388263"><ele>102.0</ele><time>2026-04-06T11:03:20Z</time></trkpt><trkpt lat="43.45178771596811" lon="3.233105952894704"><ele>102.0</ele><time>2026-04-06T11:03:21Z</time></trkpt><trkpt lat="43.451845411150124" lon="3.233142587076764"><ele>102.0</ele><time>2026-04-06T11:03:22Z</time></trkpt><trkpt lat="43.45190405409444" lon="3.2331798231951354"><ele>102.16666666666667</ele><time>2026-04-06T11:03:23Z</time></trkpt><trkpt lat="43.45196169508388" lon="3.2332164229594187"><ele>102.33333333333334</ele><time>2026-04-06T11:03:24Z</time></trkpt><trkpt lat="43.45202012413396" lon="3.2332535249861873"><ele>102.5</ele><time>2026-04-06T11:03:25Z</time></trkpt><trkpt lat="43.4521323455757" lon="3.233324781230492"><ele>102.66666666666667</ele><time>2026-04-06T11:03:27Z</time></trkpt><trkpt lat="43.45219109145837" lon="3.2333617932281737"><ele>102.83333333333334</ele><time>2026-04-06T11:03:28Z</time></trkpt><trkpt lat="43.45230512742509" lon="3.2334321645007837"><ele>103.0</ele><time>2026-04-06T11:03:30Z</time></trkpt><trkpt lat="43.45241726101942" lon="3.233501361800714"><ele>103.0</ele><time>2026-04-06T11:03:32Z</time></trkpt><trkpt lat="43.45252802409845" lon="3.233569384658904"><ele>103.0</ele><time>2026-04-06T11:03:34Z</time></trkpt><trkpt lat="43.45264209783633" lon="3.233634296243793"><ele>103.0</ele><time>2026-04-06T11:03:36Z</time></trkpt><trkpt lat="43.452753361446526" lon="3.2336864184640874"><ele>103.0</ele><time>2026-04-06T11:03:38Z</time></trkpt><trkpt lat="43.452854814959714" lon="3.2337417239859434"><ele>102.60000000000001</ele><time>2026-04-06T11:03:40Z</time></trkpt><trkpt lat="43.45295735535605" lon="3.2338064597987892"><ele>102.2</ele><time>2026-04-06T11:03:42Z</time></trkpt><trkpt lat="43.45303658813148" lon="3.233797865397227"><ele>101.8</ele><time>2026-04-06T11:03:43Z</time></trkpt><trkpt lat="43.453101103441085" lon="3.2337242143974487"><ele>101.4</ele><time>2026-04-06T11:03:44Z</time></trkpt><trkpt lat="43.45316433897615" lon="3.233723827528765"><ele>101.0</ele><time>2026-04-06T11:03:45Z</time></trkpt><trkpt lat="43.45328439534589" lon="3.2337376687184087"><ele>101.0</ele><time>2026-04-06T11:03:47Z</time></trkpt><trkpt lat="43.45340376658962" lon="3.2337306056157376"><ele>101.0</ele><time>2026-04-06T11:03:49Z</time></trkpt><trkpt lat="43.453522200129854" lon="3.2337211871585065"><ele>101.0</ele><time>2026-04-06T11:03:51Z</time></trkpt><trkpt lat="43.453641980712" lon="3.233708702583792"><ele>101.0</ele><time>2026-04-06T11:03:53.001Z</time></trkpt><trkpt lat="43.45375663877043" lon="3.233670225278774"><ele>101.5</ele><time>2026-04-06T11:03:55.001Z</time></trkpt><trkpt lat="43.45386918004702" lon="3.2336528970699585"><ele>102.0</ele><time>2026-04-06T11:03:57.001Z</time></trkpt><trkpt lat="43.45398169347167" lon="3.23362826626397"><ele>102.5</ele><time>2026-04-06T11:03:59.001Z</time></trkpt><trkpt lat="43.45409785661907" lon="3.233621185176373"><ele>103.0</ele><time>2026-04-06T11:04:01.001Z</time></trkpt><trkpt lat="43.454208698046116" lon="3.2335737232346133"><ele>103.0</ele><time>2026-04-06T11:04:03.001Z</time></trkpt><trkpt lat="43.45432147820169" lon="3.2335516634977206"><ele>103.0</ele><time>2026-04-06T11:04:05.001Z</time></trkpt><trkpt lat="43.45442929613789" lon="3.2335267993728922"><ele>103.0</ele><time>2026-04-06T11:04:07.001Z</time></trkpt><trkpt lat="43.45453406082832" lon="3.233503621068517"><ele>103.0</ele><time>2026-04-06T11:04:09.001Z</time></trkpt><trkpt lat="43.454638775724554" lon="3.2334720274584434"><ele>103.0</ele><time>2026-04-06T11:04:11.001Z</time></trkpt><trkpt lat="43.454742975333076" lon="3.2334502384916517"><ele>103.60000000000001</ele><time>2026-04-06T11:04:13.001Z</time></trkpt><trkpt lat="43.45484474353294" lon="3.233422172875223"><ele>104.2</ele><time>2026-04-06T11:04:15.001Z</time></trkpt><trkpt lat="43.45494472213965" lon="3.2333943862972454"><ele>104.8</ele><time>2026-04-06T11:04:17.001Z</time></trkpt><trkpt lat="43.455037155120905" lon="3.2334456165384986"><ele>105.4</ele><time>2026-04-06T11:04:19.001Z</time></trkpt><trkpt lat="43.45508825443038" lon="3.2335752968070715"><ele>106.0</ele><time>2026-04-06T11:04:21.001Z</time></trkpt><trkpt lat="43.4551567769195" lon="3.2336647375102805"><ele>106.0</ele><time>2026-04-06T11:04:23.001Z</time></trkpt><trkpt lat="43.4552613897974" lon="3.233714660902745"><ele>106.0</ele><time>2026-04-06T11:04:25.001Z</time></trkpt><trkpt lat="43.45534282231052" lon="3.2337994097068288"><ele>106.0</ele><time>2026-04-06T11:04:27.001Z</time></trkpt><trkpt lat="43.45540691231992" lon="3.233920809366244"><ele>106.0</ele><time>2026-04-06T11:04:29.001Z</time></trkpt><trkpt lat="43.45548830483616" lon="3.2340045176873757"><ele>106.0</ele><time>2026-04-06T11:04:31.001Z</time></trkpt><trkpt lat="43.45556816427755" lon="3.234086489086335"><ele>106.6</ele><time>2026-04-06T11:04:33.001Z</time></trkpt><trkpt lat="43.45563945660903" lon="3.2341735496272355"><ele>107.19999999999999</ele><time>2026-04-06T11:04:35.001Z</time></trkpt><trkpt lat="43.455680074954365" lon="3.234294047688752"><ele>107.80000000000001</ele><time>2026-04-06T11:04:37.001Z</time></trkpt><trkpt lat="43.45573116475356" lon="3.2344158590116265"><ele>108.4</ele><time>2026-04-06T11:04:39.001Z</time></trkpt><trkpt lat="43.45578084285753" lon="3.234536952442485"><ele>109.0</ele><time>2026-04-06T11:04:41.001Z</time></trkpt><trkpt lat="43.455827771005524" lon="3.2346523587430194"><ele>109.00000000000001</ele><time>2026-04-06T11:04:43.001Z</time></trkpt><trkpt lat="43.45587261861852" lon="3.2347661031634876"><ele>109.0</ele><time>2026-04-06T11:04:45.001Z</time></trkpt><trkpt lat="43.45591709863748" lon="3.234886518850584"><ele>109.0</ele><time>2026-04-06T11:04:47.001Z</time></trkpt><trkpt lat="43.455956006445774" lon="3.23499714413288"><ele>109.0</ele><time>2026-04-06T11:04:49.001Z</time></trkpt><trkpt lat="43.45599246669149" lon="3.235100810305393"><ele>109.00000000000001</ele><time>2026-04-06T11:04:51.002Z</time></trkpt><trkpt lat="43.456026205579434" lon="3.235191174321744"><ele>109.0</ele><time>2026-04-06T11:04:53.002Z</time></trkpt><trkpt lat="43.45605923213598" lon="3.235279299125253"><ele>109.0</ele><time>2026-04-06T11:04:55.002Z</time></trkpt><trkpt lat="43.456085326786436" lon="3.23536544274922"><ele>109.0</ele><time>2026-04-06T11:04:57.002Z</time></trkpt><trkpt lat="43.45624527324866" lon="3.2354260395476597"><ele>109.0</ele><time>2026-04-06T11:05:00.002Z</time></trkpt><trkpt lat="43.45633607364976" lon="3.2354568861355526"><ele>109.0</ele><time>2026-04-06T11:05:03Z</time></trkpt><trkpt lat="43.45639838833459" lon="3.235474275436307"><ele>109.0</ele><time>2026-04-06T11:05:05Z</time></trkpt><trkpt lat="43.456462892279866" lon="3.235490865719248"><ele>110.85714285714286</ele><time>2026-04-06T11:05:07Z</time></trkpt><trkpt lat="43.45653459660061" lon="3.2355061050451837"><ele>112.71428571428572</ele><time>2026-04-06T11:05:09Z</time></trkpt><trkpt lat="43.45660704667048" lon="3.2355189197173613"><ele>114.57142857142856</ele><time>2026-04-06T11:05:11Z</time></trkpt><trkpt lat="43.45668276580668" lon="3.2355292543591756"><ele>116.42857142857142</ele><time>2026-04-06T11:05:13Z</time></trkpt><trkpt lat="43.456760733175784" lon="3.235535637947036"><ele>118.28571428571428</ele><time>2026-04-06T11:05:15Z</time></trkpt><trkpt lat="43.45683535282037" lon="3.235534345197333"><ele>120.14285714285712</ele><time>2026-04-06T11:05:17Z</time></trkpt><trkpt lat="43.45690871351271" lon="3.235524331474047"><ele>121.99999999999999</ele><time>2026-04-06T11:05:19Z</time></trkpt><trkpt lat="43.45698037571224" lon="3.235494970667299"><ele>121.99999999999999</ele><time>2026-04-06T11:05:21Z</time></trkpt><trkpt lat="43.45705412863063" lon="3.235466065705695"><ele>122.0</ele><time>2026-04-06T11:05:23Z</time></trkpt><trkpt lat="43.45712997914212" lon="3.235436338548311"><ele>122.0</ele><time>2026-04-06T11:05:25Z</time></trkpt><trkpt lat="43.457213849384125" lon="3.235403468392825"><ele>122.0</ele><time>2026-04-06T11:05:27Z</time></trkpt><trkpt lat="43.45723979990083" lon="3.2353112631744287"><ele>121.99999999999999</ele><time>2026-04-06T11:05:28Z</time></trkpt><trkpt lat="43.457315056412014" lon="3.235271688757467"><ele>122.0</ele><time>2026-04-06T11:05:30Z</time></trkpt><trkpt lat="43.457385772065685" lon="3.2352150788132352"><ele>128.0</ele><time>2026-04-06T11:05:32Z</time></trkpt><trkpt lat="43.45746713157219" lon="3.235161476895388"><ele>128.0</ele><time>2026-04-06T11:05:34Z</time></trkpt><trkpt lat="43.45754465659475" lon="3.235118538593694"><ele>128.0</ele><time>2026-04-06T11:05:36Z</time></trkpt><trkpt lat="43.4576140920336" lon="3.235079972419355"><ele>128.0</ele><time>2026-04-06T11:05:38Z</time></trkpt><trkpt lat="43.45766528627069" lon="3.2350244780819892"><ele>128.0</ele><time>2026-04-06T11:05:40Z</time></trkpt><trkpt lat="43.45765060432558" lon="3.23489784321302"><ele>128.0</ele><time>2026-04-06T11:05:43Z</time></trkpt></trkseg></trk></gpx>